# Wetter Temperatur Luftdruck Luftfeuchtigkeit Sichtweite Windgeschwindigkeit Windrichtung Zeit
1 Clear 26 1010 48 10000 1.54 0 10:50 14.08.2022
2 Clear 23 1010 57 10000 1.03 0 08:52 14.08.2022
3 Clear 19 1009 64 10000 2.06 40 06:22 14.08.2022
4 Clouds 21 1012 59 10000 1.03 0 02:57 14.08.2022
5 Clear 23 1012 52 10000 0.89 271 00:19 14.08.2022
6 Clear 24 1013 49 10000 0.89 75 22:56 13.08.2022
7 Clear 26 1011 41 10000 1.79 125 21:19 13.08.2022
8 Clear 27 1011 38 10000 2.57 150 20:43 13.08.2022
9 Clear 28 1011 37 10000 3.09 160 19:44 13.08.2022
10 Clear 30 1010 34 10000 3.09 190 17:59 13.08.2022
11 Clear 30 1010 35 10000 1.54 0 15:31 13.08.2022
12 Clear 29 1012 37 10000 2.57 0 14:28 13.08.2022
13 Clear 28 1011 38 10000 2.06 0 13:40 13.08.2022
14 Clear 27 1012 43 10000 2.06 170 11:52 13.08.2022
15 Clear 24 1013 50 10000 1.79 271 10:31 13.08.2022
16 Clear 21 1015 71 10000 1.54 50 08:45 13.08.2022
17 Clouds 19 1013 77 10000 1.03 0 05:34 13.08.2022
18 Thunderstorm 20 1015 72 10000 6.69 130 23:58 12.08.2022
19 Clouds 24 1013 49 10000 8.23 120 21:46 12.08.2022
20 Clouds 26 1011 45 10000 5.81 44 20:53 12.08.2022
21 Clouds 28 1010 41 10000 5.66 100 19:40 12.08.2022
22 Clouds 29 1011 41 10000 4.12 0 18:46 12.08.2022
23 Clear 30 1011 39 10000 4.92 100 17:21 12.08.2022
24 Clouds 30 1012 38 10000 5.14 130 15:49 12.08.2022
25 Clouds 29 1012 41 10000 6.17 140 14:29 12.08.2022
26 Clear 28 1014 45 10000 6.17 120 12:53 12.08.2022
27 Clear 25 1014 51 10000 4.02 54 10:35 12.08.2022
28 Clear 23 1013 54 10000 2.68 83 07:47 12.08.2022
29 Clouds 22 1012 56 10000 3.13 70 06:38 12.08.2022
30 Clouds 25 1015 46 10000 3.6 80 02:33 12.08.2022
31 Clouds 25 1012 46 10000 2.06 110 00:24 12.08.2022
32 Clear 25 1016 48 10000 2.06 110 23:35 11.08.2022
33 Clear 27 1014 43 10000 1.03 0 22:24 11.08.2022
34 Clouds 28 1014 40 10000 2.06 110 21:39 11.08.2022
35 Clear 28 1013 38 10000 2.57 120 20:45 11.08.2022
36 Clear 29 1013 38 10000 3.09 110 20:18 11.08.2022
37 Clear 30 1012 36 10000 3.6 140 19:32 11.08.2022
38 Clear 31 1013 35 10000 2.57 0 17:48 11.08.2022
39 Clear 31 1014 36 10000 2.57 110 16:34 11.08.2022
40 Clear 31 1016 38 10000 2.06 180 15:21 11.08.2022
41 Clear 29 1018 44 10000 2.57 150 12:41 11.08.2022
42 Clear 26 1019 56 10000 2.57 80 09:54 11.08.2022
43 Clouds 23 1017 61 10000 3.13 66 06:59 11.08.2022
44 Clouds 24 1018 53 10000 4.12 70 03:46 11.08.2022
45 Clouds 26 1017 47 10000 2.68 96 00:35 11.08.2022
46 Clear 27 1017 44 10000 3.6 120 22:22 10.08.2022
47 Clouds 28 1016 42 10000 2.68 52 21:24 10.08.2022
48 Clear 29 1016 41 10000 3.09 120 20:47 10.08.2022
49 Clear 31 1015 36 10000 3.6 100 18:55 10.08.2022
50 Clear 32 1017 36 10000 3.58 80 17:37 10.08.2022
51 Clear 32 1016 35 10000 3.09 0 16:33 10.08.2022
52 Clear 30 1019 42 10000 4.63 140 13:35 10.08.2022
53 Clear 29 1019 44 10000 4.12 110 12:27 10.08.2022
54 Clouds 26 1019 51 10000 3.13 96 08:55 10.08.2022
55 Clouds 25 1019 54 10000 4.02 102 08:31 10.08.2022
56 Clouds 24 1017 65 10000 2.68 88 06:22 10.08.2022
57 Clouds 25 1020 55 10000 2.57 80 02:45 10.08.2022
58 Clear 27 1018 52 10000 3.09 120 23:34 09.08.2022
59 Clear 28 1017 50 10000 2.68 152 22:55 09.08.2022
60 Clear 29 1017 50 10000 3.09 120 21:34 09.08.2022
61 Clear 31 1015 44 10000 3.6 130 19:34 09.08.2022
62 Clear 32 1015 42 10000 2.57 0 18:23 09.08.2022
63 Clear 32 1016 42 10000 3.6 110 17:26 09.08.2022
64 Clear 32 1016 41 10000 2.57 0 16:40 09.08.2022
65 Clouds 32 1017 42 10000 2.57 190 15:40 09.08.2022
66 Clear 29 1020 48 10000 3.09 160 12:25 09.08.2022
67 Clouds 26 1019 59 10000 3.13 109 09:22 09.08.2022
68 Clouds 25 1019 62 10000 2.68 59 08:26 09.08.2022
69 Clouds 23 1017 71 10000 1.54 110 07:18 09.08.2022
70 Clear 24 1018 70 10000 0.51 0 02:54 09.08.2022
71 Clear 25 1017 65 10000 0.51 0 23:26 08.08.2022
72 Clouds 25 1017 63 10000 0.51 0 22:52 08.08.2022
73 Clear 26 1017 67 10000 1.33 60 21:48 08.08.2022
74 Clear 29 1014 48 10000 2.06 170 20:51 08.08.2022
75 Clear 30 1014 45 10000 3.09 190 19:50 08.08.2022
76 Clouds 32 1013 43 10000 2.68 166 18:19 08.08.2022
77 Clouds 31 1015 44 10000 2.57 0 15:57 08.08.2022
78 Clouds 31 1015 44 10000 2.68 137 15:38 08.08.2022
79 Clear 29 1017 53 10000 2.06 110 12:39 08.08.2022
80 Clear 27 1017 58 10000 2.68 130 11:32 08.08.2022
81 Clouds 21 1016 76 10000 0.51 0 08:26 08.08.2022
82 Clear 21 1015 73 10000 2.57 70 05:33 08.08.2022
83 Rain 22 1016 66 10000 2.06 300 01:47 08.08.2022
84 Clouds 24 1014 75 10000 1.86 48 21:49 07.08.2022
85 Clouds 26 1016 51 10000 1.54 70 21:30 07.08.2022
86 Clouds 28 1014 51 10000 3.13 110 20:25 07.08.2022
87 Clouds 28 1014 50 10000 3.6 110 19:53 07.08.2022
88 Clouds 29 1014 49 10000 4.02 130 19:24 07.08.2022
89 Clouds 30 1013 47 10000 4.63 120 17:59 07.08.2022
90 Clear 30 1013 49 10000 5.66 120 16:53 07.08.2022
91 Clouds 30 1014 52 10000 4.02 131 15:45 07.08.2022
92 Clouds 29 1015 53 10000 4.47 161 14:32 07.08.2022
93 Clear 28 1016 58 10000 3.6 170 12:41 07.08.2022
94 Clouds 26 1017 61 10000 3.6 140 10:54 07.08.2022
95 Clear 25 1017 66 10000 3.09 90 10:21 07.08.2022
96 Clouds 22 1016 75 10000 4.63 40 04:41 07.08.2022
97 Clouds 22 1016 80 8356 2.28 15 02:35 07.08.2022
98 Clouds 24 1016 83 10000 4.05 121 22:40 06.08.2022
99 Clouds 24 1015 82 10000 3.91 124 22:18 06.08.2022
100 Clouds 32 1012 42 10000 5.14 70 19:48 06.08.2022
101 Clear 33 1012 40 10000 4.63 120 18:50 06.08.2022
102 Clear 34 1012 37 10000 4.12 190 17:48 06.08.2022
103 Clear 36 1011 35 10000 3.09 150 16:29 06.08.2022
104 Clear 35 1010 38 10000 2.24 163 13:51 06.08.2022
105 Clear 34 1013 41 10000 2.06 0 12:38 06.08.2022
106 Clear 32 1013 46 10000 2.57 170 11:21 06.08.2022
107 Clouds 28 1014 60 10000 1.03 0 09:41 06.08.2022
108 Clouds 24 1014 77 10000 3.09 70 07:28 06.08.2022
109 Clear 26 1012 69 10000 2.06 260 01:47 06.08.2022
110 Clear 29 1012 54 10000 3.09 230 22:36 05.08.2022
111 Clear 31 1011 48 10000 2.24 228 21:18 05.08.2022
112 Clouds 35 1010 32 10000 2.06 280 19:18 05.08.2022
113 Clear 35 1010 32 10000 3.09 250 18:41 05.08.2022
114 Clear 36 1011 33 10000 4.02 238 16:53 05.08.2022
115 Clear 36 1012 35 10000 3.13 121 15:25 05.08.2022
116 Clear 36 1011 33 10000 2.24 209 14:38 05.08.2022
117 Clear 35 1012 34 10000 2.57 140 13:38 05.08.2022
118 Clear 34 1012 38 10000 2.06 210 13:18 05.08.2022
119 Clear 33 1013 40 10000 2.68 159 11:55 05.08.2022
120 Clear 29 1014 51 10000 1.34 177 09:18 05.08.2022
121 Clear 26 1014 63 10000 1.54 190 07:53 05.08.2022
122 Clear 25 1014 65 10000 1.54 30 04:48 05.08.2022
123 Clear 28 1014 54 10000 0.51 0 23:36 04.08.2022
124 Clear 31 1013 42 10000 1.03 180 21:28 04.08.2022
125 Clear 32 1012 38 10000 1.54 180 20:57 04.08.2022
126 Clear 33 1013 36 10000 1.54 210 20:37 04.08.2022
127 Clear 35 1012 32 10000 2.68 208 18:59 04.08.2022
128 Clear 35 1012 32 10000 2.24 187 18:34 04.08.2022
129 Clear 35 1013 35 10000 2.57 220 15:53 04.08.2022
130 Clear 34 1014 37 10000 2.57 0 13:26 04.08.2022
131 Clear 34 1014 37 10000 2.57 0 13:26 04.08.2022
132 Clear 32 1015 40 10000 2.06 190 11:39 04.08.2022
133 Clear 30 1016 47 10000 1.03 0 10:22 04.08.2022
134 Clear 30 1016 48 10000 1.34 100 10:22 04.08.2022
135 Clear 25 1016 63 10000 0.51 0 07:47 04.08.2022
136 Clear 25 1016 64 10000 1.54 50 02:50 04.08.2022
137 Clear 26 1015 61 10000 1.54 20 00:43 04.08.2022
138 Clear 27 1015 58 10000 0.89 135 23:40 03.08.2022
139 Clear 30 1014 45 10000 1.03 190 21:31 03.08.2022
140 Clear 32 1013 39 10000 2.68 118 20:21 03.08.2022
141 Clear 33 1013 37 10000 2.57 160 19:24 03.08.2022
142 Clear 34 1014 36 10000 2.06 190 16:50 03.08.2022
143 Clear 34 1015 36 10000 2.06 0 16:22 03.08.2022
144 Clear 32 1015 39 10000 2.68 83 13:52 03.08.2022
145 Clear 30 1017 47 10000 2.57 80 10:56 03.08.2022
146 Clear 23 1017 70 10000 0.51 0 07:26 03.08.2022
147 Clear 24 1016 61 10000 1.54 60 04:22 03.08.2022
148 Clear 24 1017 62 10000 2.06 50 03:23 03.08.2022
149 Clear 26 1016 57 10000 1.54 60 00:49 03.08.2022
150 Clear 28 1015 50 10000 2.57 120 22:37 02.08.2022
151 Clear 28 1014 47 10000 2.57 110 21:51 02.08.2022
152 Clear 30 1015 45 10000 3.6 140 20:30 02.08.2022
153 Clear 32 1014 39 10000 2.68 148 17:52 02.08.2022
154 Clear 31 1015 41 10000 3.6 140 14:46 02.08.2022
155 Clouds 27 1016 51 10000 5.14 120 10:50 02.08.2022
156 Clouds 25 1016 58 10000 6.69 140 08:54 02.08.2022
157 Clouds 25 1016 58 10000 6.69 140 08:54 02.08.2022
158 Clouds 24 1015 64 10000 3.6 110 07:52 02.08.2022
159 Clear 22 1014 65 10000 0.51 0 04:59 02.08.2022
160 Clear 24 1013 51 10000 1.03 0 03:36 02.08.2022
161 Clear 28 1013 40 10000 2.24 255 23:32 01.08.2022
162 Clouds 28 1012 45 10000 1.54 220 21:54 01.08.2022
163 Clouds 32 1012 32 10000 1.54 220 20:40 01.08.2022
164 Clear 35 1011 25 10000 2.24 245 19:22 01.08.2022
165 Clear 35 1012 27 10000 2.68 265 17:22 01.08.2022
166 Clear 35 1012 27 10000 3.58 245 16:49 01.08.2022
167 Clear 35 1012 31 10000 2.57 220 15:48 01.08.2022
168 Clear 34 1012 30 10000 1.79 233 15:28 01.08.2022
169 Clear 33 1013 34 10000 2.24 166 13:39 01.08.2022
170 Clear 30 1015 45 10000 2.06 180 11:38 01.08.2022
171 Clear 28 1014 47 10000 2.57 120 09:38 01.08.2022
172 Clear 25 1015 58 10000 1.54 50 08:18 01.08.2022
173 Clear 22 1014 70 10000 0.51 0 04:43 01.08.2022
174 Clear 24 1014 62 10000 0.51 0 02:24 01.08.2022
175 Clear 26 1014 54 10000 1.03 200 22:54 31.07.2022
176 Clear 26 1013 53 10000 1.03 200 22:35 31.07.2022
177 Clear 30 1013 37 10000 1.54 250 20:44 31.07.2022
178 Clear 33 1012 32 10000 2.68 221 18:52 31.07.2022
179 Clear 33 1013 33 10000 3.6 210 17:34 31.07.2022
180 Clear 33 1013 32 10000 2.68 134 14:57 31.07.2022
181 Clear 31 1015 39 10000 1.54 0 13:19 31.07.2022
182 Clear 29 1016 44 10000 1.79 164 11:44 31.07.2022
183 Clear 25 1017 47 10000 1.03 0 08:47 31.07.2022
184 Clear 21 1016 62 10000 1.34 203 06:31 31.07.2022
185 Clear 22 1016 68 10000 1.03 340 02:31 31.07.2022
186 Clouds 26 1015 41 10000 2.06 330 22:50 30.07.2022
187 Clear 27 1014 53 10000 2.06 240 21:55 30.07.2022
188 Clear 27 1014 52 10000 2.06 240 21:37 30.07.2022
189 Clear 30 1013 39 10000 1.03 0 20:38 30.07.2022
190 Clear 31 1013 42 10000 2.57 260 19:57 30.07.2022
191 Clouds 32 1013 39 10000 3.6 220 18:20 30.07.2022
192 Clouds 31 1012 45 10000 2.57 200 16:40 30.07.2022
193 Clouds 31 1013 47 10000 2.57 0 15:33 30.07.2022
194 Clear 30 1013 54 10000 2.06 0 14:23 30.07.2022
195 Clear 28 1014 56 10000 2.06 260 12:33 30.07.2022
196 Clear 27 1014 59 10000 1.79 209 11:55 30.07.2022
197 Clear 24 1014 75 10000 1.54 230 10:20 30.07.2022
198 Clouds 22 1015 83 10000 1.03 0 09:32 30.07.2022
199 Mist 20 1013 91 3500 0.51 0 07:44 30.07.2022
200 Clouds 19 1014 95 10000 1.03 0 02:34 30.07.2022
201 Clouds 20 1014 95 10000 1.03 0 00:32 30.07.2022
202 Clouds 21 1014 93 10000 1.03 0 21:39 29.07.2022
203 Clouds 21 1013 93 8000 3.09 30 20:51 29.07.2022
204 Thunderstorm 20 1013 93 6000 1.54 0 19:47 29.07.2022
205 Rain 26 1012 71 10000 5.14 190 17:39 29.07.2022
206 Clouds 30 1014 53 10000 3.09 170 14:51 29.07.2022
207 Clouds 29 1014 52 10000 1.54 330 12:55 29.07.2022
208 Clouds 24 1016 69 10000 1.03 0 09:34 29.07.2022
209 Clouds 23 1015 72 10000 1.03 220 08:41 29.07.2022
210 Clouds 21 1013 83 10000 1.03 210 06:40 29.07.2022
211 Clouds 21 1014 79 10000 2.06 20 01:19 29.07.2022
212 Rain 23 1013 79 10000 2.06 340 21:45 28.07.2022
213 Rain 26 1012 51 10000 2.57 150 20:54 28.07.2022
214 Rain 28 1011 58 10000 3.09 140 20:21 28.07.2022
215 Rain 29 1012 56 10000 5.14 140 19:40 28.07.2022
216 Clouds 31 1010 48 10000 4.12 160 18:25 28.07.2022
217 Clear 32 1011 44 10000 4.12 130 17:42 28.07.2022
218 Clouds 32 1011 44 10000 4.47 163 16:41 28.07.2022
219 Clear 31 1012 46 10000 3.6 140 14:30 28.07.2022
220 Clouds 30 1013 51 10000 5.14 140 12:41 28.07.2022
221 Clouds 26 1014 58 10000 4.02 114 09:25 28.07.2022
222 Clear 23 1011 75 10000 3.09 80 05:45 28.07.2022
223 Clear 23 1011 75 10000 3.13 82 05:21 28.07.2022
224 Clear 26 1012 64 10000 1.79 103 00:28 28.07.2022
225 Clear 28 1010 57 10000 2.57 80 21:58 27.07.2022
226 Clear 30 1008 52 10000 2.06 130 20:20 27.07.2022
227 Clear 30 1008 49 10000 2.57 130 19:30 27.07.2022
228 Clouds 31 1010 48 10000 4.47 161 16:33 27.07.2022
229 Clouds 31 1010 47 10000 4.63 120 15:51 27.07.2022
230 Clouds 31 1010 45 10000 4.92 136 14:42 27.07.2022
231 Clouds 30 1010 47 10000 3.13 129 13:57 27.07.2022
232 Clear 27 1011 56 10000 1.54 0 11:18 27.07.2022
233 Clouds 22 1011 83 10000 1.54 30 07:53 27.07.2022
234 Clear 22 1011 80 10000 2.06 270 05:18 27.07.2022
235 Rain 22 1010 89 8975 2.24 96 23:29 26.07.2022
236 Rain 26 1007 69 10000 4.02 11 22:19 26.07.2022
237 Thunderstorm 31 1006 49 10000 4.12 120 21:18 26.07.2022
238 Clouds 33 1006 44 10000 4.63 140 19:33 26.07.2022
239 Clouds 34 1007 44 10000 4.12 130 18:41 26.07.2022
240 Clouds 35 1007 40 10000 2.68 183 17:54 26.07.2022
241 Clouds 35 1008 42 10000 2.57 190 15:46 26.07.2022
242 Clear 34 1010 42 10000 0.89 201 14:43 26.07.2022
243 Clear 32 1008 49 10000 3.13 196 12:33 26.07.2022
244 Clear 29 1009 58 10000 3.13 294 10:32 26.07.2022
245 Clear 24 1011 78 10000 1.03 0 08:27 26.07.2022
246 Clear 23 1010 80 10000 2.06 220 01:55 26.07.2022
247 Clouds 24 1011 71 10000 4.02 225 00:21 26.07.2022
248 Thunderstorm 25 1012 72 10000 4.92 52 22:40 25.07.2022
249 Thunderstorm 27 1011 68 9000 7.2 270 21:43 25.07.2022
250 Rain 31 1009 50 10000 1.54 240 20:43 25.07.2022
251 Rain 34 1008 40 10000 2.06 240 20:24 25.07.2022
252 Clear 35 1008 39 10000 2.68 231 19:25 25.07.2022
253 Clear 37 1009 37 10000 2.68 265 17:43 25.07.2022
254 Clear 37 1009 37 10000 3.09 0 17:20 25.07.2022
255 Clear 35 1012 35 10000 1.79 204 13:27 25.07.2022
256 Clear 32 1013 44 10000 2.57 70 10:54 25.07.2022
257 Clouds 27 1014 59 10000 3.13 113 07:53 25.07.2022
258 Clear 28 1014 60 10000 0.89 270 01:36 25.07.2022
259 Clear 29 1014 53 10000 0.89 103 23:45 24.07.2022
260 Clear 30 1014 50 10000 1.34 103 22:47 24.07.2022
261 Clear 32 1014 47 10000 2.06 120 21:42 24.07.2022
262 Clear 33 1013 46 10000 3.09 140 20:59 24.07.2022
263 Clear 33 1013 45 10000 3.09 140 20:41 24.07.2022
264 Clear 35 1012 42 10000 3.09 160 19:20 24.07.2022
265 Clear 35 1013 42 10000 3.09 0 17:57 24.07.2022
266 Clear 35 1012 42 10000 2.24 186 15:55 24.07.2022
267 Clouds 34 1016 50 10000 1.54 0 14:47 24.07.2022
268 Clouds 34 1013 46 10000 2.68 195 13:49 24.07.2022
269 Clouds 32 1016 53 10000 1.54 0 12:28 24.07.2022
270 Clouds 31 1016 56 10000 1.79 165 11:30 24.07.2022
271 Clouds 28 1017 67 10000 1.34 175 09:47 24.07.2022
272 Clouds 26 1017 76 10000 1.34 147 07:57 24.07.2022
273 Clear 26 1016 78 10000 1.03 0 07:31 24.07.2022
274 Clear 26 1015 69 10000 2.57 290 02:57 24.07.2022
275 Clear 29 1014 58 10000 2.57 240 22:52 23.07.2022
276 Clear 32 1013 51 10000 3.09 220 20:47 23.07.2022
277 Clouds 33 1013 50 10000 2.06 0 19:25 23.07.2022
278 Clouds 34 1013 48 10000 3.13 233 18:18 23.07.2022
279 Clear 35 1011 43 10000 2.68 219 17:27 23.07.2022
280 Clouds 35 1011 23 10000 1.1 231 16:22 23.07.2022
281 Clouds 34 1012 41 10000 3.13 259 15:21 23.07.2022
282 Clouds 35 1012 24 10000 1.36 210 14:52 23.07.2022
283 Clouds 34 1015 46 10000 2.57 0 14:21 23.07.2022
284 Clouds 32 1014 50 10000 2.24 217 11:55 23.07.2022
285 Clear 31 1015 49 10000 2.24 218 10:37 23.07.2022
286 Clear 30 1015 47 10000 3.58 297 09:34 23.07.2022
287 Clear 24 1015 67 10000 0.51 0 06:46 23.07.2022
288 Clear 26 1015 56 10000 1.54 280 03:37 23.07.2022
289 Clear 28 1015 52 10000 1.54 290 00:27 23.07.2022
290 Clear 32 1013 39 10000 0.51 0 21:28 22.07.2022
291 Clear 34 1013 34 10000 2.06 170 20:29 22.07.2022
292 Clear 37 1011 29 10000 2.68 163 18:41 22.07.2022
293 Clear 37 1013 27 10000 3.58 137 17:39 22.07.2022
294 Clear 37 1012 23 10000 3.13 170 15:46 22.07.2022
295 Clear 35 1014 26 10000 3.09 150 12:47 22.07.2022
296 Clear 31 1016 40 10000 2.06 100 09:56 22.07.2022
297 Clear 30 1016 42 10000 2.24 106 09:21 22.07.2022
298 Clear 27 1016 51 10000 1.54 60 07:51 22.07.2022
299 Clear 26 1016 59 10000 1.03 0 04:22 22.07.2022
300 Clear 30 1013 44 10000 1.03 0 23:29 21.07.2022
301 Clear 32 1014 40 10000 2.06 180 21:39 21.07.2022
302 Clear 35 1013 33 10000 1.79 186 19:41 21.07.2022
303 Clear 37 1013 29 10000 2.68 214 18:30 21.07.2022
304 Clear 36 1014 29 10000 3.09 130 17:21 21.07.2022
305 Clear 36 1016 28 10000 2.57 0 15:58 21.07.2022
306 Clear 36 1012 22 10000 3.13 186 14:46 21.07.2022
307 Clear 35 1014 25 10000 3.58 177 13:49 21.07.2022
308 Clear 33 1015 30 10000 3.58 154 11:48 21.07.2022
309 Clear 30 1016 39 10000 4.02 115 09:51 21.07.2022
310 Clear 28 1017 44 10000 3.09 90 08:53 21.07.2022
311 Clear 27 1016 48 10000 2.06 120 07:50 21.07.2022
312 Clouds 25 1017 53 10000 2.06 40 06:26 21.07.2022
313 Clouds 28 1016 42 10000 2.57 60 02:23 21.07.2022
314 Clouds 31 1015 36 10000 2.06 80 22:32 20.07.2022
315 Clouds 32 1016 33 10000 2.06 110 21:49 20.07.2022
316 Clear 33 1015 30 10000 2.57 140 20:46 20.07.2022
317 Clear 34 1014 28 10000 3.13 120 19:46 20.07.2022
318 Clear 36 1015 24 10000 3.09 140 18:53 20.07.2022
319 Clear 36 1015 23 10000 3.6 130 18:30 20.07.2022
320 Clear 36 1016 23 10000 3.09 160 17:24 20.07.2022
321 Clear 36 1015 28 10000 0.76 165 15:32 20.07.2022
322 Clear 35 1016 24 10000 2.68 176 14:35 20.07.2022
323 Clear 34 1018 27 10000 2.24 184 12:51 20.07.2022
324 Clear 32 1019 31 10000 2.57 90 10:29 20.07.2022
325 Clear 24 1019 56 10000 1.54 40 05:52 20.07.2022
326 Clear 28 1018 46 10000 2.06 90 00:58 20.07.2022
327 Clear 28 1018 45 10000 2.06 90 00:40 20.07.2022
328 Clear 30 1017 39 10000 1.54 90 22:35 19.07.2022
329 Clear 30 1017 38 10000 2.57 110 21:53 19.07.2022
330 Clear 32 1017 36 10000 3.6 130 20:49 19.07.2022
331 Clear 34 1017 30 10000 3.6 140 19:22 19.07.2022
332 Clear 35 1017 30 10000 3.09 140 18:35 19.07.2022
333 Clear 35 1017 30 10000 2.68 184 17:51 19.07.2022
334 Clear 34 1014 30 10000 2.68 186 15:21 19.07.2022
335 Clear 32 1019 36 10000 2.57 150 12:27 19.07.2022
336 Clear 31 1019 38 10000 4.47 95 11:31 19.07.2022
337 Clear 29 1020 45 10000 3.13 108 09:44 19.07.2022
338 Clouds 28 1020 48 10000 2.68 91 08:42 19.07.2022
339 Clear 25 1022 60 10000 1.54 40 07:19 19.07.2022
340 Clear 25 1021 61 10000 1.77 72 05:48 19.07.2022
341 Clear 25 1021 59 10000 2.12 69 04:59 19.07.2022
342 Clear 27 1019 53 10000 2.57 80 01:58 19.07.2022
343 Clear 29 1019 50 10000 3.6 90 23:50 18.07.2022
344 Clear 29 1019 50 10000 4.02 88 23:19 18.07.2022
345 Clear 30 1019 48 10000 3.58 89 22:22 18.07.2022
346 Clear 31 1017 44 10000 3.13 148 20:52 18.07.2022
347 Clear 33 1018 38 10000 4.12 130 19:33 18.07.2022
348 Clear 34 1020 38 10000 4.12 120 17:52 18.07.2022
349 Clear 34 1020 35 10000 3.09 170 15:57 18.07.2022
350 Clear 34 1018 33 10000 2.06 0 15:18 18.07.2022
351 Clear 32 1019 37 10000 3.6 140 13:24 18.07.2022
352 Clear 30 1021 38 10000 4.12 120 11:31 18.07.2022
353 Clear 28 1022 44 10000 4.92 144 09:43 18.07.2022
354 Clouds 26 1021 54 10000 3.13 106 07:45 18.07.2022
355 Clear 27 1020 57 10000 2.57 70 02:21 18.07.2022
356 Clear 29 1019 53 10000 2.57 90 22:51 17.07.2022
357 Clear 30 1019 53 10000 2.68 96 22:23 17.07.2022
358 Clear 31 1018 50 10000 3.09 120 21:24 17.07.2022
359 Clear 31 1018 48 10000 3.6 120 20:44 17.07.2022
360 Clear 34 1019 43 10000 2.57 130 19:34 17.07.2022
361 Clear 34 1016 39 10000 3.6 120 18:56 17.07.2022
362 Clear 35 1018 38 10000 3.6 120 17:39 17.07.2022
363 Clear 34 1018 40 10000 3.6 140 16:51 17.07.2022
364 Clear 35 1019 37 10000 3.09 160 16:27 17.07.2022
365 Clear 34 1018 36 10000 4.12 140 14:58 17.07.2022
366 Clear 32 1019 44 10000 4.63 110 13:34 17.07.2022
367 Clear 31 1020 46 10000 5.14 100 12:22 17.07.2022
368 Clouds 27 1020 58 10000 4.63 120 09:30 17.07.2022
369 Clear 25 1018 61 10000 2.06 90 05:54 17.07.2022
370 Clear 27 1017 60 10000 2.24 89 02:33 17.07.2022
371 Clear 29 1014 54 10000 1.54 160 23:21 16.07.2022
372 Clear 31 1013 48 10000 2.06 190 21:47 16.07.2022
373 Clear 34 1012 39 10000 2.68 233 19:53 16.07.2022
374 Clear 35 1013 36 10000 2.06 170 18:35 16.07.2022
375 Clouds 35 1016 39 10000 0.89 161 17:19 16.07.2022
376 Clouds 33 1014 43 10000 1.2 134 14:31 16.07.2022
377 Clear 29 1016 50 10000 3.09 150 11:38 16.07.2022
378 Clear 27 1016 56 10000 3.09 100 09:35 16.07.2022
379 Clear 26 1016 57 10000 3.58 101 08:47 16.07.2022
380 Clear 26 1016 58 10000 2.68 103 08:29 16.07.2022
381 Clear 25 1013 61 10000 1.03 0 04:28 16.07.2022
382 Clear 25 1014 61 10000 1.03 0 03:29 16.07.2022
383 Clouds 28 1012 52 10000 3.09 260 23:38 15.07.2022
384 Clear 29 1012 50 10000 2.68 254 22:41 15.07.2022
385 Clear 31 1010 45 10000 3.13 187 21:29 15.07.2022
386 Clear 34 1010 38 10000 4.02 234 20:31 15.07.2022
387 Clear 36 1009 30 10000 4.02 212 18:44 15.07.2022
388 Clear 37 1009 28 10000 2.57 0 17:44 15.07.2022
389 Clear 36 1012 40 10000 2.57 240 14:54 15.07.2022
390 Clear 34 1012 45 10000 2.68 182 13:18 15.07.2022
391 Clear 32 1011 44 10000 3.13 192 11:44 15.07.2022
392 Clear 30 1012 53 10000 3.09 260 10:23 15.07.2022
393 Clear 24 1013 59 10000 2.24 251 06:30 15.07.2022
394 Clear 26 1015 45 10000 2.57 260 01:32 15.07.2022
395 Clear 28 1015 42 10000 2.68 230 00:22 15.07.2022
396 Clear 29 1015 48 10000 3.58 209 22:52 14.07.2022
397 Clear 30 1014 46 10000 1.54 200 21:51 14.07.2022
398 Clear 31 1015 44 10000 1.54 210 21:30 14.07.2022
399 Clear 32 1014 41 10000 2.06 210 20:45 14.07.2022
400 Clear 33 1014 36 10000 2.68 237 20:21 14.07.2022
401 Clear 34 1014 36 10000 1.54 0 19:18 14.07.2022
402 Clouds 34 1015 32 10000 1.79 181 16:23 14.07.2022
403 Clouds 33 1018 40 10000 1.03 0 15:32 14.07.2022
404 Clouds 32 1018 40 10000 1.03 0 13:59 14.07.2022
405 Clear 31 1018 41 10000 2.57 0 12:58 14.07.2022
406 Clear 31 1018 43 10000 2.24 181 11:47 14.07.2022
407 Clear 30 1018 44 10000 2.06 0 11:23 14.07.2022
408 Clouds 28 1020 49 10000 1.34 106 09:54 14.07.2022
409 Clear 24 1020 64 10000 1.54 40 07:47 14.07.2022
410 Clear 25 1020 62 10000 0.51 0 01:25 14.07.2022
411 Clear 25 1020 62 10000 0.51 0 00:53 14.07.2022
412 Clear 27 1019 53 10000 1.03 200 22:33 13.07.2022
413 Clear 28 1019 49 10000 1.03 190 21:57 13.07.2022
414 Clear 30 1019 43 10000 2.57 200 20:53 13.07.2022
415 Clear 32 1019 39 10000 2.06 240 19:30 13.07.2022
416 Clear 33 1020 38 10000 2.57 0 17:51 13.07.2022
417 Clouds 32 1021 38 10000 2.06 140 16:40 13.07.2022
418 Clouds 32 1019 37 10000 2.68 207 15:24 13.07.2022
419 Clear 30 1020 44 10000 1.79 147 12:55 13.07.2022
420 Clear 27 1023 52 10000 4.12 130 10:46 13.07.2022
421 Clear 27 1023 53 10000 4.63 120 10:24 13.07.2022
422 Clear 25 1023 59 10000 5.14 110 09:24 13.07.2022
423 Clear 22 1021 65 10000 2.68 80 06:20 13.07.2022
424 Clear 25 1020 58 10000 4.47 114 02:21 13.07.2022
425 Clouds 27 1019 55 10000 3.09 120 23:45 12.07.2022
426 Clear 28 1018 52 10000 3.09 130 21:57 12.07.2022
427 Clear 29 1018 50 10000 4.12 140 21:29 12.07.2022
428 Clear 30 1017 47 10000 3.09 140 20:41 12.07.2022
429 Clear 31 1015 41 10000 2.57 140 19:26 12.07.2022
430 Clouds 32 1017 40 10000 1.79 193 17:49 12.07.2022
431 Clouds 32 1016 37 10000 2.57 140 15:57 12.07.2022
432 Clouds 30 1016 41 10000 1.34 150 14:31 12.07.2022
433 Clear 28 1020 48 10000 4.47 112 12:29 12.07.2022
434 Clear 27 1020 50 10000 3.6 130 11:22 12.07.2022
435 Clouds 25 1020 56 10000 4.63 110 09:38 12.07.2022
436 Clouds 24 1019 54 10000 5.36 103 08:19 12.07.2022
437 Clouds 22 1019 58 10000 2.06 90 06:29 12.07.2022
438 Clear 23 1019 56 10000 3.09 80 05:39 12.07.2022
439 Clear 24 1018 56 10000 4.12 80 02:21 12.07.2022
440 Clouds 27 1017 49 10000 2.57 110 23:28 11.07.2022
441 Clouds 28 1016 50 10000 2.06 110 22:30 11.07.2022
442 Clear 30 1014 44 10000 3.09 120 20:33 11.07.2022
443 Clear 31 1015 37 10000 3.6 130 19:36 11.07.2022
444 Clear 32 1013 30 10000 3.6 150 18:32 11.07.2022
445 Clear 32 1015 36 10000 3.6 160 17:46 11.07.2022
446 Clear 32 1014 34 10000 3.6 140 16:19 11.07.2022
447 Clear 31 1016 39 10000 2.57 130 14:38 11.07.2022
448 Clear 28 1017 45 10000 4.92 147 11:49 11.07.2022
449 Clear 27 1017 53 10000 5.14 100 10:29 11.07.2022
450 Clear 26 1017 55 10000 5.66 100 09:42 11.07.2022
451 Clear 25 1017 52 10000 5.81 143 08:34 11.07.2022
452 Clear 22 1016 56 10000 2.06 110 05:51 11.07.2022
453 Clear 26 1014 42 10000 2.68 253 00:22 11.07.2022
454 Clear 27 1014 40 10000 2.24 296 22:58 10.07.2022
455 Clear 29 1012 34 10000 1.79 247 21:51 10.07.2022
456 Clear 31 1012 33 10000 3.58 232 20:54 10.07.2022
457 Clear 32 1012 31 10000 4.02 191 19:50 10.07.2022
458 Clear 33 1012 30 10000 4.92 223 18:49 10.07.2022
459 Clear 33 1012 29 10000 4.02 220 17:37 10.07.2022
460 Clear 33 1013 29 10000 6.71 220 16:57 10.07.2022
461 Clear 32 1013 29 10000 5.36 228 15:33 10.07.2022
462 Clear 31 1013 31 10000 6.71 229 14:30 10.07.2022
463 Clear 30 1014 32 10000 4.02 237 12:29 10.07.2022
464 Clear 28 1014 35 10000 3.13 231 11:20 10.07.2022
465 Clear 25 1018 45 10000 1.54 30 08:45 10.07.2022
466 Clear 21 1017 61 10000 1.54 10 07:39 10.07.2022
467 Clouds 22 1017 51 10000 2.57 40 02:47 10.07.2022
468 Clouds 26 1018 48 10000 3.09 110 22:51 09.07.2022
469 Clouds 26 1018 47 10000 3.09 120 22:24 09.07.2022
470 Clear 27 1017 44 10000 4.12 130 21:28 09.07.2022
471 Clouds 31 1017 37 10000 4.63 120 18:43 09.07.2022
472 Clouds 31 1017 36 10000 3.6 140 17:45 09.07.2022
473 Rain 30 1018 35 10000 3.09 0 16:44 09.07.2022
474 Clear 31 1017 34 10000 4.12 140 15:41 09.07.2022
475 Clear 30 1017 34 10000 3.09 150 14:43 09.07.2022
476 Clear 29 1019 36 10000 4.92 177 13:50 09.07.2022
477 Clear 29 1020 39 10000 4.12 130 12:47 09.07.2022
478 Clear 27 1020 40 10000 4.12 130 11:31 09.07.2022
479 Clear 26 1021 42 10000 5.66 100 10:23 09.07.2022
480 Clear 24 1022 49 10000 2.57 100 07:53 09.07.2022
481 Clear 20 1021 59 10000 1.54 50 05:24 09.07.2022
482 Clear 23 1020 51 10000 3.13 69 02:34 09.07.2022
483 Clear 26 1018 45 10000 1.34 45 22:59 08.07.2022
484 Clear 28 1018 38 10000 2.24 68 21:59 08.07.2022
485 Clear 30 1017 34 10000 3.6 140 20:42 08.07.2022
486 Clear 30 1017 33 10000 4.12 150 20:23 08.07.2022
487 Clear 32 1017 30 10000 3.6 180 18:26 08.07.2022
488 Clear 32 1018 30 10000 3.6 180 17:21 08.07.2022
489 Clear 31 1018 31 10000 6.26 166 14:54 08.07.2022
490 Clear 30 1018 35 10000 3.6 190 13:45 08.07.2022
491 Clear 28 1019 41 10000 2.57 190 11:59 08.07.2022
492 Clear 26 1019 51 10000 2.57 210 10:37 08.07.2022
493 Clear 23 1020 63 10000 1.34 206 08:37 08.07.2022
494 Clear 20 1019 75 10000 1.03 0 06:50 08.07.2022
495 Clear 22 1017 69 10000 5.66 110 01:31 08.07.2022
496 Clear 27 1015 40 10000 9.77 10 23:22 07.07.2022
497 Clear 29 1016 24 10000 10.8 10 22:35 07.07.2022
498 Clear 31 1012 20 10000 6.17 350 20:36 07.07.2022
499 Clear 33 1012 32 10000 2.57 220 18:20 07.07.2022
500 Clear 33 1012 31 10000 2.68 201 16:53 07.07.2022
501 Clear 31 1014 37 10000 3.13 173 14:35 07.07.2022
502 Clear 30 1015 41 10000 4.12 130 13:25 07.07.2022
503 Clear 29 1016 43 10000 4.02 116 12:24 07.07.2022
504 Clear 28 1016 47 10000 4.12 140 11:45 07.07.2022
505 Clear 28 1016 49 10000 4.63 140 11:27 07.07.2022
506 Clear 27 1017 51 10000 6.17 140 10:42 07.07.2022
507 Clear 27 1017 52 10000 5.66 140 10:24 07.07.2022
508 Clear 22 1016 73 10000 2.06 60 06:58 07.07.2022
509 Clouds 24 1016 70 10000 2.06 90 01:51 07.07.2022
510 Clouds 25 1016 68 10000 2.79 65 23:36 06.07.2022
511 Clear 28 1015 54 10000 2.06 80 23:18 06.07.2022
512 Clear 28 1014 53 10000 2.06 80 22:52 06.07.2022
513 Clear 28 1015 53 10000 2.06 100 22:34 06.07.2022
514 Clear 30 1013 46 10000 3.09 150 20:36 06.07.2022
515 Clear 31 1015 45 10000 2.57 160 19:34 06.07.2022
516 Clear 32 1014 40 10000 4.02 57 17:32 06.07.2022
517 Clouds 32 1015 40 10000 3.58 164 15:59 06.07.2022
518 Clouds 31 1016 42 10000 3.13 134 13:56 06.07.2022
519 Clouds 29 1017 49 10000 4.47 92 12:30 06.07.2022
520 Clouds 29 1018 50 10000 4.47 92 12:30 06.07.2022
521 Clear 28 1018 50 10000 3.58 113 11:44 06.07.2022
522 Clear 26 1018 58 10000 4.12 70 10:18 06.07.2022
523 Clouds 24 1016 65 10000 3.09 90 07:44 06.07.2022
524 Clouds 23 1017 67 10000 3.09 110 07:19 06.07.2022
525 Clouds 27 1015 59 10000 2.57 80 01:20 06.07.2022
526 Clouds 29 1013 44 10000 1.54 230 22:44 05.07.2022
527 Clouds 31 1012 42 10000 3.58 245 21:29 05.07.2022
528 Clear 33 1012 37 10000 4.02 251 20:35 05.07.2022
529 Clouds 34 1012 35 10000 2.68 254 19:40 05.07.2022
530 Clouds 35 1012 33 10000 4.02 249 18:23 05.07.2022
531 Clouds 34 1012 33 10000 4.63 210 17:39 05.07.2022
532 Clouds 34 1011 34 10000 2.68 168 16:36 05.07.2022
533 Clear 34 1012 35 10000 3.09 210 14:55 05.07.2022
534 Clear 33 1013 38 10000 3.58 240 13:36 05.07.2022
535 Clear 31 1014 45 10000 2.57 230 12:41 05.07.2022
536 Clear 28 1012 57 10000 2.06 230 10:46 05.07.2022
537 Clear 27 1013 60 10000 2.68 261 09:58 05.07.2022
538 Clear 23 1014 76 10000 1.03 0 08:23 05.07.2022
539 Clear 21 1014 83 10000 2.06 250 07:20 05.07.2022
540 Clouds 20 1013 85 10000 1.54 0 04:39 05.07.2022
541 Clear 22 1015 74 10000 4.02 273 01:33 05.07.2022
542 Clear 23 1015 74 10000 2.57 200 23:38 04.07.2022
543 Clouds 23 1015 73 10000 2.06 190 22:58 04.07.2022
544 Clouds 24 1014 66 10000 3.13 144 22:19 04.07.2022
545 Clouds 25 1013 66 10000 3.58 355 20:57 04.07.2022
546 Clouds 26 1012 31 10000 2.82 236 20:37 04.07.2022
547 Clouds 24 1012 31 10000 2.84 235 19:57 04.07.2022
548 Rain 26 1010 24 10000 2.61 281 19:37 04.07.2022
549 Rain 31 1013 42 10000 1.03 0 18:54 04.07.2022
550 Clouds 35 1015 38 10000 3.09 60 16:58 04.07.2022
551 Clear 34 1012 31 10000 4.02 184 15:40 04.07.2022
552 Clear 33 1013 37 10000 4.02 93 14:19 04.07.2022
553 Clouds 32 1015 41 10000 4.12 60 12:55 04.07.2022
554 Clouds 29 1016 56 10000 1.54 320 10:57 04.07.2022
555 Clouds 28 1016 54 10000 1.34 10 10:27 04.07.2022
556 Clouds 27 1016 60 10000 3.09 100 09:21 04.07.2022
557 Clouds 24 1016 58 10000 1.03 0 06:27 04.07.2022
558 Clouds 27 1015 47 10000 4.92 16 01:49 04.07.2022
559 Clear 27 1016 54 10000 0.51 0 23:52 03.07.2022
560 Clouds 29 1014 46 10000 2.06 180 22:29 03.07.2022
561 Clouds 33 1014 35 10000 1.54 200 20:45 03.07.2022
562 Clear 35 1014 33 10000 2.68 317 19:43 03.07.2022
563 Clear 35 1014 33 10000 3.09 260 19:24 03.07.2022
564 Clear 36 1014 33 10000 4.02 276 18:23 03.07.2022
565 Clear 36 1014 33 10000 2.24 258 17:31 03.07.2022
566 Clear 35 1015 34 10000 4.02 206 15:26 03.07.2022
567 Clouds 35 1015 34 10000 2.57 220 14:49 03.07.2022
568 Clear 34 1015 37 10000 2.68 219 13:49 03.07.2022
569 Clear 33 1016 40 10000 2.24 143 12:42 03.07.2022
570 Clear 32 1016 45 10000 3.58 167 11:46 03.07.2022
571 Clear 31 1016 43 10000 2.06 160 10:40 03.07.2022
572 Clear 30 1016 44 10000 2.68 166 10:20 03.07.2022
573 Clear 25 1017 61 10000 0.51 0 07:38 03.07.2022
574 Clear 23 1016 64 10000 1.03 170 05:34 03.07.2022
575 Clear 27 1016 52 10000 1.34 5 00:26 03.07.2022
576 Clear 29 1016 46 10000 2.24 293 22:37 02.07.2022
577 Clear 29 1016 46 10000 1.34 257 22:18 02.07.2022
578 Clear 33 1016 33 10000 2.24 192 20:21 02.07.2022
579 Clear 33 1016 32 10000 2.06 150 19:49 02.07.2022
580 Clear 33 1017 33 10000 2.24 63 17:59 02.07.2022
581 Clear 33 1017 33 10000 2.68 160 17:37 02.07.2022
582 Clear 33 1017 36 10000 3.13 187 15:37 02.07.2022
583 Clear 31 1018 46 10000 2.68 138 12:49 02.07.2022
584 Clear 29 1018 47 10000 2.06 110 11:28 02.07.2022
585 Clear 29 1018 51 10000 3.13 121 10:48 02.07.2022
586 Clear 27 1018 52 10000 2.24 45 09:49 02.07.2022
587 Clear 25 1018 60 10000 1.54 80 08:37 02.07.2022
588 Clear 24 1018 61 10000 1.54 70 08:19 02.07.2022
589 Clear 23 1015 66 10000 2.06 260 02:53 02.07.2022
590 Clear 25 1015 58 10000 3.58 244 00:27 02.07.2022
591 Clear 26 1013 54 10000 4.47 233 22:59 01.07.2022
592 Clear 27 1013 52 10000 3.58 236 22:26 01.07.2022
593 Clear 28 1013 52 10000 1.34 268 21:37 01.07.2022
594 Clear 30 1013 46 10000 2.06 210 20:58 01.07.2022
595 Clouds 31 1012 38 10000 2.06 220 19:48 01.07.2022
596 Clouds 32 1012 37 10000 4.02 251 19:22 01.07.2022
597 Clouds 31 1012 39 10000 2.57 180 16:38 01.07.2022
598 Clear 30 1011 42 10000 3.09 180 14:21 01.07.2022
599 Clear 30 1012 42 10000 4.02 232 13:23 01.07.2022
600 Clear 27 1012 48 10000 3.13 239 10:53 01.07.2022
601 Clear 26 1011 51 10000 3.13 214 10:19 01.07.2022
602 Clear 22 1012 72 10000 1.54 20 06:20 01.07.2022
603 Clear 24 1012 41 10000 2.57 280 01:57 01.07.2022
604 Clear 24 1011 66 10000 0.51 0 23:34 30.06.2022
605 Clear 26 1011 57 10000 1.03 0 22:47 30.06.2022
606 Clear 26 1011 61 10000 1.03 230 22:27 30.06.2022
607 Clouds 27 1010 51 10000 1.03 0 21:51 30.06.2022
608 Clouds 30 1010 51 10000 1.54 210 20:41 30.06.2022
609 Clear 31 1009 47 10000 2.57 170 19:55 30.06.2022
610 Clear 31 1009 47 10000 2.68 175 19:35 30.06.2022
611 Clear 31 1010 45 10000 2.57 180 18:43 30.06.2022
612 Clouds 32 1010 44 10000 2.24 223 17:49 30.06.2022
613 Clouds 31 1010 45 10000 2.68 188 16:55 30.06.2022
614 Clouds 31 1011 45 10000 3.13 161 15:50 30.06.2022
615 Clouds 30 1011 49 10000 2.68 135 13:51 30.06.2022
616 Clouds 30 1011 51 10000 2.24 178 13:18 30.06.2022
617 Clouds 29 1011 53 10000 2.68 149 12:32 30.06.2022
618 Clear 26 1012 61 10000 2.57 230 10:19 30.06.2022
619 Clear 25 1011 65 10000 2.06 260 09:40 30.06.2022
620 Clear 24 1012 72 10000 2.57 290 08:22 30.06.2022
621 Clear 23 1012 76 10000 1.54 290 07:40 30.06.2022
622 Clear 22 1011 73 10000 1.54 290 03:35 30.06.2022
623 Clear 25 1011 65 10000 3.09 260 23:38 29.06.2022
624 Clear 26 1010 60 10000 3.58 222 22:41 29.06.2022
625 Clear 27 1009 53 10000 2.68 215 21:59 29.06.2022
626 Clouds 30 1008 46 10000 2.68 171 20:35 29.06.2022
627 Clear 31 1008 43 10000 3.58 212 19:56 29.06.2022
628 Clear 32 1009 39 10000 3.13 212 17:55 29.06.2022
629 Clear 32 1009 40 10000 3.58 222 16:55 29.06.2022
630 Clear 31 1009 41 10000 2.68 173 15:44 29.06.2022
631 Clear 30 1009 51 10000 4.02 229 13:43 29.06.2022
632 Clear 28 1009 52 10000 3.09 250 12:36 29.06.2022
633 Clear 23 1010 72 10000 3.6 250 09:46 29.06.2022
634 Clear 23 1011 74 10000 4.02 235 09:22 29.06.2022
635 Clouds 20 1011 79 10000 2.68 230 06:28 29.06.2022
636 Clouds 21 1012 76 10000 3.13 269 02:59 29.06.2022
637 Clouds 21 1012 74 10000 2.57 210 00:52 29.06.2022
638 Clouds 21 1012 73 10000 5.14 180 00:33 29.06.2022
639 Clouds 24 1012 65 10000 1.03 0 22:49 28.06.2022
640 Clouds 27 1011 54 10000 2.06 310 21:57 28.06.2022
641 Clouds 26 1011 54 10000 2.06 310 21:38 28.06.2022
642 Clouds 28 1011 57 10000 2.06 230 21:19 28.06.2022
643 Clouds 26 1011 55 10000 4.23 303 19:54 28.06.2022
644 Rain 27 1011 56 10000 3.93 309 19:28 28.06.2022
645 Clouds 29 1010 51 10000 2.68 56 18:38 28.06.2022
646 Clouds 28 1012 55 10000 4.63 40 16:47 28.06.2022
647 Clouds 27 1013 61 10000 4.63 40 15:54 28.06.2022
648 Clouds 25 1013 68 10000 5.66 30 14:48 28.06.2022
649 Rain 25 1015 70 8000 6.17 30 14:18 28.06.2022
650 Thunderstorm 24 1015 74 8000 4.12 30 13:45 28.06.2022
651 Rain 28 1014 51 10000 1.79 102 11:58 28.06.2022
652 Clouds 27 1014 57 10000 4.63 110 09:50 28.06.2022
653 Rain 27 1014 58 10000 3.58 125 08:54 28.06.2022
654 Clouds 26 1014 65 10000 2.06 110 07:58 28.06.2022
655 Clear 25 1015 66 10000 2.06 50 07:19 28.06.2022
656 Clear 24 1014 71 10000 1.54 60 02:25 28.06.2022
657 Clouds 27 1014 60 10000 1.54 130 23:47 27.06.2022
658 Clouds 26 1014 69 10000 0.51 0 22:56 27.06.2022
659 Clouds 30 1014 51 10000 1.03 230 21:39 27.06.2022
660 Clouds 31 1013 45 10000 0.51 0 21:18 27.06.2022
661 Clear 33 1012 40 10000 2.57 140 19:48 27.06.2022
662 Clear 33 1012 38 10000 3.09 140 18:40 27.06.2022
663 Clear 33 1013 37 10000 3.09 160 17:24 27.06.2022
664 Clear 33 1013 38 10000 3.6 110 15:43 27.06.2022
665 Clear 31 1013 44 10000 3.58 142 13:44 27.06.2022
666 Clear 31 1013 45 10000 4.02 113 12:57 27.06.2022
667 Clear 28 1014 51 10000 3.13 98 10:43 27.06.2022
668 Clear 27 1014 56 10000 2.57 160 09:37 27.06.2022
669 Clear 25 1015 70 10000 1.03 260 08:32 27.06.2022
670 Clear 24 1013 69 10000 0.51 0 07:39 27.06.2022
671 Clear 24 1015 67 10000 1.54 60 04:40 27.06.2022
672 Clear 24 1015 68 10000 2.57 30 01:20 27.06.2022
673 Clouds 27 1013 55 10000 2.06 60 22:47 26.06.2022
674 Clouds 30 1013 45 10000 2.57 70 20:55 26.06.2022
675 Clouds 31 1012 44 10000 1.79 49 19:59 26.06.2022
676 Clouds 32 1012 41 10000 2.24 139 18:32 26.06.2022
677 Clouds 32 1013 39 10000 2.68 203 17:33 26.06.2022
678 Clouds 32 1013 42 10000 1.34 86 15:31 26.06.2022
679 Clouds 31 1013 41 10000 2.68 143 13:55 26.06.2022
680 Clouds 30 1014 44 10000 1.34 41 13:23 26.06.2022
681 Clear 28 1015 48 10000 2.57 100 11:31 26.06.2022
682 Clear 27 1016 52 10000 1.54 0 10:29 26.06.2022
683 Clear 27 1016 53 10000 1.54 0 10:29 26.06.2022
684 Clear 26 1015 55 10000 2.06 0 09:39 26.06.2022
685 Clear 23 1015 68 10000 1.54 80 07:46 26.06.2022
686 Clouds 22 1012 65 10000 1.54 330 03:19 26.06.2022
687 Clear 23 1013 61 10000 2.57 260 00:36 26.06.2022
688 Clear 23 1013 60 10000 4.02 226 00:18 26.06.2022
689 Clear 24 1012 56 10000 2.68 228 23:24 25.06.2022
690 Clear 25 1012 52 10000 3.13 229 22:28 25.06.2022
691 Clouds 26 1011 48 10000 3.58 222 21:50 25.06.2022
692 Clouds 28 1011 49 10000 2.24 208 21:20 25.06.2022
693 Clouds 29 1011 45 10000 1.79 200 20:30 25.06.2022
694 Clouds 30 1010 42 10000 2.06 210 19:54 25.06.2022
695 Clouds 30 1011 41 10000 4.47 212 18:19 25.06.2022
696 Clouds 30 1011 42 10000 4.02 203 17:25 25.06.2022
697 Clear 29 1011 43 10000 2.68 208 15:42 25.06.2022
698 Clouds 28 1012 49 10000 2.57 250 13:48 25.06.2022
699 Clouds 28 1012 51 10000 4.02 221 12:38 25.06.2022
700 Clouds 25 1014 58 10000 1.54 290 10:45 25.06.2022
701 Clear 23 1013 63 10000 1.54 210 09:22 25.06.2022
702 Clear 22 1014 68 10000 2.06 170 08:41 25.06.2022
703 Clear 21 1013 72 10000 2.57 190 08:19 25.06.2022
704 Clear 19 1011 78 10000 1.79 358 04:18 25.06.2022
705 Clouds 20 1012 80 10000 0.89 327 00:38 25.06.2022
706 Clouds 20 1011 85 10000 2.06 357 22:55 24.06.2022
707 Clouds 23 1010 68 10000 3.09 50 21:42 24.06.2022
708 Clouds 24 1010 67 10000 3.09 50 20:48 24.06.2022
709 Clear 25 1008 63 10000 3.09 80 20:19 24.06.2022
710 Clear 25 1009 63 10000 1.03 0 19:21 24.06.2022
711 Clouds 25 1009 64 10000 1.54 0 18:49 24.06.2022
712 Clouds 25 1009 64 10000 1.34 239 18:30 24.06.2022
713 Clouds 21 1006 42 10000 6.77 213 17:21 24.06.2022
714 Rain 28 1008 47 10000 4.12 120 15:47 24.06.2022
715 Clouds 29 1008 46 10000 4.63 140 14:28 24.06.2022
716 Clouds 29 1008 46 10000 4.92 127 13:55 24.06.2022
717 Clouds 27 1010 53 10000 3.09 120 11:44 24.06.2022
718 Clouds 27 1010 56 10000 3.09 110 11:18 24.06.2022
719 Clouds 26 1011 61 10000 1.79 146 09:55 24.06.2022
720 Clear 25 1011 64 10000 1.79 163 09:29 24.06.2022
721 Clouds 25 1012 68 10000 1.79 147 08:52 24.06.2022
722 Clear 22 1011 80 10000 1.06 292 06:48 24.06.2022
723 Clear 20 1012 86 10000 1.03 170 06:30 24.06.2022
724 Clear 21 1011 81 10000 0.89 221 05:52 24.06.2022
725 Clouds 23 1011 71 10000 2.24 204 01:21 24.06.2022
726 Clouds 24 1011 68 10000 2.06 250 22:44 23.06.2022
727 Clouds 24 1011 66 10000 4.12 220 21:54 23.06.2022
728 Clouds 25 1013 75 10000 0.45 299 20:54 23.06.2022
729 Clouds 27 1010 65 10000 4.12 130 20:32 23.06.2022
730 Clouds 28 1010 58 10000 4.02 125 18:44 23.06.2022
731 Clouds 29 1011 54 10000 2.68 186 17:44 23.06.2022
732 Clouds 29 1012 55 10000 3.13 196 16:36 23.06.2022
733 Rain 29 1012 54 10000 2.06 240 15:29 23.06.2022
734 Rain 29 1013 57 10000 2.06 240 14:51 23.06.2022
735 Clouds 29 1012 54 10000 2.57 220 11:54 23.06.2022
736 Clouds 28 1013 60 10000 2.57 220 10:56 23.06.2022
737 Clouds 25 1013 72 10000 1.34 249 09:20 23.06.2022
738 Clear 20 1012 88 10000 0.89 306 05:48 23.06.2022
739 Clear 22 1011 86 10000 1.34 245 01:21 23.06.2022
740 Clear 23 1011 82 10000 1.03 200 00:18 23.06.2022
741 Clear 23 1012 81 10000 0.51 0 23:22 22.06.2022
742 Clear 24 1010 77 10000 1.03 0 21:44 22.06.2022
743 Clouds 25 1010 74 10000 1.54 270 20:52 22.06.2022
744 Clouds 25 1010 73 10000 1.79 230 20:20 22.06.2022
745 Clouds 25 1010 75 10000 3.13 242 19:43 22.06.2022
746 Rain 27 1010 59 10000 2.57 180 17:40 22.06.2022
747 Rain 28 1010 58 10000 2.68 196 16:41 22.06.2022
748 Rain 28 1011 57 10000 2.68 123 15:29 22.06.2022
749 Clouds 28 1012 59 10000 2.24 188 14:47 22.06.2022
750 Clouds 28 1012 60 10000 3.09 120 13:47 22.06.2022
751 Clouds 27 1013 67 10000 4.12 140 13:24 22.06.2022
752 Clouds 26 1013 69 10000 4.12 130 12:18 22.06.2022
753 Clouds 25 1012 74 7000 2.68 122 11:29 22.06.2022
754 Rain 24 1012 78 7000 2.57 80 10:43 22.06.2022
755 Rain 24 1013 72 10000 1.79 102 09:18 22.06.2022
756 Clouds 23 1012 74 10000 1.54 220 06:55 22.06.2022
757 Clouds 23 1013 72 10000 2.75 260 01:59 22.06.2022
758 Clouds 22 1013 71 10000 2.58 246 00:57 22.06.2022
759 Clouds 27 1011 44 10000 3.09 300 22:49 21.06.2022
760 Rain 29 1010 39 10000 2.57 240 20:47 21.06.2022
761 Rain 29 1010 48 10000 4.92 209 19:20 21.06.2022
762 Clouds 31 1010 44 10000 5.81 214 17:47 21.06.2022
763 Clouds 32 1010 43 10000 5.66 210 16:36 21.06.2022
764 Clear 29 1012 55 10000 2.24 220 11:56 21.06.2022
765 Clear 27 1012 59 10000 3.6 270 10:33 21.06.2022
766 Clear 26 1012 63 10000 3.13 223 08:54 21.06.2022
767 Clear 25 1012 70 10000 2.06 240 07:40 21.06.2022
768 Clear 23 1010 70 10000 2.68 274 04:42 21.06.2022
769 Clear 25 1010 55 10000 3.09 260 23:45 20.06.2022
770 Clear 27 1009 48 10000 2.68 215 22:21 20.06.2022
771 Clear 27 1009 49 10000 3.58 222 22:21 20.06.2022
772 Clear 28 1009 45 10000 3.58 223 21:33 20.06.2022
773 Clear 30 1009 42 10000 3.58 172 20:27 20.06.2022
774 Clear 32 1009 40 10000 3.13 173 19:23 20.06.2022
775 Clear 33 1009 37 10000 4.47 213 18:25 20.06.2022
776 Clear 34 1009 37 10000 3.6 230 17:44 20.06.2022
777 Clear 34 1010 38 10000 4.12 220 16:24 20.06.2022
778 Clear 33 1010 39 10000 4.02 228 14:41 20.06.2022
779 Clear 30 1012 37 10000 2.24 196 11:47 20.06.2022
780 Clear 28 1013 47 10000 1.54 0 09:55 20.06.2022
781 Clear 27 1013 51 10000 1.54 170 08:46 20.06.2022
782 Clear 24 1013 59 10000 0.89 132 07:36 20.06.2022
783 Clear 23 1014 68 10000 1.03 360 04:30 20.06.2022
784 Clear 26 1013 47 10000 2.68 298 01:32 20.06.2022
785 Clear 28 1012 46 10000 1.79 214 23:48 19.06.2022
786 Clouds 29 1013 45 10000 2.57 110 22:20 19.06.2022
787 Clouds 30 1013 43 10000 2.57 120 21:42 19.06.2022
788 Clear 31 1012 41 10000 2.57 150 20:52 19.06.2022
789 Clear 32 1012 38 10000 2.68 136 19:49 19.06.2022
790 Clear 33 1012 37 10000 2.68 202 19:25 19.06.2022
791 Clear 33 1012 36 10000 2.68 147 18:32 19.06.2022
792 Clear 34 1013 35 10000 2.68 148 17:43 19.06.2022
793 Clear 33 1013 35 10000 4.02 190 17:20 19.06.2022
794 Clear 33 1013 34 10000 3.6 120 16:28 19.06.2022
795 Clear 33 1013 33 10000 5.36 151 15:35 19.06.2022
796 Clear 32 1014 32 10000 3.6 130 14:42 19.06.2022
797 Clear 32 1014 31 10000 3.6 120 13:52 19.06.2022
798 Clear 31 1015 33 10000 3.6 120 12:22 19.06.2022
799 Clear 29 1016 41 10000 5.81 69 10:53 19.06.2022
800 Clear 27 1017 48 10000 2.68 118 09:21 19.06.2022
801 Clear 26 1017 57 10000 1.03 0 08:32 19.06.2022
802 Clear 23 1016 63 10000 2.57 90 07:26 19.06.2022
803 Clear 23 1016 63 10000 2.57 90 07:26 19.06.2022
804 Clouds 23 1016 60 10000 0.89 39 03:57 19.06.2022
805 Clear 26 1016 51 10000 2.57 100 00:51 19.06.2022
806 Clear 27 1016 51 10000 2.57 110 00:22 19.06.2022
807 Clear 27 1017 53 10000 1.54 90 23:35 18.06.2022
808 Clear 28 1016 48 10000 2.06 90 22:30 18.06.2022
809 Clear 30 1015 44 10000 2.68 95 20:54 18.06.2022
810 Clear 31 1016 41 10000 2.24 111 20:18 18.06.2022
811 Clear 32 1016 38 10000 3.09 120 18:57 18.06.2022
812 Clear 32 1016 38 10000 3.09 120 18:57 18.06.2022
813 Clear 32 1016 37 10000 2.68 134 18:38 18.06.2022
814 Clear 32 1017 36 10000 3.6 140 17:29 18.06.2022
815 Clear 32 1018 37 10000 3.58 142 16:18 18.06.2022
816 Clear 32 1019 38 10000 4.47 106 14:58 18.06.2022
817 Clear 31 1020 38 10000 4.12 110 14:37 18.06.2022
818 Clear 30 1021 42 10000 5.36 69 12:31 18.06.2022
819 Clear 29 1021 44 10000 7.15 83 11:25 18.06.2022
820 Clear 27 1021 49 10000 6.17 110 10:23 18.06.2022
821 Clear 26 1021 53 10000 5.36 134 08:59 18.06.2022
822 Clear 25 1021 53 10000 4.02 119 07:34 18.06.2022
823 Clear 25 1021 52 10000 4.02 116 07:34 18.06.2022
824 Clear 24 1020 53 10000 2.06 90 05:58 18.06.2022
825 Clear 26 1019 51 10000 4.12 90 02:51 18.06.2022
826 Clear 27 1020 59 10000 3.6 80 01:21 18.06.2022
827 Clear 27 1020 57 10000 2.06 80 00:32 18.06.2022
828 Clear 27 1019 55 10000 1.54 90 23:40 17.06.2022
829 Clear 29 1019 50 10000 2.57 110 22:33 17.06.2022
830 Clear 32 1016 41 10000 2.57 160 20:29 17.06.2022
831 Clear 33 1016 41 10000 2.06 190 19:24 17.06.2022
832 Clear 34 1015 38 10000 3.13 200 18:19 17.06.2022
833 Clear 34 1016 40 10000 3.09 190 16:51 17.06.2022
834 Clear 34 1016 40 10000 3.6 180 16:25 17.06.2022
835 Clear 34 1017 42 10000 2.57 220 15:41 17.06.2022
836 Clear 33 1017 44 10000 2.57 180 14:24 17.06.2022
837 Clear 32 1017 45 10000 3.09 140 13:59 17.06.2022
838 Clear 32 1017 44 10000 3.09 140 13:39 17.06.2022
839 Clear 31 1018 48 10000 2.57 130 12:29 17.06.2022
840 Clear 30 1018 49 10000 2.06 100 11:55 17.06.2022
841 Clear 30 1018 51 10000 2.57 70 11:34 17.06.2022
842 Clouds 28 1019 57 10000 2.68 102 09:46 17.06.2022
843 Clear 26 1019 65 10000 2.06 110 08:26 17.06.2022
844 Clear 23 1018 73 10000 1.54 50 06:51 17.06.2022
845 Clear 24 1017 67 10000 2.06 90 04:19 17.06.2022
846 Clear 25 1017 59 10000 1.03 0 01:56 17.06.2022
847 Clear 27 1015 53 10000 1.79 226 00:24 17.06.2022
848 Clear 28 1015 52 10000 2.57 190 22:42 16.06.2022
849 Clear 31 1014 41 10000 2.06 250 21:23 16.06.2022
850 Clear 33 1014 42 10000 2.06 260 20:55 16.06.2022
851 Clear 33 1013 39 10000 3.09 250 20:35 16.06.2022
852 Clear 34 1014 42 10000 3.09 250 19:41 16.06.2022
853 Clear 35 1013 39 10000 3.58 232 18:24 16.06.2022
854 Clear 35 1014 39 10000 3.6 200 17:42 16.06.2022
855 Clear 34 1014 41 10000 2.06 0 16:33 16.06.2022
856 Clear 34 1014 41 10000 2.57 230 15:22 16.06.2022
857 Clear 33 1015 44 10000 2.24 196 14:30 16.06.2022
858 Clear 31 1015 46 10000 1.79 177 13:20 16.06.2022
859 Clear 31 1016 49 10000 1.54 0 12:36 16.06.2022
860 Clear 30 1016 51 10000 2.06 0 11:49 16.06.2022
861 Clear 28 1016 54 10000 1.79 149 10:54 16.06.2022
862 Clear 27 1018 57 10000 2.57 80 09:43 16.06.2022
863 Clear 26 1018 58 10000 2.57 90 09:20 16.06.2022
864 Clear 24 1018 67 10000 1.54 80 07:57 16.06.2022
865 Clear 22 1017 76 10000 0.51 0 07:24 16.06.2022
866 Clear 22 1017 77 10000 0.51 70 04:33 16.06.2022
867 Clouds 24 1018 75 10000 4.63 130 01:54 16.06.2022
868 Clouds 24 1019 74 10000 0.89 25 01:34 16.06.2022
869 Clouds 24 1019 74 10000 0.89 25 01:34 16.06.2022
870 Rain 25 1017 72 10000 1.54 190 00:38 16.06.2022
871 Clouds 26 1018 65 10000 1.03 0 23:25 15.06.2022
872 Clouds 27 1017 60 10000 1.03 0 22:28 15.06.2022
873 Clouds 29 1015 49 10000 1.03 270 21:21 15.06.2022
874 Clouds 30 1016 50 10000 1.54 290 20:38 15.06.2022
875 Clouds 30 1015 47 10000 1.54 290 20:19 15.06.2022
876 Clouds 31 1016 47 10000 2.57 250 18:51 15.06.2022
877 Clouds 31 1016 46 10000 2.06 210 17:55 15.06.2022
878 Rain 31 1016 44 10000 2.06 240 16:38 15.06.2022
879 Clear 31 1017 45 10000 1.03 0 15:26 15.06.2022
880 Clear 30 1018 44 10000 2.06 0 13:43 15.06.2022
881 Clear 29 1018 43 10000 2.57 160 12:53 15.06.2022
882 Clear 28 1018 44 10000 3.09 100 11:48 15.06.2022
883 Clear 26 1018 47 10000 3.6 130 10:23 15.06.2022
884 Clouds 26 1019 51 10000 1.79 133 09:38 15.06.2022
885 Clear 24 1018 52 10000 4.02 101 08:27 15.06.2022
886 Clear 22 1018 63 10000 2.06 80 06:33 15.06.2022
887 Clear 23 1017 58 10000 3.58 90 03:30 15.06.2022
888 Clear 24 1018 62 10000 3.13 96 01:38 15.06.2022
889 Clear 25 1018 60 10000 3.09 120 00:50 15.06.2022
890 Clear 25 1017 58 10000 3.09 120 23:39 14.06.2022
891 Clear 26 1017 55 10000 3.09 120 22:52 14.06.2022
892 Clear 28 1016 53 10000 3.6 120 21:53 14.06.2022
893 Clear 28 1015 51 10000 3.13 120 21:27 14.06.2022
894 Clear 29 1016 51 10000 3.6 110 20:48 14.06.2022
895 Clear 30 1015 47 10000 3.09 90 19:59 14.06.2022
896 Clear 30 1015 46 10000 3.6 160 18:45 14.06.2022
897 Clear 31 1015 43 10000 2.68 114 17:29 14.06.2022
898 Clear 31 1016 43 10000 3.13 146 16:43 14.06.2022
899 Clear 30 1016 44 10000 3.13 131 15:49 14.06.2022
900 Clear 30 1016 45 10000 5.14 120 14:57 14.06.2022
901 Clear 29 1017 46 10000 4.47 119 14:20 14.06.2022
902 Clear 29 1017 45 10000 4.63 130 13:39 14.06.2022
903 Clear 28 1017 49 10000 4.63 90 12:27 14.06.2022
904 Clear 27 1018 51 10000 5.36 109 11:27 14.06.2022
905 Clouds 26 1018 54 10000 5.66 110 10:35 14.06.2022
906 Clear 25 1017 57 10000 3.6 130 09:28 14.06.2022
907 Clear 25 1017 58 10000 3.6 110 08:41 14.06.2022
908 Clear 22 1017 66 10000 1.54 50 06:54 14.06.2022
909 Clear 22 1016 71 10000 1.54 50 04:35 14.06.2022
910 Clear 22 1016 70 10000 2.57 60 02:43 14.06.2022
911 Clear 23 1015 71 10000 1.03 170 00:27 14.06.2022
912 Clear 25 1014 62 10000 1.03 0 23:18 13.06.2022
913 Clouds 27 1013 53 10000 2.24 86 22:24 13.06.2022
914 Clouds 28 1015 51 10000 2.57 90 21:41 13.06.2022
915 Clear 31 1011 43 10000 5.14 90 20:19 13.06.2022
916 Clouds 32 1011 37 10000 3.13 234 19:26 13.06.2022
917 Clouds 34 1012 32 10000 3.09 240 17:57 13.06.2022
918 Clouds 34 1012 32 10000 3.09 240 17:35 13.06.2022
919 Clear 33 1013 33 10000 2.24 206 16:32 13.06.2022
920 Clear 33 1012 31 10000 2.57 210 14:53 13.06.2022
921 Clear 32 1013 34 10000 2.57 160 14:33 13.06.2022
922 Clear 32 1013 36 10000 3.58 187 13:39 13.06.2022
923 Clear 31 1015 39 10000 2.06 0 12:25 13.06.2022
924 Clear 29 1016 44 10000 2.06 120 11:18 13.06.2022
925 Clear 28 1016 45 10000 1.54 50 10:26 13.06.2022
926 Clear 26 1017 51 10000 1.03 0 09:22 13.06.2022
927 Clear 22 1015 71 10000 0.51 0 06:55 13.06.2022
928 Clear 22 1016 71 10000 1.54 330 05:36 13.06.2022
929 Clear 22 1017 62 10000 1.54 30 02:47 13.06.2022
930 Clear 22 1017 65 10000 1.03 0 01:36 13.06.2022
931 Clear 24 1017 57 10000 1.54 240 23:50 12.06.2022
932 Clear 25 1017 50 10000 1.54 180 22:44 12.06.2022
933 Clear 26 1017 49 10000 1.54 180 21:58 12.06.2022
934 Clear 29 1016 37 10000 2.06 190 20:54 12.06.2022
935 Clear 31 1016 32 10000 3.09 170 20:18 12.06.2022
936 Clear 32 1016 32 10000 3.09 170 19:30 12.06.2022
937 Clear 33 1017 33 10000 2.06 0 17:41 12.06.2022
938 Clear 32 1017 31 10000 4.47 248 15:57 12.06.2022
939 Clear 32 1017 34 10000 2.24 127 14:51 12.06.2022
940 Clear 31 1018 35 10000 2.24 178 14:20 12.06.2022
941 Clear 31 1019 37 10000 3.09 180 13:49 12.06.2022
942 Clear 29 1021 41 10000 2.57 140 12:32 12.06.2022
943 Clear 28 1020 42 10000 2.57 170 11:22 12.06.2022
944 Clear 26 1022 50 10000 2.57 110 10:21 12.06.2022
945 Clear 25 1021 56 10000 1.54 80 08:52 12.06.2022
946 Clear 23 1021 60 10000 1.54 70 08:34 12.06.2022
947 Clear 21 1020 66 10000 1.03 10 07:31 12.06.2022
948 Clear 19 1020 70 10000 2.06 360 04:35 12.06.2022
949 Clear 21 1020 67 10000 1.54 360 02:33 12.06.2022
950 Clear 21 1020 65 10000 1.03 0 01:36 12.06.2022
951 Clear 22 1020 60 10000 1.03 90 00:58 12.06.2022
952 Clear 22 1019 62 10000 0.51 60 00:19 12.06.2022
953 Clear 23 1019 59 10000 0.51 0 23:21 11.06.2022
954 Clear 24 1019 56 10000 1.03 0 22:38 11.06.2022
955 Clear 27 1018 39 10000 2.57 120 21:36 11.06.2022
956 Clear 29 1018 34 10000 2.06 160 20:27 11.06.2022
957 Clear 30 1018 31 10000 2.68 153 19:37 11.06.2022
958 Clear 31 1017 31 10000 2.57 0 18:45 11.06.2022
959 Clear 31 1016 29 10000 2.57 120 18:27 11.06.2022
960 Clear 31 1017 32 10000 3.58 151 17:48 11.06.2022
961 Clear 31 1018 32 10000 2.06 0 17:26 11.06.2022
962 Clear 31 1018 32 10000 2.06 0 17:26 11.06.2022
963 Clear 31 1018 32 10000 2.57 170 16:44 11.06.2022
964 Clear 31 1017 31 10000 3.13 202 16:18 11.06.2022
965 Clear 30 1018 33 10000 1.79 176 14:57 11.06.2022
966 Clear 29 1018 34 10000 2.57 170 13:52 11.06.2022
967 Clear 28 1019 37 10000 3.09 150 12:19 11.06.2022
968 Clear 26 1019 41 10000 4.12 90 10:32 11.06.2022
969 Clear 24 1019 44 10000 3.13 98 09:41 11.06.2022
970 Clear 23 1019 48 10000 2.68 76 08:44 11.06.2022
971 Clear 18 1019 66 10000 1.03 20 06:33 11.06.2022
972 Clear 18 1017 61 10000 1.54 70 05:53 11.06.2022
973 Clear 19 1018 59 10000 1.54 40 03:31 11.06.2022
974 Clouds 20 1018 57 10000 2.06 20 01:51 11.06.2022
975 Clouds 20 1018 55 10000 0.51 0 01:25 11.06.2022
976 Clear 22 1016 47 10000 0.51 190 23:27 10.06.2022
977 Clear 22 1017 50 10000 1.03 210 22:21 10.06.2022
978 Clear 24 1016 41 10000 1.03 200 21:44 10.06.2022
979 Clear 28 1015 26 10000 3.6 180 20:39 10.06.2022
980 Clear 28 1015 23 10000 3.6 180 20:19 10.06.2022
981 Clear 30 1015 24 10000 2.57 180 19:19 10.06.2022
982 Clear 30 1015 22 10000 2.57 180 18:32 10.06.2022
983 Clear 31 1015 22 10000 3.09 200 17:50 10.06.2022
984 Clear 30 1015 22 10000 2.57 220 17:21 10.06.2022
985 Clear 30 1015 21 10000 3.6 210 16:26 10.06.2022
986 Clear 30 1015 23 10000 2.57 0 15:38 10.06.2022
987 Clear 30 1015 22 10000 3.09 210 14:24 10.06.2022
988 Clear 29 1015 22 10000 2.68 141 12:57 10.06.2022
989 Clear 28 1016 24 10000 1.54 130 11:59 10.06.2022
990 Clear 26 1016 28 10000 1.79 56 10:45 10.06.2022
991 Clear 24 1015 30 10000 2.57 360 09:55 10.06.2022
992 Clear 22 1014 39 10000 2.06 320 08:44 10.06.2022
993 Clear 17 1014 59 10000 2.06 300 07:30 10.06.2022
994 Clear 18 1014 49 10000 1.54 310 06:45 10.06.2022
995 Clear 16 1014 45 10000 2.06 310 06:26 10.06.2022
996 Clear 16 1013 51 10000 2.06 320 03:56 10.06.2022
997 Clear 19 1013 40 10000 3.09 340 01:42 10.06.2022
998 Clear 21 1013 32 10000 3.6 360 00:32 10.06.2022
999 Clear 22 1012 30 10000 4.63 360 23:49 09.06.2022
1000 Clear 23 1011 25 10000 5.66 10 22:18 09.06.2022
1001 Clear 24 1011 25 10000 7.2 350 21:37 09.06.2022
1002 Clear 25 1009 22 10000 5.66 360 20:55 09.06.2022
1003 Clear 26 1009 27 10000 3.6 30 20:21 09.06.2022
1004 Clear 26 1008 36 10000 3.6 90 19:29 09.06.2022
1005 Clouds 27 1007 33 10000 5.66 140 18:34 09.06.2022
1006 Clouds 29 1007 21 10000 5.14 350 16:56 09.06.2022
1007 Clouds 28 1006 23 10000 5.36 38 15:54 09.06.2022
1008 Clear 28 1006 26 10000 4.63 350 14:38 09.06.2022
1009 Clear 27 1006 26 10000 4.12 310 13:54 09.06.2022
1010 Clear 27 1006 26 10000 4.63 310 13:28 09.06.2022
1011 Clear 25 1006 43 10000 4.02 328 11:54 09.06.2022
1012 Clear 25 1007 51 10000 3.13 334 11:19 09.06.2022
1013 Clear 22 1007 67 10000 2.24 139 09:45 09.06.2022
1014 Clear 21 1008 69 10000 2.24 102 09:24 09.06.2022
1015 Clear 19 1008 83 10000 1.03 0 07:52 09.06.2022
1016 Clear 17 1008 88 10000 1.54 50 06:33 09.06.2022
1017 Clouds 17 1006 87 10000 1.03 70 03:19 09.06.2022
1018 Clouds 19 1007 81 10000 2.57 20 23:48 08.06.2022
1019 Clouds 19 1007 81 10000 2.57 50 22:58 08.06.2022
1020 Clouds 20 1006 81 10000 2.57 60 22:27 08.06.2022
1021 Clouds 20 1006 83 10000 3.13 68 21:55 08.06.2022
1022 Clouds 20 1006 85 10000 3.09 70 21:21 08.06.2022
1023 Rain 20 1006 83 5000 3.6 300 20:21 08.06.2022
1024 Rain 21 1005 70 10000 3.6 350 19:38 08.06.2022
1025 Clouds 23 1006 61 10000 1.79 253 18:45 08.06.2022
1026 Clouds 26 1006 46 10000 2.57 150 17:18 08.06.2022
1027 Rain 27 1007 44 10000 3.09 160 15:44 08.06.2022
1028 Clouds 27 1008 45 10000 3.6 140 13:51 08.06.2022
1029 Clouds 25 1010 54 10000 2.06 0 11:52 08.06.2022
1030 Clouds 24 1010 55 10000 2.57 100 11:29 08.06.2022
1031 Clear 23 1011 62 10000 2.57 120 09:55 08.06.2022
1032 Clear 22 1011 64 10000 1.79 118 09:21 08.06.2022
1033 Clouds 20 1011 67 10000 2.24 51 08:22 08.06.2022
1034 Clear 17 1009 75 10000 1.34 161 05:51 08.06.2022
1035 Clear 17 1010 78 10000 0 0 03:52 08.06.2022
1036 Clear 19 1011 72 10000 1.54 20 00:29 08.06.2022
1037 Clear 21 1011 64 10000 2.06 140 23:27 07.06.2022
1038 Clouds 22 1011 56 10000 2.57 120 22:44 07.06.2022
1039 Clouds 23 1010 53 10000 3.09 120 22:22 07.06.2022
1040 Clouds 24 1009 57 10000 3.58 68 21:33 07.06.2022
1041 Clouds 25 1010 59 10000 2.57 170 20:53 07.06.2022
1042 Clear 26 1010 55 10000 3.6 160 20:31 07.06.2022
1043 Clear 27 1008 48 10000 2.06 190 19:27 07.06.2022
1044 Clear 27 1008 48 10000 3.09 150 18:22 07.06.2022
1045 Clouds 27 1009 48 10000 3.6 150 17:25 07.06.2022
1046 Clouds 28 1009 47 10000 3.09 200 16:42 07.06.2022
1047 Clear 27 1010 50 10000 3.13 162 15:44 07.06.2022
1048 Clear 26 1011 54 10000 1.54 0 15:24 07.06.2022
1049 Clear 26 1010 53 10000 1.79 51 14:46 07.06.2022
1050 Clear 26 1011 58 10000 3.6 70 14:27 07.06.2022
1051 Clouds 24 1011 64 10000 4.63 40 13:30 07.06.2022
1052 Clouds 23 1012 70 7102 4.92 59 12:45 07.06.2022
1053 Clouds 22 1012 70 10000 3.58 63 11:32 07.06.2022
1054 Clouds 22 1012 69 10000 3.09 80 10:26 07.06.2022
1055 Clouds 22 1012 72 10000 2.57 60 08:49 07.06.2022
1056 Clouds 22 1012 71 10000 4.47 87 08:49 07.06.2022
1057 Clouds 22 1012 71 10000 2.57 60 08:49 07.06.2022
1058 Clouds 20 1012 77 10000 4.12 50 07:23 07.06.2022
1059 Clouds 20 1012 79 10000 3.09 90 05:56 07.06.2022
1060 Clouds 21 1011 82 10000 1.79 215 03:18 07.06.2022
1061 Clouds 23 1010 74 10000 3.58 238 00:42 07.06.2022
1062 Clouds 24 1013 71 10000 1.03 0 23:35 06.06.2022
1063 Clouds 24 1013 71 10000 1.03 0 22:45 06.06.2022
1064 Clouds 26 1014 60 10000 1.03 0 21:43 06.06.2022
1065 Clouds 29 1011 46 10000 2.57 140 20:19 06.06.2022
1066 Clouds 30 1012 45 10000 3.09 140 19:23 06.06.2022
1067 Clouds 30 1013 46 10000 2.24 135 18:46 06.06.2022
1068 Clouds 31 1011 39 10000 3.13 121 17:51 06.06.2022
1069 Clouds 31 1014 42 10000 2.68 129 16:39 06.06.2022
1070 Clouds 30 1012 39 10000 3.6 170 15:40 06.06.2022
1071 Clear 30 1013 40 10000 2.57 140 14:56 06.06.2022
1072 Clear 29 1013 42 10000 2.68 132 13:31 06.06.2022
1073 Clear 28 1015 46 10000 2.06 0 12:39 06.06.2022
1074 Clear 28 1015 46 10000 2.06 0 12:20 06.06.2022
1075 Clear 27 1014 45 10000 4.92 128 11:42 06.06.2022
1076 Clear 24 1015 53 10000 2.06 60 09:41 06.06.2022
1077 Clear 22 1016 62 10000 1.03 0 08:35 06.06.2022
1078 Clear 20 1015 69 10000 0.89 57 07:40 06.06.2022
1079 Clear 18 1013 75 10000 1.79 295 05:34 06.06.2022
1080 Clear 18 1014 75 10000 0.51 0 03:47 06.06.2022
1081 Clear 20 1014 65 10000 2.06 30 01:29 06.06.2022
1082 Clear 21 1014 67 10000 1.79 312 00:43 06.06.2022
1083 Clear 21 1014 68 10000 1.79 293 23:50 05.06.2022
1084 Clear 22 1013 65 10000 1.54 180 22:53 05.06.2022
1085 Clear 23 1012 62 10000 1.79 298 21:33 05.06.2022
1086 Clear 25 1012 59 10000 2.06 100 20:23 05.06.2022
1087 Clouds 26 1011 58 10000 4.12 360 18:42 05.06.2022
1088 Clouds 24 1013 60 10000 7.72 350 17:56 05.06.2022
1089 Clouds 29 1012 51 10000 1.03 0 17:27 05.06.2022
1090 Clouds 28 1011 52 10000 4.02 1 16:58 05.06.2022
1091 Clouds 29 1011 51 10000 2.57 0 16:37 05.06.2022
1092 Clouds 29 1012 55 8000 4.02 135 14:46 05.06.2022
1093 Clouds 28 1014 60 8000 3.6 160 13:21 05.06.2022
1094 Clouds 28 1014 62 10000 2.68 135 11:51 05.06.2022
1095 Clouds 27 1013 62 10000 3.6 70 10:43 05.06.2022
1096 Clear 27 1013 63 10000 3.6 90 10:23 05.06.2022
1097 Clear 24 1015 70 10000 4.12 80 08:41 05.06.2022
1098 Clear 24 1015 71 10000 3.6 50 08:20 05.06.2022
1099 Clear 21 1015 77 10000 0.51 0 05:23 05.06.2022
1100 Clear 22 1014 74 10000 0.51 0 04:30 05.06.2022
1101 Clear 23 1016 70 10000 0.89 25 01:45 05.06.2022
1102 Clear 23 1016 70 10000 0.89 25 01:45 05.06.2022
1103 Clear 23 1016 70 10000 0.89 25 01:45 05.06.2022
1104 Clear 23 1018 73 10000 1.54 350 01:22 05.06.2022
1105 Clear 23 1016 67 10000 1.54 350 01:22 05.06.2022
1106 Clear 25 1017 63 10000 1.03 0 22:44 04.06.2022
1107 Clear 28 1015 48 10000 1.54 230 20:55 04.06.2022
1108 Clear 30 1015 43 10000 2.24 269 18:53 04.06.2022
1109 Clear 31 1017 43 10000 2.57 220 16:47 04.06.2022
1110 Clear 30 1018 45 10000 1.54 0 16:19 04.06.2022
1111 Clear 30 1017 46 10000 1.79 152 15:22 04.06.2022
1112 Clear 29 1017 49 10000 2.06 0 13:46 04.06.2022
1113 Clear 26 1019 61 10000 1.03 0 11:23 04.06.2022
1114 Clear 25 1017 63 10000 2.24 275 10:50 04.06.2022
1115 Clear 23 1017 72 10000 1.34 291 09:45 04.06.2022
1116 Clear 21 1018 79 10000 1.03 0 08:44 04.06.2022
1117 Clear 20 1018 84 10000 0.51 0 07:51 04.06.2022
1118 Clouds 18 1017 88 10000 1.34 293 05:38 04.06.2022
1119 Clear 19 1018 86 10000 0.89 358 02:36 04.06.2022
1120 Clear 20 1018 85 10000 2.06 340 00:20 04.06.2022
1121 Clear 21 1017 82 10000 2.68 351 22:41 03.06.2022
1122 Clouds 22 1017 76 10000 1.54 70 21:39 03.06.2022
1123 Clouds 23 1018 75 10000 2.06 60 20:38 03.06.2022
1124 Clouds 23 1017 75 10000 2.57 50 18:54 03.06.2022
1125 Clouds 23 1018 78 10000 2.06 0 16:52 03.06.2022
1126 Rain 21 1018 81 9000 2.57 210 15:37 03.06.2022
1127 Rain 23 1018 72 10000 6.17 140 13:48 03.06.2022
1128 Clouds 25 1017 66 8000 6.26 130 11:50 03.06.2022
1129 Clouds 24 1018 71 6000 4.63 130 09:53 03.06.2022
1130 Clouds 23 1018 73 6000 4.12 110 09:28 03.06.2022
1131 Clouds 22 1018 72 6000 2.68 109 07:27 03.06.2022
1132 Clouds 22 1017 73 7000 1.54 90 06:44 03.06.2022
1133 Clouds 22 1018 75 7000 2.06 80 06:26 03.06.2022
1134 Clear 23 1016 66 10000 1.03 0 01:23 03.06.2022
1135 Clear 23 1016 67 10000 1.54 280 23:31 02.06.2022
1136 Clear 26 1015 56 10000 1.54 180 21:57 02.06.2022
1137 Clear 29 1015 46 10000 2.06 180 20:25 02.06.2022
1138 Clear 29 1015 45 10000 2.06 150 19:52 02.06.2022
1139 Clear 30 1014 42 10000 2.06 180 19:33 02.06.2022
1140 Clear 30 1015 44 10000 2.06 190 17:59 02.06.2022
1141 Clouds 30 1015 46 10000 1.54 0 16:28 02.06.2022
1142 Clouds 29 1015 46 9000 1.54 0 14:58 02.06.2022
1143 Clear 28 1015 45 10000 2.06 0 13:30 02.06.2022
1144 Clouds 27 1015 49 9000 2.24 124 12:42 02.06.2022
1145 Clear 25 1017 59 10000 1.54 230 10:31 02.06.2022
1146 Clear 23 1016 65 10000 0.89 114 09:28 02.06.2022
1147 Clear 21 1015 72 10000 2.06 270 08:28 02.06.2022
1148 Clouds 20 1016 74 10000 1.54 190 07:34 02.06.2022
1149 Clouds 19 1015 76 10000 3.58 296 05:29 02.06.2022
1150 Clouds 20 1015 73 10000 4.02 253 03:48 02.06.2022
1151 Clouds 21 1013 63 10000 1.79 250 23:55 01.06.2022
1152 Clouds 23 1015 60 10000 1.54 250 22:54 01.06.2022
1153 Clouds 24 1015 56 10000 1.03 0 21:39 01.06.2022
1154 Clouds 25 1014 53 10000 2.06 250 21:20 01.06.2022
1155 Clouds 26 1014 50 10000 1.54 230 20:37 01.06.2022
1156 Clouds 27 1014 47 10000 2.57 210 19:31 01.06.2022
1157 Clouds 27 1014 47 10000 2.57 0 17:57 01.06.2022
1158 Clouds 27 1015 47 10000 2.57 0 16:41 01.06.2022
1159 Clouds 27 1014 48 10000 2.06 180 15:18 01.06.2022
1160 Clouds 26 1014 50 10000 1.34 213 13:54 01.06.2022
1161 Clouds 25 1015 56 10000 2.57 180 12:28 01.06.2022
1162 Clear 23 1016 63 10000 1.03 0 10:25 01.06.2022
1163 Clear 21 1016 68 10000 1.54 150 09:24 01.06.2022
1164 Clear 18 1015 79 10000 0.51 0 07:25 01.06.2022
1165 Clouds 17 1014 79 10000 0.51 0 06:30 01.06.2022
1166 Clear 19 1013 72 10000 2.57 10 00:48 01.06.2022
1167 Clouds 20 1014 67 10000 1.79 356 23:30 31.05.2022
1168 Clouds 21 1014 65 10000 1.79 350 22:37 31.05.2022
1169 Clouds 22 1014 62 10000 1.03 60 21:46 31.05.2022
1170 Clouds 22 1012 58 10000 1.79 298 20:46 31.05.2022
1171 Clouds 23 1012 56 10000 1.03 0 20:23 31.05.2022
1172 Clouds 24 1013 56 10000 1.03 0 18:53 31.05.2022
1173 Clouds 24 1013 57 10000 1.03 0 17:50 31.05.2022
1174 Clouds 24 1013 56 10000 2.06 160 17:18 31.05.2022
1175 Clouds 23 1014 57 10000 2.57 110 15:41 31.05.2022
1176 Clouds 23 1014 61 10000 2.57 70 14:18 31.05.2022
1177 Clouds 21 1014 68 10000 3.09 110 12:21 31.05.2022
1178 Clouds 20 1015 73 10000 4.12 90 10:55 31.05.2022
1179 Clouds 20 1015 73 10000 4.12 90 10:55 31.05.2022
1180 Clouds 18 1015 78 10000 3.09 90 09:31 31.05.2022
1181 Clouds 17 1014 80 10000 1.54 250 07:25 31.05.2022
1182 Clouds 17 1014 77 10000 1.03 0 05:22 31.05.2022
1183 Clouds 18 1013 69 10000 1.34 168 01:35 31.05.2022
1184 Clouds 18 1012 64 10000 1.03 0 23:27 30.05.2022
1185 Clouds 18 1012 64 10000 1.03 0 22:56 30.05.2022
1186 Clouds 18 1012 62 10000 1.79 181 21:59 30.05.2022
1187 Clouds 19 1011 61 10000 2.57 190 21:33 30.05.2022
1188 Clouds 19 1009 57 10000 3.6 190 20:20 30.05.2022
1189 Clouds 20 1009 54 10000 3.6 160 18:41 30.05.2022
1190 Clouds 21 1010 53 10000 1.79 100 17:36 30.05.2022
1191 Clouds 21 1010 53 10000 3.6 130 16:41 30.05.2022
1192 Clouds 20 1010 53 10000 3.09 160 14:49 30.05.2022
1193 Clouds 19 1009 54 10000 5.14 140 12:24 30.05.2022
1194 Clear 18 1009 58 10000 4.92 140 10:41 30.05.2022
1195 Clouds 16 1009 68 10000 3.6 100 09:38 30.05.2022
1196 Clouds 14 1008 78 10000 2.57 60 07:22 30.05.2022
1197 Clouds 14 1008 79 10000 2.57 110 05:49 30.05.2022
1198 Clouds 15 1008 77 10000 1.54 100 01:48 30.05.2022
1199 Clear 16 1007 70 10000 2.68 67 23:19 29.05.2022
1200 Clear 16 1008 69 10000 2.68 59 22:37 29.05.2022
1201 Clouds 17 1007 59 10000 4.63 140 20:55 29.05.2022
1202 Clouds 19 1006 48 10000 4.63 150 19:33 29.05.2022
1203 Clouds 20 1006 45 10000 5.66 140 18:53 29.05.2022
1204 Clouds 21 1006 46 10000 4.12 150 17:31 29.05.2022
1205 Clouds 20 1006 49 10000 3.09 120 15:48 29.05.2022
1206 Clouds 20 1007 49 10000 3.09 90 14:58 29.05.2022
1207 Clouds 18 1007 59 10000 2.06 50 13:53 29.05.2022
1208 Clouds 16 1008 56 10000 2.57 40 11:42 29.05.2022
1209 Clouds 15 1007 71 10000 3.09 60 10:39 29.05.2022
1210 Clouds 15 1006 73 10000 3.09 90 09:18 29.05.2022
1211 Clouds 14 1006 77 10000 4.63 120 06:18 29.05.2022
1212 Clouds 14 1007 79 10000 6.71 96 04:45 29.05.2022
1213 Rain 15 1007 80 10000 6.69 110 03:47 29.05.2022
1214 Rain 17 1007 70 10000 7.72 110 23:50 28.05.2022
1215 Rain 17 1007 70 10000 7.72 110 23:50 28.05.2022
1216 Rain 17 1007 71 10000 9.26 110 23:26 28.05.2022
1217 Rain 18 1007 70 10000 7.72 110 22:36 28.05.2022
1218 Rain 19 1008 69 10000 10.8 120 21:38 28.05.2022
1219 Clouds 21 1005 72 10000 8.75 100 19:49 28.05.2022
1220 Thunderstorm 23 1005 70 8000 9.26 110 18:50 28.05.2022
1221 Clouds 28 1003 55 10000 7.6 130 17:37 28.05.2022
1222 Clouds 31 1004 37 10000 4.12 100 16:38 28.05.2022
1223 Clouds 31 1005 37 10000 2.06 0 15:43 28.05.2022
1224 Clear 30 1006 42 10000 3.09 80 14:26 28.05.2022
1225 Clear 29 1008 47 10000 2.57 100 12:51 28.05.2022
1226 Clear 28 1008 53 10000 2.57 0 12:33 28.05.2022
1227 Clear 27 1008 61 10000 3.09 90 11:21 28.05.2022
1228 Clear 25 1008 66 10000 4.63 90 09:58 28.05.2022
1229 Clear 23 1008 70 10000 4.02 112 08:45 28.05.2022
1230 Clear 20 1009 82 10000 1.54 60 07:23 28.05.2022
1231 Clear 19 1009 79 10000 0.51 0 05:36 28.05.2022
1232 Clear 22 1010 70 10000 0.89 13 02:44 28.05.2022
1233 Clouds 24 1011 61 10000 2.06 360 00:32 28.05.2022
1234 Clear 25 1011 57 10000 1.79 267 22:53 27.05.2022
1235 Clouds 27 1011 51 10000 1.54 280 21:44 27.05.2022
1236 Clear 29 1011 47 10000 2.06 290 20:50 27.05.2022
1237 Clear 29 1011 44 10000 2.68 262 20:24 27.05.2022
1238 Clear 30 1012 42 10000 2.57 250 19:42 27.05.2022
1239 Clear 31 1011 39 10000 2.68 273 19:21 27.05.2022
1240 Clear 32 1012 39 10000 3.09 210 17:54 27.05.2022
1241 Clouds 31 1014 42 10000 2.57 200 16:38 27.05.2022
1242 Clouds 30 1015 45 10000 2.06 190 15:22 27.05.2022
1243 Clouds 29 1016 51 8000 1.79 131 13:53 27.05.2022
1244 Clouds 29 1016 53 10000 1.54 0 12:39 27.05.2022
1245 Clouds 27 1016 58 9000 1.79 185 11:33 27.05.2022
1246 Clear 26 1017 62 10000 1.34 172 10:54 27.05.2022
1247 Clear 25 1019 66 10000 1.03 0 10:26 27.05.2022
1248 Clear 24 1019 71 10000 1.03 0 09:32 27.05.2022
1249 Clear 21 1019 79 10000 1.03 0 07:42 27.05.2022
1250 Clear 20 1019 80 10000 1.03 10 05:32 27.05.2022
1251 Clear 21 1020 74 10000 1.03 0 02:25 27.05.2022
1252 Clear 23 1019 71 10000 1.54 20 00:19 27.05.2022
1253 Clouds 24 1019 66 10000 2.06 110 22:30 26.05.2022
1254 Clouds 25 1018 61 10000 2.06 150 21:34 26.05.2022
1255 Clouds 27 1018 59 10000 3.6 160 19:58 26.05.2022
1256 Clouds 27 1018 57 10000 4.63 150 19:19 26.05.2022
1257 Clouds 28 1018 49 10000 3.13 170 17:36 26.05.2022
1258 Clouds 28 1019 50 10000 2.57 90 16:36 26.05.2022
1259 Clouds 28 1018 51 10000 3.13 70 15:41 26.05.2022
1260 Clouds 28 1019 52 10000 3.6 60 14:21 26.05.2022
1261 Clouds 26 1020 56 10000 3.6 110 12:35 26.05.2022
1262 Clouds 25 1019 60 10000 3.13 144 11:21 26.05.2022
1263 Clouds 23 1019 65 10000 3.13 143 09:40 26.05.2022
1264 Clouds 22 1019 68 10000 2.57 100 08:57 26.05.2022
1265 Clouds 19 1019 80 10000 2.06 120 07:38 26.05.2022
1266 Clear 19 1017 79 10000 1.03 0 03:35 26.05.2022
1267 Clear 20 1017 75 10000 1.03 280 00:21 26.05.2022
1268 Clear 21 1016 75 10000 1.79 264 23:22 25.05.2022
1269 Clouds 22 1015 66 10000 1.34 243 21:47 25.05.2022
1270 Clouds 23 1015 65 10000 2.24 236 21:28 25.05.2022
1271 Clouds 25 1013 58 10000 1.79 240 19:59 25.05.2022
1272 Clouds 25 1013 57 10000 2.24 271 19:19 25.05.2022
1273 Clouds 25 1013 57 10000 2.24 296 17:30 25.05.2022
1274 Clouds 25 1013 57 10000 2.57 50 16:36 25.05.2022
1275 Clouds 25 1013 57 10000 2.57 0 15:53 25.05.2022
1276 Clouds 24 1014 61 10000 2.06 320 14:51 25.05.2022
1277 Clouds 24 1014 62 10000 2.57 30 14:32 25.05.2022
1278 Clouds 23 1012 64 10000 1.03 0 13:28 25.05.2022
1279 Clouds 21 1014 70 10000 1.32 347 12:24 25.05.2022
1280 Clouds 20 1012 74 10000 3.6 10 10:42 25.05.2022
1281 Rain 19 1013 78 10000 2.57 110 09:53 25.05.2022
1282 Clouds 19 1011 82 10000 0.89 30 08:22 25.05.2022
1283 Clouds 18 1009 81 8873 1.5 343 06:45 25.05.2022
1284 Clouds 18 1007 82 10000 1.03 0 02:55 25.05.2022
1285 Rain 19 1007 80 10000 3.6 340 23:53 24.05.2022
1286 Rain 19 1006 82 10000 2.68 340 23:23 24.05.2022
1287 Rain 19 1006 79 10000 2.06 20 22:18 24.05.2022
1288 Rain 20 1006 77 10000 2.06 20 21:38 24.05.2022
1289 Clouds 20 1006 76 10000 2.06 20 21:19 24.05.2022
1290 Clouds 22 1003 63 7671 0.92 108 19:37 24.05.2022
1291 Thunderstorm 21 1006 59 2000 8.75 330 18:49 24.05.2022
1292 Clouds 27 1005 47 10000 2.06 210 16:40 24.05.2022
1293 Clouds 26 1006 49 10000 2.57 180 15:54 24.05.2022
1294 Clouds 27 1006 48 10000 2.57 210 14:50 24.05.2022
1295 Clouds 26 1006 48 10000 1.54 0 13:48 24.05.2022
1296 Clouds 25 1006 51 10000 2.06 0 12:42 24.05.2022
1297 Clouds 23 1007 60 10000 3.6 30 10:18 24.05.2022
1298 Clouds 23 1007 65 10000 4.12 30 09:41 24.05.2022
1299 Clouds 22 1007 67 10000 2.57 30 08:43 24.05.2022
1300 Clear 19 1005 63 10000 2.57 360 06:45 24.05.2022
1301 Clear 20 1004 54 10000 2.06 330 03:48 24.05.2022
1302 Clear 20 1005 52 10000 1.03 0 01:49 24.05.2022
1303 Clear 20 1005 49 10000 2.68 225 01:18 24.05.2022
1304 Clear 23 1004 38 10000 4.47 253 22:50 23.05.2022
1305 Clear 24 1003 35 10000 1.79 197 21:54 23.05.2022
1306 Clear 25 1003 35 10000 3.09 260 20:59 23.05.2022
1307 Clear 26 1003 36 10000 4.02 211 20:26 23.05.2022
1308 Clear 27 1002 34 10000 3.09 210 19:31 23.05.2022
1309 Clouds 27 1004 36 10000 4.47 188 18:42 23.05.2022
1310 Clouds 27 1004 37 10000 4.63 220 18:22 23.05.2022
1311 Clouds 28 1005 45 10000 4.47 203 16:51 23.05.2022
1312 Clouds 27 1007 52 10000 1.54 0 14:49 23.05.2022
1313 Clear 26 1007 51 10000 3.6 250 12:30 23.05.2022
1314 Clear 25 1008 55 10000 3.09 230 11:25 23.05.2022
1315 Clouds 23 1008 65 10000 2.06 260 09:49 23.05.2022
1316 Clouds 22 1008 67 10000 2.57 250 08:51 23.05.2022
1317 Clouds 21 1008 74 10000 2.68 273 07:46 23.05.2022
1318 Clouds 20 1008 78 10000 2.68 258 06:43 23.05.2022
1319 Clouds 20 1009 79 10000 1.34 260 05:21 23.05.2022
1320 Clouds 21 1009 72 10000 4.02 272 02:19 23.05.2022
1321 Rain 21 1010 71 10000 2.57 280 01:35 23.05.2022
1322 Clouds 22 1010 69 10000 5.14 270 23:42 22.05.2022
1323 Clouds 23 1009 68 10000 2.24 206 22:35 22.05.2022
1324 Clouds 24 1009 66 10000 3.6 270 21:54 22.05.2022
1325 Clouds 25 1009 64 10000 3.09 240 20:51 22.05.2022
1326 Clouds 26 1009 63 10000 4.02 232 20:25 22.05.2022
1327 Clouds 27 1008 58 10000 1.79 223 19:54 22.05.2022
1328 Clear 28 1008 51 10000 1.03 0 18:55 22.05.2022
1329 Clear 29 1008 50 10000 2.06 230 18:24 22.05.2022
1330 Clouds 29 1009 48 10000 2.68 191 17:32 22.05.2022
1331 Clear 29 1009 49 10000 2.68 239 16:25 22.05.2022
1332 Clear 28 1011 53 10000 2.68 264 14:48 22.05.2022
1333 Clear 27 1011 54 10000 2.57 250 13:38 22.05.2022
1334 Clear 27 1011 55 10000 3.09 230 12:50 22.05.2022
1335 Clear 25 1013 60 10000 2.24 281 11:37 22.05.2022
1336 Clear 23 1013 64 10000 2.57 230 09:42 22.05.2022
1337 Clear 21 1013 71 10000 1.34 218 08:31 22.05.2022
1338 Clear 20 1013 73 10000 1.03 0 07:21 22.05.2022
1339 Clear 19 1012 73 10000 1.54 320 05:31 22.05.2022
1340 Clear 21 1013 69 10000 3.13 269 01:41 22.05.2022
1341 Clear 22 1014 70 10000 3.6 270 00:43 22.05.2022
1342 Clear 23 1014 66 10000 3.09 250 23:52 21.05.2022
1343 Clear 25 1014 60 10000 3.6 240 22:28 21.05.2022
1344 Clear 26 1015 61 10000 2.06 230 21:42 21.05.2022
1345 Clear 28 1014 51 10000 2.57 240 20:59 21.05.2022
1346 Clear 29 1012 44 10000 2.24 222 20:22 21.05.2022
1347 Clear 31 1013 42 10000 2.06 0 19:27 21.05.2022
1348 Clear 32 1015 42 10000 2.06 230 17:48 21.05.2022
1349 Clouds 30 1016 48 10000 3.09 270 15:54 21.05.2022
1350 Clouds 29 1016 50 9000 2.57 230 14:37 21.05.2022
1351 Clouds 28 1017 52 10000 3.09 240 13:42 21.05.2022
1352 Clear 28 1017 53 10000 2.57 260 12:49 21.05.2022
1353 Clear 27 1017 56 10000 3.09 250 11:58 21.05.2022
1354 Clear 24 1018 59 10000 3.13 261 10:23 21.05.2022
1355 Clear 23 1018 62 10000 4.12 270 09:41 21.05.2022
1356 Clear 22 1019 67 10000 4.92 228 08:52 21.05.2022
1357 Clear 20 1020 76 10000 2.68 221 07:53 21.05.2022
1358 Clear 19 1020 73 10000 2.57 260 03:48 21.05.2022
1359 Clear 22 1022 59 10000 4.12 270 23:50 20.05.2022
1360 Clear 23 1021 51 10000 4.92 228 22:56 20.05.2022
1361 Clear 24 1020 47 10000 3.13 179 22:23 20.05.2022
1362 Clear 25 1020 43 10000 4.02 226 21:40 20.05.2022
1363 Clear 26 1020 38 10000 3.6 250 20:54 20.05.2022
1364 Clear 29 1021 37 10000 3.13 174 19:58 20.05.2022
1365 Clear 29 1021 38 10000 3.6 220 19:26 20.05.2022
1366 Clouds 30 1021 39 10000 2.68 155 18:36 20.05.2022
1367 Clear 30 1022 41 10000 2.06 260 16:53 20.05.2022
1368 Clear 30 1023 44 10000 2.68 192 15:58 20.05.2022
1369 Clear 30 1022 43 10000 2.57 0 15:40 20.05.2022
1370 Clear 29 1023 44 10000 2.57 0 14:29 20.05.2022
1371 Clear 29 1024 43 10000 3.09 220 13:54 20.05.2022
1372 Clear 26 1025 43 10000 2.06 0 11:33 20.05.2022
1373 Clear 23 1026 44 10000 1.34 117 09:51 20.05.2022
1374 Clear 22 1026 49 10000 2.06 110 08:43 20.05.2022
1375 Clear 18 1025 59 10000 0.89 86 06:47 20.05.2022
1376 Clear 18 1025 58 10000 1.54 190 06:24 20.05.2022
1377 Clear 19 1025 57 10000 3.13 91 04:22 20.05.2022
1378 Clear 21 1026 58 10000 1.54 160 00:24 20.05.2022
1379 Clear 22 1026 57 10000 1.54 150 22:44 19.05.2022
1380 Clear 24 1026 51 10000 2.06 130 21:53 19.05.2022
1381 Clear 25 1025 48 10000 2.57 130 21:25 19.05.2022
1382 Clear 26 1025 41 10000 2.57 150 20:59 19.05.2022
1383 Clear 27 1024 42 10000 1.79 142 20:25 19.05.2022
1384 Clear 27 1025 39 10000 2.57 140 19:34 19.05.2022
1385 Clear 28 1023 38 10000 2.57 160 17:59 19.05.2022
1386 Clear 28 1024 35 10000 2.57 0 16:29 19.05.2022
1387 Clear 27 1025 36 10000 2.57 0 14:52 19.05.2022
1388 Clear 27 1025 36 10000 2.57 100 14:21 19.05.2022
1389 Clear 26 1026 35 10000 3.09 90 12:23 19.05.2022
1390 Clear 24 1026 34 10000 4.12 100 10:40 19.05.2022
1391 Clear 22 1026 38 10000 4.63 90 08:57 19.05.2022
1392 Clear 21 1026 43 10000 3.09 80 07:48 19.05.2022
1393 Clouds 20 1026 44 10000 3.6 80 04:44 19.05.2022
1394 Clear 21 1024 53 10000 4.12 80 01:57 19.05.2022
1395 Clear 23 1024 50 10000 4.63 100 23:49 18.05.2022
1396 Clear 24 1023 46 10000 5.14 110 22:46 18.05.2022
1397 Clear 25 1022 51 10000 4.63 110 21:47 18.05.2022
1398 Clear 26 1022 44 10000 5.14 120 21:24 18.05.2022
1399 Clear 26 1022 47 10000 5.66 120 20:23 18.05.2022
1400 Clear 27 1021 47 10000 6.17 110 19:32 18.05.2022
1401 Clouds 28 1019 46 10000 6.17 120 18:20 18.05.2022
1402 Clouds 28 1020 47 10000 5.66 100 17:41 18.05.2022
1403 Clouds 28 1020 48 10000 5.66 100 17:22 18.05.2022
1404 Clouds 28 1020 49 10000 5.66 120 15:58 18.05.2022
1405 Clouds 28 1020 49 10000 5.66 110 15:37 18.05.2022
1406 Clouds 28 1020 48 10000 5.66 100 14:30 18.05.2022
1407 Clouds 28 1020 50 10000 5.66 100 14:30 18.05.2022
1408 Clear 27 1020 52 10000 5.14 130 12:59 18.05.2022
1409 Clear 27 1020 53 10000 5.14 130 12:39 18.05.2022
1410 Clear 26 1020 57 10000 6.17 100 11:33 18.05.2022
1411 Clear 25 1020 59 10000 5.14 120 10:49 18.05.2022
1412 Clear 22 1020 69 10000 1.54 70 08:27 18.05.2022
1413 Clear 21 1019 68 10000 2.68 102 07:28 18.05.2022
1414 Clear 20 1017 67 10000 1.79 161 04:26 18.05.2022
1415 Clouds 23 1016 58 10000 1.54 280 00:52 18.05.2022
1416 Clouds 24 1016 57 10000 2.68 237 23:41 17.05.2022
1417 Clear 25 1015 48 10000 2.57 0 21:23 17.05.2022
1418 Clear 28 1014 36 10000 1.54 210 20:44 17.05.2022
1419 Clear 30 1014 32 10000 2.06 200 19:45 17.05.2022
1420 Clear 31 1014 32 10000 2.57 200 19:24 17.05.2022
1421 Clear 31 1014 31 10000 2.06 220 17:49 17.05.2022
1422 Clear 31 1015 32 10000 2.57 290 16:57 17.05.2022
1423 Clear 30 1016 36 10000 2.06 180 15:59 17.05.2022
1424 Clear 30 1015 36 10000 4.47 227 14:56 17.05.2022
1425 Clear 30 1016 38 10000 3.09 220 14:29 17.05.2022
1426 Clear 28 1017 44 10000 2.06 0 13:24 17.05.2022
1427 Clear 24 1018 57 10000 2.68 177 10:42 17.05.2022
1428 Clear 21 1019 67 10000 1.03 0 08:53 17.05.2022
1429 Clear 19 1019 69 10000 0.51 0 07:56 17.05.2022
1430 Clouds 17 1018 75 10000 0.51 0 06:26 17.05.2022
1431 Clouds 20 1019 59 10000 1.54 260 01:34 17.05.2022
1432 Clouds 21 1017 55 10000 3.58 248 23:46 16.05.2022
1433 Clouds 21 1018 56 10000 2.78 259 22:39 16.05.2022
1434 Clouds 24 1016 38 10000 0.89 299 21:24 16.05.2022
1435 Clouds 25 1018 42 10000 0.89 12 20:42 16.05.2022
1436 Clear 28 1015 41 10000 1.79 19 18:53 16.05.2022
1437 Clear 29 1016 41 10000 3.09 260 17:26 16.05.2022
1438 Clear 29 1016 39 10000 4.02 250 15:35 16.05.2022
1439 Clear 28 1017 39 10000 3.6 210 13:48 16.05.2022
1440 Clear 27 1017 40 10000 3.13 217 12:41 16.05.2022
1441 Clear 23 1018 49 10000 3.09 260 10:36 16.05.2022
1442 Clear 20 1018 61 10000 2.24 241 07:59 16.05.2022
1443 Clouds 18 1017 65 10000 2.24 246 06:30 16.05.2022
1444 Clear 20 1018 57 10000 1.54 310 01:43 16.05.2022
1445 Clouds 23 1017 56 10000 2.57 240 22:44 15.05.2022
1446 Clouds 24 1016 49 10000 2.24 167 22:20 15.05.2022
1447 Rain 24 1016 47 10000 2.06 210 21:37 15.05.2022
1448 Clouds 26 1017 47 10000 2.57 220 20:47 15.05.2022
1449 Clouds 28 1016 43 10000 2.24 224 18:46 15.05.2022
1450 Clouds 29 1016 44 10000 3.58 101 16:54 15.05.2022
1451 Clouds 28 1017 50 10000 2.68 99 14:34 15.05.2022
1452 Clouds 27 1018 51 10000 2.68 236 13:46 15.05.2022
1453 Clear 26 1018 56 10000 2.24 145 11:59 15.05.2022
1454 Clear 25 1018 58 10000 1.79 208 10:49 15.05.2022
1455 Clear 23 1019 61 10000 0.89 59 09:51 15.05.2022
1456 Clear 19 1018 76 10000 0.51 290 07:23 15.05.2022
1457 Clear 18 1018 75 10000 0.89 290 06:55 15.05.2022
1458 Clouds 19 1017 67 10000 0.51 240 02:55 15.05.2022
1459 Clear 21 1018 59 10000 1.03 0 00:24 15.05.2022
1460 Clear 22 1017 56 10000 1.34 239 23:37 14.05.2022
1461 Clear 23 1018 56 10000 1.54 210 21:50 14.05.2022
1462 Clear 24 1016 48 10000 2.68 220 21:26 14.05.2022
1463 Clear 26 1015 44 10000 2.06 200 20:26 14.05.2022
1464 Clear 27 1016 42 10000 1.54 180 19:20 14.05.2022
1465 Clear 28 1016 41 10000 2.57 180 18:57 14.05.2022
1466 Clear 28 1015 40 10000 2.24 62 17:44 14.05.2022
1467 Clear 28 1016 40 10000 3.13 138 15:58 14.05.2022
1468 Clear 27 1017 47 10000 2.57 160 14:38 14.05.2022
1469 Clear 27 1017 47 10000 2.57 160 14:38 14.05.2022
1470 Clear 26 1018 51 10000 2.06 210 13:27 14.05.2022
1471 Clouds 24 1018 57 10000 1.79 104 11:45 14.05.2022
1472 Clear 22 1019 58 10000 2.57 250 10:43 14.05.2022
1473 Clouds 21 1019 59 10000 3.09 270 10:18 14.05.2022
1474 Clouds 19 1019 70 10000 2.57 250 09:23 14.05.2022
1475 Rain 18 1018 76 10000 3.09 270 07:32 14.05.2022
1476 Clear 18 1018 71 10000 2.68 248 04:35 14.05.2022
1477 Clear 19 1018 64 10000 3.09 290 00:27 14.05.2022
1478 Clear 20 1017 61 10000 3.13 233 23:25 13.05.2022
1479 Clear 20 1017 61 10000 2.68 226 23:25 13.05.2022
1480 Clouds 20 1017 60 10000 2.57 260 22:54 13.05.2022
1481 Clouds 21 1017 58 10000 2.57 250 22:21 13.05.2022
1482 Clouds 23 1015 53 10000 4.47 220 20:58 13.05.2022
1483 Clear 24 1015 52 10000 3.13 224 20:37 13.05.2022
1484 Clear 25 1015 50 10000 4.47 212 20:19 13.05.2022
1485 Clear 27 1015 49 10000 3.09 270 18:56 13.05.2022
1486 Clear 27 1015 47 10000 3.09 250 17:30 13.05.2022
1487 Clear 27 1016 47 10000 3.09 270 16:29 13.05.2022
1488 Clear 27 1016 45 10000 2.68 196 15:45 13.05.2022
1489 Clear 26 1017 48 10000 3.09 210 14:29 13.05.2022
1490 Clear 25 1018 52 10000 2.68 214 12:47 13.05.2022
1491 Clear 23 1019 56 10000 3.58 191 11:39 13.05.2022
1492 Clear 21 1019 60 10000 3.13 221 09:43 13.05.2022
1493 Clear 19 1019 64 10000 3.58 242 08:51 13.05.2022
1494 Clear 18 1019 70 10000 3.13 243 07:50 13.05.2022
1495 Clear 16 1018 77 10000 2.06 290 06:48 13.05.2022
1496 Clear 16 1018 75 10000 2.57 280 04:54 13.05.2022
1497 Clear 18 1019 64 10000 3.6 290 00:42 13.05.2022
1498 Clear 20 1019 59 10000 4.12 260 22:47 12.05.2022
1499 Clear 20 1019 59 10000 3.6 250 22:29 12.05.2022
1500 Clear 23 1017 54 10000 6.26 220 20:41 12.05.2022
1501 Clear 26 1017 44 10000 4.12 230 19:24 12.05.2022
1502 Clear 28 1017 41 10000 3.6 230 18:19 12.05.2022
1503 Clear 28 1018 46 10000 2.57 240 16:34 12.05.2022
1504 Clear 27 1018 50 10000 2.68 225 14:51 12.05.2022
1505 Clear 26 1019 53 10000 3.58 272 13:47 12.05.2022
1506 Clear 23 1020 61 10000 3.6 220 11:31 12.05.2022
1507 Clear 21 1020 66 10000 3.09 250 10:22 12.05.2022
1508 Clear 19 1020 74 10000 4.47 238 08:52 12.05.2022
1509 Clear 18 1020 77 10000 3.09 260 07:57 12.05.2022
1510 Clear 17 1020 78 10000 2.57 280 06:55 12.05.2022
1511 Clear 17 1019 68 10000 2.57 280 03:31 12.05.2022
1512 Clear 20 1018 59 10000 3.13 240 00:50 12.05.2022
1513 Clear 21 1018 53 10000 3.58 244 22:53 11.05.2022
1514 Clear 23 1018 47 10000 2.68 234 21:59 11.05.2022
1515 Clear 23 1017 45 10000 3.58 183 21:24 11.05.2022
1516 Clear 27 1018 38 10000 2.06 260 19:42 11.05.2022
1517 Clear 28 1017 33 10000 2.57 200 17:24 11.05.2022
1518 Clear 28 1018 36 10000 3.13 239 15:59 11.05.2022
1519 Clear 27 1019 39 10000 3.13 221 14:39 11.05.2022
1520 Clear 27 1019 42 10000 2.57 270 14:19 11.05.2022
1521 Clear 24 1020 49 10000 1.54 0 11:55 11.05.2022
1522 Clear 24 1020 49 10000 3.13 233 11:30 11.05.2022
1523 Clear 21 1020 58 10000 2.68 222 09:29 11.05.2022
1524 Clouds 16 1019 72 10000 0.61 175 06:24 11.05.2022
1525 Clear 19 1018 62 10000 2.06 270 01:28 11.05.2022
1526 Clear 20 1019 66 10000 0.51 0 22:53 10.05.2022
1527 Clear 21 1018 60 10000 1.34 207 22:19 10.05.2022
1528 Clear 23 1017 48 10000 1.54 210 20:59 10.05.2022
1529 Clear 25 1017 44 10000 1.79 229 20:21 10.05.2022
1530 Clear 26 1019 41 10000 2.06 220 18:35 10.05.2022
1531 Clouds 26 1019 42 10000 2.57 0 17:37 10.05.2022
1532 Clouds 26 1020 43 10000 2.57 170 15:49 10.05.2022
1533 Clear 24 1021 52 10000 2.24 200 12:48 10.05.2022
1534 Clear 23 1021 57 10000 2.06 270 11:53 10.05.2022
1535 Clear 23 1021 58 10000 1.54 220 11:21 10.05.2022
1536 Clear 22 1022 60 10000 2.24 232 10:54 10.05.2022
1537 Clear 20 1022 70 10000 1.79 154 09:27 10.05.2022
1538 Clouds 17 1022 78 10000 1.03 0 07:47 10.05.2022
1539 Clear 16 1022 81 10000 1.54 360 04:35 10.05.2022
1540 Clear 17 1022 81 10000 1.79 54 01:36 10.05.2022
1541 Clear 18 1022 77 10000 0.51 0 23:37 09.05.2022
1542 Clear 19 1021 72 10000 1.34 90 22:29 09.05.2022
1543 Clear 20 1021 69 10000 1.03 0 21:21 09.05.2022
1544 Clouds 22 1020 57 10000 1.03 0 19:52 09.05.2022
1545 Clouds 23 1022 58 10000 1.54 0 17:59 09.05.2022
1546 Clouds 24 1020 48 10000 2.06 170 16:49 09.05.2022
1547 Clouds 24 1021 46 10000 3.13 241 15:53 09.05.2022
1548 Clouds 24 1021 45 10000 4.02 215 15:31 09.05.2022
1549 Clouds 24 1021 46 10000 1.79 197 14:32 09.05.2022
1550 Clouds 23 1022 49 10000 2.06 30 13:51 09.05.2022
1551 Clear 23 1022 51 10000 2.57 180 12:30 09.05.2022
1552 Clear 22 1023 54 10000 2.57 190 11:43 09.05.2022
1553 Clouds 20 1023 63 10000 1.03 0 10:44 09.05.2022
1554 Clouds 18 1022 73 10000 0.51 0 09:38 09.05.2022
1555 Clouds 15 1022 85 10000 0.51 0 07:55 09.05.2022
1556 Clear 15 1021 86 10000 1.03 0 03:40 09.05.2022
1557 Clouds 17 1021 80 10000 0.89 3 00:20 09.05.2022
1558 Clear 17 1020 78 10000 1.54 350 22:56 08.05.2022
1559 Clear 17 1020 76 10000 1.54 10 21:56 08.05.2022
1560 Clouds 19 1019 69 10000 2.06 20 20:37 08.05.2022
1561 Clouds 19 1019 68 10000 1.34 349 19:53 08.05.2022
1562 Clouds 20 1019 59 10000 3.6 70 18:57 08.05.2022
1563 Clouds 20 1018 60 10000 2.06 130 18:19 08.05.2022
1564 Clouds 21 1019 55 10000 3.58 65 16:56 08.05.2022
1565 Clouds 21 1019 57 10000 3.58 124 15:40 08.05.2022
1566 Clouds 20 1019 62 10000 2.57 80 14:57 08.05.2022
1567 Clouds 20 1020 63 10000 2.68 113 12:33 08.05.2022
1568 Clouds 18 1020 69 10000 1.79 187 10:32 08.05.2022
1569 Clouds 18 1019 71 10000 1.79 44 09:58 08.05.2022
1570 Clouds 18 1019 71 10000 1.79 44 09:58 08.05.2022
1571 Clouds 16 1019 81 10000 1.54 340 08:57 08.05.2022
1572 Rain 14 1018 90 10000 0.89 350 07:25 08.05.2022
1573 Rain 14 1018 91 10000 0.89 14 03:55 08.05.2022
1574 Clouds 14 1018 90 10000 2.06 350 02:47 08.05.2022
1575 Clouds 15 1018 88 10000 2.06 20 00:28 08.05.2022
1576 Clouds 15 1018 87 10000 2.06 30 23:50 07.05.2022
1577 Clouds 16 1018 83 10000 2.57 30 22:46 07.05.2022
1578 Clouds 16 1018 81 10000 2.06 50 21:59 07.05.2022
1579 Rain 16 1018 78 10000 2.24 27 21:34 07.05.2022
1580 Clouds 16 1017 75 10000 3.13 72 20:34 07.05.2022
1581 Clouds 17 1017 75 10000 3.09 80 19:44 07.05.2022
1582 Rain 18 1017 68 10000 4.92 61 17:35 07.05.2022
1583 Clouds 19 1017 66 10000 3.13 156 15:47 07.05.2022
1584 Clouds 19 1018 67 10000 3.13 109 13:58 07.05.2022
1585 Clouds 16 1020 82 10000 0.51 0 10:46 07.05.2022
1586 Mist 14 1020 93 5000 0.51 0 09:19 07.05.2022
1587 Mist 13 1019 96 3000 0 0 07:50 07.05.2022
1588 Fog 12 1018 96 3000 1.03 190 06:43 07.05.2022
1589 Clouds 13 1019 95 7000 0.51 350 04:41 07.05.2022
1590 Drizzle 13 1020 93 8000 1.34 13 01:19 07.05.2022
1591 Clouds 13 1020 92 10000 1.54 120 23:36 06.05.2022
1592 Clouds 13 1020 93 10000 1.54 360 22:26 06.05.2022
1593 Clouds 13 1020 93 10000 1.54 350 21:41 06.05.2022
1594 Clouds 14 1019 92 10000 1.54 30 20:24 06.05.2022
1595 Rain 14 1019 91 10000 1.54 10 19:29 06.05.2022
1596 Rain 14 1019 91 10000 1.54 30 18:56 06.05.2022
1597 Rain 14 1019 90 10000 1.54 70 17:38 06.05.2022
1598 Rain 14 1019 91 10000 2.68 181 15:56 06.05.2022
1599 Rain 14 1019 91 6000 2.57 170 15:38 06.05.2022
1600 Rain 14 1019 89 6000 1.79 81 14:23 06.05.2022
1601 Rain 14 1019 91 5000 0.51 0 12:53 06.05.2022
1602 Rain 14 1019 91 5000 1.03 0 12:30 06.05.2022
1603 Rain 14 1019 92 5000 2.06 40 11:33 06.05.2022
1604 Rain 13 1018 94 5000 0.51 0 09:49 06.05.2022
1605 Drizzle 13 1018 94 6000 1.03 0 09:19 06.05.2022
1606 Rain 13 1018 95 6000 1.54 360 07:57 06.05.2022
1607 Clouds 12 1017 95 6000 2.06 50 06:29 06.05.2022
1608 Rain 12 1018 94 5000 3.09 40 04:32 06.05.2022
1609 Clouds 13 1018 94 7000 2.57 50 02:40 06.05.2022
1610 Rain 13 1019 94 6000 2.57 10 23:25 05.05.2022
1611 Clouds 13 1019 94 7000 3.09 350 21:52 05.05.2022
1612 Rain 13 1019 92 3000 1.54 340 20:48 05.05.2022
1613 Rain 13 1019 92 4000 1.79 322 19:42 05.05.2022
1614 Rain 14 1018 86 7000 2.57 360 16:51 05.05.2022
1615 Rain 16 1018 79 10000 1.79 52 15:48 05.05.2022
1616 Clouds 17 1018 70 10000 2.06 150 14:34 05.05.2022
1617 Clouds 17 1019 68 10000 2.57 110 13:18 05.05.2022
1618 Rain 17 1019 70 10000 3.6 120 11:46 05.05.2022
1619 Clouds 16 1018 70 10000 3.09 110 09:47 05.05.2022
1620 Clouds 16 1018 71 10000 4.12 120 09:26 05.05.2022
1621 Clouds 14 1017 78 10000 1.79 101 06:33 05.05.2022
1622 Clouds 15 1018 74 10000 0.89 176 02:28 05.05.2022
1623 Clouds 15 1017 73 10000 1.03 0 01:45 05.05.2022
1624 Clouds 16 1017 75 10000 2.06 30 00:57 05.05.2022
1625 Clouds 16 1017 76 10000 1.54 340 23:22 04.05.2022
1626 Clouds 16 1017 74 10000 1.34 318 22:18 04.05.2022
1627 Clouds 17 1017 72 10000 2.68 289 21:45 04.05.2022
1628 Clouds 17 1016 72 10000 1.54 10 20:55 04.05.2022
1629 Clouds 18 1016 65 10000 1.03 0 20:18 04.05.2022
1630 Clouds 19 1015 64 10000 2.57 360 19:35 04.05.2022
1631 Thunderstorm 19 1016 63 10000 2.06 350 18:43 04.05.2022
1632 Thunderstorm 19 1016 60 10000 3.09 140 18:19 04.05.2022
1633 Rain 20 1015 54 10000 4.02 311 17:22 04.05.2022
1634 Clouds 21 1017 51 10000 2.57 20 15:34 04.05.2022
1635 Clouds 21 1016 53 10000 4.02 18 14:41 04.05.2022
1636 Clouds 20 1016 53 10000 2.06 0 14:19 04.05.2022
1637 Clouds 19 1018 59 10000 1.03 0 12:39 04.05.2022
1638 Rain 18 1018 65 10000 1.03 0 11:40 04.05.2022
1639 Clouds 17 1017 72 10000 1.03 0 10:27 04.05.2022
1640 Rain 15 1016 81 10000 2.68 293 09:21 04.05.2022
1641 Rain 14 1016 85 8000 2.24 269 07:51 04.05.2022
1642 Clouds 14 1015 87 10000 2.24 249 04:45 04.05.2022
1643 Clear 14 1015 82 10000 2.24 229 02:33 04.05.2022
1644 Rain 15 1015 78 10000 2.57 0 23:20 03.05.2022
1645 Rain 15 1015 77 10000 3.09 330 21:53 03.05.2022
1646 Rain 15 1015 79 10000 2.68 12 21:31 03.05.2022
1647 Rain 15 1015 74 10000 1.03 0 20:46 03.05.2022
1648 Rain 17 1014 66 10000 5.66 210 19:32 03.05.2022
1649 Clouds 19 1014 56 10000 4.02 196 18:43 03.05.2022
1650 Clouds 20 1013 48 10000 3.6 10 17:22 03.05.2022
1651 Clouds 20 1013 52 10000 6.69 10 15:57 03.05.2022
1652 Clouds 21 1013 48 10000 2.06 60 14:23 03.05.2022
1653 Clouds 21 1014 49 10000 1.79 324 12:35 03.05.2022
1654 Clouds 20 1016 54 10000 1.03 0 11:39 03.05.2022
1655 Clouds 19 1015 57 10000 2.57 130 10:44 03.05.2022
1656 Clear 15 1015 68 10000 1.54 60 08:19 03.05.2022
1657 Clear 14 1013 71 10000 1.34 2 06:45 03.05.2022
1658 Clear 15 1014 64 10000 2.57 70 02:39 03.05.2022
1659 Clear 17 1013 51 10000 2.06 110 23:19 02.05.2022
1660 Clear 17 1012 52 10000 2.06 100 22:28 02.05.2022
1661 Clear 17 1014 55 10000 2.06 100 22:28 02.05.2022
1662 Clear 18 1014 52 10000 2.57 120 21:47 02.05.2022
1663 Clouds 21 1011 43 10000 3.6 110 19:30 02.05.2022
1664 Clouds 21 1011 40 10000 4.92 116 18:26 02.05.2022
1665 Clouds 22 1013 43 10000 3.6 130 17:41 02.05.2022
1666 Clouds 22 1013 41 10000 3.58 128 16:43 02.05.2022
1667 Clouds 22 1012 41 10000 3.09 120 15:41 02.05.2022
1668 Clouds 21 1013 42 10000 1.54 0 14:45 02.05.2022
1669 Clouds 21 1013 46 10000 3.58 134 13:42 02.05.2022
1670 Clear 19 1014 52 10000 2.06 120 11:41 02.05.2022
1671 Clear 17 1015 63 10000 2.06 70 09:45 02.05.2022
1672 Clear 14 1014 72 10000 2.06 90 08:29 02.05.2022
1673 Clear 12 1015 79 10000 1.03 10 06:53 02.05.2022
1674 Clear 15 1015 69 10000 2.68 103 00:46 02.05.2022
1675 Clear 15 1015 68 10000 3.09 90 00:22 02.05.2022
1676 Clouds 16 1015 64 10000 3.6 100 22:55 01.05.2022
1677 Clouds 17 1014 53 10000 5.14 120 21:43 01.05.2022
1678 Clear 19 1014 40 10000 4.63 140 20:36 01.05.2022
1679 Clear 21 1012 37 10000 3.6 150 19:22 01.05.2022
1680 Clear 21 1012 36 10000 3.13 157 18:52 01.05.2022
1681 Clouds 21 1012 36 10000 4.47 115 17:49 01.05.2022
1682 Clouds 21 1013 38 10000 7.15 80 16:37 01.05.2022
1683 Clouds 21 1014 39 10000 3.13 64 15:51 01.05.2022
1684 Clouds 21 1014 42 10000 2.68 91 14:45 01.05.2022
1685 Clouds 19 1016 47 10000 3.6 100 12:40 01.05.2022
1686 Clouds 17 1016 57 10000 3.13 112 10:22 01.05.2022
1687 Clouds 15 1016 68 10000 2.68 59 08:50 01.05.2022
1688 Clouds 13 1016 69 10000 1.54 80 06:50 01.05.2022
1689 Clouds 15 1016 61 10000 1.54 350 01:56 01.05.2022
1690 Clouds 17 1016 50 10000 1.03 0 22:18 30.04.2022
1691 Clouds 18 1016 44 10000 1.79 285 21:32 30.04.2022
1692 Clouds 20 1016 38 10000 2.06 160 19:54 30.04.2022
1693 Clouds 20 1016 35 10000 2.06 110 18:53 30.04.2022
1694 Clouds 21 1017 32 10000 2.68 123 17:26 30.04.2022
1695 Clouds 21 1018 32 10000 3.09 170 15:51 30.04.2022
1696 Clouds 21 1018 32 10000 3.09 170 15:51 30.04.2022
1697 Clouds 21 1017 31 10000 4.02 108 15:18 30.04.2022
1698 Clouds 20 1019 35 10000 2.68 149 13:52 30.04.2022
1699 Clouds 19 1021 40 10000 1.54 160 11:48 30.04.2022
1700 Clouds 18 1021 42 10000 2.06 140 11:26 30.04.2022
1701 Clouds 17 1020 47 10000 1.54 110 09:57 30.04.2022
1702 Clouds 14 1021 62 10000 1.03 0 07:47 30.04.2022
1703 Clouds 14 1021 59 10000 1.54 70 03:58 30.04.2022
1704 Clear 16 1023 49 10000 2.57 140 23:55 29.04.2022
1705 Clouds 16 1022 48 10000 2.57 150 22:37 29.04.2022
1706 Clouds 18 1022 43 10000 3.09 140 21:56 29.04.2022
1707 Clear 18 1020 40 10000 3.09 150 21:24 29.04.2022
1708 Clear 20 1021 39 10000 3.6 130 19:55 29.04.2022
1709 Clear 21 1020 35 10000 4.63 130 19:27 29.04.2022
1710 Clear 22 1020 34 10000 4.12 150 17:34 29.04.2022
1711 Clear 22 1021 35 10000 4.47 91 16:36 29.04.2022
1712 Clear 21 1023 39 10000 3.09 100 14:36 29.04.2022
1713 Clear 21 1023 38 10000 2.24 171 13:36 29.04.2022
1714 Clear 20 1024 39 10000 3.13 137 12:36 29.04.2022
1715 Clouds 18 1025 54 10000 3.13 67 10:29 29.04.2022
1716 Clouds 15 1025 64 10000 3.13 101 07:52 29.04.2022
1717 Clouds 13 1025 75 10000 1.03 0 07:25 29.04.2022
1718 Clouds 14 1025 72 10000 1.54 30 06:29 29.04.2022
1719 Clouds 15 1025 63 10000 2.57 50 01:47 29.04.2022
1720 Clear 15 1025 64 10000 2.57 110 23:55 28.04.2022
1721 Clear 16 1024 59 10000 2.57 120 23:25 28.04.2022
1722 Clear 17 1022 55 10000 3.09 140 22:19 28.04.2022
1723 Clear 18 1023 55 10000 3.09 130 21:41 28.04.2022
1724 Clear 19 1023 51 10000 3.6 140 20:43 28.04.2022
1725 Clear 21 1021 42 10000 4.12 110 19:49 28.04.2022
1726 Clear 21 1022 45 10000 3.09 140 19:24 28.04.2022
1727 Clear 21 1020 44 10000 3.09 140 18:45 28.04.2022
1728 Clear 22 1021 43 10000 2.57 140 17:32 28.04.2022
1729 Clear 22 1021 41 10000 3.09 90 16:50 28.04.2022
1730 Clear 22 1022 43 10000 2.68 151 16:20 28.04.2022
1731 Clear 22 1022 43 10000 2.68 151 16:20 28.04.2022
1732 Clear 21 1022 44 10000 2.06 0 15:41 28.04.2022
1733 Clear 21 1022 41 10000 1.79 46 14:55 28.04.2022
1734 Clear 20 1022 42 10000 3.13 137 13:23 28.04.2022
1735 Clouds 19 1023 47 10000 3.09 90 12:28 28.04.2022
1736 Clouds 17 1023 56 10000 4.12 80 10:51 28.04.2022
1737 Clear 16 1024 61 10000 4.63 100 10:26 28.04.2022
1738 Clouds 16 1024 61 10000 4.63 80 09:43 28.04.2022
1739 Clouds 13 1022 63 10000 3.09 80 07:40 28.04.2022
1740 Clouds 13 1022 64 10000 2.57 50 06:38 28.04.2022
1741 Clouds 13 1022 65 10000 3.09 80 05:40 28.04.2022
1742 Clouds 13 1022 67 10000 2.06 80 04:42 28.04.2022
1743 Clear 14 1021 65 10000 1.54 70 00:51 28.04.2022
1744 Clear 15 1020 65 10000 1.54 30 22:52 27.04.2022
1745 Clear 17 1020 58 10000 2.06 120 21:58 27.04.2022
1746 Clear 18 1017 51 10000 2.57 110 21:32 27.04.2022
1747 Clear 19 1019 48 10000 3.6 120 20:44 27.04.2022
1748 Clear 21 1018 43 10000 3.6 110 19:41 27.04.2022
1749 Clear 21 1017 45 10000 3.09 130 19:22 27.04.2022
1750 Clear 21 1017 42 10000 2.06 130 18:38 27.04.2022
1751 Clouds 22 1017 45 10000 2.57 90 17:26 27.04.2022
1752 Clear 21 1017 48 10000 1.79 112 15:56 27.04.2022
1753 Clouds 18 1017 61 10000 1.34 231 12:34 27.04.2022
1754 Clouds 17 1017 68 10000 2.06 160 11:23 27.04.2022
1755 Clear 16 1017 69 10000 2.57 130 10:22 27.04.2022
1756 Fog 10 1017 88 2000 0.51 0 07:29 27.04.2022
1757 Clouds 9 1016 90 7000 0.45 68 06:30 27.04.2022
1758 Clear 12 1014 86 10000 1.34 275 02:21 27.04.2022
1759 Clear 12 1014 84 10000 3.13 250 00:57 27.04.2022
1760 Clear 13 1014 83 10000 2.68 269 23:58 26.04.2022
1761 Clear 13 1014 84 10000 2.68 295 23:23 26.04.2022
1762 Clear 13 1013 85 10000 2.24 244 22:42 26.04.2022
1763 Clear 14 1013 88 10000 2.24 259 21:49 26.04.2022
1764 Clear 15 1012 83 10000 1.34 270 20:56 26.04.2022
1765 Clear 16 1012 81 10000 1.34 246 20:35 26.04.2022
1766 Clouds 16 1012 78 10000 1.03 0 19:34 26.04.2022
1767 Clouds 16 1012 77 8000 2.06 280 18:51 26.04.2022
1768 Clouds 17 1012 67 10000 2.06 70 18:18 26.04.2022
1769 Clouds 17 1012 71 10000 2.24 165 18:18 26.04.2022
1770 Rain 18 1011 64 10000 1.54 0 17:32 26.04.2022
1771 Clouds 16 1014 78 10000 3.09 60 14:46 26.04.2022
1772 Clouds 15 1014 84 10000 2.57 80 13:34 26.04.2022
1773 Clouds 14 1013 89 10000 3.09 80 12:25 26.04.2022
1774 Clouds 13 1013 92 8000 2.68 76 10:46 26.04.2022
1775 Clouds 12 1012 90 6000 2.57 70 09:41 26.04.2022
1776 Clouds 12 1012 87 10000 1.54 50 07:59 26.04.2022
1777 Clouds 12 1013 90 10000 0.89 136 04:33 26.04.2022
1778 Clouds 13 1012 92 10000 1.54 50 02:20 26.04.2022
1779 Clouds 12 1011 94 10000 2.68 13 00:26 26.04.2022
1780 Thunderstorm 13 1010 90 7000 6.17 300 22:49 25.04.2022
1781 Rain 14 1010 82 10000 3.58 321 21:43 25.04.2022
1782 Rain 15 1007 74 10000 2.68 125 20:45 25.04.2022
1783 Clouds 18 1009 61 10000 3.6 140 19:34 25.04.2022
1784 Clouds 19 1010 57 10000 3.6 160 18:23 25.04.2022
1785 Clouds 20 1008 53 10000 3.09 150 17:23 25.04.2022
1786 Clouds 19 1008 50 10000 2.24 232 15:29 25.04.2022
1787 Clouds 19 1010 53 10000 1.03 0 14:54 25.04.2022
1788 Clouds 18 1009 54 10000 2.06 0 13:41 25.04.2022
1789 Clear 18 1009 58 10000 2.57 0 11:49 25.04.2022
1790 Clear 15 1008 68 10000 2.06 260 10:27 25.04.2022
1791 Clouds 12 1007 79 10000 3.09 280 08:47 25.04.2022
1792 Clouds 9 1006 85 10000 0.89 330 06:46 25.04.2022
1793 Clear 10 1006 81 10000 2.06 270 04:33 25.04.2022
1794 Clear 11 1007 77 10000 3.13 235 00:58 25.04.2022
1795 Clouds 11 1006 77 10000 2.24 240 23:52 24.04.2022
1796 Clouds 11 1005 78 10000 2.24 218 22:49 24.04.2022
1797 Clouds 11 1005 78 10000 1.03 230 22:29 24.04.2022
1798 Clouds 12 1005 75 10000 0.51 300 21:41 24.04.2022
1799 Clear 13 1004 72 10000 0.51 240 21:18 24.04.2022
1800 Clouds 13 1006 67 10000 1.03 0 20:35 24.04.2022
1801 Clouds 15 1004 55 10000 2.68 229 19:48 24.04.2022
1802 Clouds 16 1005 56 10000 2.68 255 18:20 24.04.2022
1803 Clouds 15 1004 60 10000 3.09 210 17:29 24.04.2022
1804 Clouds 16 1005 61 10000 2.68 162 16:59 24.04.2022
1805 Clouds 15 1004 62 10000 2.68 190 16:35 24.04.2022
1806 Clouds 15 1004 61 10000 4.47 209 15:54 24.04.2022
1807 Clouds 15 1004 59 10000 3.09 60 15:29 24.04.2022
1808 Clouds 14 1004 66 10000 5.14 100 13:56 24.04.2022
1809 Clouds 13 1004 70 10000 4.63 100 13:25 24.04.2022
1810 Clouds 13 1004 71 10000 4.63 90 11:56 24.04.2022
1811 Clouds 13 1004 68 10000 5.14 100 11:27 24.04.2022
1812 Clouds 12 1004 71 10000 4.63 100 10:24 24.04.2022
1813 Clouds 11 1002 77 10000 4.63 100 09:19 24.04.2022
1814 Clouds 10 1001 81 10000 4.63 110 06:18 24.04.2022
1815 Clouds 11 1002 84 10000 5.66 130 03:37 24.04.2022
1816 Rain 12 1002 90 10000 4.12 100 01:37 24.04.2022
1817 Clouds 12 1001 89 8000 5.66 190 23:57 23.04.2022
1818 Clouds 13 1001 89 8000 8.23 120 23:26 23.04.2022
1819 Rain 13 1001 91 10000 8.75 120 22:46 23.04.2022
1820 Rain 14 1001 84 10000 6.69 100 21:49 23.04.2022
1821 Rain 14 1001 79 10000 7.15 58 21:31 23.04.2022
1822 Clouds 15 1001 76 8000 6.17 100 20:27 23.04.2022
1823 Clouds 15 1002 77 7000 5.66 90 19:21 23.04.2022
1824 Clouds 15 1003 78 7000 4.12 100 18:55 23.04.2022
1825 Clouds 15 1003 78 7000 4.12 100 18:32 23.04.2022
1826 Rain 15 1003 80 8000 4.63 100 17:48 23.04.2022
1827 Rain 15 1003 80 7000 5.14 120 16:47 23.04.2022
1828 Rain 16 1004 76 10000 6.26 84 15:54 23.04.2022
1829 Clouds 16 1005 71 10000 5.81 63 13:33 23.04.2022
1830 Clouds 15 1005 70 10000 7.6 101 11:57 23.04.2022
1831 Clouds 15 1005 70 10000 5.66 100 10:40 23.04.2022
1832 Clouds 12 1005 84 7000 2.68 107 08:30 23.04.2022
1833 Clouds 12 1004 83 10000 1.79 68 05:27 23.04.2022
1834 Clouds 12 1004 81 10000 1.54 40 03:32 23.04.2022
1835 Clouds 13 1003 77 10000 1.79 68 23:38 22.04.2022
1836 Clouds 13 1003 77 10000 1.54 100 23:20 22.04.2022
1837 Clouds 14 1002 73 10000 2.24 136 21:58 22.04.2022
1838 Clouds 14 1002 72 10000 2.24 117 21:39 22.04.2022
1839 Clouds 15 1002 69 10000 3.6 120 20:34 22.04.2022
1840 Clouds 16 1001 64 10000 3.09 160 19:27 22.04.2022
1841 Clouds 16 1001 64 10000 3.6 160 18:57 22.04.2022
1842 Clouds 16 1001 63 10000 2.57 170 18:26 22.04.2022
1843 Clouds 16 1000 63 10000 3.09 180 16:57 22.04.2022
1844 Clouds 16 1000 63 10000 3.6 220 15:59 22.04.2022
1845 Clouds 16 1000 63 10000 4.12 210 15:24 22.04.2022
1846 Clouds 16 999 63 10000 3.6 220 14:38 22.04.2022
1847 Clouds 15 999 66 8000 4.02 219 13:41 22.04.2022
1848 Clouds 14 999 69 8000 2.24 227 12:47 22.04.2022
1849 Clouds 12 1000 76 8000 2.57 250 11:23 22.04.2022
1850 Clouds 12 999 79 7000 2.57 250 10:56 22.04.2022
1851 Clouds 11 1000 81 7000 3.09 260 10:34 22.04.2022
1852 Clouds 10 1000 83 7000 2.57 250 09:57 22.04.2022
1853 Clouds 10 1000 84 7000 2.68 231 09:21 22.04.2022
1854 Clouds 9 1000 87 6000 2.24 264 08:42 22.04.2022
1855 Rain 9 1000 89 8000 0.89 208 06:38 22.04.2022
1856 Rain 11 1004 70 10000 1.34 197 00:56 22.04.2022
1857 Clouds 12 1005 63 10000 1.54 60 23:31 21.04.2022
1858 Clouds 12 1005 61 10000 2.06 70 22:43 21.04.2022
1859 Clouds 13 1006 60 10000 2.06 60 21:36 21.04.2022
1860 Clouds 13 1006 56 10000 4.02 90 20:30 21.04.2022
1861 Clouds 13 1007 55 10000 3.6 100 18:49 21.04.2022
1862 Clouds 14 1007 52 10000 4.63 110 18:26 21.04.2022
1863 Clouds 14 1007 53 10000 5.14 110 17:19 21.04.2022
1864 Rain 16 1008 42 10000 3.6 100 15:24 21.04.2022
1865 Rain 16 1009 41 10000 4.12 130 14:52 21.04.2022
1866 Rain 15 1009 42 10000 4.02 116 14:18 21.04.2022
1867 Clouds 15 1009 42 10000 5.66 140 13:21 21.04.2022
1868 Clouds 15 1010 45 10000 4.63 100 12:22 21.04.2022
1869 Clouds 12 1009 46 10000 4.63 100 09:33 21.04.2022
1870 Clouds 11 1010 50 10000 2.57 90 08:38 21.04.2022
1871 Clouds 10 1009 59 10000 2.06 80 06:36 21.04.2022
1872 Clouds 11 1010 63 10000 4.02 79 03:39 21.04.2022
1873 Clouds 11 1011 64 10000 3.09 90 03:20 21.04.2022
1874 Clouds 11 1011 66 10000 3.09 70 02:44 21.04.2022
1875 Clouds 13 1011 66 10000 2.57 110 00:34 21.04.2022
1876 Clouds 14 1011 61 10000 3.13 144 23:25 20.04.2022
1877 Clouds 14 1011 60 10000 4.02 101 22:59 20.04.2022
1878 Clouds 14 1011 60 10000 4.02 101 22:59 20.04.2022
1879 Clouds 14 1011 60 10000 2.68 97 22:33 20.04.2022
1880 Clear 14 1012 62 10000 1.54 80 21:36 20.04.2022
1881 Clouds 14 1012 58 10000 0.45 73 20:44 20.04.2022
1882 Clouds 14 1012 57 10000 1.32 24 20:21 20.04.2022
1883 Clouds 15 1012 68 10000 1.81 47 19:39 20.04.2022
1884 Clouds 16 1011 51 10000 3.09 100 18:45 20.04.2022
1885 Clouds 15 1013 68 10000 2.56 116 17:18 20.04.2022
1886 Clouds 15 1013 56 10000 2.56 116 16:39 20.04.2022
1887 Clouds 14 1013 57 10000 3.6 94 14:55 20.04.2022
1888 Clouds 13 1013 62 10000 5.66 90 12:18 20.04.2022
1889 Clouds 13 1012 62 10000 5.66 110 11:36 20.04.2022
1890 Clouds 12 1012 64 10000 6.17 110 10:39 20.04.2022
1891 Clouds 12 1012 70 10000 4.63 90 09:28 20.04.2022
1892 Clouds 11 1012 74 10000 3.58 97 08:25 20.04.2022
1893 Clouds 11 1012 75 10000 2.68 103 07:44 20.04.2022
1894 Clear 11 1011 71 10000 3.58 103 05:19 20.04.2022
1895 Clouds 12 1009 75 10000 0.89 40 01:20 20.04.2022
1896 Clear 13 1008 72 10000 1.54 320 00:21 20.04.2022
1897 Clear 14 1007 66 10000 3.13 229 22:44 19.04.2022
1898 Clear 15 1007 66 10000 4.02 245 22:23 19.04.2022
1899 Clear 15 1007 62 10000 3.58 223 21:46 19.04.2022
1900 Clear 16 1006 57 10000 3.6 230 20:57 19.04.2022
1901 Clear 17 1005 56 10000 5.36 217 20:37 19.04.2022
1902 Clouds 19 1005 49 10000 6.26 223 19:32 19.04.2022
1903 Clear 21 1005 39 10000 4.47 219 18:26 19.04.2022
1904 Clear 22 1005 33 10000 4.92 244 16:47 19.04.2022
1905 Clear 21 1005 34 10000 3.09 240 16:25 19.04.2022
1906 Clear 20 1006 34 10000 3.6 280 15:23 19.04.2022
1907 Clear 20 1007 32 10000 2.57 0 14:40 19.04.2022
1908 Clear 18 1008 30 10000 2.57 200 12:52 19.04.2022
1909 Clear 17 1008 30 10000 2.24 159 12:29 19.04.2022
1910 Clear 16 1009 32 10000 2.24 238 11:23 19.04.2022
1911 Clear 13 1012 43 10000 1.79 128 09:31 19.04.2022
1912 Clear 9 1010 58 10000 1.03 0 07:37 19.04.2022
1913 Clear 10 1011 51 10000 2.68 67 04:23 19.04.2022
1914 Clear 11 1012 51 10000 2.57 90 01:18 19.04.2022
1915 Clear 12 1013 52 10000 3.09 120 23:44 18.04.2022
1916 Clear 14 1012 42 10000 2.57 130 21:57 18.04.2022
1917 Clear 15 1011 38 10000 3.6 110 21:25 18.04.2022
1918 Clear 16 1011 37 10000 3.58 131 20:38 18.04.2022
1919 Clear 18 1011 34 10000 1.54 150 19:59 18.04.2022
1920 Clear 18 1011 33 10000 2.68 123 19:30 18.04.2022
1921 Clear 18 1010 31 10000 2.68 126 18:37 18.04.2022
1922 Clear 19 1011 32 10000 2.06 0 17:39 18.04.2022
1923 Clear 19 1012 31 10000 3.09 140 17:19 18.04.2022
1924 Clear 19 1012 32 10000 1.34 106 16:38 18.04.2022
1925 Clear 18 1012 31 10000 2.57 100 15:30 18.04.2022
1926 Clear 17 1013 31 10000 4.02 175 13:55 18.04.2022
1927 Clear 16 1014 32 10000 2.57 0 12:41 18.04.2022
1928 Clear 15 1014 33 10000 2.24 127 11:48 18.04.2022
1929 Clear 14 1015 38 10000 2.06 150 10:46 18.04.2022
1930 Clear 12 1017 44 10000 3.6 120 09:31 18.04.2022
1931 Clear 11 1017 44 10000 2.68 98 08:39 18.04.2022
1932 Clouds 10 1017 49 10000 2.57 60 06:44 18.04.2022
1933 Clouds 11 1018 46 10000 2.57 80 02:27 18.04.2022
1934 Clear 12 1016 41 10000 3.6 130 22:55 17.04.2022
1935 Clear 13 1017 40 10000 3.09 130 22:32 17.04.2022
1936 Clear 13 1016 40 10000 4.63 140 21:34 17.04.2022
1937 Clear 14 1015 38 10000 4.63 150 20:51 17.04.2022
1938 Clear 15 1015 37 10000 5.14 140 20:18 17.04.2022
1939 Clear 16 1014 38 10000 5.14 130 18:42 17.04.2022
1940 Clear 17 1016 39 10000 3.09 160 17:20 17.04.2022
1941 Clear 17 1018 41 10000 3.09 0 15:34 17.04.2022
1942 Clear 16 1018 42 10000 3.13 121 14:45 17.04.2022
1943 Clear 15 1019 43 10000 3.13 187 13:28 17.04.2022
1944 Clear 14 1020 43 10000 4.47 164 12:31 17.04.2022
1945 Clear 13 1021 45 10000 6.17 110 10:51 17.04.2022
1946 Clear 13 1021 45 10000 6.17 120 10:29 17.04.2022
1947 Clear 12 1021 45 10000 5.66 130 09:51 17.04.2022
1948 Clear 12 1021 49 10000 5.14 110 09:18 17.04.2022
1949 Clear 11 1021 52 10000 4.02 89 08:29 17.04.2022
1950 Clouds 11 1021 62 10000 4.02 87 05:33 17.04.2022
1951 Clear 14 1020 60 10000 3.6 80 01:52 17.04.2022
1952 Clear 14 1019 61 10000 3.6 80 00:37 17.04.2022
1953 Clear 15 1019 61 10000 3.6 70 23:19 16.04.2022
1954 Clear 16 1017 56 10000 5.14 90 21:45 16.04.2022
1955 Clear 17 1017 53 10000 6.69 90 20:54 16.04.2022
1956 Clear 19 1016 45 10000 8.23 120 19:21 16.04.2022
1957 Clear 21 1015 47 10000 9.77 120 18:43 16.04.2022
1958 Clear 23 1014 37 10000 4.12 140 16:51 16.04.2022
1959 Clear 24 1014 35 10000 4.63 120 15:48 16.04.2022
1960 Clear 24 1014 32 10000 4.63 150 14:58 16.04.2022
1961 Clear 24 1014 32 10000 4.63 120 14:30 16.04.2022
1962 Clear 24 1014 31 10000 4.63 140 13:48 16.04.2022
1963 Clear 23 1015 33 10000 2.57 150 12:35 16.04.2022
1964 Clear 22 1017 35 10000 1.54 180 11:26 16.04.2022
1965 Clear 20 1016 39 10000 1.03 0 10:29 16.04.2022
1966 Clear 18 1018 54 10000 1.54 10 09:36 16.04.2022
1967 Clear 15 1017 61 10000 1.03 0 08:42 16.04.2022
1968 Clear 12 1017 66 10000 0.51 360 07:21 16.04.2022
1969 Clear 13 1017 61 10000 0.51 0 04:54 16.04.2022
1970 Clear 17 1019 50 10000 2.06 60 00:40 16.04.2022
1971 Clear 17 1019 50 10000 1.54 60 23:40 15.04.2022
1972 Clear 19 1018 49 10000 3.09 120 22:45 15.04.2022
1973 Clear 19 1018 47 10000 3.6 130 22:27 15.04.2022
1974 Clear 21 1017 45 10000 3.6 130 21:20 15.04.2022
1975 Clear 22 1017 42 10000 3.09 120 20:36 15.04.2022
1976 Clear 23 1016 33 10000 3.6 130 19:43 15.04.2022
1977 Clear 24 1016 34 10000 2.24 155 18:57 15.04.2022
1978 Clear 25 1015 35 10000 2.06 150 18:26 15.04.2022
1979 Clear 25 1016 34 10000 3.09 160 17:56 15.04.2022
1980 Clear 25 1017 35 10000 1.54 160 17:23 15.04.2022
1981 Clear 25 1017 35 10000 2.57 160 16:24 15.04.2022
1982 Clear 25 1016 32 10000 1.79 190 15:40 15.04.2022
1983 Clear 23 1018 36 10000 2.06 250 13:55 15.04.2022
1984 Clear 22 1018 38 10000 3.13 161 12:48 15.04.2022
1985 Clear 21 1019 41 10000 2.24 143 11:59 15.04.2022
1986 Clear 20 1019 42 10000 1.03 0 11:40 15.04.2022
1987 Clear 18 1020 50 10000 2.06 60 10:45 15.04.2022
1988 Clear 16 1020 52 10000 2.06 60 09:57 15.04.2022
1989 Clear 15 1021 57 10000 2.06 80 09:22 15.04.2022
1990 Clear 13 1021 66 10000 1.03 0 08:24 15.04.2022
1991 Clear 11 1019 68 10000 1.54 60 06:47 15.04.2022
1992 Clear 12 1019 66 10000 1.34 42 04:28 15.04.2022
1993 Clear 14 1020 61 10000 1.54 350 23:42 14.04.2022
1994 Clear 15 1021 56 10000 0 0 23:19 14.04.2022
1995 Clear 16 1020 53 10000 1.03 0 22:42 14.04.2022
1996 Clear 16 1020 53 10000 1.54 10 22:24 14.04.2022
1997 Clear 18 1019 46 10000 1.54 120 21:32 14.04.2022
1998 Clear 22 1017 31 10000 3.6 110 19:24 14.04.2022
1999 Clear 23 1017 31 10000 3.6 150 18:31 14.04.2022
2000 Clear 23 1017 30 10000 4.12 150 17:44 14.04.2022
2001 Clear 23 1018 30 10000 3.09 160 16:49 14.04.2022
2002 Clear 23 1017 28 10000 3.09 120 15:48 14.04.2022
2003 Clear 22 1018 31 10000 2.68 149 13:49 14.04.2022
2004 Clear 22 1018 34 10000 1.79 164 13:18 14.04.2022
2005 Clear 21 1019 42 10000 2.06 280 12:31 14.04.2022
2006 Clear 19 1019 48 10000 1.54 180 11:36 14.04.2022
2007 Clear 18 1019 50 10000 1.54 0 10:56 14.04.2022
2008 Clear 17 1019 54 10000 1.03 0 10:27 14.04.2022
2009 Clear 15 1020 61 10000 0.51 0 09:26 14.04.2022
2010 Clear 11 1019 73 10000 0.51 0 07:36 14.04.2022
2011 Clear 11 1019 70 10000 0.89 11 04:35 14.04.2022
2012 Clear 13 1020 62 10000 1.03 0 23:50 13.04.2022
2013 Clear 15 1020 56 10000 1.54 90 22:29 13.04.2022
2014 Clear 15 1020 54 10000 1.03 0 21:42 13.04.2022
2015 Clear 18 1018 44 10000 2.57 110 20:27 13.04.2022
2016 Clear 19 1019 42 10000 3.09 110 19:46 13.04.2022
2017 Clear 20 1017 40 10000 3.6 110 18:36 13.04.2022
2018 Clear 20 1018 41 10000 3.6 150 17:24 13.04.2022
2019 Clear 20 1017 40 10000 3.6 150 16:44 13.04.2022
2020 Clear 20 1018 42 10000 4.12 90 15:44 13.04.2022
2021 Clear 20 1018 40 10000 2.57 0 15:19 13.04.2022
2022 Clear 19 1018 41 10000 2.68 146 14:30 13.04.2022
2023 Clear 19 1018 41 10000 3.09 120 13:36 13.04.2022
2024 Clear 18 1018 42 10000 3.09 120 12:38 13.04.2022
2025 Clear 16 1018 48 10000 3.09 100 10:58 13.04.2022
2026 Clear 14 1019 57 10000 3.13 132 09:45 13.04.2022
2027 Clear 12 1018 64 10000 2.68 142 08:43 13.04.2022
2028 Clear 10 1018 71 10000 2.68 97 07:23 13.04.2022
2029 Clear 10 1018 69 10000 1.79 86 06:46 13.04.2022
2030 Clear 11 1018 68 10000 2.68 89 06:18 13.04.2022
2031 Clear 13 1019 50 10000 1.03 10 00:25 13.04.2022
2032 Clear 14 1019 50 10000 0.51 0 23:46 12.04.2022
2033 Clear 15 1018 43 10000 1.79 125 22:20 12.04.2022
2034 Clear 16 1019 42 10000 2.06 140 21:39 12.04.2022
2035 Clear 16 1018 38 10000 2.57 140 20:42 12.04.2022
2036 Clear 18 1017 31 10000 3.09 130 19:54 12.04.2022
2037 Clear 18 1018 33 10000 3.09 130 19:33 12.04.2022
2038 Clear 19 1017 29 10000 2.24 155 18:50 12.04.2022
2039 Clear 20 1017 27 10000 2.57 160 17:34 12.04.2022
2040 Clear 19 1017 28 10000 2.06 90 16:25 12.04.2022
2041 Clear 19 1018 28 10000 2.68 227 15:33 12.04.2022
2042 Clear 19 1018 30 10000 2.68 149 14:33 12.04.2022
2043 Clouds 18 1018 32 10000 2.24 175 13:39 12.04.2022
2044 Clouds 17 1018 33 10000 1.79 252 12:59 12.04.2022
2045 Clear 15 1019 36 10000 2.06 0 11:47 12.04.2022
2046 Clear 15 1019 37 10000 1.79 196 11:24 12.04.2022
2047 Clear 12 1020 45 10000 1.34 141 09:25 12.04.2022
2048 Clear 9 1020 53 10000 1.79 169 08:18 12.04.2022
2049 Clear 8 1019 55 10000 0.51 0 06:33 12.04.2022
2050 Clear 8 1019 53 10000 0.89 173 05:35 12.04.2022
2051 Clear 11 1020 41 10000 2.24 303 00:59 12.04.2022
2052 Clear 13 1020 37 10000 2.24 243 22:53 11.04.2022
2053 Clear 14 1019 32 10000 3.13 228 21:49 11.04.2022
2054 Clear 15 1018 31 10000 2.06 240 20:59 11.04.2022
2055 Clouds 15 1018 31 10000 3.58 212 20:29 11.04.2022
2056 Clouds 16 1017 31 10000 1.79 214 19:55 11.04.2022
2057 Clear 17 1018 31 10000 4.47 220 19:18 11.04.2022
2058 Clear 18 1017 30 10000 4.02 267 18:47 11.04.2022
2059 Clear 18 1018 30 10000 1.03 0 17:57 11.04.2022
2060 Clear 18 1019 29 10000 2.06 210 16:54 11.04.2022
2061 Clear 18 1019 27 10000 3.09 270 15:58 11.04.2022
2062 Clear 17 1019 27 10000 2.57 180 14:33 11.04.2022
2063 Clear 16 1020 32 10000 1.79 131 12:53 11.04.2022
2064 Clear 16 1021 34 10000 2.06 0 12:33 11.04.2022
2065 Clear 14 1022 38 10000 2.57 100 11:33 11.04.2022
2066 Clear 13 1022 41 10000 2.57 140 10:28 11.04.2022
2067 Clear 11 1022 46 10000 0.51 0 09:20 11.04.2022
2068 Clear 7 1020 57 10000 0.89 203 06:44 11.04.2022
2069 Clear 8 1019 47 10000 1.03 60 01:55 11.04.2022
2070 Clear 11 1018 39 10000 4.02 232 22:38 10.04.2022
2071 Clear 12 1016 34 10000 1.03 0 21:55 10.04.2022
2072 Clear 13 1016 30 10000 1.34 270 21:29 10.04.2022
2073 Clear 15 1015 25 10000 1.34 222 20:31 10.04.2022
2074 Clear 16 1017 24 10000 2.57 210 19:44 10.04.2022
2075 Clear 17 1015 22 10000 3.09 210 19:20 10.04.2022
2076 Clear 17 1015 22 10000 3.09 230 18:42 10.04.2022
2077 Clear 17 1015 20 10000 3.6 250 17:52 10.04.2022
2078 Clear 17 1015 21 10000 4.47 235 17:33 10.04.2022
2079 Clear 17 1015 21 10000 3.09 0 16:21 10.04.2022
2080 Clear 17 1016 23 10000 3.6 300 14:59 10.04.2022
2081 Clear 16 1016 25 10000 4.02 245 13:54 10.04.2022
2082 Clear 15 1017 34 10000 2.57 310 12:33 10.04.2022
2083 Clear 13 1017 46 10000 2.57 250 11:46 10.04.2022
2084 Clear 12 1018 49 10000 2.57 0 11:28 10.04.2022
2085 Clear 10 1018 61 10000 3.13 226 10:41 10.04.2022
2086 Clouds 8 1018 70 10000 3.09 250 09:49 10.04.2022
2087 Clear 7 1018 77 10000 2.24 248 08:56 10.04.2022
2088 Clear 6 1017 79 10000 1.79 259 08:21 10.04.2022
2089 Clear 4 1016 83 10000 1.34 298 06:59 10.04.2022
2090 Clouds 5 1015 81 10000 1.79 221 04:42 10.04.2022
2091 Clouds 6 1015 80 10000 4.12 90 02:19 10.04.2022
2092 Clear 8 1014 74 10000 6.26 91 23:54 09.04.2022
2093 Clouds 8 1012 70 10000 5.81 114 23:25 09.04.2022
2094 Thunderstorm 10 1011 58 10000 9.26 140 22:39 09.04.2022
2095 Clouds 12 1009 34 10000 6.69 30 21:28 09.04.2022
2096 Clouds 13 1007 18 10000 7.72 360 20:31 09.04.2022
2097 Clouds 14 1006 16 10000 7.72 350 19:57 09.04.2022
2098 Clouds 14 1005 15 10000 7.72 350 19:39 09.04.2022
2099 Clear 16 1003 14 10000 8.75 330 18:24 09.04.2022
2100 Clear 16 1002 14 10000 8.94 319 17:50 09.04.2022
2101 Clear 17 1002 15 10000 9.26 340 16:57 09.04.2022
2102 Clear 17 1001 15 10000 13.41 284 16:38 09.04.2022
2103 Clear 17 1001 15 10000 13.41 284 16:38 09.04.2022
2104 Clear 17 1001 15 10000 13.41 284 16:38 09.04.2022
2105 Clear 17 1001 15 10000 13.41 284 16:38 09.04.2022
2106 Clear 17 1001 15 10000 9.26 340 16:38 09.04.2022
2107 Clear 17 1001 15 10000 8.23 340 15:50 09.04.2022
2108 Clear 18 1001 15 10000 9.26 340 15:25 09.04.2022
2109 Clear 18 1000 15 10000 8.94 331 14:25 09.04.2022
2110 Clear 18 999 15 10000 9.26 320 13:33 09.04.2022
2111 Clear 18 999 16 10000 12.52 311 12:54 09.04.2022
2112 Clear 18 999 19 10000 11.62 300 11:50 09.04.2022
2113 Clear 18 998 25 10000 7.2 330 10:52 09.04.2022
2114 Clear 17 999 41 10000 5.14 310 10:18 09.04.2022
2115 Clear 14 998 66 10000 4.02 307 09:22 09.04.2022
2116 Clear 12 997 81 10000 1.79 250 08:18 09.04.2022
2117 Clouds 12 996 78 10000 1.54 320 04:37 09.04.2022
2118 Clear 14 998 71 10000 2.24 231 00:34 09.04.2022
2119 Clear 15 998 66 10000 3.13 239 23:23 08.04.2022
2120 Clear 17 997 61 10000 4.02 209 21:49 08.04.2022
2121 Clouds 18 998 59 10000 1.54 170 20:43 08.04.2022
2122 Clouds 20 1000 53 10000 2.06 140 19:47 08.04.2022
2123 Clouds 21 999 51 10000 3.13 128 18:46 08.04.2022
2124 Clouds 22 998 48 10000 3.6 120 18:20 08.04.2022
2125 Clouds 22 999 47 10000 2.68 112 17:28 08.04.2022
2126 Clouds 22 1000 47 10000 2.57 120 16:55 08.04.2022
2127 Clouds 22 1000 48 10000 2.57 150 16:27 08.04.2022
2128 Clouds 21 999 48 10000 2.57 150 15:33 08.04.2022
2129 Clouds 21 1000 47 10000 2.68 123 14:45 08.04.2022
2130 Clear 21 1001 48 10000 3.13 125 14:19 08.04.2022
2131 Clear 20 1001 50 10000 2.06 160 13:31 08.04.2022
2132 Clear 19 1003 53 10000 1.54 0 12:49 08.04.2022
2133 Clear 17 1001 59 10000 2.06 0 11:26 08.04.2022
2134 Clear 15 1002 67 10000 2.68 241 09:57 08.04.2022
2135 Clear 13 1002 74 10000 1.03 180 08:59 08.04.2022
2136 Clear 9 1002 84 10000 1.03 0 07:44 08.04.2022
2137 Clear 9 1001 84 10000 0.89 304 06:45 08.04.2022
2138 Clear 11 1002 78 10000 1.54 330 02:53 08.04.2022
2139 Clear 12 1002 72 10000 3.6 250 00:30 08.04.2022
2140 Clear 13 1002 69 10000 4.12 270 23:47 07.04.2022
2141 Clear 14 1003 66 10000 3.13 236 22:44 07.04.2022
2142 Clear 14 1002 63 10000 2.68 251 22:23 07.04.2022
2143 Clear 15 1002 62 10000 3.58 241 21:59 07.04.2022
2144 Clear 15 1001 59 10000 3.13 236 21:30 07.04.2022
2145 Clear 16 1001 55 10000 3.09 240 20:46 07.04.2022
2146 Clear 17 1001 54 10000 2.68 211 20:20 07.04.2022
2147 Clear 21 1001 40 10000 2.57 230 17:43 07.04.2022
2148 Clear 20 1002 40 10000 1.54 0 17:22 07.04.2022
2149 Clear 20 1002 42 10000 2.06 0 16:34 07.04.2022
2150 Clear 20 1002 42 10000 3.09 310 15:47 07.04.2022
2151 Clear 18 1002 47 10000 3.6 250 13:54 07.04.2022
2152 Clear 17 1002 50 10000 2.68 229 13:24 07.04.2022
2153 Clear 17 1002 50 10000 2.68 229 13:24 07.04.2022
2154 Clear 15 1003 56 10000 4.12 270 11:53 07.04.2022
2155 Clear 13 1004 62 10000 3.6 250 10:54 07.04.2022
2156 Clear 10 1004 73 10000 2.68 239 09:19 07.04.2022
2157 Clear 8 1003 74 10000 2.57 260 06:59 07.04.2022
2158 Clear 8 1003 71 10000 2.57 260 05:28 07.04.2022
2159 Clear 9 1005 64 10000 1.54 320 02:37 07.04.2022
2160 Clear 11 1005 52 10000 2.68 230 00:44 07.04.2022
2161 Clear 12 1006 53 10000 2.68 239 23:36 06.04.2022
2162 Clear 13 1006 63 10000 4.02 215 22:45 06.04.2022
2163 Clouds 13 1006 63 10000 1.28 83 22:20 06.04.2022
2164 Clear 14 1005 59 10000 1.79 124 20:50 06.04.2022
2165 Clear 14 1005 58 10000 2.06 160 20:26 06.04.2022
2166 Clear 15 1005 54 10000 2.24 155 19:44 06.04.2022
2167 Clear 16 1005 52 10000 2.68 142 18:48 06.04.2022
2168 Clear 16 1006 51 10000 2.57 160 17:36 06.04.2022
2169 Clear 17 1006 49 10000 3.6 130 16:58 06.04.2022
2170 Clear 17 1006 49 10000 2.06 0 16:34 06.04.2022
2171 Clear 17 1007 50 10000 1.79 120 15:44 06.04.2022
2172 Clouds 15 1009 56 8000 2.68 162 13:48 06.04.2022
2173 Clear 14 1011 59 10000 3.6 120 12:30 06.04.2022
2174 Clear 14 1011 59 10000 4.12 130 11:44 06.04.2022
2175 Clear 12 1012 62 10000 3.6 130 10:33 06.04.2022
2176 Clear 12 1012 62 10000 3.6 130 10:33 06.04.2022
2177 Clear 11 1012 67 7000 3.13 139 09:59 06.04.2022
2178 Clear 10 1012 73 6000 1.03 0 09:25 06.04.2022
2179 Mist 8 1012 81 4000 1.03 0 08:18 06.04.2022
2180 Mist 7 1011 81 5000 1.03 360 06:40 06.04.2022
2181 Clear 10 1012 64 10000 2.06 20 01:26 06.04.2022
2182 Clear 11 1012 62 10000 0.51 0 23:50 05.04.2022
2183 Clear 12 1011 56 10000 2.06 170 21:58 05.04.2022
2184 Clear 13 1010 53 10000 1.03 0 21:18 05.04.2022
2185 Clear 14 1011 48 10000 1.86 201 20:24 05.04.2022
2186 Clear 18 1010 37 10000 1.54 0 18:32 05.04.2022
2187 Clear 18 1010 36 10000 2.06 260 17:22 05.04.2022
2188 Clear 18 1011 37 10000 2.57 210 16:43 05.04.2022
2189 Clear 17 1011 39 10000 1.03 0 15:51 05.04.2022
2190 Clear 17 1011 39 10000 2.06 280 15:31 05.04.2022
2191 Clear 15 1012 44 10000 3.09 230 13:49 05.04.2022
2192 Clear 14 1013 47 10000 3.09 240 12:33 05.04.2022
2193 Clear 13 1013 52 10000 1.54 0 11:43 05.04.2022
2194 Clear 12 1014 54 10000 1.03 0 11:24 05.04.2022
2195 Clear 9 1014 68 10000 0.51 0 09:31 05.04.2022
2196 Clear 7 1014 75 10000 0 0 08:33 05.04.2022
2197 Clear 6 1015 74 10000 0.51 0 03:50 05.04.2022
2198 Clear 7 1016 66 10000 1.03 270 23:42 04.04.2022
2199 Clear 8 1016 62 10000 1.03 240 22:37 04.04.2022
2200 Clear 9 1016 59 10000 0.51 0 21:48 04.04.2022
2201 Clear 10 1015 57 10000 1.54 210 21:19 04.04.2022
2202 Clear 10 1015 53 10000 1.54 170 20:47 04.04.2022
2203 Clouds 12 1015 48 10000 1.54 160 19:28 04.04.2022
2204 Clouds 13 1015 45 10000 2.06 170 18:43 04.04.2022
2205 Clouds 13 1016 44 10000 1.54 180 17:20 04.04.2022
2206 Clouds 13 1017 46 10000 1.54 210 16:31 04.04.2022
2207 Clouds 12 1017 46 10000 1.54 20 15:33 04.04.2022
2208 Clouds 12 1018 49 10000 2.06 0 14:46 04.04.2022
2209 Clouds 12 1018 50 10000 1.54 230 14:27 04.04.2022
2210 Clouds 11 1020 56 10000 2.06 0 12:58 04.04.2022
2211 Clouds 10 1020 57 10000 3.09 110 11:29 04.04.2022
2212 Clouds 9 1019 64 10000 2.57 110 10:29 04.04.2022
2213 Clouds 6 1018 79 10000 1.03 40 06:58 04.04.2022
2214 Clouds 7 1018 80 10000 2.06 50 03:18 04.04.2022
2215 Clouds 8 1018 73 10000 2.68 102 23:42 03.04.2022
2216 Clouds 8 1017 69 10000 2.68 102 22:18 03.04.2022
2217 Clouds 8 1016 69 10000 2.68 102 21:31 03.04.2022
2218 Clouds 9 1016 66 10000 3.09 140 20:32 03.04.2022
2219 Clouds 10 1015 55 10000 2.57 120 18:51 03.04.2022
2220 Clouds 10 1015 56 10000 2.06 50 17:57 03.04.2022
2221 Clouds 10 1014 57 10000 3.13 292 17:37 03.04.2022
2222 Clouds 11 1015 53 10000 2.24 288 16:50 03.04.2022
2223 Clouds 10 1015 57 10000 5.14 70 15:57 03.04.2022
2224 Clouds 10 1015 56 10000 4.63 10 14:27 03.04.2022
2225 Rain 10 1015 63 10000 4.92 150 13:34 03.04.2022
2226 Clouds 9 1015 63 9000 2.68 100 11:51 03.04.2022
2227 Clouds 7 1014 70 10000 3.13 49 09:59 03.04.2022
2228 Clouds 6 1013 74 10000 1.79 66 09:18 03.04.2022
2229 Clouds 4 1011 82 10000 0.45 203 06:28 03.04.2022
2230 Clouds 5 1009 78 10000 0.51 0 02:55 03.04.2022
2231 Clear 7 1007 70 10000 1.03 0 23:48 02.04.2022
2232 Clear 7 1007 68 10000 1.54 150 22:45 02.04.2022
2233 Clouds 8 1006 66 10000 3.13 148 21:56 02.04.2022
2234 Clear 9 1005 58 10000 2.68 61 21:21 02.04.2022
2235 Clouds 9 1004 53 10000 2.68 61 20:36 02.04.2022
2236 Clouds 9 1004 53 10000 2.68 61 20:36 02.04.2022
2237 Clouds 10 1003 47 10000 3.6 50 18:49 02.04.2022
2238 Clouds 10 1002 48 10000 4.12 60 18:20 02.04.2022
2239 Clouds 10 1002 50 10000 4.63 50 17:23 02.04.2022
2240 Clouds 10 1001 52 10000 5.66 60 15:55 02.04.2022
2241 Clouds 10 1001 52 10000 4.63 50 15:20 02.04.2022
2242 Clouds 10 1001 53 10000 3.6 70 14:31 02.04.2022
2243 Clouds 9 1000 54 10000 4.12 70 13:34 02.04.2022
2244 Clouds 9 1000 55 10000 3.6 90 12:21 02.04.2022
2245 Clouds 7 999 65 10000 3.6 40 10:31 02.04.2022
2246 Clouds 6 997 68 10000 3.09 60 08:33 02.04.2022
2247 Clear 7 995 74 10000 2.06 70 05:24 02.04.2022
2248 Clouds 7 995 80 10000 1.54 50 02:56 02.04.2022
2249 Clear 7 995 82 10000 1.54 350 23:54 01.04.2022
2250 Clouds 7 995 82 10000 4.92 68 22:51 01.04.2022
2251 Clouds 7 994 82 10000 4.92 68 21:24 01.04.2022
2252 Clouds 8 994 80 10000 4.92 68 20:48 01.04.2022
2253 Clouds 9 993 73 10000 4.92 68 19:46 01.04.2022
2254 Clouds 10 993 70 10000 4.92 68 19:26 01.04.2022
2255 Clouds 11 990 69 10000 8.23 100 18:38 01.04.2022
2256 Clouds 14 990 68 10000 9.39 64 17:39 01.04.2022
2257 Rain 14 990 65 10000 5.36 34 16:24 01.04.2022
2258 Clouds 13 991 69 10000 3.6 70 14:56 01.04.2022
2259 Clouds 13 991 71 10000 1.54 40 13:56 01.04.2022
2260 Clouds 13 993 77 10000 3.49 359 13:31 01.04.2022
2261 Clouds 12 992 66 10000 2.06 30 12:26 01.04.2022
2262 Clouds 10 991 82 10000 3.6 10 10:52 01.04.2022
2263 Clouds 10 991 88 10000 2.57 250 09:41 01.04.2022
2264 Clouds 9 991 89 10000 1.79 248 07:41 01.04.2022
2265 Rain 9 990 91 8000 1.79 248 05:38 01.04.2022
2266 Rain 10 990 89 10000 2.57 230 04:41 01.04.2022
2267 Rain 10 991 82 10000 1.79 248 03:18 01.04.2022
2268 Clouds 11 991 76 10000 1.79 248 01:51 01.04.2022
2269 Clouds 12 992 72 10000 2.24 225 22:34 31.03.2022
2270 Clouds 13 992 71 10000 1.03 220 21:44 31.03.2022
2271 Clouds 13 991 70 10000 1.34 221 20:51 31.03.2022
2272 Clouds 13 991 69 10000 1.03 200 20:28 31.03.2022
2273 Clouds 14 991 65 10000 2.06 200 19:29 31.03.2022
2274 Clouds 15 991 62 10000 1.54 200 18:33 31.03.2022
2275 Clouds 15 991 63 10000 3.09 200 16:47 31.03.2022
2276 Clouds 15 991 64 10000 2.57 220 15:55 31.03.2022
2277 Clouds 14 992 63 10000 1.79 334 15:26 31.03.2022
2278 Clouds 14 991 67 8000 2.06 230 14:45 31.03.2022
2279 Clouds 13 992 75 7000 2.06 250 13:28 31.03.2022
2280 Clouds 11 994 83 6000 2.24 235 11:31 31.03.2022
2281 Mist 10 994 89 4000 2.24 217 10:26 31.03.2022
2282 Mist 10 994 91 3500 1.03 0 09:39 31.03.2022
2283 Rain 9 995 94 3000 1.79 158 07:48 31.03.2022
2284 Rain 10 998 93 6000 2.06 30 02:33 31.03.2022
2285 Rain 11 1001 90 6000 2.57 40 23:24 30.03.2022
2286 Drizzle 11 1001 86 6000 2.06 30 21:55 30.03.2022
2287 Rain 11 1001 86 6000 1.54 20 21:30 30.03.2022
2288 Rain 11 1001 83 6000 2.24 52 20:37 30.03.2022
2289 Rain 12 1001 81 6000 2.06 50 19:47 30.03.2022
2290 Drizzle 12 1002 79 6000 2.24 90 18:41 30.03.2022
2291 Clouds 12 1002 77 6000 2.68 168 17:51 30.03.2022
2292 Rain 12 1003 76 7000 2.68 140 16:59 30.03.2022
2293 Clouds 13 1003 75 7000 3.13 133 16:39 30.03.2022
2294 Rain 12 1003 75 7000 3.58 118 15:47 30.03.2022
2295 Clouds 12 1005 76 6000 3.09 110 14:22 30.03.2022
2296 Mist 12 1005 79 5000 3.09 90 13:20 30.03.2022
2297 Clouds 11 1006 83 6000 3.6 100 11:55 30.03.2022
2298 Mist 10 1007 87 4500 3.6 70 10:48 30.03.2022
2299 Rain 10 1007 88 3500 3.09 80 09:30 30.03.2022
2300 Rain 10 1007 86 5000 3.09 70 07:59 30.03.2022
2301 Clouds 11 1007 79 10000 2.57 60 05:41 30.03.2022
2302 Clouds 11 1007 77 10000 2.68 108 05:23 30.03.2022
2303 Clouds 12 1010 61 10000 2.24 248 00:43 30.03.2022
2304 Clouds 13 1010 55 10000 2.68 269 22:35 29.03.2022
2305 Clouds 14 1010 54 10000 1.54 160 21:46 29.03.2022
2306 Clouds 15 1010 50 9000 2.06 160 20:55 29.03.2022
2307 Clouds 16 1010 48 10000 2.24 158 20:25 29.03.2022
2308 Clouds 17 1010 43 9000 2.57 160 19:20 29.03.2022
2309 Clouds 17 1010 41 8000 2.06 140 18:48 29.03.2022
2310 Clear 18 1011 37 10000 1.54 0 17:39 29.03.2022
2311 Clouds 19 1011 35 7000 1.79 220 16:58 29.03.2022
2312 Clouds 18 1012 40 7000 2.06 0 15:58 29.03.2022
2313 Clouds 17 1013 47 6000 2.06 110 14:53 29.03.2022
2314 Clouds 16 1014 51 10000 1.34 115 14:22 29.03.2022
2315 Clouds 15 1018 57 10000 3.58 137 12:55 29.03.2022
2316 Clouds 14 1019 61 10000 1.79 131 11:45 29.03.2022
2317 Clouds 13 1017 67 10000 3.13 102 10:55 29.03.2022
2318 Clouds 10 1017 73 8000 2.68 114 09:49 29.03.2022
2319 Clear 9 1017 68 10000 3.58 60 07:57 29.03.2022
2320 Clear 10 1017 53 10000 2.24 103 04:47 29.03.2022
2321 Clouds 13 1020 35 10000 1.34 46 00:36 29.03.2022
2322 Clear 14 1020 32 10000 1.03 0 23:24 28.03.2022
2323 Clear 14 1020 31 10000 1.34 70 22:53 28.03.2022
2324 Clear 15 1020 29 10000 0.89 71 22:26 28.03.2022
2325 Clear 16 1020 25 10000 1.79 128 20:58 28.03.2022
2326 Clear 18 1020 23 10000 1.54 140 20:23 28.03.2022
2327 Clear 19 1020 20 10000 2.06 150 19:44 28.03.2022
2328 Clear 20 1020 19 10000 1.54 130 19:25 28.03.2022
2329 Clear 21 1020 18 10000 2.57 160 18:37 28.03.2022
2330 Clear 21 1021 19 10000 2.57 170 17:39 28.03.2022
2331 Clear 22 1022 17 10000 2.24 119 16:20 28.03.2022
2332 Clear 21 1024 24 8000 2.68 211 14:29 28.03.2022
2333 Clear 20 1024 25 10000 1.79 201 13:58 28.03.2022
2334 Clear 18 1026 31 10000 1.79 192 12:20 28.03.2022
2335 Clear 17 1027 34 10000 1.03 0 11:23 28.03.2022
2336 Clear 13 1027 46 10000 0.51 0 09:41 28.03.2022
2337 Clear 11 1027 49 8000 0.51 0 09:19 28.03.2022
2338 Clear 9 1027 54 7000 0 0 08:22 28.03.2022
2339 Clear 8 1026 55 10000 0.51 30 07:27 28.03.2022
2340 Clear 10 1027 51 10000 0 0 03:27 28.03.2022
2341 Clear 13 1028 41 10000 0.51 0 23:28 27.03.2022
2342 Clear 14 1028 38 10000 0.51 0 22:23 27.03.2022
2343 Clear 15 1028 34 10000 0.76 23 21:41 27.03.2022
2344 Clear 15 1028 34 10000 0.51 0 20:54 27.03.2022
2345 Clear 18 1027 27 10000 1.54 150 19:46 27.03.2022
2346 Clear 20 1027 23 10000 2.57 170 18:54 27.03.2022
2347 Clear 20 1027 22 10000 2.57 130 18:26 27.03.2022
2348 Clear 20 1027 22 10000 2.57 130 18:26 27.03.2022
2349 Clear 21 1027 21 10000 2.24 232 17:38 27.03.2022
2350 Clear 21 1027 20 10000 3.58 65 15:59 27.03.2022
2351 Clear 20 1028 24 10000 2.24 69 14:26 27.03.2022
2352 Clear 19 1028 28 10000 2.57 130 13:42 27.03.2022
2353 Clear 17 1029 35 10000 4.02 72 11:46 27.03.2022
2354 Clear 14 1029 41 10000 1.79 110 10:28 27.03.2022
2355 Clear 9 1028 55 10000 0.51 0 08:21 27.03.2022
2356 Clear 10 1027 49 10000 1.33 79 05:19 27.03.2022
2357 Clear 11 1028 46 10000 1.34 19 00:37 27.03.2022
2358 Clear 13 1027 40 10000 1.54 360 22:58 26.03.2022
2359 Clear 13 1027 39 10000 1.34 16 22:27 26.03.2022
2360 Clear 14 1026 37 10000 0.51 10 21:31 26.03.2022
2361 Clear 17 1026 28 10000 2.06 60 19:45 26.03.2022
2362 Clear 18 1026 24 10000 2.57 90 18:56 26.03.2022
2363 Clear 20 1025 20 10000 3.13 51 17:44 26.03.2022
2364 Clear 20 1025 20 10000 3.09 130 17:44 26.03.2022
2365 Clear 21 1025 19 10000 3.6 120 16:47 26.03.2022
2366 Clear 21 1025 18 10000 3.58 143 15:43 26.03.2022
2367 Clear 21 1026 18 10000 4.02 116 14:18 26.03.2022
2368 Clear 21 1026 19 10000 3.13 153 13:47 26.03.2022
2369 Clear 20 1027 22 10000 2.24 106 12:31 26.03.2022
2370 Clear 18 1028 24 10000 2.24 138 10:56 26.03.2022
2371 Clear 14 1028 34 10000 1.03 10 09:21 26.03.2022
2372 Clear 8 1027 46 10000 1.03 0 07:34 26.03.2022
2373 Clear 7 1026 48 10000 0.51 0 05:49 26.03.2022
2374 Clear 9 1026 41 10000 0.51 0 03:22 26.03.2022
2375 Clear 12 1025 31 10000 2.06 290 22:50 25.03.2022
2376 Clear 14 1024 26 10000 2.57 250 20:58 25.03.2022
2377 Clear 15 1024 25 10000 3.13 223 20:26 25.03.2022
2378 Clear 15 1024 25 10000 3.13 223 20:26 25.03.2022
2379 Clear 17 1024 23 10000 1.54 190 19:20 25.03.2022
2380 Clear 20 1023 18 10000 1.79 219 18:36 25.03.2022
2381 Clear 20 1023 18 10000 1.54 180 17:34 25.03.2022
2382 Clear 21 1023 18 10000 1.03 0 16:29 25.03.2022
2383 Clear 21 1024 17 10000 2.06 0 15:37 25.03.2022
2384 Clear 20 1025 20 10000 3.09 220 13:32 25.03.2022
2385 Clear 18 1026 24 10000 2.06 0 11:25 25.03.2022
2386 Clear 15 1026 33 10000 1.54 150 09:37 25.03.2022
2387 Clear 12 1026 39 10000 1.03 0 08:50 25.03.2022
2388 Clear 9 1026 46 10000 1.03 0 07:46 25.03.2022
2389 Clear 8 1026 49 10000 1.28 228 07:19 25.03.2022
2390 Clear 10 1026 37 10000 1.54 340 02:37 25.03.2022
2391 Clear 12 1026 31 10000 2.06 280 23:49 24.03.2022
2392 Clear 13 1026 30 10000 3.13 236 22:24 24.03.2022
2393 Clear 13 1025 32 10000 0.51 0 20:58 24.03.2022
2394 Clear 16 1025 27 10000 1.03 0 19:49 24.03.2022
2395 Clear 18 1024 19 10000 2.06 150 18:45 24.03.2022
2396 Clear 21 1023 16 10000 2.06 190 17:36 24.03.2022
2397 Clear 21 1024 17 10000 1.03 0 17:36 24.03.2022
2398 Clear 21 1024 15 10000 2.06 190 16:33 24.03.2022
2399 Clear 21 1025 18 10000 2.24 163 14:52 24.03.2022
2400 Clear 21 1026 19 10000 1.03 0 14:22 24.03.2022
2401 Clear 20 1026 21 10000 2.68 230 13:34 24.03.2022
2402 Clear 18 1027 26 10000 2.24 225 12:24 24.03.2022
2403 Clear 17 1028 28 10000 2.06 200 11:27 24.03.2022
2404 Clear 13 1028 39 10000 0.51 0 09:27 24.03.2022
2405 Clear 11 1029 45 10000 0.51 0 08:32 24.03.2022
2406 Clear 7 1027 47 10000 1.4 257 04:52 24.03.2022
2407 Clear 10 1029 38 10000 0.51 320 23:41 23.03.2022
2408 Clear 11 1028 34 10000 1.03 0 22:18 23.03.2022
2409 Clear 12 1029 29 10000 1.03 210 21:21 23.03.2022
2410 Clear 13 1028 30 10000 1.03 190 19:51 23.03.2022
2411 Clear 15 1028 23 10000 1.54 180 19:25 23.03.2022
2412 Clear 19 1028 18 10000 1.54 170 17:48 23.03.2022
2413 Clear 19 1028 16 10000 2.68 248 17:18 23.03.2022
2414 Clear 19 1029 18 10000 1.03 0 15:21 23.03.2022
2415 Clear 19 1030 19 10000 3.13 250 14:42 23.03.2022
2416 Clear 18 1031 22 10000 1.54 0 13:30 23.03.2022
2417 Clear 14 1033 34 10000 1.79 169 10:50 23.03.2022
2418 Clear 7 1033 55 10000 1.03 0 08:21 23.03.2022
2419 Clear 5 1032 57 10000 1.03 0 05:40 23.03.2022
2420 Clear 7 1033 51 10000 1.54 20 01:41 23.03.2022
2421 Clear 8 1033 47 10000 1.03 20 00:24 23.03.2022
2422 Clear 9 1034 42 10000 0.89 1 21:33 22.03.2022
2423 Clear 10 1034 38 10000 0.51 10 20:57 22.03.2022
2424 Clear 11 1034 36 10000 1.34 70 19:59 22.03.2022
2425 Clear 12 1033 32 10000 1.54 110 19:25 22.03.2022
2426 Clear 13 1033 29 10000 2.57 120 18:45 22.03.2022
2427 Clear 14 1033 26 10000 2.57 120 17:42 22.03.2022
2428 Clear 15 1033 24 10000 2.24 106 16:35 22.03.2022
2429 Clear 15 1034 24 10000 2.57 170 15:37 22.03.2022
2430 Clear 15 1034 24 10000 2.24 114 15:18 22.03.2022
2431 Clear 15 1034 24 10000 2.57 120 14:41 22.03.2022
2432 Clear 14 1035 24 10000 2.06 0 13:37 22.03.2022
2433 Clear 13 1036 28 10000 3.09 150 11:52 22.03.2022
2434 Clear 12 1036 30 10000 4.02 134 10:51 22.03.2022
2435 Clear 8 1036 51 10000 3.13 105 08:40 22.03.2022
2436 Clear 4 1036 63 7000 1.79 69 06:58 22.03.2022
2437 Clear 5 1035 61 10000 0.51 0 03:54 22.03.2022
2438 Clear 7 1034 54 10000 0.89 135 00:34 22.03.2022
2439 Clear 7 1035 48 10000 1.03 20 22:46 21.03.2022
2440 Clear 9 1035 43 10000 1.79 146 21:20 21.03.2022
2441 Clear 9 1035 41 10000 2.06 160 20:42 21.03.2022
2442 Clear 10 1033 40 10000 2.06 170 19:59 21.03.2022
2443 Clear 11 1034 39 10000 2.06 170 19:35 21.03.2022
2444 Clear 12 1033 33 10000 1.54 150 18:46 21.03.2022
2445 Clear 14 1033 31 10000 2.24 193 17:32 21.03.2022
2446 Clear 14 1034 30 10000 2.68 135 16:53 21.03.2022
2447 Clear 14 1034 30 10000 2.57 70 16:24 21.03.2022
2448 Clear 14 1034 32 10000 2.06 0 15:21 21.03.2022
2449 Clear 14 1035 30 10000 2.24 175 14:28 21.03.2022
2450 Clear 12 1036 32 10000 2.68 211 12:53 21.03.2022
2451 Clear 11 1037 36 10000 2.24 148 11:54 21.03.2022
2452 Clear 10 1037 38 10000 2.06 0 10:49 21.03.2022
2453 Clear 9 1038 40 10000 3.09 80 09:42 21.03.2022
2454 Clear 6 1038 55 10000 1.79 74 07:22 21.03.2022
2455 Clear 7 1036 55 10000 0.51 0 04:54 21.03.2022
2456 Clouds 9 1037 45 10000 2.06 40 00:36 21.03.2022
2457 Clouds 9 1036 41 10000 2.57 100 22:56 20.03.2022
2458 Clouds 9 1036 40 10000 3.13 112 21:57 20.03.2022
2459 Clear 9 1036 42 10000 2.06 100 21:30 20.03.2022
2460 Clear 10 1035 42 10000 2.57 120 20:47 20.03.2022
2461 Clear 10 1035 41 10000 2.57 120 20:24 20.03.2022
2462 Clear 11 1034 37 10000 2.68 105 19:43 20.03.2022
2463 Clear 12 1034 34 10000 4.12 130 18:44 20.03.2022
2464 Clear 13 1034 33 10000 3.6 150 17:37 20.03.2022
2465 Clear 14 1034 33 10000 3.09 100 16:58 20.03.2022
2466 Clear 14 1034 32 10000 3.13 146 15:52 20.03.2022
2467 Clear 13 1035 32 10000 3.13 124 14:36 20.03.2022
2468 Clear 13 1035 33 10000 4.12 140 13:18 20.03.2022
2469 Clear 12 1036 36 10000 4.63 150 11:32 20.03.2022
2470 Clear 10 1037 41 10000 1.34 114 09:39 20.03.2022
2471 Clear 5 1037 57 10000 1.34 314 07:49 20.03.2022
2472 Clear 4 1035 55 10000 3.09 10 05:48 20.03.2022
2473 Clear 6 1035 52 10000 2.06 10 02:45 20.03.2022
2474 Clear 6 1035 51 10000 2.57 80 00:48 20.03.2022
2475 Clear 8 1034 46 10000 3.13 75 23:20 19.03.2022
2476 Clear 10 1033 39 10000 3.6 100 21:32 19.03.2022
2477 Clear 10 1033 38 10000 4.63 110 20:58 19.03.2022
2478 Clear 12 1031 37 10000 5.14 120 18:59 19.03.2022
2479 Clear 12 1030 37 10000 5.66 120 18:25 19.03.2022
2480 Clear 13 1030 40 10000 5.14 130 17:40 19.03.2022
2481 Clear 14 1030 41 10000 3.6 150 16:24 19.03.2022
2482 Clear 13 1031 41 10000 2.24 110 15:19 19.03.2022
2483 Clear 13 1032 40 10000 3.13 49 13:20 19.03.2022
2484 Clear 12 1033 41 10000 3.58 158 12:41 19.03.2022
2485 Clear 12 1034 42 10000 3.09 120 11:54 19.03.2022
2486 Clear 11 1034 43 10000 2.68 164 11:25 19.03.2022
2487 Clear 7 1036 58 10000 2.24 77 07:59 19.03.2022
2488 Clouds 8 1036 56 10000 1.79 90 03:53 19.03.2022
2489 Clouds 9 1036 55 10000 1.34 71 02:30 19.03.2022
2490 Clouds 9 1036 56 10000 2.06 40 23:46 18.03.2022
2491 Clouds 10 1035 53 10000 2.68 86 22:28 18.03.2022
2492 Clouds 10 1035 53 10000 2.06 50 21:46 18.03.2022
2493 Clouds 12 1034 52 10000 2.24 73 19:52 18.03.2022
2494 Clouds 12 1034 52 10000 2.57 90 19:22 18.03.2022
2495 Clouds 13 1033 49 10000 3.6 110 18:18 18.03.2022
2496 Clouds 14 1032 44 10000 5.66 120 16:51 18.03.2022
2497 Clouds 14 1033 46 10000 3.6 120 15:32 18.03.2022
2498 Clouds 14 1033 48 10000 2.68 148 14:23 18.03.2022
2499 Clouds 13 1033 48 9000 3.6 120 12:38 18.03.2022
2500 Clouds 12 1032 51 9000 3.13 88 10:58 18.03.2022
2501 Clouds 11 1032 57 7000 2.57 80 09:30 18.03.2022
2502 Clouds 11 1032 59 7000 2.24 108 08:42 18.03.2022
2503 Clouds 10 1030 73 8000 3.13 77 06:37 18.03.2022
2504 Clouds 10 1029 77 8000 2.06 30 03:19 18.03.2022
2505 Clouds 10 1029 73 8000 1.54 10 00:39 18.03.2022
2506 Clouds 11 1029 72 8000 1.54 360 23:38 17.03.2022
2507 Clouds 11 1029 71 8000 1.34 45 22:25 17.03.2022
2508 Clouds 12 1029 68 7000 1.34 68 21:48 17.03.2022
2509 Clouds 12 1029 68 7000 1.34 68 21:48 17.03.2022
2510 Clouds 12 1029 68 7000 1.03 10 21:26 17.03.2022
2511 Clouds 12 1028 68 7000 1.79 157 20:45 17.03.2022
2512 Mist 12 1028 67 5000 2.24 140 19:50 17.03.2022
2513 Mist 12 1027 67 5000 1.54 140 19:29 17.03.2022
2514 Mist 13 1027 66 4500 2.06 110 18:46 17.03.2022
2515 Mist 13 1026 65 5000 2.57 100 16:58 17.03.2022
2516 Mist 13 1026 64 5000 2.57 90 15:44 17.03.2022
2517 Mist 13 1026 64 5000 2.68 106 15:25 17.03.2022
2518 Mist 13 1027 65 5000 3.58 46 14:29 17.03.2022
2519 Mist 12 1027 70 5000 3.58 63 12:54 17.03.2022
2520 Mist 12 1028 71 5000 3.09 80 12:23 17.03.2022
2521 Mist 11 1028 74 5000 2.24 96 11:27 17.03.2022
2522 Mist 11 1028 74 5000 3.6 110 10:29 17.03.2022
2523 Mist 11 1027 73 5000 2.57 90 08:34 17.03.2022
2524 Mist 10 1027 74 5000 2.57 90 07:34 17.03.2022
2525 Clouds 11 1026 73 7000 2.06 80 05:47 17.03.2022
2526 Clouds 11 1026 75 6000 3.09 120 01:23 17.03.2022
2527 Clouds 11 1025 78 10000 2.57 80 23:46 16.03.2022
2528 Clouds 11 1025 77 10000 1.34 26 22:45 16.03.2022
2529 Clouds 11 1024 78 10000 1.34 22 22:21 16.03.2022
2530 Clouds 11 1024 79 10000 1.03 0 21:39 16.03.2022
2531 Clouds 13 1023 72 10000 1.03 240 19:41 16.03.2022
2532 Clouds 13 1023 71 10000 1.79 242 19:20 16.03.2022
2533 Clouds 14 1022 70 10000 2.57 250 18:36 16.03.2022
2534 Clouds 15 1022 65 10000 4.47 243 17:41 16.03.2022
2535 Clouds 15 1022 62 10000 4.92 236 16:56 16.03.2022
2536 Clouds 16 1023 58 10000 4.63 270 15:55 16.03.2022
2537 Clouds 15 1024 58 10000 4.12 260 14:25 16.03.2022
2538 Clouds 15 1024 59 10000 4.12 270 13:24 16.03.2022
2539 Clouds 13 1026 60 10000 4.02 295 11:53 16.03.2022
2540 Clouds 13 1026 64 10000 3.13 244 11:20 16.03.2022
2541 Clouds 12 1026 66 10000 3.09 260 10:18 16.03.2022
2542 Clouds 10 1026 73 10000 3.58 301 08:38 16.03.2022
2543 Clouds 10 1027 72 10000 2.57 270 04:35 16.03.2022
2544 Clouds 10 1029 68 10000 1.79 264 00:42 16.03.2022
2545 Clouds 11 1030 66 10000 2.06 260 22:37 15.03.2022
2546 Clouds 11 1030 64 8000 2.57 260 21:50 15.03.2022
2547 Clouds 12 1031 60 8000 4.02 241 19:47 15.03.2022
2548 Clouds 12 1031 58 6000 2.68 234 18:41 15.03.2022
2549 Clouds 13 1031 54 6000 2.06 220 16:47 15.03.2022
2550 Clouds 13 1032 54 6000 2.06 250 16:18 15.03.2022
2551 Clouds 13 1033 54 10000 1.54 230 14:55 15.03.2022
2552 Clouds 13 1033 54 6000 1.79 292 14:30 15.03.2022
2553 Clouds 12 1034 55 6000 1.34 298 13:27 15.03.2022
2554 Clouds 12 1035 59 6000 0.51 0 11:56 15.03.2022
2555 Clouds 11 1035 63 6000 1.03 0 11:19 15.03.2022
2556 Clouds 9 1036 70 7000 1.54 80 09:31 15.03.2022
2557 Clouds 8 1035 73 10000 0.89 185 08:32 15.03.2022
2558 Clouds 8 1035 74 8000 1.34 185 07:44 15.03.2022
2559 Rain 8 1034 74 10000 1.03 30 06:35 15.03.2022
2560 Clear 8 1036 71 10000 1.79 225 02:36 15.03.2022
2561 Clouds 9 1035 65 10000 2.24 230 23:36 14.03.2022
2562 Clouds 9 1035 64 10000 2.06 220 23:18 14.03.2022
2563 Clouds 10 1035 59 10000 1.54 250 21:57 14.03.2022
2564 Clouds 10 1035 57 10000 1.79 236 21:20 14.03.2022
2565 Clouds 11 1034 55 10000 2.06 220 20:31 14.03.2022
2566 Clouds 11 1034 52 10000 2.57 210 19:47 14.03.2022
2567 Clouds 12 1032 50 10000 2.57 190 18:20 14.03.2022
2568 Clouds 12 1032 46 10000 1.54 0 17:42 14.03.2022
2569 Clouds 13 1032 44 10000 1.54 250 16:37 14.03.2022
2570 Clouds 12 1032 46 10000 2.57 240 14:58 14.03.2022
2571 Clouds 12 1033 46 10000 2.57 220 13:58 14.03.2022
2572 Clouds 10 1033 54 10000 1.54 150 11:27 14.03.2022
2573 Clouds 9 1033 58 10000 0.89 193 09:58 14.03.2022
2574 Clouds 9 1033 58 10000 0.89 193 09:58 14.03.2022
2575 Clouds 9 1033 60 10000 1.34 188 09:38 14.03.2022
2576 Clouds 8 1033 63 10000 0.89 111 09:18 14.03.2022
2577 Clouds 7 1033 64 10000 1.79 297 08:46 14.03.2022
2578 Clouds 6 1032 68 10000 2.57 350 07:19 14.03.2022
2579 Rain 7 1030 61 10000 1.79 73 03:36 14.03.2022
2580 Rain 7 1030 56 10000 2.06 80 01:42 14.03.2022
2581 Clouds 8 1029 52 10000 2.68 91 00:29 14.03.2022
2582 Clouds 8 1028 46 10000 1.79 95 21:51 13.03.2022
2583 Clouds 9 1028 44 10000 2.24 77 21:22 13.03.2022
2584 Rain 9 1028 43 10000 1.79 115 20:46 13.03.2022
2585 Clear 9 1027 43 10000 2.24 138 20:22 13.03.2022
2586 Clouds 9 1027 42 10000 2.24 77 19:42 13.03.2022
2587 Clouds 9 1027 42 10000 1.54 90 19:22 13.03.2022
2588 Clouds 9 1026 43 10000 1.79 124 18:45 13.03.2022
2589 Clouds 9 1026 41 10000 2.24 60 18:26 13.03.2022
2590 Rain 10 1026 38 10000 2.24 135 17:38 13.03.2022
2591 Clear 10 1026 37 10000 2.24 134 16:45 13.03.2022
2592 Clear 10 1026 36 10000 2.06 0 16:23 13.03.2022
2593 Clear 10 1026 36 10000 2.57 50 15:42 13.03.2022
2594 Clear 11 1026 35 10000 3.13 101 14:37 13.03.2022
2595 Clear 10 1026 35 10000 3.09 120 13:28 13.03.2022
2596 Clear 9 1027 43 10000 3.13 142 12:22 13.03.2022
2597 Clear 9 1027 47 10000 3.09 140 11:38 13.03.2022
2598 Clear 8 1027 49 10000 2.57 110 10:49 13.03.2022
2599 Clear 7 1027 52 10000 1.79 116 10:28 13.03.2022
2600 Clear 6 1028 57 10000 1.54 70 09:42 13.03.2022
2601 Clear 4 1028 59 10000 2.06 90 08:49 13.03.2022
2602 Clear 5 1028 58 10000 2.06 90 08:49 13.03.2022
2603 Clear 3 1028 59 10000 2.06 80 08:23 13.03.2022
2604 Clouds 2 1027 58 10000 0.45 83 06:40 13.03.2022
2605 Clear 3 1027 55 10000 2.57 80 03:56 13.03.2022
2606 Clear 5 1027 52 10000 0.51 0 00:48 13.03.2022
2607 Clear 7 1028 48 10000 1.54 80 22:51 12.03.2022
2608 Clouds 8 1028 46 10000 1.79 108 21:29 12.03.2022
2609 Clouds 8 1027 44 10000 2.68 78 20:18 12.03.2022
2610 Clouds 8 1027 45 10000 2.68 117 19:43 12.03.2022
2611 Clouds 9 1027 46 10000 3.13 82 18:34 12.03.2022
2612 Clear 9 1026 46 10000 2.06 120 17:46 12.03.2022
2613 Clouds 10 1027 44 10000 3.58 79 16:25 12.03.2022
2614 Clear 10 1027 45 10000 2.68 108 15:25 12.03.2022
2615 Clouds 10 1027 45 10000 3.6 100 14:52 12.03.2022
2616 Clouds 9 1028 48 10000 4.02 108 13:53 12.03.2022
2617 Clouds 8 1029 52 10000 6.26 74 12:25 12.03.2022
2618 Clouds 8 1029 54 10000 4.63 90 11:51 12.03.2022
2619 Clouds 7 1029 55 10000 5.14 120 11:20 12.03.2022
2620 Clouds 7 1029 60 10000 4.02 109 09:58 12.03.2022
2621 Clouds 7 1029 61 10000 4.02 109 09:39 12.03.2022
2622 Clouds 5 1028 64 10000 3.13 90 07:51 12.03.2022
2623 Clear 5 1027 63 10000 3.58 79 05:20 12.03.2022
2624 Clouds 6 1028 63 10000 3.13 82 00:24 12.03.2022
2625 Clouds 6 1028 63 10000 3.09 100 23:28 11.03.2022
2626 Clouds 7 1027 59 10000 4.47 101 21:47 11.03.2022
2627 Clouds 8 1027 58 10000 4.02 120 20:57 11.03.2022
2628 Clouds 8 1026 57 10000 2.57 90 20:37 11.03.2022
2629 Clouds 9 1026 55 10000 3.09 90 19:53 11.03.2022
2630 Clouds 9 1026 54 10000 2.68 108 19:26 11.03.2022
2631 Clouds 10 1026 50 10000 3.6 100 17:34 11.03.2022
2632 Clouds 11 1025 50 10000 4.12 80 16:42 11.03.2022
2633 Clouds 11 1026 50 10000 3.6 100 15:57 11.03.2022
2634 Clouds 11 1026 52 10000 4.12 120 14:21 11.03.2022
2635 Clouds 10 1027 57 10000 5.66 110 12:52 11.03.2022
2636 Clouds 10 1027 57 10000 5.14 100 12:21 11.03.2022
2637 Clouds 10 1028 58 10000 6.17 120 11:53 11.03.2022
2638 Clear 8 1027 64 10000 5.14 100 09:59 11.03.2022
2639 Clouds 7 1028 70 8000 4.47 105 08:56 11.03.2022
2640 Clear 6 1028 71 10000 4.02 83 08:24 11.03.2022
2641 Clear 6 1027 71 10000 4.02 90 07:45 11.03.2022
2642 Clear 6 1026 62 10000 5.36 81 05:44 11.03.2022
2643 Clear 6 1026 60 10000 3.6 90 03:41 11.03.2022
2644 Clear 7 1024 63 10000 1.34 306 23:36 10.03.2022
2645 Clouds 8 1024 63 10000 0.51 0 22:30 10.03.2022
2646 Clouds 9 1024 60 10000 0.89 97 21:27 10.03.2022
2647 Clouds 9 1024 59 10000 0.51 0 20:55 10.03.2022
2648 Clear 11 1024 50 10000 1.54 170 19:23 10.03.2022
2649 Clear 13 1023 45 10000 1.03 0 18:40 10.03.2022
2650 Clear 15 1022 41 10000 1.03 0 17:19 10.03.2022
2651 Clear 14 1023 41 10000 1.79 277 15:50 10.03.2022
2652 Clear 14 1023 43 10000 1.54 0 14:39 10.03.2022
2653 Clear 13 1025 50 10000 3.58 254 12:53 10.03.2022
2654 Clear 12 1025 53 10000 2.68 235 11:57 10.03.2022
2655 Clear 10 1026 54 10000 1.79 228 10:50 10.03.2022
2656 Clear 6 1026 58 9000 0.51 0 08:55 10.03.2022
2657 Clear 2 1026 72 10000 0.89 4 06:58 10.03.2022
2658 Clear 2 1025 69 10000 0.51 0 03:52 10.03.2022
2659 Clear 4 1025 62 10000 0.51 0 00:51 10.03.2022
2660 Clear 5 1025 58 10000 1.54 40 22:46 09.03.2022
2661 Clear 6 1024 55 10000 0.51 0 21:48 09.03.2022
2662 Clear 6 1024 52 10000 1.03 180 21:23 09.03.2022
2663 Clear 8 1023 46 10000 0.51 160 19:40 09.03.2022
2664 Clear 11 1022 35 10000 1.54 280 18:19 09.03.2022
2665 Clear 12 1022 33 10000 2.06 260 17:26 09.03.2022
2666 Clear 13 1022 32 10000 2.57 240 16:23 09.03.2022
2667 Clear 12 1023 38 10000 4.92 243 14:32 09.03.2022
2668 Clear 11 1023 39 10000 4.47 264 13:51 09.03.2022
2669 Clear 10 1025 45 10000 4.02 235 12:27 09.03.2022
2670 Clear 9 1025 49 10000 4.92 242 11:48 09.03.2022
2671 Clear 8 1025 55 10000 2.24 308 10:59 09.03.2022
2672 Clear 4 1026 67 10000 1.03 0 09:41 09.03.2022
2673 Clear 3 1025 66 8000 1.79 232 08:47 09.03.2022
2674 Clear 0 1023 75 10000 1.54 240 06:27 09.03.2022
2675 Clear 1 1024 64 10000 1.34 12 01:53 09.03.2022
2676 Clear 2 1024 59 10000 1.03 10 00:22 09.03.2022
2677 Clear 3 1023 57 10000 1.34 316 22:46 08.03.2022
2678 Clear 3 1024 57 10000 1.79 252 21:51 08.03.2022
2679 Clear 4 1024 55 10000 1.03 210 21:21 08.03.2022
2680 Clear 5 1024 52 10000 0.89 223 20:21 08.03.2022
2681 Clear 6 1023 46 10000 1.03 0 19:21 08.03.2022
2682 Clear 7 1022 44 10000 1.54 110 18:22 08.03.2022
2683 Clear 8 1021 41 10000 2.06 130 16:42 08.03.2022
2684 Clouds 8 1022 38 10000 3.09 70 14:55 08.03.2022
2685 Clouds 7 1023 43 10000 3.6 110 13:39 08.03.2022
2686 Clouds 6 1024 46 10000 3.6 110 12:20 08.03.2022
2687 Clouds 6 1024 48 10000 3.6 90 11:42 08.03.2022
2688 Clouds 5 1024 54 10000 3.6 80 10:28 08.03.2022
2689 Rain 4 1023 59 10000 3.6 80 08:56 08.03.2022
2690 Clouds 4 1022 63 10000 4.02 106 05:51 08.03.2022
2691 Clear 3 1021 63 10000 3.6 80 01:53 08.03.2022
2692 Clear 4 1019 58 10000 0.89 80 22:41 07.03.2022
2693 Clear 5 1018 56 10000 0.89 147 21:36 07.03.2022
2694 Clear 5 1018 52 10000 1.03 180 20:55 07.03.2022
2695 Clear 6 1017 50 10000 1.54 170 20:29 07.03.2022
2696 Clear 7 1017 47 10000 1.54 180 19:48 07.03.2022
2697 Clear 8 1017 44 10000 2.57 180 18:50 07.03.2022
2698 Clear 9 1016 43 10000 1.54 190 18:28 07.03.2022
2699 Clear 10 1016 39 10000 2.06 250 16:56 07.03.2022
2700 Clear 10 1016 40 10000 2.06 250 16:37 07.03.2022
2701 Clear 10 1017 41 10000 2.24 214 14:41 07.03.2022
2702 Clear 9 1019 44 10000 2.24 174 12:34 07.03.2022
2703 Clear 7 1019 49 10000 3.09 110 10:48 07.03.2022
2704 Clear 6 1020 52 10000 2.06 90 10:25 07.03.2022
2705 Clear 1 1019 68 10000 1.03 10 07:42 07.03.2022
2706 Clear 3 1018 60 10000 1.54 10 00:37 07.03.2022
2707 Clear 3 1018 56 10000 1.54 10 00:19 07.03.2022
2708 Clear 3 1018 56 10000 0.89 117 23:19 06.03.2022
2709 Clear 4 1018 53 10000 0.89 190 22:25 06.03.2022
2710 Clear 5 1017 48 10000 1.03 190 20:56 06.03.2022
2711 Clear 6 1017 46 10000 1.54 190 20:28 06.03.2022
2712 Clear 6 1016 44 10000 2.57 180 19:31 06.03.2022
2713 Clear 8 1016 40 10000 3.09 190 18:25 06.03.2022
2714 Clear 9 1016 37 10000 2.06 210 17:22 06.03.2022
2715 Clear 9 1015 35 10000 1.54 140 16:52 06.03.2022
2716 Clear 9 1016 35 10000 1.54 220 16:24 06.03.2022
2717 Clouds 9 1016 35 10000 3.13 132 15:19 06.03.2022
2718 Clouds 9 1017 36 10000 1.34 323 14:41 06.03.2022
2719 Clouds 8 1017 38 10000 2.06 190 13:47 06.03.2022
2720 Clouds 8 1018 40 10000 2.06 200 12:36 06.03.2022
2721 Clouds 7 1019 41 10000 2.24 121 11:27 06.03.2022
2722 Clouds 7 1019 45 10000 3.13 86 10:29 06.03.2022
2723 Clouds 4 1019 55 10000 2.57 60 08:40 06.03.2022
2724 Clouds 4 1019 58 10000 1.54 80 08:20 06.03.2022
2725 Clouds 3 1018 59 10000 2.06 350 06:22 06.03.2022
2726 Clouds 4 1018 55 10000 2.06 90 01:32 06.03.2022
2727 Clouds 4 1018 54 10000 3.58 116 00:33 06.03.2022
2728 Clouds 4 1018 55 10000 1.54 60 23:41 05.03.2022
2729 Clouds 4 1018 55 10000 1.34 98 23:18 05.03.2022
2730 Clear 5 1018 52 10000 1.79 64 22:25 05.03.2022
2731 Clear 6 1017 49 10000 2.68 78 21:24 05.03.2022
2732 Clear 6 1016 48 10000 1.54 130 19:53 05.03.2022
2733 Clear 7 1016 47 10000 3.09 140 18:56 05.03.2022
2734 Clear 8 1015 45 10000 2.24 128 18:27 05.03.2022
2735 Clouds 9 1015 43 10000 3.09 140 16:52 05.03.2022
2736 Clouds 9 1016 42 10000 3.13 150 15:40 05.03.2022
2737 Clouds 9 1016 42 10000 2.57 0 14:52 05.03.2022
2738 Clouds 9 1016 42 10000 4.12 110 14:33 05.03.2022
2739 Clouds 9 1017 43 10000 3.13 107 13:22 05.03.2022
2740 Clouds 8 1018 46 10000 7.6 73 11:48 05.03.2022
2741 Clouds 7 1018 49 10000 5.14 110 11:19 05.03.2022
2742 Clouds 6 1018 54 10000 6.26 70 10:20 05.03.2022
2743 Clouds 6 1019 56 10000 5.36 82 09:22 05.03.2022
2744 Clouds 4 1018 62 10000 4.47 87 07:38 05.03.2022
2745 Clouds 4 1017 64 10000 3.58 91 05:43 05.03.2022
2746 Clouds 5 1017 67 10000 3.09 60 03:49 05.03.2022
2747 Clouds 6 1016 58 10000 2.68 83 23:38 04.03.2022
2748 Clear 7 1016 57 10000 3.13 83 22:42 04.03.2022
2749 Clouds 7 1016 55 10000 3.58 91 22:19 04.03.2022
2750 Clear 8 1015 56 10000 3.09 80 20:56 04.03.2022
2751 Clear 8 1015 55 10000 3.58 58 20:27 04.03.2022
2752 Clear 9 1014 54 10000 3.6 70 19:36 04.03.2022
2753 Clear 10 1014 51 10000 3.6 80 18:45 04.03.2022
2754 Clear 11 1013 48 10000 4.47 125 17:39 04.03.2022
2755 Clouds 12 1013 50 7000 4.12 130 16:54 04.03.2022
2756 Clouds 12 1013 51 7000 3.6 100 15:29 04.03.2022
2757 Clouds 12 1013 53 8000 3.6 140 14:33 04.03.2022
2758 Clouds 12 1014 54 8000 4.12 130 13:26 04.03.2022
2759 Clouds 10 1015 59 8000 4.12 120 11:46 04.03.2022
2760 Clouds 10 1015 63 8000 4.02 143 10:52 04.03.2022
2761 Clouds 8 1015 67 7000 3.09 70 09:52 04.03.2022
2762 Clouds 7 1015 73 6000 2.24 93 08:39 04.03.2022
2763 Mist 5 1014 74 5000 2.06 70 07:34 04.03.2022
2764 Clear 5 1013 73 10000 1.34 100 03:56 04.03.2022
2765 Clear 7 1013 76 10000 1.54 290 00:28 04.03.2022
2766 Clear 8 1013 73 10000 2.68 251 22:27 03.03.2022
2767 Clear 8 1013 68 10000 4.02 230 21:42 03.03.2022
2768 Clear 9 1013 67 10000 3.58 228 21:24 03.03.2022
2769 Clear 9 1013 54 10000 1.03 240 19:52 03.03.2022
2770 Clear 11 1012 49 10000 1.79 293 18:54 03.03.2022
2771 Clear 12 1012 45 10000 1.34 276 18:23 03.03.2022
2772 Clear 13 1012 42 10000 1.34 299 17:30 03.03.2022
2773 Clear 14 1013 41 10000 1.54 0 16:24 03.03.2022
2774 Clear 14 1014 45 10000 2.57 200 15:21 03.03.2022
2775 Clear 13 1014 45 10000 1.54 0 14:42 03.03.2022
2776 Clear 13 1016 49 10000 3.58 199 13:19 03.03.2022
2777 Clear 11 1017 56 10000 2.24 192 11:54 03.03.2022
2778 Clear 10 1018 58 10000 1.79 118 10:42 03.03.2022
2779 Clear 7 1018 66 10000 2.24 157 08:57 03.03.2022
2780 Clear 4 1018 75 10000 0.51 0 07:45 03.03.2022
2781 Clear 4 1019 73 10000 1.03 160 06:35 03.03.2022
2782 Rain 6 1020 64 10000 1.34 280 01:52 03.03.2022
2783 Clear 7 1020 63 10000 1.54 270 23:29 02.03.2022
2784 Clear 7 1020 59 10000 2.68 237 22:52 02.03.2022
2785 Clear 8 1020 53 10000 2.24 219 21:30 02.03.2022
2786 Clear 8 1020 48 10000 1.79 205 20:45 02.03.2022
2787 Clear 8 1020 44 10000 1.79 195 20:24 02.03.2022
2788 Clear 9 1020 41 10000 1.34 230 19:35 02.03.2022
2789 Clear 10 1020 38 10000 0.51 0 18:44 02.03.2022
2790 Clear 11 1019 35 10000 2.24 280 17:59 02.03.2022
2791 Clear 11 1019 35 10000 2.68 259 17:28 02.03.2022
2792 Clear 12 1019 34 10000 3.09 260 16:51 02.03.2022
2793 Clear 12 1021 33 10000 3.09 270 14:45 02.03.2022
2794 Clear 11 1022 38 10000 3.13 253 13:24 02.03.2022
2795 Clear 10 1023 42 10000 3.58 238 12:43 02.03.2022
2796 Clear 9 1023 46 10000 4.02 233 11:47 02.03.2022
2797 Clear 9 1024 49 10000 2.57 240 11:24 02.03.2022
2798 Clear 6 1025 60 10000 1.03 0 09:42 02.03.2022
2799 Clear 4 1025 63 10000 1.79 234 08:55 02.03.2022
2800 Clear 1 1025 69 10000 0.51 0 07:39 02.03.2022
2801 Clear 1 1025 67 10000 0.89 248 06:51 02.03.2022
2802 Clear 2 1027 60 10000 1.34 303 02:35 02.03.2022
2803 Clear 4 1028 54 10000 1.03 10 23:55 01.03.2022
2804 Clear 4 1028 52 10000 1.03 210 22:46 01.03.2022
2805 Clear 4 1029 54 10000 0.51 210 22:19 01.03.2022
2806 Clear 5 1029 49 10000 1.03 170 21:25 01.03.2022
2807 Clear 6 1027 44 10000 0.51 270 20:30 01.03.2022
2808 Clear 6 1027 44 10000 0.51 270 20:30 01.03.2022
2809 Clear 6 1027 44 10000 0.51 270 20:30 01.03.2022
2810 Clear 6 1027 44 10000 0.51 270 20:30 01.03.2022
2811 Clear 7 1027 41 10000 1.34 228 19:38 01.03.2022
2812 Clear 8 1026 38 10000 3.13 222 18:49 01.03.2022
2813 Clear 9 1026 35 10000 2.68 239 18:20 01.03.2022
2814 Clear 10 1026 33 10000 3.13 215 17:22 01.03.2022
2815 Clear 10 1027 32 10000 2.68 246 16:33 01.03.2022
2816 Clear 10 1027 32 10000 4.02 312 15:38 01.03.2022
2817 Clear 10 1027 32 10000 4.02 312 15:38 01.03.2022
2818 Clear 10 1028 32 10000 2.68 293 14:34 01.03.2022
2819 Clear 10 1029 33 10000 3.09 260 13:52 01.03.2022
2820 Clear 9 1029 32 10000 0.45 294 13:24 01.03.2022
2821 Clear 8 1031 34 10000 4.02 273 12:30 01.03.2022
2822 Clear 7 1032 40 10000 3.58 264 10:34 01.03.2022
2823 Clouds 4 1033 53 10000 2.68 346 08:41 01.03.2022
2824 Clouds 4 1033 54 10000 2.06 20 07:52 01.03.2022
2825 Clouds 4 1033 53 10000 3.09 50 05:54 01.03.2022
2826 Clouds 5 1031 57 10000 6.17 90 02:33 01.03.2022
2827 Clouds 6 1029 64 10000 6.26 123 00:34 01.03.2022
2828 Clear 6 1028 66 10000 4.92 84 23:29 28.02.2022
2829 Clear 7 1026 53 10000 6.17 100 21:59 28.02.2022
2830 Clear 7 1025 46 10000 6.71 97 21:24 28.02.2022
2831 Clear 9 1024 38 10000 3.6 120 19:53 28.02.2022
2832 Clear 9 1023 36 10000 3.13 104 19:27 28.02.2022
2833 Clear 10 1023 33 10000 0.51 0 18:40 28.02.2022
2834 Clear 12 1022 29 10000 2.06 230 17:24 28.02.2022
2835 Clear 13 1022 29 10000 2.57 230 16:33 28.02.2022
2836 Clear 13 1022 30 10000 2.24 236 15:23 28.02.2022
2837 Clear 12 1023 30 10000 2.06 250 15:23 28.02.2022
2838 Clear 12 1023 30 10000 3.09 260 14:31 28.02.2022
2839 Clear 12 1024 31 10000 3.09 250 13:47 28.02.2022
2840 Clear 11 1025 36 10000 2.68 212 12:41 28.02.2022
2841 Clear 10 1026 42 10000 3.13 171 11:55 28.02.2022
2842 Clear 8 1026 48 10000 1.54 200 10:48 28.02.2022
2843 Clear 7 1026 53 10000 2.68 188 10:20 28.02.2022
2844 Clear 6 1026 54 10000 1.79 205 09:32 28.02.2022
2845 Clear 3 1027 60 10000 0.89 326 08:29 28.02.2022
2846 Clear 2 1027 64 10000 0.89 1 07:28 28.02.2022
2847 Clear 2 1028 65 10000 1.03 280 04:44 28.02.2022
2848 Clear 2 1028 63 10000 1.03 170 04:23 28.02.2022
2849 Clear 5 1029 48 10000 1.03 30 23:27 27.02.2022
2850 Clear 5 1029 48 10000 0.89 355 22:33 27.02.2022
2851 Clear 6 1028 44 10000 0.51 0 21:51 27.02.2022
2852 Clear 6 1028 40 10000 1.54 190 20:59 27.02.2022
2853 Clear 7 1028 38 10000 2.06 190 20:27 27.02.2022
2854 Clear 7 1028 39 10000 2.06 190 19:57 27.02.2022
2855 Clear 8 1027 37 10000 2.06 190 19:26 27.02.2022
2856 Clear 9 1027 34 10000 2.06 190 18:47 27.02.2022
2857 Clear 11 1026 30 10000 2.06 180 17:55 27.02.2022
2858 Clear 12 1026 28 10000 2.57 170 16:45 27.02.2022
2859 Clear 12 1026 29 10000 2.06 150 16:21 27.02.2022
2860 Clouds 11 1026 37 10000 2.68 320 13:25 27.02.2022
2861 Clear 10 1027 41 10000 2.57 180 12:32 27.02.2022
2862 Clear 9 1027 51 10000 2.57 190 10:56 27.02.2022
2863 Clear 8 1027 53 10000 1.54 20 10:18 27.02.2022
2864 Clear 7 1027 55 10000 1.79 324 09:44 27.02.2022
2865 Clear 5 1027 59 10000 1.54 20 09:19 27.02.2022
2866 Clear 2 1027 68 10000 2.24 24 07:37 27.02.2022
2867 Clear 3 1026 67 10000 1.34 25 05:38 27.02.2022
2868 Clear 4 1027 59 10000 2.06 20 01:53 27.02.2022
2869 Clear 6 1026 56 10000 3.13 74 23:22 26.02.2022
2870 Clear 7 1025 52 10000 3.6 90 21:49 26.02.2022
2871 Clear 8 1025 47 10000 5.14 120 20:58 26.02.2022
2872 Clear 9 1025 33 10000 4.92 95 20:20 26.02.2022
2873 Clear 9 1024 29 10000 2.57 100 19:49 26.02.2022
2874 Clear 10 1023 27 10000 3.6 140 19:22 26.02.2022
2875 Clear 13 1022 22 10000 4.63 150 17:46 26.02.2022
2876 Clear 14 1021 21 10000 4.63 180 16:52 26.02.2022
2877 Clear 15 1022 18 10000 6.26 325 15:57 26.02.2022
2878 Clear 15 1023 18 10000 5.66 170 15:23 26.02.2022
2879 Clear 15 1023 17 10000 5.14 180 14:54 26.02.2022
2880 Clear 14 1023 18 10000 4.92 295 14:36 26.02.2022
2881 Clear 14 1023 18 10000 1.79 281 13:19 26.02.2022
2882 Clear 12 1026 29 10000 3.09 220 12:29 26.02.2022
2883 Clear 10 1027 53 10000 3.09 250 11:28 26.02.2022
2884 Clear 10 1026 47 10000 3.09 220 10:49 26.02.2022
2885 Clear 5 1026 77 10000 4.02 295 08:55 26.02.2022
2886 Fog 3 1027 84 10000 1.03 340 07:37 26.02.2022
2887 Clear 8 1024 31 10000 4.63 340 01:27 26.02.2022
2888 Clear 9 1023 25 10000 5.14 330 22:55 25.02.2022
2889 Clear 9 1022 23 10000 8.75 340 21:44 25.02.2022
2890 Clear 9 1022 22 10000 9.77 350 21:25 25.02.2022
2891 Clouds 10 1021 20 10000 8.75 360 20:33 25.02.2022
2892 Clouds 11 1020 18 10000 8.23 350 19:18 25.02.2022
2893 Clouds 13 1018 15 10000 8.75 360 17:29 25.02.2022
2894 Clouds 15 1016 16 10000 6.69 10 16:32 25.02.2022
2895 Clear 16 1016 19 10000 4.02 352 15:47 25.02.2022
2896 Clear 16 1016 23 10000 2.24 330 15:21 25.02.2022
2897 Clear 16 1016 28 10000 3.13 360 14:42 25.02.2022
2898 Clear 16 1016 27 10000 1.54 0 14:42 25.02.2022
2899 Clear 16 1017 42 10000 3.09 250 13:36 25.02.2022
2900 Clear 15 1017 44 10000 4.02 239 12:56 25.02.2022
2901 Clear 12 1018 52 10000 4.92 251 11:28 25.02.2022
2902 Clear 11 1018 57 10000 2.68 254 10:43 25.02.2022
2903 Clear 10 1018 63 10000 0.89 278 10:22 25.02.2022
2904 Clear 7 1018 72 10000 1.79 332 09:30 25.02.2022
2905 Mist 4 1017 78 5000 1.34 275 07:42 25.02.2022
2906 Clear 4 1017 79 10000 1.79 322 05:51 25.02.2022
2907 Clear 5 1017 78 10000 1.79 293 04:41 25.02.2022
2908 Clear 7 1018 71 10000 1.03 290 00:22 25.02.2022
2909 Clear 8 1020 67 10000 0.51 0 21:58 24.02.2022
2910 Clear 8 1020 67 10000 0.51 0 21:58 24.02.2022
2911 Clear 8 1020 66 10000 0.51 0 21:39 24.02.2022
2912 Clouds 9 1020 65 10000 1.03 0 21:19 24.02.2022
2913 Clear 10 1019 59 10000 0.51 0 19:42 24.02.2022
2914 Clouds 12 1019 54 10000 2.06 150 18:44 24.02.2022
2915 Clouds 12 1019 52 10000 1.34 202 18:19 24.02.2022
2916 Clouds 13 1020 49 10000 1.34 196 17:34 24.02.2022
2917 Clear 13 1020 46 10000 1.54 210 16:50 24.02.2022
2918 Clouds 14 1020 46 10000 1.54 160 16:24 24.02.2022
2919 Clear 14 1021 47 10000 1.54 170 14:56 24.02.2022
2920 Clear 13 1021 48 10000 1.79 159 14:36 24.02.2022
2921 Clear 13 1022 50 10000 2.24 129 13:40 24.02.2022
2922 Clear 12 1023 52 10000 1.34 158 12:54 24.02.2022
2923 Clear 10 1024 59 10000 1.79 151 10:41 24.02.2022
2924 Clear 8 1025 67 10000 1.54 190 09:24 24.02.2022
2925 Clear 6 1025 68 10000 1.34 176 08:41 24.02.2022
2926 Clouds 6 1025 68 10000 1.03 40 05:58 24.02.2022
2927 Clear 7 1026 60 10000 3.13 69 01:58 24.02.2022
2928 Clear 8 1026 56 10000 2.06 50 23:40 23.02.2022
2929 Clear 10 1026 50 10000 3.13 95 21:43 23.02.2022
2930 Clear 11 1026 50 10000 2.06 100 20:31 23.02.2022
2931 Clear 11 1026 47 10000 2.06 100 19:48 23.02.2022
2932 Clear 13 1025 41 10000 2.68 74 18:32 23.02.2022
2933 Clear 13 1025 41 10000 2.68 74 18:32 23.02.2022
2934 Clear 15 1025 38 10000 2.06 50 17:44 23.02.2022
2935 Clear 16 1024 36 10000 2.24 114 15:19 23.02.2022
2936 Clear 15 1025 36 10000 2.57 150 12:50 23.02.2022
2937 Clear 14 1025 38 10000 3.09 120 12:24 23.02.2022
2938 Clear 14 1025 38 10000 3.09 120 12:24 23.02.2022
2939 Clear 11 1025 44 10000 1.54 100 10:35 23.02.2022
2940 Clear 8 1024 55 10000 1.03 20 08:59 23.02.2022
2941 Clear 6 1024 60 10000 1.03 0 08:23 23.02.2022
2942 Clear 5 1023 63 10000 1.03 0 06:53 23.02.2022
2943 Clear 7 1021 55 10000 1.54 10 00:47 23.02.2022
2944 Clear 8 1021 52 10000 0.51 0 23:39 22.02.2022
2945 Clear 9 1020 44 10000 2.06 350 22:41 22.02.2022
2946 Clear 10 1019 42 10000 2.68 30 21:50 22.02.2022
2947 Clear 10 1019 41 10000 1.79 25 21:31 22.02.2022
2948 Clear 11 1019 41 10000 3.13 314 20:59 22.02.2022
2949 Clear 12 1018 39 10000 3.58 301 20:30 22.02.2022
2950 Clear 13 1018 37 10000 2.68 301 19:47 22.02.2022
2951 Clear 13 1018 36 10000 4.12 280 19:28 22.02.2022
2952 Clear 14 1017 33 10000 4.12 280 18:21 22.02.2022
2953 Clear 16 1016 30 10000 5.14 270 17:24 22.02.2022
2954 Clear 17 1016 27 10000 5.66 280 16:41 22.02.2022
2955 Clear 18 1016 21 10000 7.2 330 15:56 22.02.2022
2956 Clear 18 1016 18 10000 5.14 340 14:45 22.02.2022
2957 Clear 17 1016 20 10000 5.66 330 12:44 22.02.2022
2958 Clear 15 1017 28 10000 7.15 333 10:52 22.02.2022
2959 Clear 10 1017 44 10000 5.36 9 08:41 22.02.2022
2960 Clear 7 1016 50 10000 2.06 340 07:27 22.02.2022
2961 Clear 7 1016 49 10000 4.02 28 05:57 22.02.2022
2962 Clear 8 1014 52 10000 3.13 341 02:45 22.02.2022
2963 Clear 10 1011 38 10000 7.2 330 22:46 21.02.2022
2964 Clear 10 1010 34 10000 5.81 331 21:42 21.02.2022
2965 Clear 11 1009 31 10000 3.6 330 20:35 21.02.2022
2966 Clear 12 1008 24 10000 6.17 340 18:46 21.02.2022
2967 Clear 15 1006 19 10000 7.2 350 16:58 21.02.2022
2968 Clear 16 1006 18 10000 8.75 340 15:20 21.02.2022
2969 Clear 16 1005 22 10000 7.2 340 14:21 21.02.2022
2970 Clear 16 1005 22 10000 7.2 340 14:21 21.02.2022
2971 Clear 15 1006 43 10000 7.6 333 13:20 21.02.2022
2972 Clouds 14 1007 64 10000 4.63 310 12:23 21.02.2022
2973 Clouds 11 1008 78 10000 2.68 323 11:19 21.02.2022
2974 Mist 9 1008 87 3500 1.03 0 09:34 21.02.2022
2975 Mist 8 1011 87 2500 0.51 0 05:35 21.02.2022
2976 Clouds 8 1017 82 6000 1.79 230 23:41 20.02.2022
2977 Clouds 9 1017 80 10000 2.24 225 22:21 20.02.2022
2978 Clouds 9 1018 80 10000 1.03 0 21:42 20.02.2022
2979 Clear 9 1017 76 10000 1.03 170 20:53 20.02.2022
2980 Clear 10 1017 75 10000 1.03 210 20:33 20.02.2022
2981 Clouds 11 1017 73 10000 0.51 0 19:31 20.02.2022
2982 Clouds 11 1017 73 10000 0.51 0 19:31 20.02.2022
2983 Clear 12 1016 71 10000 1.34 307 18:50 20.02.2022
2984 Clouds 12 1016 71 10000 1.03 0 18:31 20.02.2022
2985 Clouds 12 1016 71 10000 1.03 0 18:31 20.02.2022
2986 Clouds 13 1016 67 9000 2.06 260 17:47 20.02.2022
2987 Clouds 15 1018 61 10000 3.09 250 15:32 20.02.2022
2988 Clouds 14 1018 61 10000 4.02 242 14:41 20.02.2022
2989 Clear 13 1019 64 10000 3.58 251 13:23 20.02.2022
2990 Clear 12 1020 67 10000 2.57 230 12:22 20.02.2022
2991 Fog 9 1020 86 250 1.79 226 10:21 20.02.2022
2992 Fog 8 1020 91 800 2.06 220 09:53 20.02.2022
2993 Fog 5 1019 96 900 1.79 310 07:45 20.02.2022
2994 Mist 9 1019 93 1500 0.89 242 00:54 20.02.2022
2995 Mist 9 1019 93 1500 1.34 171 00:29 20.02.2022
2996 Mist 9 1018 91 1300 1.03 160 22:25 19.02.2022
2997 Mist 9 1019 91 1900 1.03 120 21:57 19.02.2022
2998 Mist 10 1017 90 2300 1.34 238 20:48 19.02.2022
2999 Mist 10 1017 90 2300 1.34 196 19:42 19.02.2022
3000 Mist 10 1017 90 2100 1.54 210 19:20 19.02.2022
3001 Mist 11 1016 88 2600 1.54 200 18:29 19.02.2022
3002 Mist 12 1016 86 3900 2.57 210 17:33 19.02.2022
3003 Mist 12 1016 83 4400 3.09 200 16:21 19.02.2022
3004 Mist 13 1016 80 4000 2.06 220 14:56 19.02.2022
3005 Mist 13 1015 82 4000 1.54 250 13:59 19.02.2022
3006 Mist 11 1016 88 1500 2.68 242 11:59 19.02.2022
3007 Mist 10 1016 89 1500 2.68 229 11:36 19.02.2022
3008 Mist 8 1016 95 1000 1.54 240 09:27 19.02.2022
3009 Mist 8 1014 96 1000 2.06 200 06:51 19.02.2022
3010 Drizzle 8 1015 92 2600 1.54 330 00:55 19.02.2022
3011 Clouds 8 1016 87 6000 1.79 309 22:54 18.02.2022
3012 Clouds 9 1016 84 6000 1.79 237 21:28 18.02.2022
3013 Clouds 9 1016 82 6000 1.54 360 20:31 18.02.2022
3014 Clouds 9 1016 81 6000 1.03 0 19:51 18.02.2022
3015 Clouds 9 1016 81 6000 1.03 0 19:51 18.02.2022
3016 Mist 10 1016 77 5000 1.54 110 18:38 18.02.2022
3017 Mist 10 1016 76 5000 1.54 110 18:18 18.02.2022
3018 Mist 10 1016 75 5000 2.06 100 17:20 18.02.2022
3019 Mist 10 1016 73 4000 2.06 130 14:31 18.02.2022
3020 Mist 10 1017 73 5000 2.68 131 13:47 18.02.2022
3021 Mist 10 1018 75 5000 2.68 107 12:50 18.02.2022
3022 Mist 9 1018 79 3000 3.13 117 11:57 18.02.2022
3023 Mist 7 1018 87 1200 3.09 60 10:47 18.02.2022
3024 Mist 5 1018 92 1500 4.02 127 09:20 18.02.2022
3025 Mist 4 1016 91 4000 2.68 82 06:48 18.02.2022
3026 Mist 5 1015 91 4000 3.13 74 05:34 18.02.2022
3027 Clear 9 1013 78 10000 2.24 248 22:39 17.02.2022
3028 Clear 9 1012 79 10000 1.03 0 21:41 17.02.2022
3029 Clear 10 1012 76 10000 2.24 269 20:44 17.02.2022
3030 Clear 11 1012 75 10000 3.13 255 19:56 17.02.2022
3031 Clear 11 1011 75 10000 4.02 238 19:26 17.02.2022
3032 Clear 13 1010 70 10000 4.02 242 18:29 17.02.2022
3033 Clear 14 1010 65 10000 4.02 248 17:42 17.02.2022
3034 Clear 16 1011 64 10000 4.12 260 15:58 17.02.2022
3035 Clear 15 1011 63 10000 4.12 270 14:30 17.02.2022
3036 Clear 14 1011 63 10000 4.63 260 13:47 17.02.2022
3037 Clear 12 1013 66 10000 2.68 282 11:52 17.02.2022
3038 Clear 10 1013 72 10000 1.79 240 10:57 17.02.2022
3039 Fog 3 1013 92 300 1.03 0 07:56 17.02.2022
3040 Fog 4 1015 100 300 1.54 240 23:50 16.02.2022
3041 Fog 5 1015 96 300 2.06 240 22:36 16.02.2022
3042 Fog 5 1015 92 2000 2.06 250 20:22 16.02.2022
3043 Clouds 7 1016 86 6000 2.24 259 18:56 16.02.2022
3044 Clear 7 1015 84 6000 2.06 240 18:27 16.02.2022
3045 Clouds 9 1016 77 6000 2.06 240 17:22 16.02.2022
3046 Fog 10 1016 73 6000 1.79 209 15:23 16.02.2022
3047 Mist 10 1016 75 5000 2.06 260 13:46 16.02.2022
3048 Mist 8 1018 79 3000 2.06 250 12:26 16.02.2022
3049 Mist 8 1018 83 3000 2.24 203 11:46 16.02.2022
3050 Fog 5 1018 91 200 1.79 292 10:34 16.02.2022
3051 Fog 3 1019 95 100 1.79 312 09:38 16.02.2022
3052 Fog 1 1018 95 900 0.89 320 06:43 16.02.2022
3053 Clouds 2 1017 93 10000 0.84 217 00:37 16.02.2022
3054 Fog 3 1017 93 2500 1.79 12 22:34 15.02.2022
3055 Fog 3 1016 93 2500 1.54 10 21:50 15.02.2022
3056 Fog 3 1016 92 2000 1.34 44 21:29 15.02.2022
3057 Fog 4 1015 92 2500 2.24 37 20:58 15.02.2022
3058 Mist 4 1014 92 3000 1.34 341 20:22 15.02.2022
3059 Mist 4 1014 92 3000 0.51 0 19:43 15.02.2022
3060 Mist 5 1014 91 2500 1.03 170 18:25 15.02.2022
3061 Mist 5 1013 90 2500 1.54 190 17:53 15.02.2022
3062 Mist 5 1013 89 2500 1.34 159 17:28 15.02.2022
3063 Mist 5 1013 90 3000 2.06 250 15:36 15.02.2022
3064 Mist 4 1013 91 2500 3.09 250 13:49 15.02.2022
3065 Mist 4 1013 91 2500 3.58 251 13:25 15.02.2022
3066 Rain 3 1012 94 1500 3.09 250 11:41 15.02.2022
3067 Rain 2 1012 96 2000 4.12 250 10:19 15.02.2022
3068 Rain 2 1012 94 2500 1.79 245 07:41 15.02.2022
3069 Rain 1 1013 93 2500 1.34 323 06:36 15.02.2022
3070 Clouds 2 1016 92 7000 2.06 350 23:34 14.02.2022
3071 Clouds 2 1017 90 6000 2.06 360 21:55 14.02.2022
3072 Rain 2 1017 90 6000 2.24 310 20:51 14.02.2022
3073 Drizzle 3 1017 88 10000 2.06 340 19:46 14.02.2022
3074 Drizzle 3 1017 86 8000 2.06 10 19:26 14.02.2022
3075 Drizzle 4 1017 82 6000 2.06 360 18:23 14.02.2022
3076 Drizzle 4 1016 76 10000 2.24 311 17:27 14.02.2022
3077 Drizzle 5 1017 68 10000 1.79 216 16:26 14.02.2022
3078 Clouds 6 1018 66 8000 1.34 181 14:43 14.02.2022
3079 Clouds 6 1018 64 10000 2.68 212 13:34 14.02.2022
3080 Rain 6 1019 63 10000 0.89 203 12:56 14.02.2022
3081 Clear 6 1020 64 10000 1.79 131 11:56 14.02.2022
3082 Clouds 5 1020 63 10000 1.79 194 11:37 14.02.2022
3083 Clear 4 1020 69 10000 0.89 235 09:25 14.02.2022
3084 Clouds 3 1020 69 10000 0.89 234 07:33 14.02.2022
3085 Clouds 3 1020 68 10000 0.51 10 06:54 14.02.2022
3086 Clear 4 1023 61 10000 1.54 10 22:44 13.02.2022
3087 Clear 4 1023 61 10000 1.54 360 22:26 13.02.2022
3088 Clear 4 1023 62 10000 0.89 80 21:48 13.02.2022
3089 Clear 5 1023 57 10000 1.03 350 20:42 13.02.2022
3090 Clear 6 1023 54 10000 0.51 0 19:51 13.02.2022
3091 Clear 7 1023 51 10000 1.54 150 18:56 13.02.2022
3092 Clear 7 1023 49 10000 1.54 130 18:38 13.02.2022
3093 Clear 10 1024 42 10000 1.54 90 16:39 13.02.2022
3094 Clear 10 1024 43 10000 1.34 232 15:27 13.02.2022
3095 Clear 10 1025 45 10000 1.79 177 14:37 13.02.2022
3096 Clear 9 1027 48 10000 2.68 86 12:52 13.02.2022
3097 Clear 8 1028 50 10000 3.09 140 12:18 13.02.2022
3098 Clear 6 1028 54 10000 5.36 84 10:38 13.02.2022
3099 Clear 5 1029 57 10000 2.57 50 09:49 13.02.2022
3100 Clear 2 1028 65 10000 1.79 75 07:52 13.02.2022
3101 Clear 4 1030 58 10000 1.03 0 00:36 13.02.2022
3102 Clear 4 1030 62 10000 1.34 31 23:53 12.02.2022
3103 Clear 5 1031 55 10000 1.34 21 22:33 12.02.2022
3104 Clear 6 1031 53 10000 0.89 23 21:36 12.02.2022
3105 Clear 6 1030 51 10000 0.89 330 20:52 12.02.2022
3106 Clear 7 1030 44 10000 0.51 0 19:47 12.02.2022
3107 Clear 8 1030 42 10000 1.54 160 18:53 12.02.2022
3108 Clear 8 1030 40 10000 1.54 180 18:35 12.02.2022
3109 Clear 10 1030 36 10000 2.24 115 17:37 12.02.2022
3110 Clear 11 1030 35 10000 1.54 180 16:43 12.02.2022
3111 Clear 11 1030 34 10000 2.24 65 15:51 12.02.2022
3112 Clear 11 1031 36 10000 2.57 140 14:55 12.02.2022
3113 Clear 11 1031 38 10000 3.6 130 14:24 12.02.2022
3114 Clear 9 1033 56 10000 6.26 79 11:18 12.02.2022
3115 Clear 8 1033 67 10000 4.92 119 10:23 12.02.2022
3116 Clear 6 1033 77 10000 3.13 70 09:32 12.02.2022
3117 Clear 5 1032 79 10000 3.09 50 08:45 12.02.2022
3118 Clear 5 1030 67 10000 4.02 101 05:41 12.02.2022
3119 Clear 5 1030 57 10000 4.12 110 04:36 12.02.2022
3120 Clouds 5 1028 75 8000 2.57 20 02:19 12.02.2022
3121 Clear 8 1027 56 10000 4.12 60 22:57 11.02.2022
3122 Clear 9 1026 24 10000 5.14 360 22:20 11.02.2022
3123 Clear 10 1025 20 10000 4.63 360 20:52 11.02.2022
3124 Clear 11 1024 24 10000 4.02 2 19:50 11.02.2022
3125 Clear 11 1024 29 10000 4.47 357 19:27 11.02.2022
3126 Clear 12 1023 41 10000 3.09 260 18:28 11.02.2022
3127 Clear 13 1022 56 10000 3.6 250 17:26 11.02.2022
3128 Clear 14 1022 56 10000 4.47 263 16:26 11.02.2022
3129 Clear 14 1022 59 10000 3.6 250 14:57 11.02.2022
3130 Clear 14 1022 61 10000 4.12 230 14:36 11.02.2022
3131 Clear 14 1022 60 10000 4.47 221 14:18 11.02.2022
3132 Clouds 13 1022 64 10000 3.6 250 13:39 11.02.2022
3133 Clouds 12 1023 74 8000 1.54 270 12:20 11.02.2022
3134 Drizzle 9 1024 79 6000 1.79 219 10:28 11.02.2022
3135 Clouds 8 1023 82 8000 1.54 100 09:19 11.02.2022
3136 Clouds 7 1023 84 8000 1.34 338 08:28 11.02.2022
3137 Clouds 7 1023 84 10000 1.79 305 07:34 11.02.2022
3138 Clouds 8 1024 83 10000 1.03 360 02:40 11.02.2022
3139 Clouds 8 1024 83 10000 1.34 225 02:19 11.02.2022
3140 Clouds 8 1025 82 10000 0.51 0 23:20 10.02.2022
3141 Clouds 8 1025 82 10000 1.34 231 21:53 10.02.2022
3142 Clouds 8 1025 81 10000 1.54 190 21:21 10.02.2022
3143 Clouds 8 1025 81 10000 0.89 214 20:45 10.02.2022
3144 Clouds 9 1025 79 10000 1.03 180 19:26 10.02.2022
3145 Clouds 9 1025 78 10000 1.03 0 18:47 10.02.2022
3146 Clouds 11 1024 74 10000 1.54 260 17:27 10.02.2022
3147 Clouds 12 1025 73 10000 1.79 245 16:55 10.02.2022
3148 Clouds 12 1024 72 10000 2.68 240 15:51 10.02.2022
3149 Clouds 12 1025 73 10000 1.34 221 15:31 10.02.2022
3150 Clouds 12 1025 73 10000 1.79 210 14:49 10.02.2022
3151 Clouds 12 1025 75 10000 1.79 234 14:24 10.02.2022
3152 Clouds 11 1026 77 10000 2.06 260 13:29 10.02.2022
3153 Clouds 11 1026 78 10000 1.34 216 12:50 10.02.2022
3154 Clouds 9 1027 80 10000 1.34 292 11:34 10.02.2022
3155 Clouds 9 1027 81 10000 0.51 0 10:56 10.02.2022
3156 Clouds 8 1027 82 10000 0.89 266 10:18 10.02.2022
3157 Clouds 7 1027 84 10000 1.03 150 09:25 10.02.2022
3158 Clouds 6 1027 87 10000 0.51 0 07:36 10.02.2022
3159 Clouds 6 1027 89 10000 0.89 164 04:58 10.02.2022
3160 Clouds 7 1028 85 10000 2.06 350 01:51 10.02.2022
3161 Clouds 7 1029 85 10000 2.06 350 00:49 10.02.2022
3162 Clouds 7 1029 85 10000 2.06 350 00:28 10.02.2022
3163 Clear 7 1029 83 10000 1.79 36 23:23 09.02.2022
3164 Clear 8 1029 81 10000 1.54 270 22:35 09.02.2022
3165 Clear 8 1029 78 10000 2.06 260 21:51 09.02.2022
3166 Clear 8 1030 77 10000 2.68 256 21:29 09.02.2022
3167 Clear 9 1029 74 10000 2.57 250 20:47 09.02.2022
3168 Clear 9 1029 74 10000 2.68 229 20:27 09.02.2022
3169 Clear 10 1029 72 10000 3.13 235 19:46 09.02.2022
3170 Clear 10 1029 70 10000 4.02 233 19:27 09.02.2022
3171 Clear 13 1029 60 10000 2.57 270 17:37 09.02.2022
3172 Clear 14 1029 56 10000 4.47 227 16:34 09.02.2022
3173 Clear 15 1029 56 10000 4.12 260 15:40 09.02.2022
3174 Clear 14 1029 57 10000 7.15 240 14:28 09.02.2022
3175 Clear 12 1030 63 10000 2.24 252 12:28 09.02.2022
3176 Clear 10 1032 63 10000 1.54 190 10:51 09.02.2022
3177 Clear 9 1032 64 10000 1.03 0 10:26 09.02.2022
3178 Clear 6 1032 65 10000 0.51 0 09:35 09.02.2022
3179 Clear 5 1032 65 10000 0.51 0 08:59 09.02.2022
3180 Clear 3 1031 66 10000 0.51 0 07:47 09.02.2022
3181 Clear 4 1031 62 10000 1.03 0 05:30 09.02.2022
3182 Clear 5 1031 59 10000 1.54 360 03:50 09.02.2022
3183 Clear 5 1031 57 10000 0.51 360 00:38 09.02.2022
3184 Clear 6 1031 55 10000 1.79 282 23:31 08.02.2022
3185 Clear 6 1031 50 10000 1.79 310 22:46 08.02.2022
3186 Clear 7 1031 49 10000 1.54 30 22:21 08.02.2022
3187 Clear 6 1031 49 10000 1.54 30 22:21 08.02.2022
3188 Clear 7 1031 49 10000 1.54 30 22:21 08.02.2022
3189 Clear 7 1031 46 10000 0.51 0 21:38 08.02.2022
3190 Clear 7 1031 45 10000 1.79 294 21:20 08.02.2022
3191 Clear 8 1031 40 10000 1.34 229 20:42 08.02.2022
3192 Clear 8 1030 36 10000 1.03 0 19:45 08.02.2022
3193 Clear 10 1030 32 10000 0.89 317 18:35 08.02.2022
3194 Clear 12 1029 28 10000 0.51 0 17:38 08.02.2022
3195 Clear 13 1030 23 10000 1.54 250 16:22 08.02.2022
3196 Clear 13 1030 24 10000 1.03 0 15:29 08.02.2022
3197 Clear 13 1030 24 10000 1.03 0 15:29 08.02.2022
3198 Clear 13 1029 22 10000 1.54 0 14:26 08.02.2022
3199 Clear 12 1030 28 10000 1.54 0 12:41 08.02.2022
3200 Clear 9 1031 33 10000 1.34 173 11:28 08.02.2022
3201 Clear 7 1031 40 10000 2.24 160 10:18 08.02.2022
3202 Clear 5 1031 46 10000 1.34 139 09:41 08.02.2022
3203 Clear 2 1029 52 10000 0.51 0 07:37 08.02.2022
3204 Clear 3 1027 40 10000 2.24 153 04:40 08.02.2022
3205 Clear 4 1027 38 10000 1.79 154 04:22 08.02.2022
3206 Clear 5 1027 33 10000 1.79 277 03:37 08.02.2022
3207 Clear 5 1027 33 10000 3.13 291 03:18 08.02.2022
3208 Clear 5 1027 30 10000 5.36 300 02:59 08.02.2022
3209 Clear 5 1027 29 10000 3.58 308 02:37 08.02.2022
3210 Clear 5 1026 27 10000 1.54 200 02:19 08.02.2022
3211 Clear 5 1026 25 10000 1.79 318 01:55 08.02.2022
3212 Clear 5 1026 24 10000 2.24 340 01:37 08.02.2022
3213 Clear 6 1026 23 10000 4.02 309 01:19 08.02.2022
3214 Clear 6 1026 23 10000 1.79 332 00:44 08.02.2022
3215 Clear 7 1026 22 10000 0.89 329 23:45 07.02.2022
3216 Clear 7 1026 21 10000 2.24 329 23:18 07.02.2022
3217 Clear 7 1026 22 10000 1.34 331 22:59 07.02.2022
3218 Clear 8 1025 23 10000 7.72 10 22:19 07.02.2022
3219 Clear 8 1025 21 10000 2.68 284 21:51 07.02.2022
3220 Clear 9 1025 18 10000 9.26 20 21:28 07.02.2022
3221 Clear 9 1024 19 10000 8.23 30 20:52 07.02.2022
3222 Clear 9 1024 18 10000 8.23 20 20:34 07.02.2022
3223 Clear 10 1023 18 10000 7.2 360 19:47 07.02.2022
3224 Clear 10 1022 18 10000 7.15 34 18:58 07.02.2022
3225 Clear 12 1022 17 10000 5.36 43 17:38 07.02.2022
3226 Clear 13 1021 16 10000 4.63 350 16:52 07.02.2022
3227 Clear 13 1020 16 10000 4.63 350 15:48 07.02.2022
3228 Clear 13 1019 16 10000 3.58 312 14:30 07.02.2022
3229 Clear 13 1018 16 10000 9.77 360 13:27 07.02.2022
3230 Clear 12 1016 17 10000 5.81 341 12:36 07.02.2022
3231 Clear 12 1014 18 10000 6.71 336 11:50 07.02.2022
3232 Clear 12 1013 18 10000 5.36 24 11:24 07.02.2022
3233 Clear 12 1012 22 10000 4.92 337 10:42 07.02.2022
3234 Clear 12 1012 24 10000 1.34 346 10:24 07.02.2022
3235 Clouds 12 1011 33 10000 2.24 318 09:52 07.02.2022
3236 Rain 8 1011 89 10000 2.24 350 09:18 07.02.2022
3237 Mist 5 1007 92 3500 2.06 290 07:53 07.02.2022
3238 Clouds 4 1005 92 10000 2.85 267 06:34 07.02.2022
3239 Fog 4 1006 95 200 1.03 0 04:49 07.02.2022
3240 Mist 4 1010 93 1500 1.34 218 02:37 07.02.2022
3241 Mist 4 1013 94 2000 0.89 360 00:20 07.02.2022
3242 Mist 5 1014 91 2000 0.45 4 23:20 06.02.2022
3243 Mist 5 1014 91 2500 1.34 223 22:41 06.02.2022
3244 Mist 5 1015 90 2500 1.79 319 21:38 06.02.2022
3245 Mist 5 1016 89 2500 0.89 260 21:20 06.02.2022
3246 Mist 5 1016 89 2000 0.89 260 20:48 06.02.2022
3247 Mist 6 1016 88 2000 0.89 314 20:23 06.02.2022
3248 Mist 6 1017 86 2000 1.34 310 19:18 06.02.2022
3249 Mist 7 1016 87 2000 1.79 220 18:28 06.02.2022
3250 Mist 8 1017 80 2000 1.79 271 17:31 06.02.2022
3251 Mist 8 1018 80 3000 1.79 179 16:51 06.02.2022
3252 Mist 9 1019 77 3000 2.24 293 15:51 06.02.2022
3253 Clouds 9 1019 76 10000 0.45 222 15:28 06.02.2022
3254 Clouds 9 1019 75 10000 1.34 220 14:59 06.02.2022
3255 Clouds 9 1022 77 10000 1.34 199 13:59 06.02.2022
3256 Clouds 9 1021 80 10000 0.89 297 13:20 06.02.2022
3257 Fog 8 1022 100 700 2.06 280 12:19 06.02.2022
3258 Fog 5 1023 94 500 2.24 218 10:33 06.02.2022
3259 Fog 4 1023 93 600 2.24 234 09:36 06.02.2022
3260 Fog 4 1023 95 800 2.24 236 08:41 06.02.2022
3261 Fog 3 1023 93 100 0.89 313 06:31 06.02.2022
3262 Fog 3 1023 92 100 1.79 313 05:27 06.02.2022
3263 Clear 4 1024 90 10000 0.89 299 02:25 06.02.2022
3264 Fog 4 1024 92 300 0.51 0 00:30 06.02.2022
3265 Clear 5 1024 89 10000 0.89 344 23:27 05.02.2022
3266 Clear 6 1023 91 10000 0.89 68 21:43 05.02.2022
3267 Clear 6 1023 85 10000 0.89 60 20:26 05.02.2022
3268 Fog 6 1022 86 100 0.89 34 19:51 05.02.2022
3269 Fog 6 1022 86 100 2.24 47 19:33 05.02.2022
3270 Clear 8 1021 83 10000 2.24 116 18:26 05.02.2022
3271 Clear 9 1020 77 10000 0.89 128 17:33 05.02.2022
3272 Clear 10 1020 76 10000 1.34 129 15:43 05.02.2022
3273 Clear 10 1020 76 10000 0.89 136 15:25 05.02.2022
3274 Clouds 10 1019 82 10000 1.79 121 13:22 05.02.2022
3275 Clouds 9 1019 81 10000 1.34 140 12:42 05.02.2022
3276 Fog 7 1019 92 200 0.45 165 10:57 05.02.2022
3277 Fog 6 1020 91 200 1.34 226 10:38 05.02.2022
3278 Fog 5 1019 97 150 1.34 176 09:47 05.02.2022
3279 Fog 4 1018 95 200 1.03 200 08:21 05.02.2022
3280 Fog 4 1018 95 50 0.89 225 06:58 05.02.2022
3281 Fog 4 1017 93 50 1.03 160 05:38 05.02.2022
3282 Fog 5 1017 91 50 1.34 292 01:40 05.02.2022
3283 Fog 5 1017 91 50 0.51 0 01:18 05.02.2022
3284 Mist 6 1017 89 1700 0.45 225 23:59 04.02.2022
3285 Mist 6 1017 89 3000 0.89 236 23:33 04.02.2022
3286 Mist 7 1017 88 4000 1.34 245 22:18 04.02.2022
3287 Mist 7 1017 88 4000 1.34 307 21:36 04.02.2022
3288 Mist 7 1017 88 4000 0.51 10 21:18 04.02.2022
3289 Mist 7 1017 88 4000 0.45 302 20:20 04.02.2022
3290 Clouds 9 1016 81 7000 2.24 191 17:45 04.02.2022
3291 Clouds 11 1016 73 10000 1.79 186 15:55 04.02.2022
3292 Clouds 11 1016 73 10000 1.79 175 15:55 04.02.2022
3293 Clouds 11 1017 74 10000 0.89 203 14:55 04.02.2022
3294 Clouds 11 1017 76 10000 2.24 187 13:55 04.02.2022
3295 Clouds 10 1019 78 10000 1.79 182 12:43 04.02.2022
3296 Clouds 10 1019 79 10000 0.89 162 11:43 04.02.2022
3297 Clouds 9 1019 82 10000 0.89 290 10:37 04.02.2022
3298 Drizzle 7 1019 84 10000 0.45 141 08:43 04.02.2022
3299 Clouds 7 1019 84 10000 1.34 103 06:57 04.02.2022
3300 Clouds 7 1020 82 10000 0.89 92 02:48 04.02.2022
3301 Clouds 7 1020 80 10000 2.68 84 01:56 04.02.2022
3302 Clouds 8 1021 78 10000 2.24 79 23:29 03.02.2022
3303 Clouds 8 1021 76 10000 3.13 87 22:40 03.02.2022
3304 Clouds 8 1022 76 10000 3.13 90 21:49 03.02.2022
3305 Clear 8 1021 75 10000 1.34 71 20:39 03.02.2022
3306 Clear 8 1021 76 10000 1.79 67 20:19 03.02.2022
3307 Clear 9 1022 74 10000 2.68 77 19:32 03.02.2022
3308 Clear 10 1021 71 10000 0.89 69 18:38 03.02.2022
3309 Clear 11 1021 67 10000 1.79 91 17:33 03.02.2022
3310 Clear 12 1021 63 10000 1.34 93 16:26 03.02.2022
3311 Clouds 12 1022 58 10000 2.68 121 14:49 03.02.2022
3312 Clouds 12 1022 56 10000 0.45 107 12:58 03.02.2022
3313 Clear 10 1023 62 10000 0.45 107 11:22 03.02.2022
3314 Clear 6 1021 67 10000 0.45 158 08:37 03.02.2022
3315 Clear 6 1019 69 10000 2.68 68 05:26 03.02.2022
3316 Clear 9 1018 53 10000 2.06 250 00:32 03.02.2022
3317 Clear 10 1017 54 10000 0.45 357 23:43 02.02.2022
3318 Clear 10 1017 48 10000 0.55 110 22:19 02.02.2022
3319 Clear 11 1016 47 10000 1.54 250 21:34 02.02.2022
3320 Clear 12 1016 41 10000 0.89 173 20:49 02.02.2022
3321 Clear 12 1015 40 10000 3.6 290 19:58 02.02.2022
3322 Clear 14 1015 37 10000 4.63 360 19:27 02.02.2022
3323 Clear 14 1014 34 10000 4.12 30 18:45 02.02.2022
3324 Clear 16 1014 33 10000 5.14 30 17:56 02.02.2022
3325 Clear 17 1013 31 10000 5.14 30 17:19 02.02.2022
3326 Clear 17 1013 31 10000 3.6 350 16:41 02.02.2022
3327 Clear 17 1012 32 10000 7.2 360 12:57 02.02.2022
3328 Clear 17 1012 32 10000 5.66 350 12:20 02.02.2022
3329 Clear 13 1012 46 10000 1.54 210 11:33 02.02.2022
3330 Clear 8 1012 56 10000 2.68 198 09:47 02.02.2022
3331 Clear 5 1011 60 10000 2.57 260 07:33 02.02.2022
3332 Clear 8 1014 34 10000 1.79 294 22:51 01.02.2022
3333 Clear 9 1014 32 10000 1.79 280 21:40 01.02.2022
3334 Clear 9 1014 34 10000 3.13 300 19:58 01.02.2022
3335 Clear 12 1013 32 10000 1.34 352 17:43 01.02.2022
3336 Clear 14 1013 25 10000 1.34 338 16:39 01.02.2022
3337 Clear 15 1013 18 10000 1.34 358 13:56 01.02.2022
3338 Clear 14 1014 19 10000 2.68 320 12:42 01.02.2022
3339 Clear 12 1014 25 10000 3.58 338 11:19 01.02.2022
3340 Clear 8 1013 37 10000 0.89 229 02:32 01.02.2022
3341 Clear 8 1011 34 10000 0.89 358 23:41 31.01.2022
3342 Clear 8 1011 34 10000 2.68 345 22:48 31.01.2022
3343 Clear 8 1011 31 10000 4.02 300 21:38 31.01.2022
3344 Clear 9 1011 30 10000 2.24 18 20:45 31.01.2022
3345 Clear 9 1010 30 10000 2.68 13 20:26 31.01.2022
3346 Clear 10 1009 32 10000 2.24 331 18:55 31.01.2022
3347 Clear 11 1007 30 10000 2.24 331 18:20 31.01.2022
3348 Clear 12 1005 41 10000 5.14 350 17:25 31.01.2022
3349 Clear 12 1005 65 10000 2.24 32 16:25 31.01.2022
3350 Clear 11 1005 68 10000 0.45 305 14:54 31.01.2022
3351 Clear 11 1006 69 6000 1.79 261 13:43 31.01.2022
3352 Clouds 10 1008 69 6000 2.68 236 12:38 31.01.2022
3353 Mist 8 1010 74 5000 0.89 158 11:34 31.01.2022
3354 Mist 7 1011 77 5000 1.03 0 10:49 31.01.2022
3355 Mist 3 1011 85 3500 1.34 101 09:39 31.01.2022
3356 Mist 3 1012 84 3500 0.89 263 08:57 31.01.2022
3357 Mist 2 1013 86 5000 0.45 1 08:38 31.01.2022
3358 Mist 2 1013 85 5000 0.45 1 08:19 31.01.2022
3359 Clouds 3 1014 83 6000 1.79 45 06:18 31.01.2022
3360 Clear 4 1019 80 6000 1.79 77 00:44 31.01.2022
3361 Clear 6 1019 79 10000 2.24 67 22:34 30.01.2022
3362 Clear 7 1019 78 10000 1.79 87 21:47 30.01.2022
3363 Clear 7 1019 77 10000 2.24 72 21:26 30.01.2022
3364 Clear 8 1019 71 10000 0.89 73 20:55 30.01.2022
3365 Clear 9 1018 68 10000 2.06 170 20:31 30.01.2022
3366 Clear 9 1018 63 10000 2.57 0 19:58 30.01.2022
3367 Clear 10 1017 61 10000 3.09 300 18:52 30.01.2022
3368 Clear 11 1018 58 10000 2.68 305 18:26 30.01.2022
3369 Clear 13 1017 54 10000 1.79 296 17:33 30.01.2022
3370 Clear 14 1017 53 10000 4.12 280 16:44 30.01.2022
3371 Clear 15 1016 51 10000 3.13 279 16:23 30.01.2022
3372 Clear 15 1016 50 10000 3.13 252 15:56 30.01.2022
3373 Clear 15 1016 50 10000 2.68 245 15:37 30.01.2022
3374 Clear 15 1016 51 10000 6.71 251 15:19 30.01.2022
3375 Clear 15 1017 53 10000 1.79 116 14:44 30.01.2022
3376 Clear 14 1018 54 10000 3.13 245 12:46 30.01.2022
3377 Clear 12 1019 59 10000 3.58 267 11:49 30.01.2022
3378 Clear 8 1019 65 10000 0.45 298 10:26 30.01.2022
3379 Clear 6 1019 57 10000 2.57 300 09:26 30.01.2022
3380 Clear 5 1019 57 10000 3.58 305 08:32 30.01.2022
3381 Clouds 4 1022 61 10000 3.13 306 02:55 30.01.2022
3382 Clear 4 1023 59 10000 2.68 303 01:54 30.01.2022
3383 Clouds 4 1024 64 10000 1.79 285 23:49 29.01.2022
3384 Clouds 5 1026 69 8000 2.24 302 22:58 29.01.2022
3385 Clouds 5 1025 73 7000 3.13 247 21:35 29.01.2022
3386 Clear 5 1026 71 10000 2.68 270 21:00 29.01.2022
3387 Clear 6 1026 68 10000 0.89 196 20:20 29.01.2022
3388 Clear 6 1026 65 10000 0.89 196 19:33 29.01.2022
3389 Clear 7 1027 62 10000 0.89 243 18:44 29.01.2022
3390 Clear 8 1027 58 10000 0.45 221 17:55 29.01.2022
3391 Clear 10 1027 54 10000 0.51 0 16:59 29.01.2022
3392 Clear 10 1028 50 10000 0.45 117 15:27 29.01.2022
3393 Clear 10 1029 48 10000 1.34 117 13:48 29.01.2022
3394 Clouds 10 1029 49 10000 1.79 120 13:28 29.01.2022
3395 Clouds 10 1029 49 10000 0.89 48 12:59 29.01.2022
3396 Clouds 9 1030 52 10000 3.13 119 11:39 29.01.2022
3397 Clouds 6 1031 62 10000 1.79 33 10:33 29.01.2022
3398 Clouds 1 1031 75 6000 0.45 314 08:19 29.01.2022
3399 Clouds 3 1030 64 10000 1.34 135 02:26 29.01.2022
3400 Clear 4 1030 67 10000 0.89 105 00:32 29.01.2022
3401 Clear 5 1029 61 10000 1.79 109 23:29 28.01.2022
3402 Clear 5 1029 59 10000 2.68 56 22:46 28.01.2022
3403 Clear 6 1029 54 10000 3.09 110 22:19 28.01.2022
3404 Clear 7 1028 61 10000 1.79 256 20:41 28.01.2022
3405 Clear 7 1028 62 10000 0.89 5 19:56 28.01.2022
3406 Clear 8 1027 67 10000 1.79 319 18:52 28.01.2022
3407 Clear 8 1027 69 10000 3.58 270 17:52 28.01.2022
3408 Clear 10 1026 66 10000 1.79 68 15:50 28.01.2022
3409 Clear 11 1026 61 10000 0.45 57 14:46 28.01.2022
3410 Clear 14 1027 39 10000 8.75 360 12:40 28.01.2022
3411 Clear 15 1026 21 10000 7.72 360 11:43 28.01.2022
3412 Clear 6 1026 78 10000 4.63 280 10:26 28.01.2022
3413 Clear 6 1025 76 10000 2.24 307 09:45 28.01.2022
3414 Clear 3 1023 94 6000 3.09 270 07:40 28.01.2022
3415 Mist 2 1023 100 3400 2.06 250 05:30 28.01.2022
3416 Mist 1 1024 100 1600 2.57 260 03:48 28.01.2022
3417 Mist 1 1024 100 1100 3.6 260 02:23 28.01.2022
3418 Fog 1 1025 100 200 2.06 250 01:35 28.01.2022
3419 Fog 3 1025 100 200 1.54 240 00:33 28.01.2022
3420 Fog 3 1025 100 350 1.54 250 21:58 27.01.2022
3421 Fog 3 1025 100 350 1.54 250 21:34 27.01.2022
3422 Fog 3 1025 100 300 1.03 0 20:55 27.01.2022
3423 Fog 3 1025 100 300 0.51 0 19:35 27.01.2022
3424 Fog 4 1025 95 800 2.06 190 17:56 27.01.2022
3425 Clouds 8 1025 80 10000 1.85 272 15:31 27.01.2022
3426 Fog 3 1026 100 900 1.03 0 13:39 27.01.2022
3427 Fog 1 1027 100 700 0.51 0 12:46 27.01.2022
3428 Fog 0 1028 100 300 0.51 0 10:57 27.01.2022
3429 Drizzle 1 1027 100 300 1.54 190 09:20 27.01.2022
3430 Fog 1 1027 100 300 1.54 180 08:38 27.01.2022
3431 Fog 0 1026 97 800 1.54 220 07:22 27.01.2022
3432 Fog 1 1027 96 600 1.54 240 02:57 27.01.2022
3433 Fog 1 1027 96 700 1.03 0 23:45 26.01.2022
3434 Mist 2 1027 95 2500 1.03 0 22:26 26.01.2022
3435 Mist 2 1027 95 2500 1.03 0 21:37 26.01.2022
3436 Mist 2 1026 95 3000 1.54 0 20:41 26.01.2022
3437 Mist 2 1027 97 3000 0.51 0 20:23 26.01.2022
3438 Mist 2 1027 97 2500 1.54 190 19:23 26.01.2022
3439 Mist 2 1027 97 1600 2.57 220 18:45 26.01.2022
3440 Mist 3 1027 93 1800 1.54 180 17:51 26.01.2022
3441 Mist 3 1027 93 1800 0.51 0 17:23 26.01.2022
3442 Mist 3 1027 100 1800 1.54 230 16:33 26.01.2022
3443 Mist 5 1026 93 1800 1.54 250 15:49 26.01.2022
3444 Mist 4 1027 93 3000 2.06 220 13:58 26.01.2022
3445 Mist 2 1029 93 2000 0.51 0 11:52 26.01.2022
3446 Fog 1 1029 96 500 1.34 292 10:28 26.01.2022
3447 Fog 1 1029 96 500 0.89 285 09:46 26.01.2022
3448 Mist 1 1029 93 1500 0.89 187 07:44 26.01.2022
3449 Mist 1 1029 92 5000 1.79 245 03:31 26.01.2022
3450 Clouds 1 1031 92 6000 1.34 296 23:57 25.01.2022
3451 Clear 1 1030 92 6000 1.79 233 22:57 25.01.2022
3452 Clear 1 1031 92 6000 1.54 260 22:21 25.01.2022
3453 Clear 1 1031 91 7000 1.79 238 21:58 25.01.2022
3454 Clear 2 1031 90 10000 2.24 243 20:46 25.01.2022
3455 Clear 2 1031 90 10000 2.24 243 20:46 25.01.2022
3456 Clear 2 1031 90 10000 2.68 245 20:23 25.01.2022
3457 Clear 2 1031 89 10000 2.68 242 19:50 25.01.2022
3458 Mist 3 1031 87 3000 3.13 243 18:32 25.01.2022
3459 Mist 4 1031 86 3000 4.02 237 17:43 25.01.2022
3460 Mist 5 1030 82 3500 4.47 240 16:35 25.01.2022
3461 Mist 6 1031 83 3500 3.6 250 15:49 25.01.2022
3462 Mist 6 1031 80 4000 3.09 240 15:31 25.01.2022
3463 Mist 6 1031 78 4000 3.58 220 14:57 25.01.2022
3464 Clear 7 1033 78 10000 0.89 248 13:40 25.01.2022
3465 Mist 3 1034 92 1000 2.24 236 10:39 25.01.2022
3466 Mist 2 1035 94 1000 3.13 224 08:34 25.01.2022
3467 Mist 2 1035 94 2000 1.79 243 07:28 25.01.2022
3468 Mist 2 1035 94 2000 2.68 244 06:29 25.01.2022
3469 Mist 2 1035 93 2000 1.34 259 04:22 25.01.2022
3470 Fog 2 1035 93 900 1.79 295 23:37 24.01.2022
3471 Fog 2 1035 94 900 1.34 313 23:18 24.01.2022
3472 Fog 2 1035 87 900 0.89 224 22:59 24.01.2022
3473 Fog 2 1035 94 900 0.89 271 22:41 24.01.2022
3474 Fog 2 1035 95 800 1.34 19 21:49 24.01.2022
3475 Fog 2 1035 94 800 0.45 339 21:27 24.01.2022
3476 Fog 2 1034 94 200 1.79 23 20:29 24.01.2022
3477 Fog 2 1034 95 100 2.68 52 19:39 24.01.2022
3478 Fog 2 1033 97 100 2.06 40 19:19 24.01.2022
3479 Fog 4 1032 89 100 2.57 80 17:44 24.01.2022
3480 Clear 6 1032 70 10000 2.44 86 17:23 24.01.2022
3481 Clear 7 1032 72 10000 2.44 86 16:33 24.01.2022
3482 Clear 8 1032 71 10000 2.93 94 15:52 24.01.2022
3483 Clear 8 1029 71 10000 2.77 97 14:27 24.01.2022
3484 Clear 6 1030 80 10000 1.34 133 12:36 24.01.2022
3485 Clear 6 1030 82 10000 1.88 100 11:53 24.01.2022
3486 Fog 2 1030 92 200 2.06 250 10:24 24.01.2022
3487 Fog 1 1030 94 200 2.06 250 09:46 24.01.2022
3488 Mist 0 1029 95 1500 1.54 250 08:19 24.01.2022
3489 Fog 0 1031 91 50 0 0 02:33 24.01.2022
3490 Fog 1 1031 91 50 1.03 60 01:28 24.01.2022
3491 Clear 2 1031 87 10000 1.05 96 00:34 24.01.2022
3492 Fog 2 1030 90 150 0.89 23 23:47 23.01.2022
3493 Fog 2 1030 89 2000 1.03 50 22:21 23.01.2022
3494 Fog 2 1030 87 2500 0.89 45 21:42 23.01.2022
3495 Fog 2 1029 86 2500 0.45 165 21:23 23.01.2022
3496 Fog 2 1029 86 2500 0.89 153 20:28 23.01.2022
3497 Mist 3 1029 87 3500 0.89 145 19:19 23.01.2022
3498 Mist 3 1029 86 3500 1.34 240 18:41 23.01.2022
3499 Mist 5 1029 80 3500 0.89 213 17:25 23.01.2022
3500 Mist 7 1029 73 4000 0.89 186 16:18 23.01.2022
3501 Mist 7 1030 74 3500 0.45 98 14:52 23.01.2022
3502 Mist 7 1030 74 3500 0.89 215 14:19 23.01.2022
3503 Mist 6 1031 78 3500 0.89 127 12:46 23.01.2022
3504 Mist 5 1031 79 3500 0.89 136 12:21 23.01.2022
3505 Mist 4 1032 79 5000 4.47 63 11:27 23.01.2022
3506 Mist 4 1031 78 5000 2.24 108 10:58 23.01.2022
3507 Clouds 4 1031 76 8000 1.34 115 10:25 23.01.2022
3508 Clouds 2 1031 78 8000 1.34 74 09:32 23.01.2022
3509 Clouds 2 1030 80 8000 2.68 81 08:50 23.01.2022
3510 Clear 1 1028 83 6000 2.68 51 03:59 23.01.2022
3511 Clear 2 1028 84 6000 2.24 61 01:40 23.01.2022
3512 Clear 2 1028 85 6000 1.79 73 00:47 23.01.2022
3513 Clear 2 1028 84 7000 0.89 90 00:18 23.01.2022
3514 Mist 3 1027 81 4900 1.34 105 23:18 22.01.2022
3515 Clear 3 1026 81 6000 0.51 0 22:33 22.01.2022
3516 Clear 4 1026 76 7000 1.79 243 20:47 22.01.2022
3517 Clear 5 1025 75 10000 1.79 245 19:46 22.01.2022
3518 Clear 5 1025 76 10000 2.68 238 18:41 22.01.2022
3519 Clear 6 1025 75 10000 1.79 246 17:49 22.01.2022
3520 Clear 6 1025 75 10000 1.79 217 17:31 22.01.2022
3521 Clear 7 1024 72 10000 1.34 217 16:54 22.01.2022
3522 Clear 7 1024 71 10000 3.13 278 15:45 22.01.2022
3523 Clear 6 1025 73 8000 4.47 271 14:56 22.01.2022
3524 Mist 5 1026 79 4000 3.09 240 13:31 22.01.2022
3525 Mist 4 1027 87 2000 2.57 300 12:40 22.01.2022
3526 Fog 2 1027 100 700 3.09 270 12:20 22.01.2022
3527 Fog 1 1027 100 300 2.57 270 10:55 22.01.2022
3528 Fog 1 1026 97 400 3.09 260 10:26 22.01.2022
3529 Fog 0 1027 96 350 0.45 346 09:25 22.01.2022
3530 Fog 0 1027 95 500 3.13 238 08:50 22.01.2022
3531 Mist 0 1027 95 1800 2.24 270 07:27 22.01.2022
3532 Mist 1 1028 92 2500 2.24 298 03:26 22.01.2022
3533 Fog 1 1028 92 800 1.34 317 00:31 22.01.2022
3534 Fog 1 1027 92 1500 2.24 231 23:21 21.01.2022
3535 Fog 1 1027 90 1500 0.51 0 22:19 21.01.2022
3536 Mist 2 1026 88 3500 2.24 70 19:52 21.01.2022
3537 Mist 3 1025 86 3500 2.24 70 18:21 21.01.2022
3538 Mist 4 1024 85 4000 2.57 40 16:54 21.01.2022
3539 Mist 6 1024 79 2500 2.06 0 15:26 21.01.2022
3540 Fog 5 1025 97 800 3.09 140 12:53 21.01.2022
3541 Fog 5 1025 100 900 2.06 150 11:42 21.01.2022
3542 Fog 4 1025 93 600 2.24 162 11:23 21.01.2022
3543 Fog 1 1023 95 500 1.34 61 09:26 21.01.2022
3544 Fog 1 1022 95 200 1.34 95 08:20 21.01.2022
3545 Fog 2 1020 92 50 1.79 37 04:37 21.01.2022
3546 Mist 3 1018 81 4000 1.79 313 22:53 20.01.2022
3547 Mist 4 1018 78 4000 1.34 226 21:49 20.01.2022
3548 Mist 4 1018 78 4000 1.79 212 21:28 20.01.2022
3549 Mist 4 1018 84 4000 0.45 4 19:56 20.01.2022
3550 Mist 5 1018 86 4000 1.79 225 19:19 20.01.2022
3551 Mist 6 1017 82 3000 1.79 225 17:38 20.01.2022
3552 Mist 7 1017 78 5000 1.79 225 16:35 20.01.2022
3553 Mist 7 1017 78 5000 1.79 225 16:35 20.01.2022
3554 Mist 8 1018 78 4000 1.79 225 15:40 20.01.2022
3555 Mist 7 1018 80 3500 0.89 19 14:39 20.01.2022
3556 Mist 7 1020 85 3500 1.79 225 13:18 20.01.2022
3557 Mist 6 1020 87 1600 1.79 226 12:30 20.01.2022
3558 Fog 5 1021 89 600 1.79 236 11:20 20.01.2022
3559 Fog 4 1021 91 600 0.89 181 10:19 20.01.2022
3560 Fog 4 1021 92 600 1.54 70 09:18 20.01.2022
3561 Mist 3 1020 93 2000 1.54 220 07:23 20.01.2022
3562 Mist 4 1022 89 3000 1.34 225 00:40 20.01.2022
3563 Drizzle 4 1023 84 6000 0.51 0 22:39 19.01.2022
3564 Clouds 4 1024 83 7000 0.45 2 21:36 19.01.2022
3565 Clear 4 1024 83 10000 1.03 0 20:59 19.01.2022
3566 Clear 4 1024 82 10000 1.03 0 20:40 19.01.2022
3567 Clear 5 1025 79 10000 1.54 240 19:18 19.01.2022
3568 Mist 6 1025 75 5000 1.34 248 17:51 19.01.2022
3569 Clear 7 1025 73 6000 1.79 225 17:18 19.01.2022
3570 Clear 8 1026 68 6000 2.68 231 15:35 19.01.2022
3571 Mist 8 1029 70 5000 3.13 264 13:26 19.01.2022
3572 Mist 6 1031 72 4000 1.79 248 11:59 19.01.2022
3573 Mist 6 1031 73 4000 0.45 236 11:38 19.01.2022
3574 Mist 3 1031 81 4000 1.03 0 09:35 19.01.2022
3575 Mist 2 1032 81 4000 0.51 0 08:38 19.01.2022
3576 Fog 2 1032 82 100 0.51 270 05:20 19.01.2022
3577 Fog 4 1034 83 50 0.51 0 00:21 19.01.2022
3578 Fog 4 1033 83 2000 1.03 30 23:18 18.01.2022
3579 Mist 5 1034 83 4000 1.79 307 21:45 18.01.2022
3580 Mist 5 1033 82 4000 0.51 0 20:34 18.01.2022
3581 Clear 6 1033 79 6000 0.51 0 19:49 18.01.2022
3582 Clear 6 1033 78 6000 0.51 0 19:31 18.01.2022
3583 Clear 7 1033 76 6000 0 0 18:23 18.01.2022
3584 Clear 9 1032 68 10000 2.06 150 17:32 18.01.2022
3585 Clear 11 1032 61 10000 0.45 112 16:22 18.01.2022
3586 Clear 11 1032 57 10000 2.06 70 15:25 18.01.2022
3587 Clear 11 1032 61 8000 1.54 30 14:22 18.01.2022
3588 Clear 9 1032 70 6000 0.89 150 11:37 18.01.2022
3589 Clear 7 1032 74 6000 0.89 70 10:25 18.01.2022
3590 Mist 3 1030 80 4400 1.79 23 08:29 18.01.2022
3591 Mist 3 1029 79 4800 1.34 57 07:44 18.01.2022
3592 Clear 5 1024 52 10000 1.79 337 00:39 18.01.2022
3593 Clear 6 1025 60 10000 2.06 240 22:46 17.01.2022
3594 Clear 6 1025 58 10000 2.57 190 21:44 17.01.2022
3595 Clear 7 1024 52 10000 2.06 190 21:24 17.01.2022
3596 Clear 9 1024 54 10000 5.66 280 18:51 17.01.2022
3597 Clear 9 1024 53 10000 5.66 270 18:25 17.01.2022
3598 Clear 10 1024 57 10000 2.57 260 17:22 17.01.2022
3599 Clear 12 1025 51 10000 3.09 210 15:54 17.01.2022
3600 Clear 12 1026 54 10000 3.09 230 14:58 17.01.2022
3601 Clear 11 1025 55 10000 3.09 230 14:31 17.01.2022
3602 Clear 9 1026 57 10000 1.79 225 13:18 17.01.2022
3603 Clear 8 1025 56 10000 4.02 158 11:53 17.01.2022
3604 Clear 6 1027 66 10000 3.6 250 10:52 17.01.2022
3605 Clear 4 1026 75 10000 1.54 0 09:46 17.01.2022
3606 Clear 3 1026 73 10000 0.89 179 08:43 17.01.2022
3607 Clear 2 1025 71 10000 1.34 203 07:20 17.01.2022
3608 Clear 5 1025 70 10000 2.24 237 00:59 17.01.2022
3609 Clear 5 1024 67 10000 0.45 83 23:27 16.01.2022
3610 Clear 5 1024 72 10000 1.54 290 20:50 16.01.2022
3611 Clear 6 1024 71 10000 1.54 290 19:55 16.01.2022
3612 Clear 7 1022 66 8000 1.79 311 18:45 16.01.2022
3613 Clear 8 1022 64 8000 1.79 310 17:47 16.01.2022
3614 Clear 9 1021 59 10000 1.79 269 16:52 16.01.2022
3615 Clear 11 1021 55 10000 2.68 240 15:39 16.01.2022
3616 Clear 11 1021 55 8000 2.24 240 14:29 16.01.2022
3617 Clear 10 1022 60 7000 2.68 283 12:57 16.01.2022
3618 Clear 8 1023 63 7000 1.03 0 11:49 16.01.2022
3619 Clear 7 1023 70 7000 1.03 0 10:58 16.01.2022
3620 Clear 5 1024 75 7000 1.03 0 10:26 16.01.2022
3621 Clear 4 1023 75 7000 0.51 0 09:56 16.01.2022
3622 Clear 2 1024 79 6000 1.03 340 09:23 16.01.2022
3623 Fog 1 1024 79 7000 0.51 0 08:47 16.01.2022
3624 Clear 2 1023 75 10000 0.51 0 05:35 16.01.2022
3625 Clear 4 1024 72 10000 1.03 340 23:51 15.01.2022
3626 Clear 4 1025 73 10000 0.51 0 22:35 15.01.2022
3627 Clear 5 1025 68 10000 0.51 0 21:20 15.01.2022
3628 Clear 5 1025 69 10000 1.03 10 20:40 15.01.2022
3629 Clear 6 1024 64 10000 1.03 360 19:30 15.01.2022
3630 Clear 7 1025 62 10000 0.51 0 18:47 15.01.2022
3631 Clear 9 1024 52 10000 1.03 60 17:30 15.01.2022
3632 Clear 10 1024 50 10000 1.03 80 16:37 15.01.2022
3633 Clear 11 1023 45 10000 1.03 0 13:57 15.01.2022
3634 Clear 9 1024 53 10000 1.03 0 12:20 15.01.2022
3635 Clear 7 1024 61 10000 0.51 0 10:38 15.01.2022
3636 Clear 2 1021 70 10000 0.51 0 08:31 15.01.2022
3637 Clear 3 1025 73 10000 0.51 0 00:35 15.01.2022
3638 Clear 4 1026 67 10000 0.51 0 21:52 14.01.2022
3639 Clear 4 1026 67 10000 0.51 0 21:52 14.01.2022
3640 Clear 5 1026 67 10000 0.51 0 20:41 14.01.2022
3641 Clear 5 1026 66 10000 1.03 300 20:21 14.01.2022
3642 Clear 6 1026 61 10000 1.03 280 18:49 14.01.2022
3643 Clear 7 1026 59 10000 2.68 286 18:20 14.01.2022
3644 Clear 10 1027 51 10000 1.54 240 16:48 14.01.2022
3645 Clear 10 1027 49 10000 1.79 236 15:39 14.01.2022
3646 Clear 10 1027 47 10000 1.79 245 14:42 14.01.2022
3647 Clear 9 1029 48 10000 2.24 238 13:35 14.01.2022
3648 Clear 8 1030 53 10000 3.58 247 12:28 14.01.2022
3649 Clear 5 1031 65 10000 2.68 248 10:53 14.01.2022
3650 Clear 1 1031 75 8000 1.79 239 08:54 14.01.2022
3651 Clear 0 1032 79 8000 1.79 234 08:34 14.01.2022
3652 Clear 0 1034 80 10000 1.54 260 05:29 14.01.2022
3653 Clear 1 1036 79 10000 1.03 0 00:59 14.01.2022
3654 Clear 1 1036 78 10000 1.79 244 22:46 13.01.2022
3655 Clear 2 1036 77 10000 1.54 200 21:31 13.01.2022
3656 Clear 2 1036 75 10000 1.34 196 20:56 13.01.2022
3657 Clear 3 1036 71 10000 0 0 19:40 13.01.2022
3658 Clear 3 1036 70 10000 0.51 0 19:21 13.01.2022
3659 Clear 5 1036 61 10000 1.03 190 17:48 13.01.2022
3660 Clear 8 1037 52 10000 2.06 200 16:19 13.01.2022
3661 Clear 8 1037 52 10000 1.54 280 15:35 13.01.2022
3662 Clear 7 1037 59 10000 1.03 0 13:48 13.01.2022
3663 Clear 6 1036 63 10000 0.51 0 12:25 13.01.2022
3664 Clear 1 1036 80 10000 0.51 0 09:38 13.01.2022
3665 Fog 0 1036 79 6000 0.51 0 08:54 13.01.2022
3666 Fog 0 1035 79 7000 0.51 210 08:24 13.01.2022
3667 Clear 0 1035 76 10000 0.23 54 07:21 13.01.2022
3668 Clear 0 1034 81 10000 0.51 0 05:57 13.01.2022
3669 Clear -1 1034 82 10000 0.51 0 05:18 13.01.2022
3670 Clear 0 1033 80 10000 1.03 320 01:49 13.01.2022
3671 Clear 1 1033 79 10000 0.45 0 23:54 12.01.2022
3672 Clear 1 1033 81 10000 1.79 29 23:35 12.01.2022
3673 Clear 1 1033 80 10000 1.54 360 22:56 12.01.2022
3674 Clear 1 1033 79 10000 0.89 31 21:56 12.01.2022
3675 Clear 1 1032 79 10000 0.51 0 21:21 12.01.2022
3676 Clear 2 1032 78 10000 0.51 0 20:56 12.01.2022
3677 Clear 3 1032 73 10000 0.51 0 19:28 12.01.2022
3678 Clear 4 1031 72 10000 0.51 0 18:29 12.01.2022
3679 Clear 6 1032 63 10000 0.51 0 16:59 12.01.2022
3680 Clear 7 1032 58 10000 2.06 180 15:58 12.01.2022
3681 Clear 8 1031 58 10000 2.57 190 14:47 12.01.2022
3682 Clear 7 1032 58 10000 1.03 0 12:58 12.01.2022
3683 Clear 2 1031 73 10000 1.03 0 09:59 12.01.2022
3684 Clear 0 1030 78 10000 1.03 200 08:36 12.01.2022
3685 Clear 0 1029 78 10000 1.54 350 07:34 12.01.2022
3686 Clear 0 1029 76 10000 1.54 20 06:21 12.01.2022
3687 Clear 1 1026 73 10000 2.24 55 23:30 11.01.2022
3688 Clear 2 1026 75 10000 2.68 70 22:41 11.01.2022
3689 Clear 2 1026 73 10000 2.24 62 22:21 11.01.2022
3690 Clear 2 1024 70 10000 0.45 5 20:49 11.01.2022
3691 Clear 3 1024 71 10000 0.51 0 19:42 11.01.2022
3692 Clear 4 1023 65 10000 0.51 0 18:25 11.01.2022
3693 Clear 7 1024 56 10000 0 0 17:19 11.01.2022
3694 Clear 7 1024 51 10000 0.51 0 16:37 11.01.2022
3695 Clear 8 1023 55 10000 1.54 140 14:59 11.01.2022
3696 Clear 8 1023 51 10000 1.54 140 14:40 11.01.2022
3697 Clear 8 1023 59 10000 1.54 140 13:54 11.01.2022
3698 Clear 7 1024 62 10000 1.54 190 13:31 11.01.2022
3699 Clear 7 1024 65 10000 2.06 180 12:37 11.01.2022
3700 Clear 5 1021 66 10000 1.34 175 10:59 11.01.2022
3701 Clear 1 1020 73 10000 1.79 337 08:58 11.01.2022
3702 Clear 0 1018 74 10000 1.03 0 06:28 11.01.2022
3703 Clear 3 1014 63 10000 0.98 335 00:30 11.01.2022
3704 Clear 2 1014 66 10000 0.98 335 23:41 10.01.2022
3705 Clear 3 1014 66 10000 1.43 337 22:43 10.01.2022
3706 Clear 3 1014 66 10000 1.77 330 22:18 10.01.2022
3707 Clear 3 1014 67 10000 1.77 330 21:48 10.01.2022
3708 Clear 3 1013 71 10000 2.01 320 21:19 10.01.2022
3709 Fog 2 1014 79 150 0.51 0 20:56 10.01.2022
3710 Clear 4 1012 75 10000 1.96 308 20:26 10.01.2022
3711 Fog 2 1013 83 300 0.51 0 19:41 10.01.2022
3712 Clouds 4 1012 77 10000 1.32 295 19:19 10.01.2022
3713 Fog 3 1013 83 300 2.06 250 18:48 10.01.2022
3714 Clouds 5 1011 72 6000 1.34 238 16:59 10.01.2022
3715 Clouds 5 1011 71 6000 0.45 233 16:41 10.01.2022
3716 Clouds 8 1012 61 10000 0.45 287 14:58 10.01.2022
3717 Clouds 7 1012 64 10000 0.45 293 13:35 10.01.2022
3718 Clear 6 1012 66 10000 2.54 272 11:57 10.01.2022
3719 Clear 4 1010 71 10000 1.79 211 11:24 10.01.2022
3720 Mist 2 1009 77 3000 1.79 199 09:40 10.01.2022
3721 Clear -1 1007 87 6000 1.03 0 05:52 10.01.2022
3722 Fog -1 1007 88 1500 1.34 311 04:48 10.01.2022
3723 Mist 0 1006 89 2500 1.34 70 01:22 10.01.2022
3724 Mist 0 1005 88 3500 2.06 40 00:22 10.01.2022
3725 Mist 0 1005 88 5000 2.24 65 22:48 09.01.2022
3726 Mist 1 1005 87 5000 0.45 55 22:21 09.01.2022
3727 Clear 1 1005 84 7000 0.45 121 21:42 09.01.2022
3728 Clear 1 1005 84 7000 0.45 121 21:22 09.01.2022
3729 Clear 1 1005 85 7000 0.45 126 20:47 09.01.2022
3730 Clear 1 1005 84 7000 0.45 100 20:29 09.01.2022
3731 Clear 2 1004 85 7000 0.89 102 19:42 09.01.2022
3732 Clouds 2 1004 85 7000 0.45 143 19:21 09.01.2022
3733 Clouds 2 1003 84 7000 0.45 167 18:47 09.01.2022
3734 Mist 3 1003 83 5000 0.89 221 18:28 09.01.2022
3735 Mist 4 1003 80 5000 2.68 253 17:30 09.01.2022
3736 Clouds 5 1003 76 6000 1.34 231 16:50 09.01.2022
3737 Clouds 6 1003 73 7000 1.34 232 15:52 09.01.2022
3738 Clouds 6 1003 71 7000 0.89 202 15:33 09.01.2022
3739 Clouds 6 1004 73 6000 2.06 190 14:39 09.01.2022
3740 Mist 5 1004 74 5000 1.79 177 13:49 09.01.2022
3741 Clouds 3 1004 82 6000 2.24 238 12:26 09.01.2022
3742 Mist 3 1004 84 5000 3.58 240 11:46 09.01.2022
3743 Mist 1 1005 91 1800 3.13 247 09:55 09.01.2022
3744 Clouds 0 1004 92 2500 2.68 230 09:29 09.01.2022
3745 Mist 1 1004 90 5000 1.54 220 08:18 09.01.2022
3746 Fog -1 1008 93 200 2.06 60 01:31 09.01.2022
3747 Fog -1 1008 94 400 0.51 0 00:53 09.01.2022
3748 Fog 0 1009 93 1100 1.03 200 23:37 08.01.2022
3749 Fog 0 1010 94 200 2.06 80 22:58 08.01.2022
3750 Fog 0 1012 89 200 1.34 75 21:32 08.01.2022
3751 Fog 0 1010 89 200 1.79 46 20:44 08.01.2022
3752 Fog 0 1011 89 200 2.24 58 20:23 08.01.2022
3753 Fog 0 1011 91 500 1.34 162 19:46 08.01.2022
3754 Clear 2 1006 84 10000 2.24 207 17:49 08.01.2022
3755 Clear 4 1011 76 10000 1.34 179 16:57 08.01.2022
3756 Clear 6 1012 68 10000 0.45 201 15:35 08.01.2022
3757 Clear 6 1012 64 8000 2.24 228 14:33 08.01.2022
3758 Clouds 5 1014 66 10000 0.89 245 12:35 08.01.2022
3759 Clouds 2 1015 79 7000 0.89 231 10:46 08.01.2022
3760 Clear 2 1015 80 7000 2.24 240 10:23 08.01.2022
3761 Clear 1 1016 84 8000 1.54 270 09:34 08.01.2022
3762 Clear 1 1016 84 8000 1.54 270 09:34 08.01.2022
3763 Clear -1 1015 89 10000 1.03 270 07:18 08.01.2022
3764 Clear 0 1016 79 10000 0.45 39 01:49 08.01.2022
3765 Clear 1 1016 78 10000 0.51 0 00:23 08.01.2022
3766 Clear 2 1017 74 10000 0.45 24 22:21 07.01.2022
3767 Clear 2 1017 73 10000 0.45 105 20:35 07.01.2022
3768 Clear 2 1017 70 10000 0.45 172 19:34 07.01.2022
3769 Clear 3 1017 69 10000 0.89 173 18:49 07.01.2022
3770 Clouds 3 1017 67 10000 0.89 183 18:26 07.01.2022
3771 Clouds 4 1017 64 10000 0.45 197 17:24 07.01.2022
3772 Clear 5 1018 63 10000 0.89 171 15:55 07.01.2022
3773 Clouds 6 1019 57 10000 1.79 189 13:52 07.01.2022
3774 Clouds 6 1019 55 10000 0.45 149 12:57 07.01.2022
3775 Clouds 6 1020 61 10000 2.57 120 11:58 07.01.2022
3776 Clear 1 1021 86 10000 0.51 340 04:56 07.01.2022
3777 Clear 1 1022 88 10000 1.54 360 02:53 07.01.2022
3778 Fog 1 1021 89 10000 1.03 360 01:50 07.01.2022
3779 Clear 2 1021 89 10000 1.03 30 01:26 07.01.2022
3780 Fog 2 1020 89 8000 1.54 360 00:34 07.01.2022
3781 Clear 2 1020 89 10000 2.06 350 22:42 06.01.2022
3782 Clear 3 1019 84 10000 1.03 340 20:54 06.01.2022
3783 Clear 3 1019 87 10000 1.03 0 20:18 06.01.2022
3784 Clear 3 1018 87 10000 1.03 30 19:39 06.01.2022
3785 Clear 5 1017 79 10000 1.54 70 17:52 06.01.2022
3786 Clear 6 1016 76 10000 0.45 146 17:28 06.01.2022
3787 Clear 7 1016 73 10000 0.51 0 16:38 06.01.2022
3788 Clear 8 1015 74 10000 1.54 350 15:44 06.01.2022
3789 Clear 8 1015 74 10000 1.54 120 15:23 06.01.2022
3790 Clouds 8 1015 74 10000 1.54 90 14:20 06.01.2022
3791 Clouds 8 1015 74 10000 0.51 0 13:41 06.01.2022
3792 Clear 7 1015 78 10000 1.54 110 12:28 06.01.2022
3793 Clear 6 1015 82 10000 2.06 90 11:31 06.01.2022
3794 Clear 5 1015 84 10000 2.57 80 10:59 06.01.2022
3795 Clouds 4 1012 89 10000 2.57 70 06:54 06.01.2022
3796 Clouds 7 1005 44 10000 2.06 330 00:34 06.01.2022
3797 Clouds 6 1004 49 10000 2.57 310 23:33 05.01.2022
3798 Clouds 7 1003 48 10000 0.45 331 22:48 05.01.2022
3799 Clouds 7 1003 50 10000 0.45 331 22:28 05.01.2022
3800 Clouds 7 1002 56 8000 0.45 360 21:43 05.01.2022
3801 Clouds 7 1002 64 6000 2.06 270 20:44 05.01.2022
3802 Mist 7 1002 87 5000 1.03 260 19:42 05.01.2022
3803 Mist 8 1000 94 5000 1.03 190 18:22 05.01.2022
3804 Clouds 8 1000 93 6000 1.79 172 16:57 05.01.2022
3805 Clouds 8 999 93 8000 1.79 232 16:19 05.01.2022
3806 Clouds 8 999 93 9000 0.89 264 15:20 05.01.2022
3807 Mist 8 1000 94 5000 1.34 233 13:35 05.01.2022
3808 Mist 7 1000 95 5000 1.79 266 12:30 05.01.2022
3809 Rain 6 1002 97 2000 1.54 80 08:46 05.01.2022
3810 Mist 6 1003 98 2000 1.03 0 06:46 05.01.2022
3811 Drizzle 6 1006 97 1500 2.06 90 01:49 05.01.2022
3812 Drizzle 7 1008 97 2000 1.54 110 23:44 04.01.2022
3813 Drizzle 7 1008 96 2000 1.54 120 23:25 04.01.2022
3814 Drizzle 7 1009 97 2500 0.51 0 21:50 04.01.2022
3815 Drizzle 7 1009 96 2000 0.89 205 20:45 04.01.2022
3816 Drizzle 7 1008 96 2000 0.89 193 18:41 04.01.2022
3817 Drizzle 7 1009 95 1500 0.45 216 17:33 04.01.2022
3818 Drizzle 7 1009 95 1200 0.89 210 16:38 04.01.2022
3819 Drizzle 7 1009 96 1000 0.51 0 15:25 04.01.2022
3820 Drizzle 7 1009 96 1000 0.51 0 14:38 04.01.2022
3821 Drizzle 7 1010 96 1000 0.51 0 13:56 04.01.2022
3822 Drizzle 7 1011 95 1000 1.03 170 12:22 04.01.2022
3823 Drizzle 6 1012 94 1500 0.89 18 10:23 04.01.2022
3824 Mist 6 1014 94 2000 0.51 0 08:57 04.01.2022
3825 Mist 6 1013 93 3600 2.24 245 06:28 04.01.2022
3826 Mist 6 1017 94 3400 1.54 30 00:42 04.01.2022
3827 Mist 6 1018 94 2800 1.54 40 23:54 03.01.2022
3828 Mist 6 1017 93 3000 2.68 61 22:22 03.01.2022
3829 Mist 6 1018 92 3000 2.68 63 21:39 03.01.2022
3830 Mist 6 1017 92 2000 2.24 70 20:41 03.01.2022
3831 Mist 6 1017 90 4000 2.68 61 18:55 03.01.2022
3832 Mist 6 1017 90 2000 0.89 72 18:30 03.01.2022
3833 Mist 7 1015 85 2000 1.79 108 17:21 03.01.2022
3834 Mist 7 1017 89 3000 0.89 127 16:53 03.01.2022
3835 Clouds 9 1013 69 10000 0.5 200 14:31 03.01.2022
3836 Mist 8 1017 86 4000 1.79 55 12:52 03.01.2022
3837 Mist 8 1018 91 4000 1.54 90 11:50 03.01.2022
3838 Mist 7 1018 98 4000 0.45 77 10:52 03.01.2022
3839 Fog 4 1018 95 250 1.54 60 09:28 03.01.2022
3840 Fog 4 1018 96 250 0.45 115 09:28 03.01.2022
3841 Fog 4 1018 95 100 1.54 40 07:53 03.01.2022
3842 Fog 4 1018 88 50 0.89 112 03:22 03.01.2022
3843 Fog 5 1022 87 2500 1.03 0 23:24 02.01.2022
3844 Fog 5 1022 87 2500 0.51 0 22:56 02.01.2022
3845 Clouds 6 1023 88 10000 1.34 17 21:58 02.01.2022
3846 Clouds 6 1022 89 10000 0.51 0 20:50 02.01.2022
3847 Clouds 6 1023 89 10000 1.34 10 20:29 02.01.2022
3848 Clouds 7 1022 86 10000 0.51 220 19:31 02.01.2022
3849 Clouds 7 1023 88 10000 0.89 302 18:56 02.01.2022
3850 Clouds 8 1023 85 10000 1.34 308 17:56 02.01.2022
3851 Clouds 8 1022 84 10000 1.34 315 17:38 02.01.2022
3852 Clouds 9 1022 81 6000 1.03 280 17:20 02.01.2022
3853 Clouds 10 1022 76 7000 2.06 290 16:27 02.01.2022
3854 Clouds 11 1022 78 7000 3.58 308 14:41 02.01.2022
3855 Clouds 11 1023 83 10000 1.34 293 13:25 02.01.2022
3856 Clouds 10 1024 83 10000 2.24 241 12:31 02.01.2022
3857 Clouds 9 1024 85 10000 1.79 306 11:41 02.01.2022
3858 Clouds 9 1026 62 10000 1.44 249 10:53 02.01.2022
3859 Clouds 8 1026 84 10000 1.31 258 09:55 02.01.2022
3860 Mist 2 1023 94 5000 1.03 250 07:29 02.01.2022
3861 Fog 3 1025 95 800 0.51 190 02:51 02.01.2022
3862 Fog 4 1024 91 1100 0.51 0 23:41 01.01.2022
3863 Fog 4 1024 91 800 1.03 80 23:23 01.01.2022
3864 Fog 4 1024 92 400 1.03 120 22:24 01.01.2022
3865 Fog 5 1024 91 600 1.03 0 21:44 01.01.2022
3866 Fog 5 1024 91 400 0.89 203 20:56 01.01.2022
3867 Clouds 7 1022 83 10000 0.74 298 19:59 01.01.2022
3868 Clouds 8 1022 80 10000 1.79 171 19:30 01.01.2022
3869 Clouds 8 1022 80 10000 0.51 18 18:20 01.01.2022
3870 Clouds 11 1024 71 10000 0.89 177 16:43 01.01.2022
3871 Clouds 12 1024 66 10000 0.45 186 16:20 01.01.2022
3872 Clouds 12 1024 65 10000 1.79 193 15:30 01.01.2022
3873 Clouds 12 1024 65 10000 0.45 109 14:21 01.01.2022
3874 Clouds 12 1025 67 10000 0.4 96 12:50 01.01.2022
3875 Clouds 11 1026 71 10000 0.67 87 11:58 01.01.2022
3876 Clouds 10 1026 67 10000 0.76 88 11:23 01.01.2022
3877 Clouds 10 1026 50 10000 0.75 88 10:40 01.01.2022
3878 Clear 8 1020 77 10000 1.34 145 09:46 01.01.2022
3879 Fog 3 1022 92 150 1.34 169 08:26 01.01.2022
3880 Fog 4 1022 93 150 1.03 170 07:54 01.01.2022
3881 Fog 3 1021 94 50 0.51 0 07:34 01.01.2022
3882 Fog 4 1021 93 50 0.51 0 06:41 01.01.2022
3883 Clear 7 1017 84 10000 1.79 273 04:38 01.01.2022
3884 Clear 7 1019 98 10000 2.29 274 02:44 01.01.2022
3885 Fog 4 1025 100 100 0.51 0 23:39 31.12.2021
3886 Clear 7 1020 98 10000 1.51 281 21:53 31.12.2021
3887 Fog 5 1022 99 150 1.03 0 20:39 31.12.2021
3888 Fog 6 1025 100 150 1.03 0 19:31 31.12.2021
3889 Fog 6 1025 100 150 1.03 0 19:31 31.12.2021
3890 Fog 3 1024 100 200 1.03 0 18:41 31.12.2021
3891 Clear 9 1024 83 10000 1.24 283 17:43 31.12.2021
3892 Clear 9 1024 82 10000 1.67 297 17:19 31.12.2021
3893 Clear 11 1024 78 10000 1.67 297 16:38 31.12.2021
3894 Clear 11 1025 77 10000 0.89 271 15:57 31.12.2021
3895 Clear 12 1025 75 10000 0.89 266 15:29 31.12.2021
3896 Clear 12 1025 73 10000 0.45 297 14:57 31.12.2021
3897 Clear 13 1025 72 10000 0.81 251 14:30 31.12.2021
3898 Clear 13 1023 75 10000 0.61 254 13:36 31.12.2021
3899 Clear 12 1025 68 10000 0.42 255 12:45 31.12.2021
3900 Fog 10 1026 100 200 0.51 0 11:51 31.12.2021
3901 Fog 9 1026 100 200 1.03 0 11:30 31.12.2021
3902 Fog 8 1026 100 200 0.51 0 10:38 31.12.2021
3903 Fog 6 1022 99 200 0.51 0 09:55 31.12.2021
3904 Fog 5 1022 99 200 1.54 190 09:33 31.12.2021
3905 Fog 4 1022 99 200 1.03 0 08:39 31.12.2021
3906 Fog 4 1022 99 200 1.03 190 07:31 31.12.2021
3907 Fog 6 1023 99 150 2.24 237 23:32 30.12.2021
3908 Fog 6 1022 99 200 0.89 233 22:33 30.12.2021
3909 Fog 6 1022 99 200 1.79 248 21:59 30.12.2021
3910 Fog 6 1022 99 200 0.45 240 21:37 30.12.2021
3911 Fog 6 1021 99 200 0.89 283 20:47 30.12.2021
3912 Fog 6 1021 99 200 1.03 0 20:27 30.12.2021
3913 Fog 6 1021 99 200 0.51 0 19:47 30.12.2021
3914 Fog 6 1020 99 250 1.79 251 18:48 30.12.2021
3915 Clouds 7 1017 98 10000 1.07 59 18:19 30.12.2021
3916 Clouds 9 1016 86 10000 0.98 77 16:20 30.12.2021
3917 Clouds 10 1016 85 10000 0.98 77 15:52 30.12.2021
3918 Clouds 10 1020 84 10000 0.45 223 14:40 30.12.2021
3919 Clouds 10 1017 85 10000 1.79 223 13:55 30.12.2021
3920 Fog 9 1019 94 1400 0.51 0 12:44 30.12.2021
3921 Fog 7 1019 99 400 0.51 0 10:59 30.12.2021
3922 Fog 6 1018 98 350 1.34 245 09:59 30.12.2021
3923 Fog 4 1019 98 400 0.89 255 09:21 30.12.2021
3924 Fog 4 1017 98 900 1.03 0 06:54 30.12.2021
3925 Fog 4 1015 98 250 1.54 10 03:45 30.12.2021
3926 Fog 4 1015 98 300 0.45 69 03:23 30.12.2021
3927 Fog 4 1014 97 800 3.58 56 23:50 29.12.2021
3928 Mist 5 1014 98 2500 3.13 54 23:23 29.12.2021
3929 Fog 4 1012 97 500 2.68 56 22:22 29.12.2021
3930 Fog 5 1012 97 500 0.45 177 22:22 29.12.2021
3931 Fog 5 1012 97 500 4.12 80 21:43 29.12.2021
3932 Fog 5 1011 96 500 1.34 150 20:39 29.12.2021
3933 Fog 6 1012 95 400 1.79 102 19:50 29.12.2021
3934 Mist 6 1011 95 1500 0.45 167 18:54 29.12.2021
3935 Mist 7 1010 92 2000 1.34 62 17:56 29.12.2021
3936 Mist 7 1009 90 2000 1.79 137 17:28 29.12.2021
3937 Mist 8 1009 88 3500 0.45 188 16:41 29.12.2021
3938 Mist 9 1009 85 3000 0.45 142 15:59 29.12.2021
3939 Mist 9 1009 84 2500 0.45 195 14:24 29.12.2021
3940 Mist 9 1009 89 5000 0.45 177 12:42 29.12.2021
3941 Clouds 8 1009 91 6000 0.45 208 11:49 29.12.2021
3942 Fog 5 1007 97 500 0.89 224 09:59 29.12.2021
3943 Fog 3 1007 98 300 1.79 237 07:52 29.12.2021
3944 Fog 3 1007 98 300 1.79 242 07:52 29.12.2021
3945 Fog 3 1007 98 200 1.54 250 06:40 29.12.2021
3946 Fog 3 1007 98 200 1.54 240 06:22 29.12.2021
3947 Fog 3 1008 98 200 1.79 221 05:39 29.12.2021
3948 Fog 3 1009 98 300 1.54 250 02:48 29.12.2021
3949 Fog 4 1008 98 500 1.54 290 00:23 29.12.2021
3950 Fog 4 1008 97 500 1.03 0 23:35 28.12.2021
3951 Fog 4 1008 97 1200 2.06 250 22:42 28.12.2021
3952 Fog 5 1008 97 300 1.03 0 22:24 28.12.2021
3953 Fog 5 1008 97 2000 1.03 0 21:38 28.12.2021
3954 Fog 5 1008 96 2500 1.03 0 20:40 28.12.2021
3955 Mist 6 1008 95 2500 1.03 210 19:25 28.12.2021
3956 Mist 6 1008 95 2500 1.03 0 18:41 28.12.2021
3957 Mist 7 1008 94 1800 1.54 250 17:59 28.12.2021
3958 Mist 8 1006 91 1700 1.54 220 16:34 28.12.2021
3959 Mist 8 1007 91 1700 2.24 265 15:50 28.12.2021
3960 Mist 8 1007 91 1600 2.68 292 15:22 28.12.2021
3961 Mist 8 1007 92 1800 2.06 240 14:50 28.12.2021
3962 Mist 8 1007 92 1600 2.68 223 14:21 28.12.2021
3963 Mist 8 1007 93 1600 1.34 205 13:42 28.12.2021
3964 Mist 8 1008 95 1500 2.68 228 13:24 28.12.2021
3965 Mist 8 1008 95 1200 1.34 239 12:49 28.12.2021
3966 Fog 7 1009 96 600 1.79 264 11:46 28.12.2021
3967 Mist 6 1009 97 1200 1.03 0 08:35 28.12.2021
3968 Mist 6 1009 97 2500 2.06 250 06:42 28.12.2021
3969 Mist 6 1010 96 1800 1.54 270 23:44 27.12.2021
3970 Mist 6 1010 96 1800 1.54 270 23:23 27.12.2021
3971 Mist 6 1010 96 2000 0.51 0 21:42 27.12.2021
3972 Mist 6 1010 96 2000 0.51 0 21:20 27.12.2021
3973 Drizzle 6 1010 96 1500 0.51 0 19:58 27.12.2021
3974 Clouds 6 1009 96 1200 0.51 0 19:39 27.12.2021
3975 Rain 6 1009 96 1500 0.51 0 18:23 27.12.2021
3976 Rain 6 1009 96 1500 1.03 0 17:46 27.12.2021
3977 Rain 6 1009 95 2000 1.03 70 16:40 27.12.2021
3978 Rain 6 1008 95 2500 1.03 0 15:52 27.12.2021
3979 Rain 6 1009 94 2500 1.54 90 14:32 27.12.2021
3980 Rain 7 1008 92 2500 0.51 0 13:39 27.12.2021
3981 Mist 6 1008 91 3000 0.45 45 12:19 27.12.2021
3982 Mist 6 1009 93 2500 2.06 180 10:31 27.12.2021
3983 Mist 5 1008 93 2500 1.79 173 09:47 27.12.2021
3984 Fog 4 1008 94 3000 0 0 07:35 27.12.2021
3985 Mist 4 1008 93 4000 0.51 0 06:56 27.12.2021
3986 Fog 5 1008 92 2000 1.03 190 02:18 27.12.2021
3987 Mist 5 1009 91 5000 1.03 0 23:58 26.12.2021
3988 Clouds 5 1009 91 6000 0.89 198 23:35 26.12.2021
3989 Clouds 5 1009 89 7000 0.51 360 21:59 26.12.2021
3990 Clouds 5 1009 89 7000 0 0 20:54 26.12.2021
3991 Clouds 5 1008 87 9000 0.51 0 19:46 26.12.2021
3992 Clouds 6 1008 86 8000 0.51 0 18:23 26.12.2021
3993 Clouds 7 1007 81 7000 0.51 0 15:57 26.12.2021
3994 Clouds 7 1007 82 6000 0.51 0 14:27 26.12.2021
3995 Clouds 7 1007 82 6000 1.03 0 13:40 26.12.2021
3996 Clouds 7 1007 82 6000 1.79 183 13:18 26.12.2021
3997 Clouds 7 1007 84 6000 0.51 0 12:27 26.12.2021
3998 Mist 4 1008 96 4000 1.54 280 10:32 26.12.2021
3999 Fog 2 1006 96 900 1.54 250 09:19 26.12.2021
4000 Fog 3 1006 95 500 0.89 225 08:43 26.12.2021
4001 Fog 2 1005 95 200 1.34 314 07:34 26.12.2021
4002 Mist 4 1007 90 5000 1.54 20 01:24 26.12.2021
4003 Mist 4 1007 90 5000 1.79 314 23:53 25.12.2021
4004 Mist 4 1008 92 5000 1.03 0 23:27 25.12.2021
4005 Mist 4 1008 92 5000 1.03 250 22:23 25.12.2021
4006 Rain 4 1008 92 4000 1.34 277 20:48 25.12.2021
4007 Rain 5 1008 90 3500 1.03 0 19:23 25.12.2021
4008 Drizzle 5 1008 89 4000 0.89 245 18:54 25.12.2021
4009 Drizzle 5 1008 89 2500 0.45 236 17:29 25.12.2021
4010 Rain 5 1007 87 2500 2.68 219 16:35 25.12.2021
4011 Mist 5 1007 85 5000 2.06 230 14:38 25.12.2021
4012 Mist 6 1008 83 3500 0.89 171 12:49 25.12.2021
4013 Mist 6 1009 81 5000 1.03 180 11:45 25.12.2021
4014 Mist 5 1009 85 5000 1.54 180 09:50 25.12.2021
4015 Mist 4 1009 85 5000 0.89 305 08:19 25.12.2021
4016 Mist 4 1010 85 5000 1.54 150 02:22 25.12.2021
4017 Mist 4 1011 88 5000 1.03 0 00:33 25.12.2021
4018 Mist 4 1012 88 5000 1.03 0 23:39 24.12.2021
4019 Mist 4 1013 88 5000 1.03 0 19:40 24.12.2021
4020 Mist 4 1013 89 5000 1.03 0 19:22 24.12.2021
4021 Mist 5 1012 84 5000 1.03 0 16:50 24.12.2021
4022 Mist 5 1012 83 5000 0.45 232 16:21 24.12.2021
4023 Mist 5 1012 83 5000 1.79 228 15:46 24.12.2021
4024 Mist 5 1013 83 5000 1.34 226 14:46 24.12.2021
4025 Mist 5 1013 83 5000 1.34 234 14:23 24.12.2021
4026 Mist 5 1013 84 5000 1.34 232 13:37 24.12.2021
4027 Mist 5 1014 84 5000 1.54 250 12:48 24.12.2021
4028 Mist 4 1014 84 5000 0.45 197 11:52 24.12.2021
4029 Mist 4 1014 84 5000 1.79 194 11:26 24.12.2021
4030 Mist 4 1015 84 5000 0.89 221 10:50 24.12.2021
4031 Mist 4 1015 84 5000 4.02 216 10:18 24.12.2021
4032 Clouds 4 1016 86 10000 1.03 0 08:25 24.12.2021
4033 Clouds 4 1015 85 10000 2.06 230 07:50 24.12.2021
4034 Clouds 3 1018 88 8000 1.03 0 02:52 24.12.2021
4035 Clouds 3 1019 89 9000 0.51 0 00:19 24.12.2021
4036 Clouds 3 1020 89 10000 1.03 0 23:22 23.12.2021
4037 Clouds 3 1020 89 10000 1.54 280 22:37 23.12.2021
4038 Clouds 3 1020 89 10000 1.54 280 22:37 23.12.2021
4039 Clouds 3 1020 90 10000 2.06 260 22:19 23.12.2021
4040 Clouds 3 1021 91 10000 1.03 0 20:59 23.12.2021
4041 Clouds 3 1021 90 10000 2.57 280 20:19 23.12.2021
4042 Clouds 3 1021 91 8000 1.54 260 18:36 23.12.2021
4043 Clouds 3 1021 91 8000 2.06 250 17:57 23.12.2021
4044 Mist 4 1020 88 5000 2.68 266 16:44 23.12.2021
4045 Mist 4 1019 87 5000 1.79 300 16:24 23.12.2021
4046 Mist 5 1019 85 5000 1.79 293 15:31 23.12.2021
4047 Mist 5 1020 83 5000 2.68 235 14:52 23.12.2021
4048 Mist 5 1021 84 5000 2.24 246 14:30 23.12.2021
4049 Mist 5 1020 85 3500 1.79 236 12:54 23.12.2021
4050 Mist 3 1020 88 2000 1.79 255 10:52 23.12.2021
4051 Mist 3 1021 88 1000 1.34 330 09:42 23.12.2021
4052 Fog 1 1024 98 600 1.03 0 08:59 23.12.2021
4053 Fog 1 1024 98 600 1.03 0 08:59 23.12.2021
4054 Fog 0 1024 96 300 2.06 240 06:55 23.12.2021
4055 Fog 1 1025 96 300 1.54 240 04:30 23.12.2021
4056 Fog 2 1027 96 400 1.54 240 23:20 22.12.2021
4057 Fog 2 1027 96 400 1.54 250 22:42 22.12.2021
4058 Fog 2 1027 96 400 2.06 240 21:56 22.12.2021
4059 Fog 2 1026 96 400 1.03 0 21:29 22.12.2021
4060 Fog 2 1026 100 200 2.06 250 20:47 22.12.2021
4061 Fog 3 1026 100 200 2.57 250 20:26 22.12.2021
4062 Fog 3 1026 100 200 2.06 260 19:21 22.12.2021
4063 Mist 4 1024 86 3000 2.24 196 17:42 22.12.2021
4064 Clouds 6 1025 79 9000 1.34 200 16:39 22.12.2021
4065 Clouds 7 1025 73 10000 2.68 170 15:39 22.12.2021
4066 Clouds 7 1025 75 8000 2.68 186 13:32 22.12.2021
4067 Clouds 6 1025 79 7000 1.34 148 12:40 22.12.2021
4068 Clouds 5 1024 82 10000 0.64 75 10:19 22.12.2021
4069 Clouds 4 1025 86 10000 0.64 75 09:38 22.12.2021
4070 Clouds 3 1022 88 10000 0.61 82 07:25 22.12.2021
4071 Fog 3 1024 94 100 0.51 0 05:43 22.12.2021
4072 Fog 3 1022 93 100 0.51 0 05:24 22.12.2021
4073 Fog 3 1022 92 100 0.51 0 04:49 22.12.2021
4074 Fog 3 1023 93 100 0.51 0 04:24 22.12.2021
4075 Clouds 3 1024 93 10000 0.88 81 03:32 22.12.2021
4076 Fog 4 1024 91 800 1.03 10 00:33 22.12.2021
4077 Mist 5 1024 92 3500 1.03 0 22:52 21.12.2021
4078 Mist 5 1023 88 4000 0.45 73 22:27 21.12.2021
4079 Mist 5 1024 90 5000 1.03 0 21:43 21.12.2021
4080 Clouds 5 1023 86 6000 1.54 130 20:54 21.12.2021
4081 Clouds 5 1022 86 6000 0.51 0 20:20 21.12.2021
4082 Clouds 5 1022 87 6000 0.51 0 19:41 21.12.2021
4083 Clouds 6 1022 86 6000 1.03 40 18:45 21.12.2021
4084 Clouds 6 1022 85 6000 0.51 0 18:21 21.12.2021
4085 Mist 6 1022 85 5000 0.51 0 17:41 21.12.2021
4086 Mist 7 1021 81 4000 1.34 203 15:55 21.12.2021
4087 Mist 7 1022 80 4000 1.34 195 15:20 21.12.2021
4088 Mist 6 1022 83 4000 1.03 0 13:50 21.12.2021
4089 Mist 6 1023 84 4000 0.89 253 13:29 21.12.2021
4090 Mist 5 1025 92 3000 1.54 240 10:56 21.12.2021
4091 Mist 4 1024 93 4000 1.54 250 09:59 21.12.2021
4092 Mist 3 1024 94 3000 1.03 0 09:18 21.12.2021
4093 Mist 3 1024 94 5000 2.06 270 07:54 21.12.2021
4094 Mist 3 1024 94 3500 2.06 260 07:25 21.12.2021
4095 Mist 3 1024 94 1600 2.06 230 04:56 21.12.2021
4096 Fog 3 1024 93 750 2.06 250 02:39 21.12.2021
4097 Fog 3 1021 91 100 0.51 0 23:58 20.12.2021
4098 Mist 3 1022 94 3500 1.03 10 22:49 20.12.2021
4099 Fog 3 1022 95 2500 1.54 10 22:28 20.12.2021
4100 Fog 3 1022 94 800 1.54 20 21:42 20.12.2021
4101 Mist 4 1021 92 3500 1.34 10 21:22 20.12.2021
4102 Clouds 3 1022 93 6000 2.57 60 20:41 20.12.2021
4103 Clouds 4 1021 93 7000 2.57 90 19:48 20.12.2021
4104 Clouds 4 1021 94 7000 2.57 90 19:29 20.12.2021
4105 Clouds 4 1020 92 7000 3.09 80 18:49 20.12.2021
4106 Mist 4 1020 91 5000 3.09 80 17:52 20.12.2021
4107 Mist 5 1019 89 2500 0.45 173 16:53 20.12.2021
4108 Mist 5 1017 86 2500 0.89 150 16:35 20.12.2021
4109 Clear 7 1018 78 10000 0.89 138 15:43 20.12.2021
4110 Clouds 8 1017 76 10000 0.89 189 14:40 20.12.2021
4111 Clouds 10 1017 70 10000 2.06 220 12:44 20.12.2021
4112 Clouds 7 1015 73 10000 3.6 260 10:55 20.12.2021
4113 Clear 4 1015 81 10000 0.89 5 09:47 20.12.2021
4114 Clear 4 1015 82 10000 2.57 260 08:56 20.12.2021
4115 Clear 4 1015 84 10000 0.45 356 08:38 20.12.2021
4116 Clouds 3 1013 85 10000 0.89 14 07:44 20.12.2021
4117 Clear 3 1013 86 10000 1.79 8 06:39 20.12.2021
4118 Clear 2 1016 93 6000 0.89 24 01:33 20.12.2021
4119 Clear 3 1016 83 7000 1.79 330 23:28 19.12.2021
4120 Clear 3 1016 83 7000 1.34 271 22:44 19.12.2021
4121 Clear 4 1015 77 10000 1.79 294 21:33 19.12.2021
4122 Clear 4 1016 74 10000 1.34 234 20:44 19.12.2021
4123 Clear 4 1016 76 10000 0.89 246 20:24 19.12.2021
4124 Clear 5 1015 76 10000 1.34 241 19:42 19.12.2021
4125 Fog 4 1017 79 2000 1.03 250 18:46 19.12.2021
4126 Clear 6 1018 77 10000 2.05 277 17:54 19.12.2021
4127 Clear 6 1019 77 10000 1.95 274 17:35 19.12.2021
4128 Mist 7 1020 75 4000 1.03 0 16:41 19.12.2021
4129 Mist 8 1020 73 4000 1.34 221 15:56 19.12.2021
4130 Clear 9 1020 66 10000 1.34 221 15:25 19.12.2021
4131 Clear 9 1020 68 10000 0.89 208 14:45 19.12.2021
4132 Clear 9 1023 73 10000 0.45 158 13:35 19.12.2021
4133 Clear 8 1023 76 10000 0.45 280 12:59 19.12.2021
4134 Clear 8 1022 79 10000 2.38 260 12:31 19.12.2021
4135 Clear 7 1025 77 10000 2.38 260 11:38 19.12.2021
4136 Clear 6 1019 98 10000 0.89 274 10:50 19.12.2021
4137 Fog 4 1022 99 150 0.45 240 10:22 19.12.2021
4138 Fog 2 1024 99 150 1.79 223 08:50 19.12.2021
4139 Fog 1 1025 98 100 2.68 243 06:51 19.12.2021
4140 Fog 1 1028 97 100 0.45 290 01:52 19.12.2021
4141 Fog 2 1028 98 100 1.34 230 00:54 19.12.2021
4142 Fog 1 1031 98 100 0.51 0 23:18 18.12.2021
4143 Fog 2 1030 98 100 0.45 191 22:24 18.12.2021
4144 Fog 2 1030 98 100 0.45 202 21:43 18.12.2021
4145 Fog 2 1030 98 100 0.89 195 21:22 18.12.2021
4146 Fog 2 1031 98 100 1.79 165 20:26 18.12.2021
4147 Fog 2 1031 95 100 0.89 41 19:35 18.12.2021
4148 Fog 3 1030 94 200 0.89 322 18:24 18.12.2021
4149 Fog 3 1030 94 200 0.45 284 17:49 18.12.2021
4150 Fog 4 1030 95 250 0.89 198 16:36 18.12.2021
4151 Fog 6 1029 94 600 1.34 226 16:18 18.12.2021
4152 Clear 9 1028 83 10000 1.79 240 14:54 18.12.2021
4153 Clear 9 1029 81 10000 0.89 220 13:44 18.12.2021
4154 Clouds 8 1033 85 10000 0.89 269 11:55 18.12.2021
4155 Fog 4 1031 93 100 0.89 239 09:54 18.12.2021
4156 Fog 2 1033 96 100 1.54 60 09:30 18.12.2021
4157 Fog 1 1031 97 100 1.03 0 08:36 18.12.2021
4158 Fog 1 1031 97 100 1.03 0 08:36 18.12.2021
4159 Fog 1 1030 96 100 1.79 171 06:27 18.12.2021
4160 Fog 2 1027 97 200 1.34 53 00:58 18.12.2021
4161 Fog 3 1026 97 50 1.34 53 23:47 17.12.2021
4162 Fog 3 1025 97 100 2.24 77 22:37 17.12.2021
4163 Fog 3 1025 94 100 1.03 0 21:28 17.12.2021
4164 Fog 3 1025 93 200 1.79 166 20:42 17.12.2021
4165 Fog 4 1025 94 400 1.79 226 19:50 17.12.2021
4166 Fog 5 1027 93 300 0.89 253 18:39 17.12.2021
4167 Fog 5 1028 90 250 0.45 239 17:46 17.12.2021
4168 Fog 7 1028 88 200 1.34 256 16:50 17.12.2021
4169 Fog 8 1028 83 200 1.79 268 16:26 17.12.2021
4170 Mist 9 1029 76 3200 0.45 238 15:25 17.12.2021
4171 Mist 9 1029 79 4000 2.24 241 14:41 17.12.2021
4172 Clear 9 1030 85 10000 1.34 233 13:30 17.12.2021
4173 Mist 7 1030 93 2200 0.51 0 12:21 17.12.2021
4174 Fog 4 1030 98 550 1.03 0 10:38 17.12.2021
4175 Clouds 1 1032 98 100 2.06 260 09:34 17.12.2021
4176 Clouds 1 1032 97 100 1.79 222 08:31 17.12.2021
4177 Clouds 1 1032 96 100 3.58 231 07:18 17.12.2021
4178 Clouds 2 1033 98 50 2.24 224 04:39 17.12.2021
4179 Fog 3 1034 91 2000 1.34 21 23:47 16.12.2021
4180 Fog 3 1033 91 100 2.24 64 22:24 16.12.2021
4181 Fog 3 1033 91 100 2.24 64 22:24 16.12.2021
4182 Fog 3 1033 91 100 2.24 64 22:23 16.12.2021
4183 Fog 3 1033 91 100 2.24 64 22:23 16.12.2021
4184 Fog 3 1033 91 100 2.24 64 22:23 16.12.2021
4185 Fog 3 1032 92 100 3.13 58 21:45 16.12.2021
4186 Mist 3 1032 92 1500 1.34 54 20:57 16.12.2021
4187 Mist 3 1031 93 2000 1.79 51 20:27 16.12.2021
4188 Mist 4 1030 91 3000 1.79 63 19:33 16.12.2021
4189 Mist 4 1029 87 3000 2.24 84 18:37 16.12.2021
4190 Mist 5 1029 85 3500 1.03 0 17:48 16.12.2021
4191 Mist 6 1029 83 3500 1.03 0 16:44 16.12.2021
4192 Mist 6 1028 80 3500 1.54 250 16:18 16.12.2021
4193 Fog 7 1028 83 700 0.89 232 14:23 16.12.2021
4194 Clouds 8 1029 78 10000 0.45 185 12:34 16.12.2021
4195 Clouds 7 1029 82 10000 2.24 236 11:19 16.12.2021
4196 Clouds 7 1029 82 10000 2.24 236 11:19 16.12.2021
4197 Clouds 6 1029 83 10000 0.45 195 10:45 16.12.2021
4198 Fog 3 1030 87 1800 1.79 228 09:51 16.12.2021
4199 Fog 1 1030 95 600 1.03 260 07:19 16.12.2021
4200 Fog 1 1029 93 2000 0.51 0 06:18 16.12.2021
4201 Mist 2 1030 92 3000 0.51 0 00:35 16.12.2021
4202 Mist 2 1031 90 2200 0.89 189 23:20 15.12.2021
4203 Mist 3 1030 90 1800 1.03 190 22:21 15.12.2021
4204 Mist 3 1030 91 2400 0.45 248 21:45 15.12.2021
4205 Mist 3 1030 89 2500 0.89 225 21:24 15.12.2021
4206 Fog 4 1030 89 1900 0.89 225 19:54 15.12.2021
4207 Mist 4 1030 89 1000 1.03 260 19:19 15.12.2021
4208 Mist 5 1030 86 2200 0.51 260 18:24 15.12.2021
4209 Mist 5 1030 87 2700 1.54 260 17:46 15.12.2021
4210 Mist 6 1029 85 4100 0.89 173 17:21 15.12.2021
4211 Clouds 7 1029 77 8000 0.45 182 15:49 15.12.2021
4212 Clear 9 1028 72 10000 1.34 212 15:31 15.12.2021
4213 Clear 9 1028 70 10000 1.34 209 14:59 15.12.2021
4214 Clear 9 1029 72 10000 1.34 194 13:45 15.12.2021
4215 Clouds 8 1029 74 8000 0.89 199 11:52 15.12.2021
4216 Fog 5 1030 86 6000 0.51 0 10:22 15.12.2021
4217 Fog 2 1029 92 8000 0.51 0 08:26 15.12.2021
4218 Fog 2 1028 91 4000 0.51 0 05:53 15.12.2021
4219 Fog 4 1027 91 3000 1.03 360 00:37 15.12.2021
4220 Mist 3 1027 91 4000 1.03 0 23:31 14.12.2021
4221 Mist 4 1027 89 5000 1.54 110 22:44 14.12.2021
4222 Clouds 4 1026 89 6000 0.51 0 21:43 14.12.2021
4223 Clouds 4 1026 91 6000 0.51 0 21:43 14.12.2021
4224 Clouds 4 1026 88 8000 0.51 0 20:22 14.12.2021
4225 Clouds 6 1026 83 8000 1.54 280 19:34 14.12.2021
4226 Clouds 6 1026 83 7000 1.03 200 18:38 14.12.2021
4227 Mist 7 1027 81 5000 1.54 260 17:56 14.12.2021
4228 Mist 9 1026 76 5000 2.06 250 16:47 14.12.2021
4229 Clouds 9 1026 75 7000 1.54 230 16:28 14.12.2021
4230 Clouds 8 1026 77 8000 2.06 260 14:32 14.12.2021
4231 Clouds 8 1025 74 8000 2.24 224 12:58 14.12.2021
4232 Clear 7 1026 78 10000 2.68 252 11:44 14.12.2021
4233 Clear 6 1027 79 10000 1.34 230 11:20 14.12.2021
4234 Clouds 3 1027 86 6000 1.03 270 09:55 14.12.2021
4235 Clear 2 1026 88 10000 1.03 0 08:58 14.12.2021
4236 Mist 1 1025 90 4000 0.45 213 08:21 14.12.2021
4237 Fog 1 1025 89 2000 0.45 213 07:23 14.12.2021
4238 Clouds 3 1026 83 7000 1.03 0 23:52 13.12.2021
4239 Clear 3 1026 82 10000 1.03 30 22:26 13.12.2021
4240 Clear 4 1026 80 10000 1.03 0 21:39 13.12.2021
4241 Clear 4 1025 79 10000 1.03 20 20:54 13.12.2021
4242 Clear 4 1025 79 10000 0.45 213 20:22 13.12.2021
4243 Clear 5 1025 76 10000 0.45 0 19:49 13.12.2021
4244 Clear 6 1025 73 10000 1.54 140 17:39 13.12.2021
4245 Clear 7 1025 69 10000 1.03 170 17:18 13.12.2021
4246 Clear 10 1025 57 10000 1.03 0 15:43 13.12.2021
4247 Clear 9 1025 57 10000 1.54 270 14:43 13.12.2021
4248 Clear 9 1023 60 10000 0.89 225 13:37 13.12.2021
4249 Clear 7 1023 66 10000 1.34 237 12:40 13.12.2021
4250 Clear 7 1024 67 10000 1.34 227 11:53 13.12.2021
4251 Clear 6 1024 70 10000 1.34 206 11:34 13.12.2021
4252 Clear 5 1025 75 10000 0.51 0 10:37 13.12.2021
4253 Clouds 1 1023 86 7000 0.45 228 08:44 13.12.2021
4254 Clear 1 1023 86 10000 0.45 228 06:55 13.12.2021
4255 Clear 1 1023 86 10000 0.89 328 05:19 13.12.2021
4256 Clear 2 1023 81 10000 2.68 320 00:27 13.12.2021
4257 Clear 3 1024 77 10000 0.89 137 21:59 12.12.2021
4258 Clear 3 1023 76 10000 1.34 76 21:24 12.12.2021
4259 Clear 4 1023 74 10000 2.68 315 19:35 12.12.2021
4260 Clear 5 1023 70 10000 2.24 262 18:23 12.12.2021
4261 Clear 6 1022 67 10000 2.24 228 16:40 12.12.2021
4262 Clear 7 1022 65 10000 1.79 209 15:58 12.12.2021
4263 Clear 7 1022 61 10000 0.89 198 15:28 12.12.2021
4264 Clear 7 1024 68 10000 1.34 258 14:51 12.12.2021
4265 Clear 7 1022 64 10000 0.89 214 14:18 12.12.2021
4266 Clear 6 1023 64 10000 0.89 266 12:48 12.12.2021
4267 Clear 5 1023 67 10000 1.34 177 11:45 12.12.2021
4268 Clear 4 1023 70 10000 1.79 182 11:27 12.12.2021
4269 Clear 4 1023 75 10000 1.34 85 10:44 12.12.2021
4270 Clear 2 1022 83 10000 0.51 0 09:58 12.12.2021
4271 Rain 0 1021 86 10000 0.51 0 08:44 12.12.2021
4272 Clouds 1 1018 84 10000 0.89 156 06:55 12.12.2021
4273 Fog 1 1017 87 8000 0.89 218 05:28 12.12.2021
4274 Fog 1 1018 89 7000 1.34 244 04:19 12.12.2021
4275 Clear 2 1015 83 10000 1.46 317 00:54 12.12.2021
4276 Clear 3 1015 78 10000 0.89 203 22:56 11.12.2021
4277 Clear 3 1015 81 10000 0.89 260 22:20 11.12.2021
4278 Clear 3 1014 76 10000 0.89 106 21:26 11.12.2021
4279 Clear 4 1013 79 10000 0.45 116 19:50 11.12.2021
4280 Clear 4 1013 79 10000 0 0 19:21 11.12.2021
4281 Clear 3 1012 80 10000 0.45 202 18:39 11.12.2021
4282 Clear 4 1012 80 10000 1.34 166 17:48 11.12.2021
4283 Clear 6 1010 70 10000 0.51 0 15:58 11.12.2021
4284 Clear 6 1010 72 10000 0.89 165 15:39 11.12.2021
4285 Clear 6 1009 73 10000 2.68 131 14:33 11.12.2021
4286 Clear 5 1008 74 10000 0.89 206 12:20 11.12.2021
4287 Clear 4 1007 82 10000 1.79 206 10:43 11.12.2021
4288 Clear 2 1006 86 10000 1.79 174 09:38 11.12.2021
4289 Clouds 1 1003 90 10000 0.89 236 03:26 11.12.2021
4290 Clouds 1 1002 91 10000 1.79 276 00:45 11.12.2021
4291 Clouds 1 1004 94 10000 1.03 0 23:40 10.12.2021
4292 Clouds 2 1003 92 10000 1.54 280 22:33 10.12.2021
4293 Clouds 2 1001 91 10000 0.89 290 21:40 10.12.2021
4294 Clouds 2 1002 93 10000 0.51 0 20:22 10.12.2021
4295 Clouds 2 1002 94 10000 2.06 340 19:18 10.12.2021
4296 Clouds 2 1001 94 10000 2.06 20 17:31 10.12.2021
4297 Clouds 2 1001 94 7000 2.57 10 16:34 10.12.2021
4298 Clouds 2 1001 94 7000 2.57 20 15:43 10.12.2021
4299 Rain 2 1001 95 7000 2.06 30 15:24 10.12.2021
4300 Rain 2 1001 95 7000 2.57 50 14:29 10.12.2021
4301 Snow 2 1000 95 8000 2.24 16 13:48 10.12.2021
4302 Snow 2 1001 94 10000 3.13 57 12:55 10.12.2021
4303 Drizzle 2 1001 94 7000 2.68 38 11:36 10.12.2021
4304 Drizzle 2 1001 92 7000 1.79 54 10:55 10.12.2021
4305 Snow 1 1002 91 10000 0.45 55 09:36 10.12.2021
4306 Mist 0 1004 96 5000 2.06 60 07:25 10.12.2021
4307 Fog 0 1005 96 500 1.03 0 04:32 10.12.2021
4308 Fog 0 1006 97 500 1.03 0 02:29 10.12.2021
4309 Fog 0 1007 97 400 1.03 0 23:40 09.12.2021
4310 Fog 1 1007 97 400 0.51 0 22:41 09.12.2021
4311 Fog 0 1007 96 400 1.54 0 22:21 09.12.2021
4312 Fog 1 1007 96 200 1.03 340 21:38 09.12.2021
4313 Fog 1 1007 96 200 1.03 0 20:34 09.12.2021
4314 Mist 1 1006 95 1000 1.54 120 19:22 09.12.2021
4315 Mist 2 1006 95 1500 2.06 100 18:59 09.12.2021
4316 Mist 2 1005 95 1500 2.06 100 18:18 09.12.2021
4317 Mist 2 1005 94 1500 2.06 80 17:29 09.12.2021
4318 Mist 3 1004 93 2000 1.54 100 16:57 09.12.2021
4319 Mist 4 1002 92 2000 0.89 193 16:20 09.12.2021
4320 Mist 5 1001 90 4000 0.89 197 14:58 09.12.2021
4321 Mist 4 1000 92 3000 0.89 196 13:52 09.12.2021
4322 Mist 4 998 94 2500 2.24 243 12:47 09.12.2021
4323 Mist 2 1000 97 2500 3.13 269 11:29 09.12.2021
4324 Fog 1 1000 96 900 2.24 252 10:20 09.12.2021
4325 Mist 1 1001 86 4000 1.54 260 06:53 09.12.2021
4326 Snow 1 1000 86 5000 1.03 0 03:50 09.12.2021
4327 Snow 1 1001 96 5000 1.54 260 00:24 09.12.2021
4328 Rain 1 1001 96 5000 1.54 250 23:32 08.12.2021
4329 Rain 1 1001 96 5000 1.54 260 22:56 08.12.2021
4330 Rain 1 1001 96 4000 2.06 240 21:50 08.12.2021
4331 Rain 1 1001 96 3000 2.06 240 21:31 08.12.2021
4332 Rain 1 1002 96 4000 1.54 250 20:30 08.12.2021
4333 Rain 1 1001 96 5000 2.06 200 19:48 08.12.2021
4334 Rain 1 1002 95 7000 0.51 0 18:54 08.12.2021
4335 Rain 1 1002 95 7000 0.51 0 18:21 08.12.2021
4336 Snow 1 1002 96 3000 1.03 340 16:44 08.12.2021
4337 Snow 1 1002 96 3000 1.03 340 16:44 08.12.2021
4338 Snow 1 1002 96 2000 1.54 280 15:40 08.12.2021
4339 Snow 1 1002 95 1500 2.06 220 15:21 08.12.2021
4340 Snow 1 1003 94 700 3.6 10 13:21 08.12.2021
4341 Snow 1 1007 94 2000 4.12 340 10:42 08.12.2021
4342 Snow 2 1007 93 2500 2.06 40 09:32 08.12.2021
4343 Snow 2 1007 87 3000 1.79 85 07:37 08.12.2021
4344 Rain 3 1008 75 10000 1.79 80 04:58 08.12.2021
4345 Clear 3 1011 74 10000 1.79 70 23:56 07.12.2021
4346 Clear 4 1012 72 10000 2.68 111 22:37 07.12.2021
4347 Clear 4 1012 70 10000 2.24 103 21:24 07.12.2021
4348 Clear 4 1012 70 10000 0.45 59 20:25 07.12.2021
4349 Clear 4 1013 71 10000 1.54 50 18:56 07.12.2021
4350 Clear 5 1012 64 10000 0.51 0 18:19 07.12.2021
4351 Clear 6 1012 59 10000 1.34 233 17:20 07.12.2021
4352 Clear 7 1011 57 10000 3.13 233 16:37 07.12.2021
4353 Clear 8 1011 54 10000 1.34 230 15:37 07.12.2021
4354 Clear 9 1011 52 10000 3.13 244 14:37 07.12.2021
4355 Clear 9 1011 51 10000 0.45 251 13:19 07.12.2021
4356 Clear 8 1012 52 10000 1.34 188 12:21 07.12.2021
4357 Clear 5 1013 62 10000 2.68 292 10:44 07.12.2021
4358 Clear 1 1012 79 7000 1.54 250 08:46 07.12.2021
4359 Clouds 1 1011 80 8000 1.54 200 06:22 07.12.2021
4360 Clouds 1 1011 77 7000 2.06 350 05:42 07.12.2021
4361 Clouds 1 1010 81 6000 0.89 113 00:54 07.12.2021
4362 Clouds 2 1010 80 7000 0.51 0 22:58 06.12.2021
4363 Clouds 2 1011 79 7000 0.51 0 22:38 06.12.2021
4364 Clouds 2 1011 81 8000 1.03 0 21:54 06.12.2021
4365 Clear 3 1010 80 8000 0.45 223 20:44 06.12.2021
4366 Clear 3 1010 80 10000 1.79 227 20:26 06.12.2021
4367 Clear 3 1010 80 10000 2.68 251 19:23 06.12.2021
4368 Clear 4 1010 79 8000 2.68 250 18:29 06.12.2021
4369 Clear 4 1010 76 7000 1.34 245 17:51 06.12.2021
4370 Clear 6 1009 72 8000 1.79 219 16:49 06.12.2021
4371 Mist 7 1009 70 5000 1.79 234 15:45 06.12.2021
4372 Clear 8 1006 74 10000 1.34 182 13:46 06.12.2021
4373 Clear 7 1006 68 10000 2.24 199 12:40 06.12.2021
4374 Clear 7 1006 74 10000 2.68 218 11:48 06.12.2021
4375 Fog 1 1008 85 4500 1.79 313 09:20 06.12.2021
4376 Fog 0 1007 88 1000 0 0 06:43 06.12.2021
4377 Clear 2 1005 89 6000 1.03 0 23:44 05.12.2021
4378 Clear 2 1005 86 6000 1.03 0 21:52 05.12.2021
4379 Clear 3 1002 79 7000 0.51 0 21:19 05.12.2021
4380 Clear 2 1003 83 8000 1.03 0 20:19 05.12.2021
4381 Clear 3 1002 75 9000 1.03 0 19:33 05.12.2021
4382 Clouds 3 1002 80 10000 1.03 0 18:55 05.12.2021
4383 Clouds 4 1001 73 10000 0.51 0 18:20 05.12.2021
4384 Clouds 5 1000 71 10000 1.54 200 17:48 05.12.2021
4385 Clouds 6 1000 65 10000 0.45 230 16:48 05.12.2021
4386 Clouds 7 1000 62 10000 1.03 0 16:26 05.12.2021
4387 Clouds 8 999 60 10000 1.79 198 15:48 05.12.2021
4388 Clear 8 999 59 10000 2.24 228 14:41 05.12.2021
4389 Clear 8 999 60 10000 1.34 246 14:23 05.12.2021
4390 Clear 7 999 63 10000 2.24 230 13:22 05.12.2021
4391 Clear 7 999 66 10000 1.79 245 12:40 05.12.2021
4392 Clear 6 1000 71 10000 0.89 223 12:18 05.12.2021
4393 Clear 5 1000 77 10000 1.79 269 11:30 05.12.2021
4394 Clouds 3 999 84 10000 1.79 229 09:59 05.12.2021
4395 Clouds 2 1001 86 6000 1.34 182 08:24 05.12.2021
4396 Rain 2 1002 87 10000 0.45 306 03:28 05.12.2021
4397 Clouds 3 1004 82 10000 1.79 112 23:45 04.12.2021
4398 Clouds 4 1003 79 10000 0.45 54 21:55 04.12.2021
4399 Clouds 4 1004 78 10000 1.03 0 20:57 04.12.2021
4400 Clouds 4 1004 76 10000 1.03 0 20:20 04.12.2021
4401 Clouds 4 1004 76 10000 0 0 19:32 04.12.2021
4402 Rain 4 1005 76 10000 1.03 0 18:21 04.12.2021
4403 Clouds 4 1004 75 10000 0.89 194 17:39 04.12.2021
4404 Clouds 4 1005 73 9000 0.89 200 16:51 04.12.2021
4405 Clouds 5 1005 73 10000 1.54 270 16:30 04.12.2021
4406 Clouds 5 1005 73 10000 1.79 230 15:40 04.12.2021
4407 Clouds 5 1009 68 10000 2.68 219 11:51 04.12.2021
4408 Clouds 5 1009 67 10000 1.03 0 11:32 04.12.2021
4409 Clouds 4 1009 68 10000 0.45 205 10:53 04.12.2021
4410 Clear 2 1010 74 10000 0.51 0 08:48 04.12.2021
4411 Clear 1 1011 74 10000 1.03 340 06:28 04.12.2021
4412 Clear 2 1012 74 10000 0.51 0 04:42 04.12.2021
4413 Clear 3 1015 81 10000 0.51 0 00:24 04.12.2021
4414 Clear 3 1015 80 10000 1.03 0 23:26 03.12.2021
4415 Clear 3 1015 80 10000 1.03 0 23:26 03.12.2021
4416 Clear 3 1015 79 10000 0.51 0 22:46 03.12.2021
4417 Clear 3 1013 69 10000 0.51 0 21:26 03.12.2021
4418 Clear 4 1013 67 10000 0.89 149 20:52 03.12.2021
4419 Clear 4 1013 64 10000 0.51 0 19:50 03.12.2021
4420 Clear 6 1012 58 10000 1.79 202 18:34 03.12.2021
4421 Clear 6 1012 56 10000 1.79 184 17:59 03.12.2021
4422 Clear 10 1011 39 10000 2.24 189 15:36 03.12.2021
4423 Clear 10 1010 52 10000 2.24 225 12:54 03.12.2021
4424 Clear 9 1010 58 10000 2.68 190 11:49 03.12.2021
4425 Clear 8 1011 65 10000 1.79 291 10:55 03.12.2021
4426 Clouds 3 1011 92 10000 2.02 328 08:26 03.12.2021
4427 Clouds 3 1010 92 10000 2.02 328 07:42 03.12.2021
4428 Fog 3 1006 94 2000 1.03 30 04:26 03.12.2021
4429 Rain 4 1000 88 6000 1.54 160 00:48 03.12.2021
4430 Rain 4 1000 89 8000 1.54 180 23:47 02.12.2021
4431 Clear 4 1000 89 10000 1.03 0 21:57 02.12.2021
4432 Clear 5 998 86 10000 1.34 283 21:30 02.12.2021
4433 Clear 5 999 88 10000 0.51 0 20:40 02.12.2021
4434 Clear 5 999 88 10000 0.51 0 19:43 02.12.2021
4435 Clear 5 998 86 10000 1.54 190 18:33 02.12.2021
4436 Clear 6 996 80 10000 2.24 183 18:33 02.12.2021
4437 Clouds 9 996 70 10000 1.79 239 15:43 02.12.2021
4438 Clouds 9 996 70 10000 0.45 251 15:20 02.12.2021
4439 Clouds 9 996 69 10000 1.79 239 14:43 02.12.2021
4440 Clouds 9 997 71 8000 2.24 250 12:53 02.12.2021
4441 Clouds 8 997 72 8000 2.68 245 12:18 02.12.2021
4442 Clouds 6 1000 82 8000 2.06 260 10:36 02.12.2021
4443 Mist 5 1000 87 5000 2.68 255 08:55 02.12.2021
4444 Clouds 5 1000 84 6000 1.79 224 05:34 02.12.2021
4445 Clouds 5 1002 79 10000 0.45 181 00:53 02.12.2021
4446 Drizzle 6 1003 77 10000 0.89 127 23:28 01.12.2021
4447 Drizzle 6 1004 75 10000 0.89 108 22:24 01.12.2021
4448 Drizzle 6 1005 71 10000 0.45 70 20:53 01.12.2021
4449 Clouds 6 1005 70 10000 2.24 61 19:58 01.12.2021
4450 Clouds 6 1005 69 10000 2.24 54 19:28 01.12.2021
4451 Clouds 7 1006 66 10000 3.13 89 17:50 01.12.2021
4452 Clouds 7 1006 65 10000 0.45 53 16:50 01.12.2021
4453 Clouds 7 1007 64 10000 1.34 81 14:54 01.12.2021
4454 Clouds 7 1009 62 10000 1.79 59 13:46 01.12.2021
4455 Clouds 7 1009 60 10000 0.89 109 12:51 01.12.2021
4456 Clear 7 1011 60 10000 0.89 96 10:43 01.12.2021
4457 Clear 5 1011 68 10000 0.51 0 09:25 01.12.2021
4458 Clear 3 1011 68 10000 1.54 160 08:30 01.12.2021
4459 Clear 3 1011 68 10000 1.79 17 07:34 01.12.2021
4460 Clear 3 1011 64 10000 1.34 359 06:59 01.12.2021
4461 Clear 4 1011 62 10000 1.79 345 03:46 01.12.2021
4462 Clear 4 1013 55 10000 2.24 353 01:59 01.12.2021
4463 Clear 4 1014 53 10000 1.79 15 23:55 30.11.2021
4464 Clear 4 1013 53 10000 1.79 3 23:26 30.11.2021
4465 Clear 5 1014 49 10000 1.79 356 21:40 30.11.2021
4466 Clear 5 1014 46 10000 2.24 295 20:45 30.11.2021
4467 Clear 5 1014 43 10000 2.68 301 20:19 30.11.2021
4468 Clear 5 1014 41 10000 2.68 309 19:38 30.11.2021
4469 Clear 6 1014 40 10000 2.68 310 18:37 30.11.2021
4470 Clear 8 1014 31 10000 3.13 304 16:50 30.11.2021
4471 Clear 9 1014 29 10000 0.89 352 15:44 30.11.2021
4472 Clouds 10 1015 29 10000 0.45 19 14:20 30.11.2021
4473 Clear 9 1014 33 10000 1.34 351 13:27 30.11.2021
4474 Clear 9 1015 38 10000 0.45 13 12:46 30.11.2021
4475 Clear 8 1016 37 10000 0.45 256 11:50 30.11.2021
4476 Clear 7 1018 50 10000 3.6 270 11:23 30.11.2021
4477 Clear 5 1017 52 10000 1.34 249 10:33 30.11.2021
4478 Clear 2 1016 58 10000 1.79 242 08:53 30.11.2021
4479 Clear 1 1016 60 10000 1.79 231 08:26 30.11.2021
4480 Clear 1 1015 57 10000 2.68 239 07:47 30.11.2021
4481 Clear 4 1015 38 10000 2.57 170 02:41 30.11.2021
4482 Clear 5 1013 36 10000 2.06 300 01:42 30.11.2021
4483 Clear 5 1011 35 10000 4.02 319 00:33 30.11.2021
4484 Clear 5 1011 32 10000 0.45 354 23:24 29.11.2021
4485 Clear 5 1010 30 10000 1.34 338 22:56 29.11.2021
4486 Clear 5 1010 31 10000 0.45 349 22:33 29.11.2021
4487 Clear 6 1009 29 10000 4.02 333 21:30 29.11.2021
4488 Clear 6 1009 28 10000 0.45 349 20:59 29.11.2021
4489 Clear 6 1008 28 10000 2.68 342 20:32 29.11.2021
4490 Clear 7 1007 27 10000 0.89 354 19:56 29.11.2021
4491 Clear 7 1007 27 10000 0.89 354 19:36 29.11.2021
4492 Clear 7 1006 28 10000 1.34 331 18:51 29.11.2021
4493 Clouds 7 1006 28 10000 5.75 330 17:49 29.11.2021
4494 Clouds 8 1004 29 10000 4.92 329 17:18 29.11.2021
4495 Clouds 8 1004 29 10000 4.92 329 17:18 29.11.2021
4496 Clouds 8 1003 32 10000 3.19 331 16:29 29.11.2021
4497 Clouds 8 1003 32 10000 3.19 331 15:50 29.11.2021
4498 Clouds 9 1003 34 10000 1.63 327 14:43 29.11.2021
4499 Clouds 8 1002 36 10000 0.79 268 13:33 29.11.2021
4500 Clouds 6 1002 43 10000 0.75 252 12:28 29.11.2021
4501 Clouds 6 1002 43 10000 0.75 252 11:36 29.11.2021
4502 Clouds 6 1002 47 10000 0.21 6 10:41 29.11.2021
4503 Clouds 1 999 93 10000 0.51 0 09:34 29.11.2021
4504 Clear -1 996 93 10000 1.03 0 06:20 29.11.2021
4505 Clear 1 994 80 10000 0.51 0 01:43 29.11.2021
4506 Clouds 2 994 70 10000 2.06 270 00:40 29.11.2021
4507 Clouds 3 994 65 10000 2.57 310 23:44 28.11.2021
4508 Clear 1 993 93 10000 1.03 0 22:49 28.11.2021
4509 Clear 3 993 87 10000 1.03 0 21:47 28.11.2021
4510 Clear 2 993 93 10000 1.54 240 21:20 28.11.2021
4511 Clear 3 993 93 10000 2.06 280 20:23 28.11.2021
4512 Clouds 4 993 87 10000 0.51 0 18:46 28.11.2021
4513 Clouds 5 993 81 10000 1.54 90 18:27 28.11.2021
4514 Clouds 4 993 87 10000 0.51 0 17:54 28.11.2021
4515 Clouds 6 992 75 10000 2.57 70 17:31 28.11.2021
4516 Clouds 8 992 61 10000 1.54 330 16:28 28.11.2021
4517 Clouds 7 992 76 10000 3.6 360 15:58 28.11.2021
4518 Clouds 8 992 66 10000 5.14 340 15:24 28.11.2021
4519 Clouds 7 992 76 10000 5.14 20 14:43 28.11.2021
4520 Clouds 7 992 76 10000 2.57 360 12:58 28.11.2021
4521 Clouds 7 992 76 10000 2.57 320 12:29 28.11.2021
4522 Clouds 6 993 87 10000 2.06 250 10:53 28.11.2021
4523 Clouds 6 993 81 10000 0.51 0 10:20 28.11.2021
4524 Clouds 5 992 87 10000 1.03 0 09:36 28.11.2021
4525 Clouds 5 992 93 10000 3.09 10 06:29 28.11.2021
4526 Rain 7 992 93 5000 3.6 150 23:33 27.11.2021
4527 Rain 8 993 93 7000 3.09 120 20:44 27.11.2021
4528 Clouds 9 993 87 7000 1.54 100 18:57 27.11.2021
4529 Clouds 9 993 87 6000 1.03 0 16:52 27.11.2021
4530 Clouds 10 993 81 7000 0.51 0 15:55 27.11.2021
4531 Clouds 9 992 87 8000 1.54 70 13:47 27.11.2021
4532 Mist 8 993 87 5000 1.54 90 12:29 27.11.2021
4533 Mist 8 993 93 3000 1.03 0 10:32 27.11.2021
4534 Mist 7 992 100 2500 1.54 160 09:43 27.11.2021
4535 Fog 6 992 100 2000 1.03 210 08:40 27.11.2021
4536 Mist 6 991 100 5000 0.51 0 04:58 27.11.2021
4537 Clouds 7 991 87 10000 2.06 70 01:53 27.11.2021
4538 Clouds 8 992 87 10000 1.03 0 23:35 26.11.2021
4539 Clouds 8 993 87 10000 1.54 140 22:25 26.11.2021
4540 Clear 8 992 87 10000 1.54 140 21:35 26.11.2021
4541 Clear 7 992 87 10000 2.06 150 20:46 26.11.2021
4542 Clear 7 992 87 10000 2.06 140 20:18 26.11.2021
4543 Clear 7 993 93 10000 1.54 170 19:47 26.11.2021
4544 Clear 8 993 81 10000 1.03 260 17:57 26.11.2021
4545 Clear 9 993 81 10000 1.54 260 17:22 26.11.2021
4546 Clear 10 993 76 10000 1.54 260 15:56 26.11.2021
4547 Clear 9 993 78 10000 0.45 333 13:35 26.11.2021
4548 Clouds 8 994 83 10000 0.45 288 12:30 26.11.2021
4549 Mist 7 996 94 5000 3.13 251 10:38 26.11.2021
4550 Mist 6 997 95 4000 0.89 242 08:58 26.11.2021
4551 Mist 6 1000 96 3500 2.57 250 08:21 26.11.2021
4552 Mist 6 1000 96 5000 0.45 244 07:26 26.11.2021
4553 Mist 6 1001 96 3500 2.06 260 06:26 26.11.2021
4554 Mist 6 1003 96 3000 2.57 240 03:59 26.11.2021
4555 Mist 6 1004 97 2000 2.57 240 01:55 26.11.2021
4556 Mist 6 1007 96 3500 2.06 240 23:18 25.11.2021
4557 Mist 6 1008 95 5000 2.57 260 21:26 25.11.2021
4558 Clouds 6 1009 95 10000 2.2 257 20:27 25.11.2021
4559 Rain 6 1009 95 4000 2.06 260 18:47 25.11.2021
4560 Rain 6 1009 94 3000 2.06 260 17:47 25.11.2021
4561 Mist 6 1010 94 3000 2.06 250 17:25 25.11.2021
4562 Rain 6 1010 94 3000 0.89 24 16:33 25.11.2021
4563 Rain 6 1009 91 3000 1.79 220 14:59 25.11.2021
4564 Rain 6 1010 90 3500 1.34 244 13:37 25.11.2021
4565 Rain 7 1012 90 5000 0.45 292 12:25 25.11.2021
4566 Rain 7 1012 89 6000 1.79 302 11:49 25.11.2021
4567 Rain 7 1013 76 10000 1.79 181 09:26 25.11.2021
4568 Clouds 6 1013 79 10000 1.79 57 06:18 25.11.2021
4569 Clouds 6 1015 78 10000 0.45 77 02:49 25.11.2021
4570 Clear 6 1017 77 10000 1.03 0 22:57 24.11.2021
4571 Clear 6 1017 79 10000 0.51 0 22:24 24.11.2021
4572 Clear 6 1017 78 10000 1.54 20 21:32 24.11.2021
4573 Clear 7 1018 78 10000 0.89 81 20:50 24.11.2021
4574 Clear 7 1019 84 10000 1.03 30 20:19 24.11.2021
4575 Clear 8 1018 74 10000 1.54 150 18:30 24.11.2021
4576 Clear 9 1018 71 10000 0.45 136 17:53 24.11.2021
4577 Clear 12 1019 59 10000 1.79 148 15:23 24.11.2021
4578 Clear 12 1019 59 10000 1.34 126 14:47 24.11.2021
4579 Clear 12 1020 58 10000 0.89 130 14:19 24.11.2021
4580 Clear 11 1020 63 10000 2.24 135 12:28 24.11.2021
4581 Clear 10 1022 69 10000 0.45 107 11:20 24.11.2021
4582 Clear 10 1022 76 10000 0.89 166 10:47 24.11.2021
4583 Clear 9 1022 82 10000 1.03 0 10:21 24.11.2021
4584 Fog 5 1022 89 9000 0.45 82 07:52 24.11.2021
4585 Clear 5 1023 93 10000 1.03 360 06:54 24.11.2021
4586 Clouds 6 1024 91 10000 1.03 10 03:50 24.11.2021
4587 Clouds 7 1023 80 10000 0.51 200 00:32 24.11.2021
4588 Clouds 8 1023 78 10000 0.51 30 22:39 23.11.2021
4589 Clouds 8 1023 80 10000 0.51 0 21:54 23.11.2021
4590 Clouds 9 1023 79 10000 0.51 330 21:35 23.11.2021
4591 Clouds 9 1023 73 10000 1.03 300 19:37 23.11.2021
4592 Clouds 9 1023 72 10000 1.03 200 18:39 23.11.2021
4593 Clouds 10 1023 69 10000 1.54 190 17:57 23.11.2021
4594 Clouds 11 1022 63 10000 0.45 145 16:55 23.11.2021
4595 Clouds 12 1022 60 10000 1.79 146 15:59 23.11.2021
4596 Clouds 12 1023 62 10000 2.57 140 15:19 23.11.2021
4597 Clouds 12 1024 64 10000 1.54 60 13:46 23.11.2021
4598 Clouds 11 1023 60 10000 1.79 50 11:40 23.11.2021
4599 Clouds 10 1022 76 10000 2.57 40 09:59 23.11.2021
4600 Clouds 9 1021 82 10000 2.24 52 08:44 23.11.2021
4601 Clouds 9 1019 88 10000 2.24 66 05:57 23.11.2021
4602 Rain 10 1019 96 10000 2.57 60 03:42 23.11.2021
4603 Rain 9 1017 95 4100 0 0 00:28 23.11.2021
4604 Rain 9 1017 96 10000 0.51 0 23:20 22.11.2021
4605 Clouds 9 1016 96 10000 1.03 0 22:32 22.11.2021
4606 Clouds 9 1016 96 10000 1.54 250 21:46 22.11.2021
4607 Clouds 9 1016 96 10000 1.03 240 21:26 22.11.2021
4608 Clouds 9 1015 96 10000 1.03 240 20:50 22.11.2021
4609 Clouds 9 1015 95 10000 1.54 260 19:31 22.11.2021
4610 Clouds 9 1014 95 10000 1.03 0 18:58 22.11.2021
4611 Clouds 9 1014 94 10000 1.03 0 18:35 22.11.2021
4612 Clouds 10 1013 94 8000 1.03 200 16:56 22.11.2021
4613 Clouds 10 1012 92 8000 1.03 0 15:42 22.11.2021
4614 Rain 10 1013 93 3000 1.03 0 12:56 22.11.2021
4615 Rain 9 1013 95 3000 0.51 0 11:39 22.11.2021
4616 Rain 8 1013 96 3000 1.54 10 10:36 22.11.2021
4617 Rain 7 1012 95 2500 1.54 30 08:46 22.11.2021
4618 Rain 7 1012 96 3000 1.54 40 08:25 22.11.2021
4619 Rain 7 1011 96 6000 2.57 100 02:31 22.11.2021
4620 Rain 8 1009 97 2000 2.24 77 23:22 21.11.2021
4621 Rain 8 1008 95 1500 2.68 90 22:46 21.11.2021
4622 Mist 8 1008 94 3000 3.13 66 21:33 21.11.2021
4623 Mist 9 1008 93 3000 1.34 106 20:38 21.11.2021
4624 Mist 9 1009 94 3000 2.68 108 19:45 21.11.2021
4625 Clouds 9 1009 91 7000 2.24 89 17:59 21.11.2021
4626 Clouds 9 1009 90 7000 1.34 128 17:37 21.11.2021
4627 Clouds 9 1009 90 7000 3.13 82 17:37 21.11.2021
4628 Mist 11 1008 90 4000 1.54 180 15:22 21.11.2021
4629 Mist 10 1008 90 4000 1.03 0 14:43 21.11.2021
4630 Mist 11 1010 96 5000 1.34 223 13:31 21.11.2021
4631 Mist 10 1010 99 3000 0.45 237 12:27 21.11.2021
4632 Fog 10 1011 99 1800 1.79 230 11:39 21.11.2021
4633 Fog 8 1011 99 1500 0.45 238 10:20 21.11.2021
4634 Fog 8 1011 99 1500 0.89 296 09:47 21.11.2021
4635 Mist 6 1013 98 2500 1.54 240 08:34 21.11.2021
4636 Fog 6 1014 98 2500 0.45 288 07:54 21.11.2021
4637 Fog 5 1015 97 2500 1.03 0 07:33 21.11.2021
4638 Fog 6 1013 98 500 0.89 241 05:43 21.11.2021
4639 Fog 6 1014 97 500 0.89 266 04:35 21.11.2021
4640 Fog 7 1015 97 600 1.03 0 02:57 21.11.2021
4641 Fog 7 1015 97 600 0.45 291 02:33 21.11.2021
4642 Fog 7 1017 97 600 1.79 264 00:51 21.11.2021
4643 Fog 7 1017 97 800 1.03 0 22:55 20.11.2021
4644 Fog 8 1017 98 1500 0.89 225 21:34 20.11.2021
4645 Fog 8 1018 98 800 1.54 220 20:33 20.11.2021
4646 Fog 8 1018 99 700 1.34 271 18:45 20.11.2021
4647 Fog 8 1018 99 700 1.34 271 18:45 20.11.2021
4648 Fog 9 1018 99 1200 1.34 255 18:24 20.11.2021
4649 Mist 9 1018 96 3000 2.68 226 17:22 20.11.2021
4650 Clouds 11 1019 89 6000 0.89 245 15:40 20.11.2021
4651 Clouds 11 1023 93 6000 2.57 240 14:39 20.11.2021
4652 Clouds 11 1023 93 6000 2.57 240 14:39 20.11.2021
4653 Clouds 11 1023 93 6000 1.54 230 14:20 20.11.2021
4654 Clouds 9 1023 95 6000 1.79 263 11:56 20.11.2021
4655 Mist 8 1024 96 4000 0.45 232 09:59 20.11.2021
4656 Mist 7 1026 95 2000 2.06 230 08:48 20.11.2021
4657 Mist 7 1026 96 2500 1.54 220 06:57 20.11.2021
4658 Mist 8 1026 95 2500 1.54 230 05:21 20.11.2021
4659 Mist 8 1027 95 5000 1.54 220 04:50 20.11.2021
4660 Mist 9 1027 92 5000 2.06 250 00:45 20.11.2021
4661 Mist 9 1027 92 5000 2.24 235 00:26 20.11.2021
4662 Clouds 9 1027 91 7000 1.34 233 22:54 19.11.2021
4663 Clouds 9 1028 92 9000 1.54 240 21:36 19.11.2021
4664 Clouds 9 1027 91 9000 2.68 240 20:54 19.11.2021
4665 Clouds 9 1027 91 9000 2.68 241 20:35 19.11.2021
4666 Clouds 9 1027 91 9000 2.68 231 19:49 19.11.2021
4667 Clouds 10 1027 90 9000 2.68 242 18:50 19.11.2021
4668 Clouds 10 1028 91 9000 2.57 230 18:18 19.11.2021
4669 Clouds 11 1027 87 7000 2.68 235 16:47 19.11.2021
4670 Clouds 12 1027 87 7000 3.58 236 15:31 19.11.2021
4671 Mist 11 1027 91 5000 1.34 252 12:53 19.11.2021
4672 Mist 10 1029 95 2500 2.24 240 10:26 19.11.2021
4673 Mist 10 1029 96 2500 1.54 250 08:39 19.11.2021
4674 Mist 10 1029 95 3000 1.54 240 07:33 19.11.2021
4675 Mist 10 1028 96 2500 2.57 260 04:24 19.11.2021
4676 Mist 10 1029 94 4000 2.06 260 01:24 19.11.2021
4677 Clouds 10 1029 94 6000 1.54 270 23:44 18.11.2021
4678 Clouds 11 1028 93 6000 1.03 0 21:41 18.11.2021
4679 Clouds 11 1028 93 7000 1.03 250 20:47 18.11.2021
4680 Clouds 11 1028 93 7000 0.45 202 20:29 18.11.2021
4681 Clouds 11 1028 92 7000 0.45 148 19:43 18.11.2021
4682 Clouds 11 1027 90 7000 1.34 169 18:40 18.11.2021
4683 Clouds 11 1026 89 7000 1.79 189 17:58 18.11.2021
4684 Clouds 12 1026 86 7000 1.79 202 17:36 18.11.2021
4685 Clear 13 1025 83 10000 1.79 209 16:43 18.11.2021
4686 Clouds 15 1025 76 8000 2.24 236 15:24 18.11.2021
4687 Clouds 15 1024 75 8000 3.13 231 13:25 18.11.2021
4688 Clouds 14 1024 82 7000 1.34 236 11:45 18.11.2021
4689 Mist 13 1025 85 3000 2.24 233 11:26 18.11.2021
4690 Fog 12 1025 90 500 0.45 240 10:56 18.11.2021
4691 Fog 10 1025 96 200 1.54 210 09:32 18.11.2021
4692 Fog 8 1024 97 200 2.06 260 07:34 18.11.2021
4693 Fog 8 1023 96 1500 1.03 0 05:47 18.11.2021
4694 Mist 9 1022 95 2500 0.51 220 02:46 18.11.2021
4695 Mist 9 1022 94 3500 1.03 260 01:22 18.11.2021
4696 Clouds 10 1021 93 7000 1.03 210 22:41 17.11.2021
4697 Clouds 10 1021 93 7000 1.03 280 22:20 17.11.2021
4698 Clouds 10 1021 93 7000 1.03 280 22:20 17.11.2021
4699 Clouds 11 1021 93 8000 1.54 280 21:36 17.11.2021
4700 Clouds 11 1020 92 8000 2.06 260 20:18 17.11.2021
4701 Mist 11 1019 90 5000 1.54 230 17:48 17.11.2021
4702 Mist 12 1018 86 4500 2.06 250 17:23 17.11.2021
4703 Mist 12 1018 87 4500 0.45 244 17:23 17.11.2021
4704 Clouds 12 1018 84 6000 1.34 240 14:18 17.11.2021
4705 Mist 11 1019 87 5000 2.06 270 12:39 17.11.2021
4706 Mist 11 1020 94 3500 1.03 0 11:41 17.11.2021
4707 Mist 10 1020 94 3000 1.54 360 10:28 17.11.2021
4708 Mist 10 1019 96 2500 1.03 360 09:23 17.11.2021
4709 Drizzle 9 1018 95 4000 0.51 0 07:42 17.11.2021
4710 Mist 9 1018 95 1700 1.03 190 03:35 17.11.2021
4711 Mist 9 1019 94 1600 1.03 0 00:47 17.11.2021
4712 Rain 9 1020 94 3500 0.51 0 22:44 16.11.2021
4713 Rain 10 1019 87 9000 2.68 175 20:20 16.11.2021
4714 Rain 10 1018 87 9000 1.03 190 19:59 16.11.2021
4715 Drizzle 10 1019 82 9000 1.34 146 18:53 16.11.2021
4716 Drizzle 11 1019 81 8000 2.24 152 18:30 16.11.2021
4717 Drizzle 11 1018 81 7000 2.68 177 17:34 16.11.2021
4718 Rain 12 1019 71 7000 0.45 140 16:32 16.11.2021
4719 Clouds 12 1019 74 7000 3.09 120 15:49 16.11.2021
4720 Clouds 13 1021 73 7000 3.09 120 14:31 16.11.2021
4721 Clouds 13 1020 69 9000 1.79 114 11:28 16.11.2021
4722 Clouds 11 1020 86 8000 1.03 0 09:46 16.11.2021
4723 Fog 9 1020 96 6000 0.51 0 08:26 16.11.2021
4724 Fog 9 1021 96 7000 0.51 0 07:31 16.11.2021
4725 Fog 10 1021 94 6000 1.03 0 01:38 16.11.2021
4726 Clouds 11 1021 94 10000 1.03 0 22:52 15.11.2021
4727 Clouds 11 1021 94 10000 2.06 360 22:21 15.11.2021
4728 Rain 11 1021 94 10000 2.06 10 21:52 15.11.2021
4729 Clouds 11 1021 95 10000 1.03 0 21:26 15.11.2021
4730 Clouds 11 1021 95 10000 1.03 0 19:41 15.11.2021
4731 Rain 11 1021 94 10000 2.06 30 18:18 15.11.2021
4732 Clouds 12 1020 93 10000 1.03 0 16:19 15.11.2021
4733 Clouds 12 1019 90 10000 1.34 36 15:40 15.11.2021
4734 Clouds 12 1019 90 8000 2.06 40 15:20 15.11.2021
4735 Rain 11 1020 94 5000 2.06 40 12:47 15.11.2021
4736 Rain 11 1019 94 8000 1.54 320 10:54 15.11.2021
4737 Rain 10 1019 95 8000 2.06 350 09:26 15.11.2021
4738 Rain 10 1019 95 10000 1.54 20 07:45 15.11.2021
4739 Rain 10 1017 92 10000 0.89 42 04:45 15.11.2021
4740 Rain 10 1018 95 10000 2.57 40 22:47 14.11.2021
4741 Rain 10 1018 95 10000 2.06 50 22:28 14.11.2021
4742 Clouds 10 1017 94 10000 0.45 333 19:51 14.11.2021
4743 Rain 10 1017 94 10000 2.68 358 19:18 14.11.2021
4744 Rain 10 1017 94 10000 0.89 337 18:54 14.11.2021
4745 Clouds 10 1016 94 10000 0.45 21 18:36 14.11.2021
4746 Rain 10 1016 95 8000 1.34 34 18:18 14.11.2021
4747 Rain 10 1016 95 7000 2.68 39 17:54 14.11.2021
4748 Rain 10 1016 95 5000 0.89 15 17:36 14.11.2021
4749 Rain 10 1016 95 5000 2.68 37 17:18 14.11.2021
4750 Rain 10 1015 95 5000 1.79 7 16:43 14.11.2021
4751 Rain 10 1015 95 6000 1.34 349 16:19 14.11.2021
4752 Rain 10 1015 95 5000 2.06 20 15:21 14.11.2021
4753 Rain 10 1015 95 9000 1.34 354 14:45 14.11.2021
4754 Drizzle 10 1015 94 6000 1.34 23 14:22 14.11.2021
4755 Mist 10 1015 94 3500 0.45 5 13:52 14.11.2021
4756 Mist 10 1014 95 5000 3.6 40 13:28 14.11.2021
4757 Rain 10 1014 96 3000 3.09 50 12:23 14.11.2021
4758 Drizzle 11 1014 96 5000 2.57 50 11:28 14.11.2021
4759 Mist 11 1014 96 5000 2.06 50 10:39 14.11.2021
4760 Drizzle 10 1014 96 7000 3.6 30 09:41 14.11.2021
4761 Rain 10 1013 96 7000 3.09 30 08:51 14.11.2021
4762 Mist 11 1013 97 5000 2.06 60 04:47 14.11.2021
4763 Rain 11 1014 96 3000 2.57 40 23:20 13.11.2021
4764 Mist 11 1014 96 2000 3.09 110 22:20 13.11.2021
4765 Rain 11 1015 95 2000 1.79 46 21:35 13.11.2021
4766 Rain 11 1015 95 3000 1.79 46 20:46 13.11.2021
4767 Rain 11 1015 94 3000 1.79 86 19:32 13.11.2021
4768 Mist 12 1014 92 4000 1.79 65 18:32 13.11.2021
4769 Mist 12 1014 91 3000 1.34 106 17:41 13.11.2021
4770 Mist 13 1014 86 4000 2.24 174 15:55 13.11.2021
4771 Mist 14 1015 83 4000 1.34 181 14:45 13.11.2021
4772 Mist 14 1015 84 4000 0.89 86 13:47 13.11.2021
4773 Clouds 14 1016 81 10000 0.45 171 12:43 13.11.2021
4774 Clouds 13 1016 85 10000 0.45 176 11:48 13.11.2021
4775 Mist 13 1016 89 2000 0.89 242 11:21 13.11.2021
4776 Fog 11 1016 93 600 0.89 231 10:33 13.11.2021
4777 Fog 11 1017 96 450 1.79 264 09:47 13.11.2021
4778 Fog 10 1017 96 450 1.03 0 09:22 13.11.2021
4779 Fog 9 1017 97 800 1.03 0 08:48 13.11.2021
4780 Fog 9 1018 96 1200 0.51 0 07:51 13.11.2021
4781 Fog 9 1018 96 650 1.03 0 04:43 13.11.2021
4782 Fog 9 1018 96 650 1.03 0 04:20 13.11.2021
4783 Fog 9 1019 95 200 1.03 0 23:35 12.11.2021
4784 Fog 9 1019 95 800 0.51 0 21:56 12.11.2021
4785 Fog 10 1019 93 1600 1.54 260 20:47 12.11.2021
4786 Mist 11 1018 90 5000 1.79 230 19:32 12.11.2021
4787 Mist 11 1018 90 5000 1.54 240 18:57 12.11.2021
4788 Mist 11 1018 90 5000 1.54 240 18:57 12.11.2021
4789 Mist 12 1018 88 4500 0.89 235 18:19 12.11.2021
4790 Clear 16 1017 66 10000 0.89 179 15:55 12.11.2021
4791 Clear 17 1017 64 10000 2.57 120 13:27 12.11.2021
4792 Clear 15 1019 76 10000 2.68 174 11:24 12.11.2021
4793 Clouds 12 1019 91 6000 1.54 30 10:20 12.11.2021
4794 Clouds 12 1019 91 6000 1.54 30 10:20 12.11.2021
4795 Fog 9 1019 95 3000 1.03 0 08:55 12.11.2021
4796 Fog 8 1018 97 100 0.51 0 06:37 12.11.2021
4797 Clouds 10 1020 96 10000 1.03 300 00:21 12.11.2021
4798 Clouds 10 1021 95 10000 1.03 320 23:27 11.11.2021
4799 Clear 10 1021 95 10000 0.51 0 22:21 11.11.2021
4800 Clouds 11 1021 93 10000 1.54 260 21:26 11.11.2021
4801 Clouds 12 1022 91 10000 1.03 0 19:56 11.11.2021
4802 Clouds 12 1021 88 8000 1.34 258 18:27 11.11.2021
4803 Clouds 12 1021 88 8000 1.79 173 18:27 11.11.2021
4804 Clouds 13 1021 86 7000 1.79 240 17:41 11.11.2021
4805 Clouds 15 1021 81 7000 2.68 189 15:29 11.11.2021
4806 Clouds 15 1021 76 7000 2.68 234 14:39 11.11.2021
4807 Clouds 15 1021 76 7000 2.68 229 14:20 11.11.2021
4808 Clouds 14 1022 80 6000 1.34 229 13:35 11.11.2021
4809 Clouds 14 1023 83 6000 0.45 12 12:26 11.11.2021
4810 Clouds 12 1024 89 7000 1.79 216 09:55 11.11.2021
4811 Clouds 12 1024 90 6000 3.13 190 09:22 11.11.2021
4812 Clouds 11 1025 93 7000 0.51 0 06:55 11.11.2021
4813 Clouds 11 1025 88 10000 1.03 170 00:38 11.11.2021
4814 Clouds 11 1025 87 10000 0.89 1 22:42 10.11.2021
4815 Clouds 11 1026 87 10000 1.54 270 21:53 10.11.2021
4816 Clouds 11 1025 86 10000 1.54 270 20:55 10.11.2021
4817 Clouds 12 1025 84 10000 1.34 218 19:55 10.11.2021
4818 Clouds 12 1025 84 10000 0.89 228 19:35 10.11.2021
4819 Clouds 12 1024 75 10000 1.54 230 17:19 10.11.2021
4820 Clouds 14 1024 71 10000 0.89 286 15:46 10.11.2021
4821 Clouds 13 1024 69 10000 3.13 305 14:24 10.11.2021
4822 Clouds 13 1026 70 10000 1.79 233 13:31 10.11.2021
4823 Clouds 13 1027 73 10000 1.34 236 11:40 10.11.2021
4824 Clouds 10 1028 84 10000 2.68 297 09:18 10.11.2021
4825 Clouds 10 1028 86 10000 0.45 15 08:40 10.11.2021
4826 Clouds 10 1028 89 10000 1.34 263 06:44 10.11.2021
4827 Clouds 10 1027 88 10000 0.89 279 05:57 10.11.2021
4828 Clouds 10 1028 80 10000 1.03 360 01:44 10.11.2021
4829 Clouds 10 1028 76 10000 1.79 58 21:59 09.11.2021
4830 Clouds 10 1027 74 10000 1.54 340 20:34 09.11.2021
4831 Clouds 11 1027 73 10000 1.79 6 19:28 09.11.2021
4832 Clouds 11 1027 71 10000 0.89 345 18:47 09.11.2021
4833 Clouds 12 1027 65 10000 1.79 309 16:29 09.11.2021
4834 Clouds 12 1026 63 10000 1.34 316 15:20 09.11.2021
4835 Clouds 12 1026 65 10000 2.68 129 13:31 09.11.2021
4836 Clouds 12 1025 68 10000 1.34 131 12:24 09.11.2021
4837 Clouds 11 1026 75 10000 1.79 111 10:53 09.11.2021
4838 Clear 9 1024 84 10000 2.24 108 09:43 09.11.2021
4839 Fog 7 1024 89 10000 1.03 40 08:42 09.11.2021
4840 Fog 6 1022 90 1500 1.03 30 06:51 09.11.2021
4841 Clouds 8 1021 88 10000 0.51 0 02:32 09.11.2021
4842 Clouds 8 1021 88 10000 1.54 330 01:50 09.11.2021
4843 Clouds 9 1020 86 10000 0.45 7 00:22 09.11.2021
4844 Clouds 9 1020 87 10000 2.24 24 23:28 08.11.2021
4845 Clouds 8 1020 88 10000 2.24 5 22:35 08.11.2021
4846 Clouds 8 1020 89 10000 0.45 1 21:22 08.11.2021
4847 Clouds 8 1020 92 10000 0.51 290 20:31 08.11.2021
4848 Clouds 9 1019 93 10000 0.51 360 19:18 08.11.2021
4849 Clouds 9 1019 92 7000 1.54 340 17:35 08.11.2021
4850 Clouds 10 1018 90 8000 1.79 341 15:38 08.11.2021
4851 Clouds 10 1018 88 8000 2.06 30 14:55 08.11.2021
4852 Clouds 10 1018 87 8000 1.34 55 13:59 08.11.2021
4853 Clouds 10 1018 86 7000 2.06 60 12:48 08.11.2021
4854 Clouds 10 1017 82 10000 0.89 92 11:37 08.11.2021
4855 Clouds 10 1016 82 10000 2.68 70 10:35 08.11.2021
4856 Clouds 8 1014 80 10000 1.34 75 08:56 08.11.2021
4857 Clouds 7 1014 84 10000 2.24 102 07:47 08.11.2021
4858 Clouds 6 1013 87 10000 1.54 200 06:54 08.11.2021
4859 Clear 6 1013 86 10000 2.24 162 03:35 08.11.2021
4860 Clear 7 1016 80 10000 1.03 0 23:51 07.11.2021
4861 Clouds 7 1016 78 10000 1.03 0 22:30 07.11.2021
4862 Clouds 7 1015 77 10000 2.24 292 21:22 07.11.2021
4863 Clear 8 1016 72 10000 0.45 285 19:55 07.11.2021
4864 Clear 10 1016 67 10000 1.79 257 18:26 07.11.2021
4865 Clear 11 1016 65 10000 0.45 197 17:38 07.11.2021
4866 Clear 14 1017 46 10000 0.89 285 15:55 07.11.2021
4867 Clear 14 1017 46 10000 1.34 328 14:42 07.11.2021
4868 Clear 14 1018 47 10000 1.79 260 13:55 07.11.2021
4869 Clear 13 1020 49 10000 0.45 187 11:53 07.11.2021
4870 Clear 9 1021 62 10000 0.89 264 10:19 07.11.2021
4871 Clear 6 1022 79 10000 2.57 190 08:48 07.11.2021
4872 Clear 5 1023 78 10000 1.03 340 02:46 07.11.2021
4873 Clear 6 1024 83 10000 0.51 0 23:42 06.11.2021
4874 Clear 6 1024 77 10000 1.54 330 22:52 06.11.2021
4875 Clear 7 1024 75 10000 1.79 22 21:36 06.11.2021
4876 Clear 8 1024 70 10000 1.54 10 20:52 06.11.2021
4877 Clear 9 1024 66 10000 0.45 221 19:36 06.11.2021
4878 Clear 12 1024 52 10000 0.89 226 17:18 06.11.2021
4879 Clear 14 1024 43 10000 0.89 315 15:31 06.11.2021
4880 Clear 14 1025 43 10000 0.45 190 13:39 06.11.2021
4881 Clear 13 1025 44 10000 1.34 170 12:29 06.11.2021
4882 Clear 8 1027 67 10000 0.51 0 09:39 06.11.2021
4883 Clear 5 1026 74 10000 2.24 18 07:57 06.11.2021
4884 Clear 6 1024 83 10000 0.45 214 03:20 06.11.2021
4885 Clear 7 1023 78 10000 0.45 211 23:38 05.11.2021
4886 Clear 7 1023 79 10000 0.45 0 22:50 05.11.2021
4887 Clear 8 1022 77 10000 1.34 45 21:54 05.11.2021
4888 Clear 8 1021 74 10000 0.89 330 20:20 05.11.2021
4889 Clear 9 1021 72 10000 0.45 282 19:48 05.11.2021
4890 Clear 10 1020 67 10000 1.34 217 18:41 05.11.2021
4891 Clear 12 1020 61 10000 0.89 243 17:30 05.11.2021
4892 Clear 14 1019 49 10000 0.89 80 15:48 05.11.2021
4893 Clear 14 1019 53 10000 1.34 216 13:55 05.11.2021
4894 Clear 12 1018 63 10000 0.45 230 11:31 05.11.2021
4895 Fog 6 1017 81 10000 0.51 0 08:41 05.11.2021
4896 Fog 5 1016 84 900 1.34 309 07:39 05.11.2021
4897 Fog 5 1016 84 10000 0.45 320 07:39 05.11.2021
4898 Clouds 5 1015 83 7000 1.34 193 05:33 05.11.2021
4899 Clear 6 1015 83 10000 1.34 185 05:33 05.11.2021
4900 Clear 6 1014 87 10000 1.03 350 02:26 05.11.2021
4901 Clouds 7 1014 89 10000 1.03 20 00:52 05.11.2021
4902 Clear 8 1012 84 10000 0.45 21 23:24 04.11.2021
4903 Clear 8 1012 79 10000 0.89 37 22:19 04.11.2021
4904 Clear 8 1012 77 10000 1.03 0 21:38 04.11.2021
4905 Clear 9 1010 76 10000 1.03 0 20:50 04.11.2021
4906 Clear 9 1010 74 10000 1.03 0 20:22 04.11.2021
4907 Clear 9 1010 76 10000 0.51 250 19:47 04.11.2021
4908 Clouds 11 1009 75 10000 1.79 203 18:44 04.11.2021
4909 Clouds 11 1008 72 10000 1.79 207 18:18 04.11.2021
4910 Clouds 14 1008 58 10000 2.24 188 16:47 04.11.2021
4911 Clear 15 1006 58 10000 2.68 219 14:42 04.11.2021
4912 Clouds 13 1005 67 10000 0.45 348 12:32 04.11.2021
4913 Clear 10 1002 83 10000 0.45 17 09:37 04.11.2021
4914 Clouds 8 1003 93 10000 0.89 231 08:31 04.11.2021
4915 Clouds 7 1002 93 10000 1.03 0 07:34 04.11.2021
4916 Rain 8 997 96 7000 0.89 267 02:37 04.11.2021
4917 Rain 10 997 96 5000 0.89 252 22:50 03.11.2021
4918 Rain 10 998 97 5000 1.54 230 21:49 03.11.2021
4919 Mist 10 998 97 5000 0.89 213 21:30 03.11.2021
4920 Rain 11 998 97 10000 0.89 76 20:35 03.11.2021
4921 Clouds 11 998 97 10000 0.45 80 19:58 03.11.2021
4922 Clouds 11 998 96 10000 0.45 82 18:57 03.11.2021
4923 Rain 11 998 96 10000 1.34 43 18:23 03.11.2021
4924 Rain 11 998 96 7000 1.34 38 17:36 03.11.2021
4925 Mist 11 999 95 5000 0.45 49 16:26 03.11.2021
4926 Clouds 11 999 95 6000 1.54 110 15:43 03.11.2021
4927 Mist 11 1000 96 2500 0.45 23 13:55 03.11.2021
4928 Rain 11 1003 94 5000 1.79 41 11:54 03.11.2021
4929 Rain 11 1002 93 5000 0.45 172 11:25 03.11.2021
4930 Rain 11 1003 94 6000 0.89 53 10:41 03.11.2021
4931 Rain 10 1004 94 5000 2.68 55 09:30 03.11.2021
4932 Mist 10 1003 92 5000 1.34 54 08:22 03.11.2021
4933 Clouds 10 1004 91 7000 1.34 54 07:39 03.11.2021
4934 Clear 11 1003 81 10000 3.58 99 04:45 03.11.2021
4935 Clear 10 1004 85 10000 2.68 90 02:28 03.11.2021
4936 Clear 11 1004 86 10000 2.24 71 23:47 02.11.2021
4937 Clear 11 1005 92 10000 0.89 24 22:35 02.11.2021
4938 Clear 10 1005 93 10000 0.89 24 21:25 02.11.2021
4939 Clear 10 1005 93 10000 0.89 22 20:32 02.11.2021
4940 Clear 10 1004 94 10000 0.45 44 19:47 02.11.2021
4941 Clear 10 1004 92 10000 0.45 53 18:51 02.11.2021
4942 Clear 11 1002 86 10000 2.06 130 17:58 02.11.2021
4943 Clear 12 1002 85 10000 0.45 79 17:32 02.11.2021
4944 Clear 13 1000 79 10000 1.79 61 16:29 02.11.2021
4945 Clouds 14 999 77 10000 2.24 197 15:26 02.11.2021
4946 Clouds 16 1000 74 10000 0.45 55 14:18 02.11.2021
4947 Clear 16 1000 64 10000 1.34 69 13:27 02.11.2021
4948 Clear 15 1001 68 10000 0.89 73 12:33 02.11.2021
4949 Clear 14 999 75 10000 2.68 170 11:31 02.11.2021
4950 Clear 13 998 80 10000 2.68 175 10:51 02.11.2021
4951 Clear 12 998 82 10000 0.45 171 10:23 02.11.2021
4952 Fog 9 999 95 50 1.03 0 08:42 02.11.2021
4953 Fog 7 997 98 800 1.34 352 06:42 02.11.2021
4954 Fog 7 1001 98 100 1.54 260 03:33 02.11.2021
4955 Mist 8 1000 97 3700 0.45 227 00:58 02.11.2021
4956 Clear 9 1001 95 10000 1.79 231 22:28 01.11.2021
4957 Clouds 10 1001 94 10000 3.13 283 20:50 01.11.2021
4958 Clouds 10 1001 95 10000 3.13 264 20:32 01.11.2021
4959 Clouds 11 1002 95 10000 2.68 304 19:44 01.11.2021
4960 Clouds 11 1001 95 8000 0.89 265 18:55 01.11.2021
4961 Mist 11 1002 96 3000 0.45 304 17:59 01.11.2021
4962 Rain 11 1002 96 2500 1.34 310 17:18 01.11.2021
4963 Rain 11 1003 96 3000 0.89 304 16:33 01.11.2021
4964 Rain 10 1003 96 3000 1.34 257 15:40 01.11.2021
4965 Rain 11 1003 96 3000 1.03 0 15:19 01.11.2021
4966 Rain 11 1004 96 2500 0.45 328 14:39 01.11.2021
4967 Rain 11 1004 96 2500 1.79 331 14:19 01.11.2021
4968 Rain 11 1005 96 2500 3.58 326 14:19 01.11.2021
4969 Mist 11 1005 96 2500 3.58 326 14:19 01.11.2021
4970 Rain 11 1006 95 2500 1.34 30 12:50 01.11.2021
4971 Rain 11 1007 95 2500 1.34 59 11:39 01.11.2021
4972 Rain 11 1008 96 1800 2.57 110 10:20 01.11.2021
4973 Mist 11 1009 96 2000 1.03 0 08:20 01.11.2021
4974 Mist 11 1009 96 2000 1.54 90 07:46 01.11.2021
4975 Mist 11 1012 96 5000 0.51 0 03:55 01.11.2021
4976 Clouds 11 1014 95 6000 0.51 0 01:44 01.11.2021
4977 Mist 11 1015 94 5000 0.51 210 23:30 31.10.2021
4978 Clouds 11 1015 95 6000 1.54 260 20:58 31.10.2021
4979 Clouds 11 1015 95 6000 1.54 260 20:58 31.10.2021
4980 Clouds 11 1016 94 7000 1.03 0 19:49 31.10.2021
4981 Clouds 11 1016 94 10000 1.03 200 18:43 31.10.2021
4982 Clouds 11 1016 93 10000 1.03 200 18:20 31.10.2021
4983 Rain 12 1016 89 10000 0.89 281 16:41 31.10.2021
4984 Mist 12 1015 85 5000 2.68 244 14:45 31.10.2021
4985 Mist 12 1017 87 4500 1.34 250 12:55 31.10.2021
4986 Mist 12 1017 86 4000 1.34 302 11:42 31.10.2021
4987 Mist 12 1018 88 3500 0.45 227 10:48 31.10.2021
4988 Mist 11 1018 90 3500 0.45 266 09:26 31.10.2021
4989 Mist 11 1019 94 3000 0.45 221 08:44 31.10.2021
4990 Rain 10 1020 95 4000 1.03 0 02:26 31.10.2021
4991 Mist 11 1021 94 3000 1.03 0 23:54 30.10.2021
4992 Mist 11 1020 93 4000 1.54 220 22:20 30.10.2021
4993 Mist 11 1020 93 3500 1.03 0 21:27 30.10.2021
4994 Mist 11 1020 92 3000 0.89 261 19:42 30.10.2021
4995 Rain 12 1019 88 3500 1.79 258 17:49 30.10.2021
4996 Rain 12 1018 74 4000 0.45 304 15:41 30.10.2021
4997 Mist 13 1018 70 5000 0.89 40 13:59 30.10.2021
4998 Mist 13 1018 70 5000 0.51 0 13:59 30.10.2021
4999 Mist 13 1018 71 5000 0.89 75 13:38 30.10.2021
5000 Mist 13 1018 71 5000 0.89 36 13:20 30.10.2021
5001 Mist 13 1018 71 5000 1.34 124 11:49 30.10.2021
5002 Mist 12 1018 73 5000 1.79 104 10:56 30.10.2021
5003 Clouds 10 1017 82 8000 0.51 0 08:57 30.10.2021
5004 Clouds 10 1017 81 10000 0.51 0 07:56 30.10.2021
5005 Clouds 10 1017 80 10000 1.03 0 05:46 30.10.2021
5006 Clouds 11 1016 78 10000 0.51 0 02:59 30.10.2021
5007 Clouds 11 1017 77 10000 1.03 20 23:21 29.10.2021
5008 Clear 11 1018 84 10000 1.03 10 22:34 29.10.2021
5009 Clear 12 1018 74 10000 1.03 0 20:59 29.10.2021
5010 Clouds 12 1017 71 9000 0.45 59 20:32 29.10.2021
5011 Clouds 13 1017 68 9000 1.34 138 19:18 29.10.2021
5012 Clouds 16 1016 58 9000 0.89 110 17:28 29.10.2021
5013 Clear 17 1016 55 10000 2.24 200 15:26 29.10.2021
5014 Clear 15 1018 66 10000 0.45 187 12:30 29.10.2021
5015 Clouds 12 1016 76 10000 0.45 235 10:46 29.10.2021
5016 Clouds 9 1017 86 6000 0.51 0 09:27 29.10.2021
5017 Mist 9 1020 82 4000 0.51 0 00:55 29.10.2021
5018 Clouds 10 1020 81 6000 1.03 350 23:47 28.10.2021
5019 Clouds 11 1020 75 8000 1.54 360 22:21 28.10.2021
5020 Clear 11 1020 72 10000 0.51 0 20:57 28.10.2021
5021 Clear 12 1021 77 10000 0.51 0 19:52 28.10.2021
5022 Clear 15 1020 60 10000 0.51 0 18:36 28.10.2021
5023 Clear 16 1020 55 10000 0.45 126 17:27 28.10.2021
5024 Clear 18 1020 51 10000 0.89 196 16:37 28.10.2021
5025 Clouds 17 1020 52 10000 1.79 228 14:40 28.10.2021
5026 Clouds 16 1021 55 10000 1.34 150 13:32 28.10.2021
5027 Clouds 16 1022 58 10000 1.79 175 12:49 28.10.2021
5028 Clouds 13 1022 68 10000 0.45 236 11:26 28.10.2021
5029 Clouds 10 1022 83 8000 0.51 0 09:55 28.10.2021
5030 Fog 9 1022 84 4700 1.03 160 09:35 28.10.2021
5031 Fog 8 1023 87 2000 0.51 0 08:36 28.10.2021
5032 Fog 7 1023 87 550 0 0 07:40 28.10.2021
5033 Clear 10 1024 77 10000 1.03 20 00:41 28.10.2021
5034 Clear 11 1024 75 10000 1.54 360 22:45 27.10.2021
5035 Clear 12 1024 69 10000 1.34 36 21:35 27.10.2021
5036 Clear 12 1025 74 10000 1.03 10 20:58 27.10.2021
5037 Clear 12 1024 66 10000 0.89 77 20:39 27.10.2021
5038 Clear 13 1024 62 10000 1.34 111 19:44 27.10.2021
5039 Clear 15 1024 57 10000 1.79 126 18:55 27.10.2021
5040 Clear 19 1024 44 10000 1.34 96 16:49 27.10.2021
5041 Clear 19 1024 44 10000 1.79 70 16:24 27.10.2021
5042 Clear 19 1024 47 10000 1.54 30 15:24 27.10.2021
5043 Clear 18 1025 53 10000 1.34 249 13:42 27.10.2021
5044 Clear 13 1025 69 10000 2.24 168 10:59 27.10.2021
5045 Clear 12 1025 73 10000 1.79 167 10:36 27.10.2021
5046 Fog 8 1024 82 6000 0.89 310 08:58 27.10.2021
5047 Mist 7 1025 85 2400 1.03 0 07:38 27.10.2021
5048 Fog 8 1025 85 200 0.89 333 05:37 27.10.2021
5049 Mist 9 1025 81 4400 0.45 337 01:18 27.10.2021
5050 Mist 9 1024 78 4300 0.89 337 00:39 27.10.2021
5051 Clear 10 1024 74 7000 0.89 64 23:52 26.10.2021
5052 Clear 10 1024 73 10000 1.79 15 22:43 26.10.2021
5053 Clear 10 1023 71 10000 1.79 23 22:20 26.10.2021
5054 Clear 12 1023 64 10000 0.89 94 20:59 26.10.2021
5055 Clear 13 1022 58 10000 1.34 122 19:33 26.10.2021
5056 Clear 13 1021 58 10000 0.45 168 18:53 26.10.2021
5057 Clear 16 1020 50 10000 1.34 190 17:36 26.10.2021
5058 Clear 16 1018 48 10000 2.68 218 15:40 26.10.2021
5059 Clear 13 1020 68 10000 0.89 167 11:50 26.10.2021
5060 Clouds 11 1022 79 8000 0.51 0 10:46 26.10.2021
5061 Fog 7 1021 87 6000 1.79 314 08:24 26.10.2021
5062 Fog 7 1021 85 5000 0.51 260 07:21 26.10.2021
5063 Clear 9 1022 77 10000 0.51 0 23:53 25.10.2021
5064 Clear 9 1022 75 10000 0.51 290 23:20 25.10.2021
5065 Clear 10 1022 72 10000 0.45 52 22:21 25.10.2021
5066 Clear 10 1022 70 10000 0.45 52 21:40 25.10.2021
5067 Clear 11 1023 69 10000 1.54 70 20:19 25.10.2021
5068 Clear 12 1022 61 10000 1.54 80 19:42 25.10.2021
5069 Clear 12 1021 60 10000 1.54 50 19:20 25.10.2021
5070 Clear 13 1021 57 10000 1.79 85 18:22 25.10.2021
5071 Clouds 15 1022 50 10000 1.34 89 16:27 25.10.2021
5072 Clouds 14 1022 52 8000 1.79 114 14:45 25.10.2021
5073 Rain 12 1024 61 9000 1.34 109 12:31 25.10.2021
5074 Rain 11 1024 72 8000 2.24 102 10:25 25.10.2021
5075 Clouds 10 1024 78 10000 1.79 90 08:37 25.10.2021
5076 Clouds 10 1024 82 10000 0.51 0 06:26 25.10.2021
5077 Clouds 10 1025 76 10000 0.51 50 02:42 25.10.2021
5078 Clouds 11 1026 74 10000 1.03 360 00:47 25.10.2021
5079 Clouds 11 1026 75 10000 0.51 0 23:47 24.10.2021
5080 Clear 11 1026 73 10000 1.54 360 22:56 24.10.2021
5081 Clear 12 1026 72 10000 1.79 20 22:36 24.10.2021
5082 Clear 12 1025 71 10000 1.34 14 22:18 24.10.2021
5083 Clear 13 1026 62 10000 1.34 82 20:45 24.10.2021
5084 Clear 13 1026 61 10000 1.79 76 20:27 24.10.2021
5085 Clear 14 1025 58 10000 2.24 109 18:53 24.10.2021
5086 Clear 16 1025 56 10000 0.89 71 17:58 24.10.2021
5087 Clear 16 1026 56 10000 3.13 128 17:18 24.10.2021
5088 Clear 17 1026 51 10000 0.89 85 15:47 24.10.2021
5089 Clouds 16 1028 51 10000 2.24 75 13:52 24.10.2021
5090 Clouds 14 1028 56 10000 1.34 74 12:41 24.10.2021
5091 Clouds 14 1028 61 10000 1.79 108 11:41 24.10.2021
5092 Clouds 13 1028 65 10000 1.34 88 10:45 24.10.2021
5093 Clouds 12 1028 73 10000 1.34 76 09:38 24.10.2021
5094 Clouds 12 1027 84 10000 1.79 98 05:35 24.10.2021
5095 Fog 11 1027 94 350 1.03 340 00:44 24.10.2021
5096 Mist 11 1026 94 1900 1.03 360 23:32 23.10.2021
5097 Fog 12 1025 93 300 0.51 0 21:50 23.10.2021
5098 Clouds 14 1024 84 6000 1.54 210 19:47 23.10.2021
5099 Mist 15 1023 78 4000 1.79 207 18:48 23.10.2021
5100 Clouds 16 1023 76 6000 1.79 193 18:21 23.10.2021
5101 Clouds 17 1023 71 6000 0.89 200 17:42 23.10.2021
5102 Clouds 18 1022 69 6000 3.58 176 16:20 23.10.2021
5103 Clouds 17 1023 74 10000 2.24 127 13:57 23.10.2021
5104 Mist 11 1019 94 4500 0.51 0 03:32 23.10.2021
5105 Fog 12 1018 91 8000 1.54 360 23:42 22.10.2021
5106 Fog 13 1017 84 3900 0.51 0 22:28 22.10.2021
5107 Clear 15 1016 78 10000 0.89 136 19:49 22.10.2021
5108 Clear 17 1014 69 10000 0.89 157 18:40 22.10.2021
5109 Clear 19 1014 61 10000 1.54 170 17:25 22.10.2021
5110 Clouds 19 1013 62 10000 2.24 245 14:58 22.10.2021
5111 Clear 18 1014 70 10000 1.79 205 12:54 22.10.2021
5112 Fog 14 1014 91 2000 0.45 345 10:58 22.10.2021
5113 Fog 14 1015 93 2000 1.54 20 10:36 22.10.2021
5114 Fog 11 1015 96 400 0.51 0 09:36 22.10.2021
5115 Fog 10 1015 96 250 0.51 0 07:46 22.10.2021
5116 Fog 11 1015 96 250 0.51 0 07:21 22.10.2021
5117 Fog 12 1014 95 1200 1.03 0 02:37 22.10.2021
5118 Fog 12 1014 95 1200 1.03 0 02:37 22.10.2021
5119 Clouds 13 1014 95 8000 0.51 0 23:51 21.10.2021
5120 Fog 13 1013 94 8000 0.51 0 22:44 21.10.2021
5121 Clouds 13 1013 95 10000 0.51 0 21:38 21.10.2021
5122 Clouds 14 1013 93 10000 1.03 290 20:24 21.10.2021
5123 Clouds 14 1013 92 10000 1.03 220 19:55 21.10.2021
5124 Clouds 15 1013 92 9000 1.54 210 19:25 21.10.2021
5125 Clouds 16 1012 88 8000 0.51 0 18:34 21.10.2021
5126 Clouds 16 1012 87 8000 0.89 199 17:53 21.10.2021
5127 Clouds 16 1012 85 8000 1.34 212 16:50 21.10.2021
5128 Clouds 16 1012 87 10000 0.51 0 15:33 21.10.2021
5129 Clouds 16 1011 87 10000 1.54 180 14:56 21.10.2021
5130 Clouds 16 1011 88 10000 1.54 180 14:37 21.10.2021
5131 Clouds 16 1011 88 10000 1.54 180 14:37 21.10.2021
5132 Clouds 14 1014 95 8000 1.03 0 11:56 21.10.2021
5133 Clouds 14 1014 95 7000 2.06 40 09:42 21.10.2021
5134 Mist 13 1014 95 5000 0.45 0 07:54 21.10.2021
5135 Mist 13 1015 94 5000 0.45 0 06:45 21.10.2021
5136 Mist 14 1019 90 4000 1.03 40 00:39 21.10.2021
5137 Mist 15 1021 90 5000 0.51 0 22:29 20.10.2021
5138 Mist 15 1021 89 5000 0.51 0 21:48 20.10.2021
5139 Mist 15 1021 85 5000 0.51 0 20:58 20.10.2021
5140 Mist 15 1021 82 5000 1.34 314 20:39 20.10.2021
5141 Clouds 15 1020 83 7000 0.51 0 20:18 20.10.2021
5142 Mist 16 1021 80 4000 0.51 360 19:23 20.10.2021
5143 Mist 16 1021 81 3000 1.03 0 18:29 20.10.2021
5144 Mist 17 1022 75 5000 0.89 257 16:37 20.10.2021
5145 Clouds 17 1023 68 8000 1.34 155 13:54 20.10.2021
5146 Clouds 13 1026 90 7000 1.03 0 09:54 20.10.2021
5147 Fog 10 1026 91 400 0.51 360 05:34 20.10.2021
5148 Mist 11 1027 90 1600 1.03 360 02:35 20.10.2021
5149 Mist 12 1026 83 2000 1.03 20 00:33 20.10.2021
5150 Mist 13 1027 78 4000 0 0 22:37 19.10.2021
5151 Mist 13 1026 77 4000 0.51 0 21:37 19.10.2021
5152 Mist 14 1026 71 5000 0.51 210 20:26 19.10.2021
5153 Mist 15 1026 69 5000 1.34 248 19:58 19.10.2021
5154 Mist 15 1026 67 5000 0.51 0 19:34 19.10.2021
5155 Clouds 17 1026 62 6000 1.03 0 18:33 19.10.2021
5156 Clouds 18 1026 57 6000 1.34 226 17:24 19.10.2021
5157 Mist 18 1026 59 5000 2.24 268 15:28 19.10.2021
5158 Clouds 18 1027 60 6000 2.24 263 14:37 19.10.2021
5159 Clouds 18 1027 62 6000 2.68 294 13:50 19.10.2021
5160 Mist 16 1028 69 5000 1.79 218 12:20 19.10.2021
5161 Clouds 15 1028 76 6000 0.89 225 11:23 19.10.2021
5162 Mist 12 1028 86 4000 0.51 0 09:43 19.10.2021
5163 Fog 11 1028 87 4000 1.03 180 08:56 19.10.2021
5164 Clouds 12 1027 84 7000 1.03 350 00:39 19.10.2021
5165 Clouds 12 1027 82 7000 1.03 360 23:57 18.10.2021
5166 Clouds 12 1027 82 7000 1.54 10 23:36 18.10.2021
5167 Clouds 12 1027 82 7000 2.06 350 22:55 18.10.2021
5168 Clouds 13 1026 73 7000 1.03 0 22:18 18.10.2021
5169 Clear 14 1025 75 10000 0.51 0 20:46 18.10.2021
5170 Clear 14 1025 66 10000 1.34 110 20:21 18.10.2021
5171 Clear 15 1024 63 10000 1.54 140 19:31 18.10.2021
5172 Clear 16 1023 61 10000 0.89 99 18:58 18.10.2021
5173 Clear 16 1023 61 10000 1.79 140 18:58 18.10.2021
5174 Clear 19 1023 48 10000 0.89 114 16:33 18.10.2021
5175 Clear 19 1022 50 10000 0.89 157 14:42 18.10.2021
5176 Clouds 15 1023 66 8000 0.45 134 11:54 18.10.2021
5177 Fog 11 1022 81 5000 0.89 178 09:48 18.10.2021
5178 Fog 9 1022 83 10000 0 0 07:46 18.10.2021
5179 Clear 11 1021 76 9000 1.79 19 00:29 18.10.2021
5180 Clear 12 1021 78 10000 0.51 0 22:30 17.10.2021
5181 Clear 12 1022 79 10000 0.51 340 21:44 17.10.2021
5182 Clear 13 1020 68 10000 0.51 0 20:56 17.10.2021
5183 Clear 14 1020 61 10000 1.03 0 19:59 17.10.2021
5184 Clear 14 1019 60 10000 1.79 167 19:38 17.10.2021
5185 Clear 17 1018 53 10000 1.79 187 18:28 17.10.2021
5186 Clear 19 1019 44 10000 2.24 256 16:40 17.10.2021
5187 Clear 18 1019 48 10000 0.45 204 14:40 17.10.2021
5188 Clear 18 1019 49 10000 0.89 138 14:20 17.10.2021
5189 Clear 18 1019 51 10000 1.34 65 13:33 17.10.2021
5190 Clear 15 1020 63 9000 0.45 143 11:31 17.10.2021
5191 Clear 12 1020 80 7000 1.34 174 10:19 17.10.2021
5192 Fog 8 1020 87 200 0.51 0 08:29 17.10.2021
5193 Clear 10 1019 79 10000 0.51 0 02:57 17.10.2021
5194 Clear 11 1019 76 10000 1.03 340 00:30 17.10.2021
5195 Clear 12 1019 74 10000 1.03 360 22:54 16.10.2021
5196 Clear 13 1018 68 10000 0.51 0 20:45 16.10.2021
5197 Clear 14 1018 65 10000 0.51 0 20:26 16.10.2021
5198 Clear 14 1017 61 10000 0.51 0 19:40 16.10.2021
5199 Clear 15 1018 58 10000 1.54 60 19:19 16.10.2021
5200 Clear 15 1018 58 10000 1.54 60 19:19 16.10.2021
5201 Clear 16 1017 57 10000 0.89 69 18:44 16.10.2021
5202 Clear 17 1017 55 10000 0.45 69 18:23 16.10.2021
5203 Clear 18 1017 49 10000 2.24 91 17:33 16.10.2021
5204 Clear 19 1017 49 10000 2.68 163 16:20 16.10.2021
5205 Clouds 17 1017 56 8000 1.79 158 13:26 16.10.2021
5206 Clouds 14 1018 68 7000 1.79 148 11:24 16.10.2021
5207 Mist 9 1016 86 4000 0.51 0 08:58 16.10.2021
5208 Mist 9 1017 83 1900 0.51 0 04:26 16.10.2021
5209 Clouds 10 1017 78 8000 1.03 330 00:51 16.10.2021
5210 Clear 11 1017 74 10000 0 0 23:26 15.10.2021
5211 Clear 12 1016 70 10000 0 0 22:21 15.10.2021
5212 Clear 12 1016 69 10000 1.79 175 21:40 15.10.2021
5213 Clear 12 1016 67 10000 1.79 159 20:54 15.10.2021
5214 Clear 13 1016 64 10000 0.89 230 20:25 15.10.2021
5215 Clear 14 1015 61 10000 1.79 248 19:20 15.10.2021
5216 Clear 16 1015 54 10000 1.79 259 18:21 15.10.2021
5217 Clear 17 1016 49 10000 2.68 239 15:46 15.10.2021
5218 Clear 16 1017 51 10000 0.89 264 14:18 15.10.2021
5219 Clear 15 1018 58 10000 1.79 192 12:25 15.10.2021
5220 Clear 13 1020 66 10000 1.79 110 11:18 15.10.2021
5221 Clear 11 1020 77 10000 1.34 182 10:28 15.10.2021
5222 Clear 7 1020 85 10000 1.03 20 07:35 15.10.2021
5223 Clear 8 1021 82 10000 0.51 0 04:46 15.10.2021
5224 Clear 10 1023 79 10000 1.03 50 00:22 15.10.2021
5225 Clear 10 1023 78 10000 1.03 340 23:25 14.10.2021
5226 Clear 11 1023 67 10000 0.51 0 22:20 14.10.2021
5227 Clear 11 1022 65 10000 0.45 65 21:37 14.10.2021
5228 Clear 12 1022 60 10000 0.89 128 20:20 14.10.2021
5229 Clear 13 1022 58 10000 1.34 131 19:46 14.10.2021
5230 Clear 16 1022 52 10000 0.89 150 18:26 14.10.2021
5231 Clear 17 1022 46 10000 1.79 59 16:58 14.10.2021
5232 Clouds 17 1022 45 10000 0.45 65 16:31 14.10.2021
5233 Clouds 16 1023 47 10000 2.68 128 14:44 14.10.2021
5234 Clouds 16 1023 47 10000 0.45 34 14:26 14.10.2021
5235 Clear 15 1023 54 10000 1.79 162 12:35 14.10.2021
5236 Clear 14 1024 60 10000 2.24 152 11:26 14.10.2021
5237 Clouds 9 1023 76 10000 1.34 68 07:45 14.10.2021
5238 Clouds 10 1022 76 10000 3.13 68 04:23 14.10.2021
5239 Clear 12 1021 71 10000 2.24 58 00:34 14.10.2021
5240 Clear 12 1021 69 10000 1.79 52 22:39 13.10.2021
5241 Clear 13 1020 64 10000 1.34 77 21:36 13.10.2021
5242 Clouds 14 1019 59 10000 1.79 70 20:41 13.10.2021
5243 Clear 15 1017 59 10000 1.79 69 19:20 13.10.2021
5244 Clear 17 1017 54 10000 2.68 97 18:37 13.10.2021
5245 Clear 19 1016 48 10000 0.89 104 15:54 13.10.2021
5246 Clear 18 1016 54 8000 1.79 98 14:46 13.10.2021
5247 Clear 18 1015 56 8000 3.58 116 14:23 13.10.2021
5248 Clear 17 1015 62 8000 0.45 83 12:24 13.10.2021
5249 Clear 15 1014 69 8000 2.24 212 11:35 13.10.2021
5250 Mist 10 1015 88 3000 3.13 160 09:26 13.10.2021
5251 Fog 9 1014 87 10000 2.68 312 07:48 13.10.2021
5252 Clear 10 1015 83 10000 1.03 0 02:51 13.10.2021
5253 Clear 11 1015 82 10000 0.45 0 02:19 13.10.2021
5254 Clouds 13 1014 73 10000 3.58 54 23:33 12.10.2021
5255 Clouds 13 1014 71 10000 2.68 66 22:48 12.10.2021
5256 Clouds 14 1014 70 10000 0.89 70 22:23 12.10.2021
5257 Clouds 14 1013 69 10000 3.13 63 20:50 12.10.2021
5258 Clouds 14 1014 68 10000 2.68 58 20:24 12.10.2021
5259 Clear 16 1013 62 10000 1.79 67 18:58 12.10.2021
5260 Clear 17 1013 58 10000 3.58 92 18:23 12.10.2021
5261 Clear 18 1013 50 10000 1.79 78 16:47 12.10.2021
5262 Clear 18 1013 50 10000 0.89 90 16:19 12.10.2021
5263 Clear 18 1014 52 10000 0.89 115 14:51 12.10.2021
5264 Clear 17 1014 53 10000 0.89 164 13:45 12.10.2021
5265 Clear 16 1015 57 10000 0.89 142 12:40 12.10.2021
5266 Clouds 13 1016 71 10000 1.79 126 10:38 12.10.2021
5267 Clouds 10 1016 83 10000 1.34 162 08:49 12.10.2021
5268 Clouds 10 1016 87 10000 1.03 10 07:59 12.10.2021
5269 Clouds 10 1017 88 10000 0.51 0 06:42 12.10.2021
5270 Clouds 10 1017 80 10000 0.51 340 04:35 12.10.2021
5271 Clouds 11 1018 77 10000 1.79 25 01:30 12.10.2021
5272 Clouds 12 1019 80 10000 1.03 360 23:41 11.10.2021
5273 Clear 12 1018 72 10000 1.79 22 22:59 11.10.2021
5274 Clear 12 1018 70 10000 0.51 0 22:29 11.10.2021
5275 Clear 13 1019 73 10000 0.51 0 21:18 11.10.2021
5276 Clear 15 1018 60 10000 0.89 52 19:46 11.10.2021
5277 Clear 17 1017 51 10000 0.89 187 18:44 11.10.2021
5278 Clear 19 1017 45 10000 1.34 194 17:59 11.10.2021
5279 Clear 19 1017 44 10000 0.89 147 16:39 11.10.2021
5280 Clear 19 1018 45 10000 1.34 191 15:51 11.10.2021
5281 Clear 19 1018 47 10000 1.34 195 15:23 11.10.2021
5282 Clear 18 1017 48 10000 2.68 230 14:42 11.10.2021
5283 Clear 17 1018 52 10000 3.58 185 13:38 11.10.2021
5284 Clear 15 1019 58 10000 1.34 192 11:52 11.10.2021
5285 Clear 13 1020 68 10000 1.03 0 10:43 11.10.2021
5286 Clear 11 1019 79 10000 0.51 0 09:44 11.10.2021
5287 Mist 8 1019 89 2300 0.51 0 07:29 11.10.2021
5288 Clear 9 1020 82 10000 0.45 78 01:41 11.10.2021
5289 Clear 10 1020 79 10000 1.03 350 00:50 11.10.2021
5290 Clear 10 1020 78 10000 1.03 0 00:28 11.10.2021
5291 Clear 12 1019 63 10000 1.79 139 21:57 10.10.2021
5292 Clear 12 1019 62 10000 1.79 136 21:32 10.10.2021
5293 Clear 13 1019 59 10000 1.34 119 20:48 10.10.2021
5294 Clear 13 1018 60 10000 2.24 132 20:21 10.10.2021
5295 Clear 14 1018 60 10000 1.79 144 19:59 10.10.2021
5296 Clear 14 1018 58 10000 1.79 142 19:36 10.10.2021
5297 Clear 16 1018 51 10000 2.24 146 18:36 10.10.2021
5298 Clear 17 1018 45 10000 1.34 127 16:57 10.10.2021
5299 Clear 18 1019 45 10000 2.24 219 15:47 10.10.2021
5300 Clear 17 1020 46 10000 0.45 127 14:42 10.10.2021
5301 Clear 17 1020 46 10000 1.79 300 13:34 10.10.2021
5302 Clear 16 1021 50 10000 1.79 198 12:35 10.10.2021
5303 Clouds 14 1022 56 10000 0.89 114 10:44 10.10.2021
5304 Clouds 12 1021 66 10000 0.45 93 09:30 10.10.2021
5305 Clouds 12 1021 70 10000 2.68 86 08:53 10.10.2021
5306 Clouds 12 1021 69 10000 0.45 18 07:28 10.10.2021
5307 Clouds 13 1023 58 10000 3.58 144 02:45 10.10.2021
5308 Clouds 14 1023 57 10000 2.24 153 00:57 10.10.2021
5309 Clouds 14 1023 61 10000 1.34 141 00:23 10.10.2021
5310 Clouds 14 1023 67 10000 2.68 203 22:52 09.10.2021
5311 Clouds 14 1023 65 10000 1.34 23 21:45 09.10.2021
5312 Clouds 14 1023 63 10000 1.34 27 21:26 09.10.2021
5313 Clouds 15 1022 59 10000 0.89 50 19:44 09.10.2021
5314 Clear 16 1022 54 10000 1.79 104 18:59 09.10.2021
5315 Clouds 17 1022 51 10000 2.68 151 18:32 09.10.2021
5316 Clouds 18 1022 45 10000 0.89 175 16:37 09.10.2021
5317 Clouds 17 1022 46 10000 1.34 65 15:32 09.10.2021
5318 Clouds 17 1023 48 10000 1.34 111 13:43 09.10.2021
5319 Clouds 16 1023 53 10000 0.45 204 12:40 09.10.2021
5320 Clouds 16 1024 57 10000 2.68 88 11:47 09.10.2021
5321 Clouds 15 1023 60 10000 2.68 82 10:42 09.10.2021
5322 Clouds 15 1023 63 10000 4.47 79 09:36 09.10.2021
5323 Clouds 14 1022 65 10000 2.68 126 08:29 09.10.2021
5324 Clouds 14 1022 67 10000 1.79 64 07:47 09.10.2021
5325 Clouds 14 1022 72 10000 1.34 73 05:28 09.10.2021
5326 Clouds 15 1022 72 10000 2.24 124 02:57 09.10.2021
5327 Clouds 15 1022 73 10000 1.34 154 02:38 09.10.2021
5328 Clouds 15 1022 71 10000 0.51 0 23:37 08.10.2021
5329 Clouds 15 1022 70 10000 1.34 145 22:53 08.10.2021
5330 Clouds 15 1021 69 10000 1.79 166 22:22 08.10.2021
5331 Clear 16 1021 66 10000 1.34 81 20:53 08.10.2021
5332 Clear 18 1020 58 10000 0.89 149 18:53 08.10.2021
5333 Clear 20 1019 47 10000 0.89 187 17:28 08.10.2021
5334 Clear 20 1019 45 10000 2.24 158 16:50 08.10.2021
5335 Clear 21 1020 45 10000 0.89 160 16:22 08.10.2021
5336 Clouds 19 1020 51 10000 2.68 147 13:56 08.10.2021
5337 Clouds 17 1020 62 10000 0.51 0 12:48 08.10.2021
5338 Clouds 16 1020 68 10000 0.45 277 11:31 08.10.2021
5339 Clouds 15 1019 71 10000 1.34 5 10:35 08.10.2021
5340 Clouds 13 1020 86 10000 2.06 50 07:34 08.10.2021
5341 Clouds 15 1019 83 10000 1.03 290 23:33 07.10.2021
5342 Clouds 15 1019 80 10000 1.03 0 22:58 07.10.2021
5343 Clouds 16 1018 68 10000 1.79 112 21:33 07.10.2021
5344 Clouds 16 1017 66 10000 1.03 0 20:56 07.10.2021
5345 Clouds 18 1016 55 10000 1.34 120 19:40 07.10.2021
5346 Clouds 18 1016 53 10000 2.68 124 19:22 07.10.2021
5347 Clouds 21 1015 36 10000 2.24 191 17:38 07.10.2021
5348 Clouds 21 1015 38 10000 2.24 163 16:42 07.10.2021
5349 Clouds 20 1015 42 10000 2.68 181 15:23 07.10.2021
5350 Clouds 19 1015 49 10000 3.13 186 13:45 07.10.2021
5351 Clouds 19 1015 53 10000 2.68 211 13:20 07.10.2021
5352 Clouds 18 1016 60 10000 2.68 174 12:36 07.10.2021
5353 Clouds 15 1016 78 10000 1.79 185 10:48 07.10.2021
5354 Clouds 13 1015 86 10000 0.45 130 10:19 07.10.2021
5355 Clouds 11 1015 86 10000 0.51 0 08:56 07.10.2021
5356 Clouds 10 1015 87 10000 0.45 15 08:25 07.10.2021
5357 Clouds 10 1015 86 10000 0.45 15 07:40 07.10.2021
5358 Clear 10 1015 85 10000 0.45 14 06:48 07.10.2021
5359 Clouds 11 1015 79 10000 1.54 100 02:22 07.10.2021
5360 Clouds 13 1015 76 10000 0.45 205 23:36 06.10.2021
5361 Clouds 14 1015 75 10000 1.79 201 22:41 06.10.2021
5362 Clouds 13 1015 77 10000 0.45 174 21:45 06.10.2021
5363 Clouds 14 1014 73 10000 1.54 130 20:34 06.10.2021
5364 Clouds 15 1015 72 10000 0.89 52 19:28 06.10.2021
5365 Clouds 15 1013 69 10000 2.06 170 18:20 06.10.2021
5366 Rain 16 1013 67 10000 3.09 120 16:44 06.10.2021
5367 Clouds 15 1013 63 10000 5.66 360 15:24 06.10.2021
5368 Clouds 16 1013 77 10000 3.09 30 13:31 06.10.2021
5369 Clouds 15 1013 82 10000 3.09 60 12:53 06.10.2021
5370 Clouds 15 1013 88 10000 1.54 80 12:29 06.10.2021
5371 Clouds 15 1014 91 10000 3.09 100 11:39 06.10.2021
5372 Clouds 15 1012 94 10000 3.09 90 09:45 06.10.2021
5373 Clouds 15 1011 93 3000 2.24 68 09:26 06.10.2021
5374 Thunderstorm 15 1012 94 1500 4.12 20 08:39 06.10.2021
5375 Clouds 15 1012 95 10000 0.51 0 06:19 06.10.2021
5376 Clouds 15 1012 94 10000 0.51 0 04:24 06.10.2021
5377 Clouds 15 1012 94 10000 0.51 0 04:24 06.10.2021
5378 Clouds 15 1013 94 10000 2.06 80 00:24 06.10.2021
5379 Clouds 15 1013 94 10000 1.03 0 23:51 05.10.2021
5380 Clouds 15 1013 93 10000 1.03 0 23:51 05.10.2021
5381 Clouds 15 1013 93 10000 1.03 0 23:51 05.10.2021
5382 Clouds 15 1013 94 10000 1.54 40 23:31 05.10.2021
5383 Clouds 16 1012 93 10000 2.57 20 22:36 05.10.2021
5384 Clouds 15 1012 93 10000 2.06 10 21:57 05.10.2021
5385 Clouds 16 1012 93 10000 2.06 10 21:57 05.10.2021
5386 Clouds 15 1012 93 10000 2.57 350 21:29 05.10.2021
5387 Clouds 16 1012 94 10000 2.06 20 20:33 05.10.2021
5388 Clouds 16 1012 92 10000 2.57 80 19:51 05.10.2021
5389 Clouds 16 1012 92 10000 1.54 330 19:25 05.10.2021
5390 Clouds 16 1012 91 10000 0.45 272 18:21 05.10.2021
5391 Rain 16 1011 85 7000 2.24 30 15:36 05.10.2021
5392 Clouds 18 1012 79 7000 1.79 111 13:55 05.10.2021
5393 Rain 18 1012 76 10000 2.24 126 13:26 05.10.2021
5394 Rain 19 1011 69 10000 0.45 46 12:35 05.10.2021
5395 Rain 19 1012 69 10000 3.13 79 11:41 05.10.2021
5396 Clouds 19 1011 74 10000 4.02 106 10:38 05.10.2021
5397 Mist 17 1011 95 4000 0.89 36 08:36 05.10.2021
5398 Clouds 18 1012 95 10000 0.45 204 01:47 05.10.2021
5399 Thunderstorm 17 1013 95 8000 1.34 37 22:56 04.10.2021
5400 Rain 17 1013 95 10000 0.89 34 21:38 04.10.2021
5401 Rain 17 1014 94 6000 0.89 27 18:52 04.10.2021
5402 Rain 18 1014 91 6000 2.68 62 17:32 04.10.2021
5403 Rain 18 1015 92 4000 3.58 62 15:50 04.10.2021
5404 Rain 18 1016 94 3000 4.02 71 15:24 04.10.2021
5405 Clouds 18 1017 95 3000 1.03 0 14:34 04.10.2021
5406 Rain 18 1017 95 5000 2.57 350 13:32 04.10.2021
5407 Rain 18 1018 94 5000 0.89 235 12:50 04.10.2021
5408 Mist 18 1017 94 5000 3.09 80 11:34 04.10.2021
5409 Rain 18 1017 94 5000 3.6 120 10:47 04.10.2021
5410 Rain 18 1017 92 5000 0.45 51 09:44 04.10.2021
5411 Rain 18 1016 91 8000 1.34 42 07:53 04.10.2021
5412 Rain 18 1016 92 10000 1.34 42 06:50 04.10.2021
5413 Clouds 18 1016 87 10000 1.54 130 22:51 03.10.2021
5414 Clouds 18 1016 90 10000 1.03 0 21:56 03.10.2021
5415 Clouds 18 1016 86 10000 1.03 0 21:31 03.10.2021
5416 Clouds 18 1016 88 10000 1.54 60 20:45 03.10.2021
5417 Clouds 18 1015 82 10000 1.79 60 19:46 03.10.2021
5418 Clouds 18 1014 82 10000 1.34 50 18:29 03.10.2021
5419 Clouds 19 1015 80 8000 3.58 48 17:37 03.10.2021
5420 Drizzle 19 1015 90 3500 2.24 71 15:29 03.10.2021
5421 Drizzle 18 1016 88 4000 2.68 107 14:30 03.10.2021
5422 Clouds 18 1017 86 10000 4.47 111 13:35 03.10.2021
5423 Clouds 18 1017 86 10000 3.13 94 12:45 03.10.2021
5424 Clouds 17 1017 86 10000 4.02 99 11:19 03.10.2021
5425 Clouds 17 1017 91 10000 1.34 43 09:57 03.10.2021
5426 Rain 17 1017 88 10000 1.79 46 05:25 03.10.2021
5427 Clouds 18 1017 69 10000 3.58 79 22:52 02.10.2021
5428 Clear 18 1017 66 10000 1.34 66 21:50 02.10.2021
5429 Clear 19 1017 62 10000 2.24 91 20:30 02.10.2021
5430 Clear 20 1017 55 10000 1.79 59 18:56 02.10.2021
5431 Clear 21 1017 53 10000 1.79 110 18:20 02.10.2021
5432 Clear 22 1017 51 10000 1.34 119 17:37 02.10.2021
5433 Clear 22 1016 48 10000 1.34 115 16:28 02.10.2021
5434 Clouds 16 1018 77 10000 1.79 47 06:47 02.10.2021
5435 Clear 23 1024 57 10000 2.57 50 15:37 30.09.2021
5436 Clear 22 1023 56 10000 0.45 139 13:54 30.09.2021
5437 Clouds 21 1024 64 10000 2.24 111 11:53 30.09.2021
5438 Clouds 19 1023 70 10000 3.13 95 10:52 30.09.2021
5439 Clouds 19 1023 73 10000 0.45 169 10:22 30.09.2021
5440 Clear 17 1022 81 6000 2.68 104 08:31 30.09.2021
5441 Clear 16 1021 80 10000 3.58 83 07:35 30.09.2021
5442 Clear 16 1020 78 10000 1.79 17 05:23 30.09.2021
5443 Clear 17 1018 81 10000 1.03 340 01:41 30.09.2021
5444 Clear 18 1018 77 10000 1.03 0 00:29 30.09.2021
5445 Clear 19 1017 74 10000 2.24 300 22:38 29.09.2021
5446 Clear 20 1017 68 10000 1.34 253 21:27 29.09.2021
5447 Clear 21 1017 65 10000 1.79 301 20:28 29.09.2021
5448 Clear 22 1016 62 10000 1.34 274 19:54 29.09.2021
5449 Clouds 24 1016 55 10000 2.24 237 18:52 29.09.2021
5450 Clear 25 1016 50 10000 1.79 291 17:52 29.09.2021
5451 Clear 26 1016 47 10000 1.79 228 16:51 29.09.2021
5452 Clear 26 1016 46 10000 2.24 293 15:58 29.09.2021
5453 Clear 25 1016 47 10000 1.34 348 14:39 29.09.2021
5454 Clouds 25 1016 46 10000 0.45 346 13:58 29.09.2021
5455 Clear 24 1017 51 10000 1.34 203 13:22 29.09.2021
5456 Clear 23 1018 55 10000 1.34 236 12:35 29.09.2021
5457 Clear 21 1018 68 10000 0.45 315 10:50 29.09.2021
5458 Clouds 19 1017 73 10000 1.03 0 09:53 29.09.2021
5459 Clear 19 1017 72 10000 1.34 323 09:34 29.09.2021
5460 Clouds 18 1017 76 10000 2.68 16 07:33 29.09.2021
5461 Clouds 19 1016 81 10000 1.34 62 04:19 29.09.2021
5462 Clouds 19 1018 87 10000 2.06 50 23:27 28.09.2021
5463 Clear 20 1018 79 10000 0.51 0 22:23 28.09.2021
5464 Clear 20 1019 85 10000 0.51 0 21:44 28.09.2021
5465 Clouds 21 1018 74 10000 0.51 0 20:38 28.09.2021
5466 Clouds 22 1017 70 10000 0.89 181 19:46 28.09.2021
5467 Clouds 24 1017 64 10000 1.79 148 18:46 28.09.2021
5468 Clear 24 1017 60 10000 3.13 163 17:59 28.09.2021
5469 Clear 25 1018 58 10000 1.79 128 15:56 28.09.2021
5470 Clouds 24 1018 62 8000 0.89 309 13:49 28.09.2021
5471 Clouds 23 1019 68 8000 0.89 255 12:48 28.09.2021
5472 Clear 23 1019 69 10000 2.24 261 12:19 28.09.2021
5473 Clouds 22 1019 71 8000 2.24 288 11:45 28.09.2021
5474 Clouds 21 1019 76 7000 0.89 164 10:57 28.09.2021
5475 Clouds 18 1020 90 7000 1.03 0 09:53 28.09.2021
5476 Clouds 16 1020 95 6000 0.51 0 08:58 28.09.2021
5477 Fog 16 1020 95 4000 1.03 220 08:37 28.09.2021
5478 Fog 15 1020 95 350 0.51 0 07:31 28.09.2021
5479 Fog 16 1019 96 600 0.51 10 05:28 28.09.2021
5480 Fog 17 1019 93 1000 0.51 360 01:23 28.09.2021
5481 Fog 17 1019 91 1600 0.51 0 00:25 28.09.2021
5482 Fog 18 1018 87 9000 0.51 0 23:32 27.09.2021
5483 Clear 18 1018 91 10000 0.51 200 22:55 27.09.2021
5484 Clear 18 1017 87 10000 0.89 176 21:44 27.09.2021
5485 Clouds 19 1017 83 10000 0.45 203 20:44 27.09.2021
5486 Clouds 20 1017 78 10000 1.34 185 19:53 27.09.2021
5487 Clouds 21 1016 75 10000 1.54 210 19:27 27.09.2021
5488 Clouds 22 1016 72 10000 0.45 245 18:48 27.09.2021
5489 Clouds 22 1016 70 10000 0.45 232 17:29 27.09.2021
5490 Clouds 23 1016 67 10000 0.45 241 16:48 27.09.2021
5491 Clouds 23 1016 66 10000 0.45 245 15:43 27.09.2021
5492 Clouds 23 1016 67 10000 2.68 218 14:56 27.09.2021
5493 Clouds 22 1016 71 10000 0.45 239 13:31 27.09.2021
5494 Mist 19 1016 90 4000 2.68 282 11:23 27.09.2021
5495 Fog 17 1018 96 1500 2.06 250 09:54 27.09.2021
5496 Fog 17 1018 97 1200 1.03 0 08:48 27.09.2021
5497 Mist 16 1017 97 2500 0.51 0 05:21 27.09.2021
5498 Fog 16 1018 97 800 0 0 02:59 27.09.2021
5499 Clear 17 1018 96 10000 2.57 10 22:32 26.09.2021
5500 Clear 17 1018 96 10000 2.57 360 21:50 26.09.2021
5501 Clouds 18 1019 95 8000 1.54 90 20:58 26.09.2021
5502 Clouds 18 1018 95 7000 3.09 30 20:21 26.09.2021
5503 Clouds 18 1019 95 6000 2.06 10 19:42 26.09.2021
5504 Clouds 18 1018 95 6000 3.09 310 18:45 26.09.2021
5505 Thunderstorm 18 1017 96 5000 0.89 277 17:54 26.09.2021
5506 Thunderstorm 18 1017 95 3000 2.68 61 17:22 26.09.2021
5507 Thunderstorm 19 1019 95 4000 3.13 46 16:37 26.09.2021
5508 Thunderstorm 19 1019 94 5000 0.89 123 15:58 26.09.2021
5509 Thunderstorm 19 1019 92 8000 1.34 32 14:46 26.09.2021
5510 Rain 20 1020 87 8000 0.45 27 13:54 26.09.2021
5511 Clouds 20 1021 88 7000 1.34 44 12:56 26.09.2021
5512 Mist 19 1021 91 3500 0.89 40 11:59 26.09.2021
5513 Mist 19 1021 92 3500 0.89 28 11:37 26.09.2021
5514 Rain 19 1021 91 3000 0.45 26 10:23 26.09.2021
5515 Rain 19 1019 84 8000 3.13 145 08:55 26.09.2021
5516 Clouds 19 1019 84 10000 2.24 84 06:32 26.09.2021
5517 Clouds 20 1021 79 10000 1.34 307 00:21 26.09.2021
5518 Clouds 20 1021 78 10000 1.03 320 23:23 25.09.2021
5519 Clouds 21 1021 78 10000 1.79 330 22:37 25.09.2021
5520 Clouds 21 1021 76 10000 0.45 4 21:55 25.09.2021
5521 Clouds 21 1020 74 10000 1.34 315 21:30 25.09.2021
5522 Clouds 21 1020 73 10000 1.79 313 20:45 25.09.2021
5523 Clouds 22 1019 66 8000 1.79 272 18:47 25.09.2021
5524 Clouds 23 1018 62 10000 1.79 299 17:47 25.09.2021
5525 Clouds 23 1019 59 8000 1.03 0 15:41 25.09.2021
5526 Clouds 23 1021 64 8000 1.34 47 13:57 25.09.2021
5527 Clouds 22 1021 65 8000 1.79 75 13:27 25.09.2021
5528 Clouds 21 1021 71 7000 0.45 101 11:54 25.09.2021
5529 Clouds 19 1021 75 7000 2.68 81 10:33 25.09.2021
5530 Clouds 19 1020 78 6000 2.24 98 09:26 25.09.2021
5531 Mist 17 1020 81 4000 1.79 100 07:55 25.09.2021
5532 Clouds 17 1019 81 8000 1.79 76 05:19 25.09.2021
5533 Clear 18 1019 72 10000 1.54 10 23:45 24.09.2021
5534 Clear 19 1018 64 10000 0.89 202 21:41 24.09.2021
5535 Clear 21 1017 60 10000 1.03 210 20:33 24.09.2021
5536 Clear 22 1016 57 10000 0.89 17 19:45 24.09.2021
5537 Clear 25 1016 48 10000 0.45 350 18:32 24.09.2021
5538 Clear 25 1016 46 10000 1.79 240 17:53 24.09.2021
5539 Clear 25 1016 47 10000 0.45 229 17:35 24.09.2021
5540 Clear 25 1016 46 10000 1.34 239 16:45 24.09.2021
5541 Clear 24 1016 49 10000 0.45 2 13:57 24.09.2021
5542 Clear 23 1017 53 10000 0.89 161 12:45 24.09.2021
5543 Clear 22 1017 55 10000 0.45 148 12:27 24.09.2021
5544 Clear 22 1017 58 10000 0.45 331 11:50 24.09.2021
5545 Clear 19 1018 67 10000 0.45 165 10:24 24.09.2021
5546 Clear 15 1017 82 7000 0.45 193 08:24 24.09.2021
5547 Clear 14 1018 89 8000 1.03 0 07:32 24.09.2021
5548 Clear 14 1018 89 10000 1.03 0 06:32 24.09.2021
5549 Mist 14 1018 89 4700 0.51 10 04:53 24.09.2021
5550 Clear 17 1019 69 10000 0.89 22 22:45 23.09.2021
5551 Clear 17 1020 78 10000 0 0 22:19 23.09.2021
5552 Clear 18 1019 62 10000 0.45 201 21:38 23.09.2021
5553 Clear 19 1018 61 10000 0.89 201 20:32 23.09.2021
5554 Clear 21 1018 52 10000 1.34 173 19:18 23.09.2021
5555 Clear 21 1018 52 10000 1.34 178 19:18 23.09.2021
5556 Clouds 23 1019 43 10000 1.79 132 17:18 23.09.2021
5557 Clouds 23 1020 44 10000 0.89 118 15:20 23.09.2021
5558 Clouds 23 1020 45 10000 0.89 308 14:58 23.09.2021
5559 Clear 22 1021 45 10000 1.79 89 13:40 23.09.2021
5560 Clouds 21 1022 45 10000 0.89 69 13:18 23.09.2021
5561 Clouds 21 1022 47 10000 2.24 114 12:46 23.09.2021
5562 Clouds 20 1022 47 10000 0.45 244 12:21 23.09.2021
5563 Clear 19 1022 58 10000 0.45 117 10:42 23.09.2021
5564 Clouds 19 1022 61 10000 1.34 104 10:19 23.09.2021
5565 Clouds 18 1022 63 10000 1.79 111 09:48 23.09.2021
5566 Clouds 16 1022 74 10000 1.79 94 06:32 23.09.2021
5567 Clear 17 1021 67 10000 1.79 79 00:28 23.09.2021
5568 Clear 18 1021 64 10000 2.24 108 22:54 22.09.2021
5569 Clear 18 1020 64 10000 2.24 106 22:22 22.09.2021
5570 Clear 18 1020 63 10000 1.79 88 21:45 22.09.2021
5571 Clear 19 1020 61 10000 1.34 85 20:58 22.09.2021
5572 Clear 19 1019 59 10000 1.79 94 20:27 22.09.2021
5573 Clear 21 1019 54 10000 2.24 95 19:27 22.09.2021
5574 Clear 22 1019 50 10000 1.79 85 18:35 22.09.2021
5575 Clouds 23 1018 46 10000 0.45 72 17:38 22.09.2021
5576 Clouds 23 1019 46 10000 0.45 207 15:53 22.09.2021
5577 Clouds 22 1020 51 10000 0.45 139 14:37 22.09.2021
5578 Clouds 22 1021 56 10000 0.89 145 13:24 22.09.2021
5579 Clear 20 1022 63 10000 2.24 129 11:20 22.09.2021
5580 Clear 17 1022 75 10000 1.79 106 09:35 22.09.2021
5581 Clear 16 1022 80 10000 1.79 123 08:51 22.09.2021
5582 Clouds 15 1022 79 10000 1.79 75 07:41 22.09.2021
5583 Clouds 15 1022 78 10000 1.34 51 06:54 22.09.2021
5584 Clouds 15 1022 77 10000 1.79 79 05:49 22.09.2021
5585 Clouds 16 1022 77 10000 1.79 84 04:54 22.09.2021
5586 Clear 15 1024 88 10000 0.51 0 03:33 22.09.2021
5587 Clear 16 1024 83 10000 2.06 50 00:18 22.09.2021
5588 Clear 17 1024 80 10000 0.51 200 22:27 21.09.2021
5589 Clear 18 1022 65 10000 0.89 127 20:58 21.09.2021
5590 Clouds 21 1021 58 10000 0.89 150 19:37 21.09.2021
5591 Clear 21 1021 56 10000 2.24 164 19:18 21.09.2021
5592 Clouds 23 1021 44 10000 2.24 216 16:48 21.09.2021
5593 Clouds 23 1022 46 10000 0.45 244 15:57 21.09.2021
5594 Clear 23 1022 46 10000 2.68 184 15:24 21.09.2021
5595 Clear 22 1022 47 10000 3.13 230 14:43 21.09.2021
5596 Clear 22 1022 50 10000 0.45 129 13:40 21.09.2021
5597 Clouds 21 1022 53 10000 1.34 99 12:45 21.09.2021
5598 Clouds 17 1023 77 10000 2.57 80 10:44 21.09.2021
5599 Clouds 17 1023 82 10000 1.54 90 09:28 21.09.2021
5600 Clouds 16 1022 88 10000 2.57 50 07:40 21.09.2021
5601 Clouds 15 1020 100 10000 0.51 0 05:18 21.09.2021
5602 Rain 16 1018 88 10000 5.66 80 23:19 20.09.2021
5603 Rain 19 1017 60 10000 4.12 50 21:51 20.09.2021
5604 Rain 19 1016 68 10000 1.03 330 21:30 20.09.2021
5605 Clouds 21 1013 56 10000 1.34 358 19:49 20.09.2021
5606 Clouds 22 1012 49 10000 1.34 29 18:37 20.09.2021
5607 Clouds 22 1012 47 10000 2.24 64 17:30 20.09.2021
5608 Clouds 22 1012 45 10000 1.79 65 16:26 20.09.2021
5609 Clouds 22 1012 44 10000 1.79 128 15:43 20.09.2021
5610 Clear 22 1012 44 10000 2.24 111 14:42 20.09.2021
5611 Clear 21 1012 47 10000 0.45 138 12:46 20.09.2021
5612 Clear 21 1012 49 10000 1.79 57 12:26 20.09.2021
5613 Clear 19 1012 55 10000 0.89 171 10:57 20.09.2021
5614 Clear 17 1012 66 10000 0.89 117 09:52 20.09.2021
5615 Clear 17 1011 69 10000 1.34 91 09:33 20.09.2021
5616 Clear 16 1011 72 10000 1.79 89 09:33 20.09.2021
5617 Clear 15 1011 81 10000 1.54 190 08:54 20.09.2021
5618 Clouds 12 1011 90 10000 1.03 0 06:33 20.09.2021
5619 Clouds 15 1009 72 10000 3.13 317 23:28 19.09.2021
5620 Clouds 15 1010 77 10000 2.06 360 21:51 19.09.2021
5621 Clear 15 1010 82 10000 1.03 0 21:21 19.09.2021
5622 Clouds 16 1009 77 10000 1.03 0 20:19 19.09.2021
5623 Clouds 18 1008 65 10000 3.09 20 18:54 19.09.2021
5624 Clouds 19 1008 65 10000 0.45 342 17:56 19.09.2021
5625 Clouds 18 1007 67 10000 0.89 341 16:52 19.09.2021
5626 Clouds 19 1006 75 10000 1.79 42 15:44 19.09.2021
5627 Clouds 21 1007 72 8000 0.89 83 14:49 19.09.2021
5628 Thunderstorm 20 1007 75 10000 2.24 204 13:58 19.09.2021
5629 Rain 21 1006 74 10000 0.89 150 12:56 19.09.2021
5630 Clouds 21 1007 75 10000 0.45 166 12:18 19.09.2021
5631 Rain 20 1008 86 10000 0.45 150 11:23 19.09.2021
5632 Rain 19 1009 89 10000 5.14 110 09:52 19.09.2021
5633 Rain 19 1009 89 10000 5.66 110 09:26 19.09.2021
5634 Rain 19 1009 93 10000 3.6 100 06:49 19.09.2021
5635 Clouds 20 1011 93 10000 1.03 0 01:38 19.09.2021
5636 Thunderstorm 20 1010 84 10000 1.34 348 23:25 18.09.2021
5637 Rain 21 1009 66 10000 4.02 179 21:56 18.09.2021
5638 Clouds 22 1011 73 10000 2.06 70 20:47 18.09.2021
5639 Clouds 23 1011 72 10000 2.06 140 19:58 18.09.2021
5640 Clear 24 1008 59 10000 1.34 102 19:36 18.09.2021
5641 Clear 24 1008 55 10000 0.89 127 19:18 18.09.2021
5642 Clouds 25 1009 59 10000 2.68 166 18:30 18.09.2021
5643 Clouds 25 1009 54 10000 1.79 50 16:35 18.09.2021
5644 Clouds 23 1010 62 7000 0.89 93 13:59 18.09.2021
5645 Clouds 23 1011 65 7000 2.24 123 13:31 18.09.2021
5646 Clouds 22 1011 67 7000 1.34 119 12:52 18.09.2021
5647 Clouds 21 1011 73 7000 1.34 103 11:59 18.09.2021
5648 Clouds 21 1012 77 7000 2.68 114 11:29 18.09.2021
5649 Clouds 20 1012 81 6000 0.45 59 10:30 18.09.2021
5650 Clouds 20 1012 89 6000 3.09 90 09:23 18.09.2021
5651 Clouds 19 1012 90 7000 2.57 70 08:24 18.09.2021
5652 Clouds 20 1012 87 10000 1.99 78 00:52 18.09.2021
5653 Clouds 20 1012 87 10000 2.16 89 23:55 17.09.2021
5654 Clouds 20 1011 85 10000 2.63 85 22:45 17.09.2021
5655 Clear 22 1009 67 10000 2.24 74 22:22 17.09.2021
5656 Clear 22 1009 67 10000 2.24 111 21:32 17.09.2021
5657 Clear 22 1009 67 10000 2.24 111 21:32 17.09.2021
5658 Clear 25 1007 56 10000 1.34 123 19:31 17.09.2021
5659 Clear 26 1007 52 10000 0.45 187 18:30 17.09.2021
5660 Clear 27 1007 51 10000 0.45 149 16:34 17.09.2021
5661 Clouds 26 1009 57 10000 1.79 128 14:48 17.09.2021
5662 Clouds 22 1010 73 8000 1.34 238 11:48 17.09.2021
5663 Mist 20 1009 90 5000 1.34 300 09:57 17.09.2021
5664 Mist 17 1011 97 3000 1.03 360 07:42 17.09.2021
5665 Clouds 18 1011 97 6000 1.03 180 05:27 17.09.2021
5666 Clouds 19 1013 96 10000 1.03 0 00:31 17.09.2021
5667 Clouds 19 1013 94 8000 1.54 70 22:41 16.09.2021
5668 Clouds 19 1013 94 7000 2.06 180 22:23 16.09.2021
5669 Thunderstorm 19 1012 91 3500 1.34 64 21:31 16.09.2021
5670 Thunderstorm 20 1012 92 3000 0.45 80 20:29 16.09.2021
5671 Clouds 23 1012 76 10000 4.63 130 18:38 16.09.2021
5672 Clouds 23 1012 87 7781 2.55 88 17:59 16.09.2021
5673 Clouds 25 1011 50 10000 3.13 251 15:31 16.09.2021
5674 Clouds 25 1012 56 10000 1.34 191 14:43 16.09.2021
5675 Clouds 24 1015 65 10000 2.06 130 13:23 16.09.2021
5676 Clouds 23 1015 73 10000 2.57 90 12:40 16.09.2021
5677 Clouds 22 1015 78 10000 2.06 50 11:46 16.09.2021
5678 Clouds 21 1015 91 10000 1.54 50 10:40 16.09.2021
5679 Clouds 21 1015 92 10000 1.03 0 10:18 16.09.2021
5680 Clouds 20 1014 94 10000 1.03 350 08:45 16.09.2021
5681 Rain 20 1014 92 10000 1.54 20 07:46 16.09.2021
5682 Rain 20 1014 91 10000 1.54 100 06:55 16.09.2021
5683 Clouds 20 1014 92 10000 0.8 282 06:31 16.09.2021
5684 Rain 21 1015 77 10000 1.54 90 02:57 16.09.2021
5685 Clouds 21 1014 76 10000 1.54 350 00:45 16.09.2021
5686 Clouds 22 1014 75 10000 1.34 15 22:52 15.09.2021
5687 Clouds 22 1014 74 10000 1.54 10 21:56 15.09.2021
5688 Clouds 22 1014 74 10000 1.79 29 21:56 15.09.2021
5689 Clouds 22 1014 72 10000 2.06 350 21:30 15.09.2021
5690 Clouds 22 1014 72 10000 2.06 350 21:30 15.09.2021
5691 Clouds 22 1014 72 10000 2.06 350 21:30 15.09.2021
5692 Clouds 22 1013 69 10000 2.68 33 20:23 15.09.2021
5693 Clouds 23 1014 66 10000 0.51 0 19:29 15.09.2021
5694 Clouds 24 1014 59 10000 0.51 0 18:25 15.09.2021
5695 Clear 25 1014 50 10000 1.34 193 17:26 15.09.2021
5696 Clouds 26 1014 48 10000 0.45 194 16:20 15.09.2021
5697 Clouds 26 1015 50 10000 0.45 200 14:45 15.09.2021
5698 Clouds 25 1015 51 10000 0.45 360 14:24 15.09.2021
5699 Clouds 25 1016 55 10000 1.54 0 13:39 15.09.2021
5700 Clouds 25 1016 55 10000 1.34 216 13:21 15.09.2021
5701 Clouds 25 1016 58 10000 0.45 150 12:21 15.09.2021
5702 Clouds 24 1016 57 10000 0.89 214 11:41 15.09.2021
5703 Clouds 23 1016 65 10000 0.45 231 10:55 15.09.2021
5704 Rain 22 1016 73 10000 0.51 0 09:30 15.09.2021
5705 Clouds 20 1016 78 10000 0.51 0 08:20 15.09.2021
5706 Clear 20 1016 76 10000 1.79 236 05:37 15.09.2021
5707 Clear 22 1016 68 10000 2.68 244 23:54 14.09.2021
5708 Clear 23 1016 64 10000 1.34 208 21:42 14.09.2021
5709 Clear 24 1015 59 10000 1.03 0 20:39 14.09.2021
5710 Clear 25 1015 57 10000 1.79 298 19:42 14.09.2021
5711 Clouds 26 1016 61 10000 1.54 270 17:40 14.09.2021
5712 Clouds 26 1016 58 10000 1.54 270 17:40 14.09.2021
5713 Clouds 27 1017 58 10000 2.06 250 16:59 14.09.2021
5714 Clouds 27 1017 57 10000 2.06 250 15:33 14.09.2021
5715 Clouds 27 1017 57 10000 2.06 230 14:31 14.09.2021
5716 Clouds 26 1018 61 10000 2.57 250 12:45 14.09.2021
5717 Clear 25 1015 55 10000 1.79 208 10:54 14.09.2021
5718 Clear 25 1015 54 10000 1.79 218 10:54 14.09.2021
5719 Clear 23 1016 60 10000 0.89 358 09:50 14.09.2021
5720 Clear 20 1016 68 10000 0.45 335 08:41 14.09.2021
5721 Clouds 19 1015 69 10000 0.89 23 06:24 14.09.2021
5722 Clear 22 1015 51 10000 3.13 294 00:31 14.09.2021
5723 Clear 23 1015 49 10000 2.68 250 22:48 13.09.2021
5724 Clear 23 1015 47 10000 3.58 250 22:23 13.09.2021
5725 Clear 24 1015 48 10000 3.58 238 21:45 13.09.2021
5726 Clear 25 1014 43 10000 1.34 222 20:50 13.09.2021
5727 Clear 29 1013 32 10000 3.13 245 18:46 13.09.2021
5728 Clear 30 1013 31 10000 1.79 225 17:49 13.09.2021
5729 Clear 30 1013 31 10000 0.45 24 16:50 13.09.2021
5730 Clear 30 1015 35 10000 2.06 270 15:30 13.09.2021
5731 Clear 27 1015 37 10000 1.79 194 11:55 13.09.2021
5732 Clear 25 1016 45 10000 1.34 37 10:58 13.09.2021
5733 Clear 22 1016 56 10000 0.51 0 09:35 13.09.2021
5734 Clear 18 1015 65 10000 0.51 0 04:38 13.09.2021
5735 Clear 21 1015 65 10000 1.03 280 22:59 12.09.2021
5736 Clear 22 1014 52 10000 1.34 314 22:25 12.09.2021
5737 Clear 23 1013 48 10000 1.79 292 21:34 12.09.2021
5738 Clear 25 1013 38 10000 1.34 219 20:28 12.09.2021
5739 Clear 25 1013 38 10000 0.89 208 20:28 12.09.2021
5740 Clear 26 1012 35 10000 1.34 136 19:49 12.09.2021
5741 Clear 28 1012 33 10000 1.34 168 19:19 12.09.2021
5742 Clear 28 1012 33 10000 1.34 168 19:19 12.09.2021
5743 Clear 29 1012 29 10000 1.34 144 18:19 12.09.2021
5744 Clear 29 1014 37 10000 0.89 159 16:30 12.09.2021
5745 Clear 29 1014 37 10000 0.89 159 16:30 12.09.2021
5746 Clear 29 1016 40 10000 1.54 0 14:50 12.09.2021
5747 Clear 27 1016 47 10000 0.45 175 12:47 12.09.2021
5748 Clear 24 1016 52 10000 0.89 142 10:35 12.09.2021
5749 Clear 20 1015 68 10000 0.89 314 08:40 12.09.2021
5750 Clear 18 1014 71 10000 0.51 0 07:39 12.09.2021
5751 Clear 21 1015 55 10000 2.24 58 00:56 12.09.2021
5752 Clear 22 1014 53 10000 0.89 45 23:18 11.09.2021
5753 Clear 23 1014 48 10000 0.51 0 21:40 11.09.2021
5754 Clear 25 1013 43 10000 1.34 164 20:18 11.09.2021
5755 Clear 28 1013 34 10000 1.34 231 18:32 11.09.2021
5756 Clear 29 1013 33 10000 0.45 188 17:29 11.09.2021
5757 Clear 28 1015 41 10000 0.89 165 15:38 11.09.2021
5758 Clear 27 1016 48 10000 0.45 176 13:25 11.09.2021
5759 Clear 25 1016 51 10000 0.45 140 11:45 11.09.2021
5760 Clouds 24 1018 60 10000 2.06 160 10:40 11.09.2021
5761 Clouds 21 1016 70 10000 1.79 177 09:28 11.09.2021
5762 Rain 19 1016 73 7000 1.79 254 07:44 11.09.2021
5763 Clouds 20 1016 63 10000 1.03 0 04:23 11.09.2021
5764 Clouds 21 1015 54 10000 1.34 359 22:47 10.09.2021
5765 Clouds 22 1015 52 10000 0.89 29 22:18 10.09.2021
5766 Clouds 22 1015 50 10000 1.03 340 21:40 10.09.2021
5767 Clouds 25 1014 43 10000 1.79 359 19:32 10.09.2021
5768 Clouds 26 1014 38 10000 2.24 239 17:59 10.09.2021
5769 Clouds 27 1016 41 10000 0.89 9 16:28 10.09.2021
5770 Clear 26 1017 42 10000 1.54 160 13:32 10.09.2021
5771 Clouds 23 1016 45 10000 1.79 104 10:54 10.09.2021
5772 Clouds 19 1016 63 10000 1.34 193 08:26 10.09.2021
5773 Clouds 19 1015 60 10000 0.89 203 07:43 10.09.2021
5774 Clouds 20 1015 55 10000 1.79 16 00:40 10.09.2021
5775 Clouds 22 1015 47 10000 1.34 314 21:54 09.09.2021
5776 Clear 23 1014 41 10000 1.34 293 20:48 09.09.2021
5777 Clouds 24 1014 39 10000 1.79 274 20:27 09.09.2021
5778 Clear 26 1014 34 10000 0.89 240 18:46 09.09.2021
5779 Clear 27 1014 30 10000 3.58 278 17:51 09.09.2021
5780 Clear 27 1014 29 10000 0.45 343 16:39 09.09.2021
5781 Clear 27 1014 27 10000 0.89 324 15:25 09.09.2021
5782 Clear 25 1016 34 10000 3.58 115 12:33 09.09.2021
5783 Clouds 23 1016 38 10000 3.58 73 11:22 09.09.2021
5784 Clouds 21 1017 56 10000 2.68 98 09:35 09.09.2021
5785 Clear 19 1016 59 10000 3.58 96 07:45 09.09.2021
5786 Clear 19 1016 55 10000 1.79 74 05:47 09.09.2021
5787 Clouds 21 1016 46 10000 1.79 71 23:55 08.09.2021
5788 Clear 23 1016 41 10000 0.89 88 21:48 08.09.2021
5789 Clouds 23 1016 44 10000 1.34 85 20:48 08.09.2021
5790 Clouds 25 1016 36 10000 1.79 107 19:46 08.09.2021
5791 Clouds 26 1016 32 10000 1.34 103 18:47 08.09.2021
5792 Clouds 27 1016 31 10000 0.89 122 17:59 08.09.2021
5793 Clouds 27 1016 30 10000 0.45 173 17:39 08.09.2021
5794 Clear 27 1018 31 10000 1.34 178 14:57 08.09.2021
5795 Clear 26 1019 35 10000 0.89 200 13:28 08.09.2021
5796 Clear 26 1019 36 10000 0.45 171 12:41 08.09.2021
5797 Clear 25 1019 37 10000 0.89 41 12:22 08.09.2021
5798 Clouds 25 1019 39 10000 4.02 109 11:23 08.09.2021
5799 Clouds 23 1019 42 10000 0.45 173 10:29 08.09.2021
5800 Clear 22 1019 45 10000 4.47 107 09:36 08.09.2021
5801 Clouds 19 1019 50 10000 2.68 94 07:43 08.09.2021
5802 Clouds 19 1018 54 10000 2.68 90 05:46 08.09.2021
5803 Clouds 22 1019 46 10000 2.68 92 23:18 07.09.2021
5804 Clouds 23 1019 45 10000 2.24 97 22:19 07.09.2021
5805 Clear 24 1018 42 10000 1.79 100 20:37 07.09.2021
5806 Clear 28 1018 33 10000 1.79 136 18:49 07.09.2021
5807 Clear 28 1018 32 10000 2.24 190 18:24 07.09.2021
5808 Clear 28 1018 31 10000 0.45 236 16:59 07.09.2021
5809 Clouds 28 1020 38 10000 0.45 186 15:55 07.09.2021
5810 Clouds 27 1020 32 10000 0.45 240 14:46 07.09.2021
5811 Clear 27 1020 32 10000 0.89 210 13:29 07.09.2021
5812 Clear 26 1022 40 10000 0.89 127 11:51 07.09.2021
5813 Clouds 24 1022 50 10000 1.79 138 10:43 07.09.2021
5814 Clouds 20 1021 65 10000 1.79 155 08:40 07.09.2021
5815 Clear 18 1021 70 10000 1.34 173 07:44 07.09.2021
5816 Clear 18 1021 64 10000 1.34 21 05:47 07.09.2021
5817 Clear 19 1023 73 10000 1.54 20 02:38 07.09.2021
5818 Clear 20 1023 62 10000 1.03 0 00:54 07.09.2021
5819 Clear 20 1022 63 10000 1.54 350 23:43 06.09.2021
5820 Clear 21 1022 62 10000 0 0 23:20 06.09.2021
5821 Clear 21 1022 56 10000 1.03 0 22:45 06.09.2021
5822 Clear 23 1020 39 10000 0.89 72 21:31 06.09.2021
5823 Clear 27 1019 35 10000 2.68 138 19:32 06.09.2021
5824 Clear 27 1019 33 10000 0.45 169 18:58 06.09.2021
5825 Clear 28 1019 31 10000 0.89 158 18:27 06.09.2021
5826 Clear 28 1021 36 10000 2.06 120 17:36 06.09.2021
5827 Clear 28 1021 37 10000 0.45 168 15:58 06.09.2021
5828 Clear 28 1022 37 10000 0.45 225 14:26 06.09.2021
5829 Clear 26 1021 36 10000 0.45 67 12:48 06.09.2021
5830 Clear 25 1022 43 10000 1.79 126 10:59 06.09.2021
5831 Clouds 22 1021 67 10000 1.03 0 09:59 06.09.2021
5832 Clouds 19 1020 73 10000 1.34 13 07:21 06.09.2021
5833 Clear 22 1019 55 10000 2.68 96 00:22 06.09.2021
5834 Clear 22 1018 49 10000 1.79 87 23:19 05.09.2021
5835 Clear 23 1018 47 10000 1.79 87 22:30 05.09.2021
5836 Clear 23 1018 47 10000 1.79 87 22:30 05.09.2021
5837 Clear 24 1018 46 10000 1.79 87 21:49 05.09.2021
5838 Clear 25 1016 46 10000 1.79 94 20:50 05.09.2021
5839 Clear 25 1017 46 10000 2.68 99 20:50 05.09.2021
5840 Clear 27 1016 39 10000 2.24 113 18:59 05.09.2021
5841 Clouds 28 1016 37 10000 0.89 212 17:34 05.09.2021
5842 Clouds 28 1016 37 10000 0.45 325 15:31 05.09.2021
5843 Clear 28 1017 36 10000 0.89 90 14:23 05.09.2021
5844 Clear 27 1019 45 10000 2.06 190 12:30 05.09.2021
5845 Clear 24 1017 48 10000 1.79 176 10:59 05.09.2021
5846 Clear 24 1017 51 10000 1.34 132 10:33 05.09.2021
5847 Clear 21 1017 59 10000 2.24 121 09:22 05.09.2021
5848 Clouds 19 1016 69 10000 1.34 59 08:21 05.09.2021
5849 Clear 19 1016 75 10000 1.54 90 02:36 05.09.2021
5850 Clear 20 1015 62 10000 2.24 62 00:30 05.09.2021
5851 Clear 21 1015 59 10000 1.79 60 23:42 04.09.2021
5852 Clear 22 1015 49 10000 0.89 42 22:36 04.09.2021
5853 Clear 22 1014 48 10000 1.34 56 21:58 04.09.2021
5854 Clear 25 1013 43 10000 0.89 179 19:53 04.09.2021
5855 Clear 26 1012 41 10000 1.34 179 19:27 04.09.2021
5856 Clouds 27 1014 44 10000 0.45 188 16:26 04.09.2021
5857 Clear 26 1015 47 10000 0.89 134 13:30 04.09.2021
5858 Clear 24 1015 51 10000 0.89 112 11:20 04.09.2021
5859 Clear 21 1015 62 10000 1.54 200 09:25 04.09.2021
5860 Clouds 18 1016 80 10000 0.51 360 05:53 04.09.2021
5861 Clouds 20 1016 68 10000 0.51 0 00:27 04.09.2021
5862 Clouds 20 1016 67 10000 0.51 90 23:32 03.09.2021
5863 Clear 21 1015 51 10000 0.89 31 22:35 03.09.2021
5864 Clear 22 1014 47 10000 0.89 147 21:35 03.09.2021
5865 Clear 22 1015 51 10000 0.51 0 21:35 03.09.2021
5866 Clear 23 1015 45 10000 1.34 220 20:43 03.09.2021
5867 Clear 25 1014 40 10000 2.68 228 19:55 03.09.2021
5868 Clear 26 1014 38 10000 3.58 224 19:18 03.09.2021
5869 Clear 27 1015 34 10000 1.34 200 17:47 03.09.2021
5870 Clear 27 1017 39 10000 1.54 0 16:34 03.09.2021
5871 Clear 27 1018 39 10000 0.45 140 14:58 03.09.2021
5872 Clear 24 1019 38 10000 0.89 171 11:59 03.09.2021
5873 Clouds 22 1020 44 10000 0.45 168 10:27 03.09.2021
5874 Clear 20 1020 51 10000 2.68 75 08:46 03.09.2021
5875 Clouds 19 1019 56 10000 1.79 57 07:43 03.09.2021
5876 Clouds 20 1021 57 10000 2.68 74 01:39 03.09.2021
5877 Clear 22 1020 53 10000 3.58 102 22:55 02.09.2021
5878 Clear 23 1019 48 10000 2.24 93 21:25 02.09.2021
5879 Clear 26 1019 38 10000 0.89 188 19:27 02.09.2021
5880 Clear 28 1019 34 10000 1.79 152 17:31 02.09.2021
5881 Clear 28 1019 34 10000 1.79 152 17:31 02.09.2021
5882 Clear 28 1020 35 10000 0.89 191 15:49 02.09.2021
5883 Clear 27 1022 45 10000 2.57 120 13:57 02.09.2021
5884 Clear 26 1022 45 10000 1.34 121 12:42 02.09.2021
5885 Clear 24 1022 50 10000 0.45 348 11:34 02.09.2021
5886 Clear 22 1022 60 10000 0.45 171 09:40 02.09.2021
5887 Clear 19 1022 68 10000 2.68 87 07:47 02.09.2021
5888 Clear 18 1023 81 10000 1.54 40 06:58 02.09.2021
5889 Clear 18 1022 77 10000 2.06 50 02:51 02.09.2021
5890 Clear 19 1020 64 10000 3.13 60 01:55 02.09.2021
5891 Clear 20 1020 59 10000 1.79 65 01:23 02.09.2021
5892 Clear 21 1020 57 10000 1.34 45 23:37 01.09.2021
5893 Clear 21 1019 54 10000 0.89 26 22:34 01.09.2021
5894 Clear 23 1018 43 10000 0.87 42 21:35 01.09.2021
5895 Clear 24 1018 44 10000 1.79 163 20:28 01.09.2021
5896 Clear 27 1018 36 10000 1.79 198 18:29 01.09.2021
5897 Clouds 28 1018 36 10000 0.45 240 17:37 01.09.2021
5898 Clouds 28 1018 35 10000 2.68 166 16:46 01.09.2021
5899 Clouds 27 1017 37 10000 1.34 126 15:25 01.09.2021
5900 Clear 25 1021 54 10000 0.45 165 11:50 01.09.2021
5901 Clear 23 1020 50 10000 0.89 192 10:55 01.09.2021
5902 Clear 19 1019 71 10000 1.79 14 08:46 01.09.2021
5903 Clear 17 1020 84 10000 0.51 0 07:50 01.09.2021
5904 Clear 19 1017 69 10000 1.79 62 00:50 01.09.2021
5905 Clear 20 1016 72 10000 1.79 42 22:30 31.08.2021
5906 Clouds 21 1014 64 10000 1.79 40 20:57 31.08.2021
5907 Thunderstorm 24 1015 58 10000 1.54 100 19:44 31.08.2021
5908 Clouds 27 1013 38 10000 2.24 203 18:23 31.08.2021
5909 Clouds 27 1013 38 10000 2.68 203 17:34 31.08.2021
5910 Clouds 27 1013 36 10000 1.34 123 16:49 31.08.2021
5911 Clouds 26 1015 52 10000 1.34 9 15:59 31.08.2021
5912 Clouds 24 1015 52 10000 1.34 135 12:55 31.08.2021
5913 Clouds 22 1016 59 10000 0.45 186 11:26 31.08.2021
5914 Clouds 21 1016 59 10000 0.45 186 10:49 31.08.2021
5915 Clouds 20 1015 67 10000 2.24 121 09:43 31.08.2021
5916 Clouds 18 1016 81 10000 0.51 0 08:36 31.08.2021
5917 Clouds 18 1015 83 10000 2.06 80 05:58 31.08.2021
5918 Clouds 19 1012 65 10000 3.6 100 00:23 31.08.2021
5919 Clear 20 1012 58 10000 2.68 224 23:25 30.08.2021
5920 Clear 22 1012 55 10000 0.89 252 21:42 30.08.2021
5921 Clear 23 1010 50 10000 3.13 225 20:42 30.08.2021
5922 Clouds 25 1010 47 10000 0.45 231 19:55 30.08.2021
5923 Clouds 25 1010 45 10000 1.34 256 19:28 30.08.2021
5924 Clear 27 1010 40 10000 0.89 11 18:18 30.08.2021
5925 Clear 27 1011 44 10000 0.45 177 16:32 30.08.2021
5926 Clear 27 1011 42 10000 0.45 217 15:50 30.08.2021
5927 Clear 26 1012 40 10000 0.45 181 14:24 30.08.2021
5928 Clouds 25 1011 40 10000 3.13 176 13:22 30.08.2021
5929 Clouds 23 1012 46 10000 0.45 179 11:48 30.08.2021
5930 Clouds 18 1011 66 10000 2.68 89 08:22 30.08.2021
5931 Clear 21 1010 52 10000 0.45 145 21:58 29.08.2021
5932 Clear 21 1010 44 10000 1.54 180 21:19 29.08.2021
5933 Clear 25 1009 36 10000 0.45 346 19:31 29.08.2021
5934 Clear 26 1009 34 10000 0.89 358 18:28 29.08.2021
5935 Clear 26 1010 32 10000 0.89 244 15:58 29.08.2021
5936 Clear 25 1010 36 10000 2.24 246 14:29 29.08.2021
5937 Clear 25 1010 36 10000 0.45 267 13:55 29.08.2021
5938 Clear 24 1011 37 10000 1.34 144 12:58 29.08.2021
5939 Clear 24 1011 39 10000 0.45 154 12:18 29.08.2021
5940 Clear 22 1012 42 10000 0.89 204 11:40 29.08.2021
5941 Clear 21 1012 44 10000 1.79 103 10:46 29.08.2021
5942 Clear 21 1012 47 10000 2.68 52 10:28 29.08.2021
5943 Clear 19 1012 50 10000 1.79 108 09:30 29.08.2021
5944 Clear 16 1013 77 10000 2.06 50 04:18 29.08.2021
5945 Clouds 18 1012 75 10000 1.54 40 22:57 28.08.2021
5946 Clouds 21 1008 46 10000 0.89 205 20:31 28.08.2021
5947 Clouds 24 1009 39 10000 1.34 195 19:20 28.08.2021
5948 Clouds 25 1009 38 10000 0.45 142 18:22 28.08.2021
5949 Clouds 25 1009 36 10000 0.89 243 17:45 28.08.2021
5950 Clouds 25 1010 38 10000 1.34 153 16:28 28.08.2021
5951 Clouds 24 1011 41 10000 1.79 166 14:51 28.08.2021
5952 Clouds 24 1012 50 10000 1.54 0 13:47 28.08.2021
5953 Clouds 23 1013 52 10000 2.06 0 12:47 28.08.2021
5954 Clouds 22 1012 49 10000 0.45 244 12:24 28.08.2021
5955 Clear 21 1012 52 10000 1.34 157 10:45 28.08.2021
5956 Clouds 20 1012 57 10000 1.34 119 09:34 28.08.2021
5957 Clouds 17 1011 67 10000 1.34 85 07:26 28.08.2021
5958 Clouds 19 1012 62 10000 3.09 70 22:57 27.08.2021
5959 Clear 20 1010 53 10000 3.13 91 21:26 27.08.2021
5960 Clear 21 1010 56 10000 0.45 152 20:35 27.08.2021
5961 Clear 22 1009 54 10000 0.89 156 19:30 27.08.2021
5962 Clear 22 1009 53 10000 0.89 148 18:38 27.08.2021
5963 Clear 23 1009 53 10000 1.34 87 17:38 27.08.2021
5964 Clouds 23 1009 54 10000 0.45 193 16:28 27.08.2021
5965 Clouds 22 1011 64 10000 5.66 120 14:44 27.08.2021
5966 Clouds 22 1011 71 10000 5.66 110 12:56 27.08.2021
5967 Clouds 21 1011 76 10000 4.63 100 11:42 27.08.2021
5968 Clouds 20 1010 78 10000 0.45 134 10:48 27.08.2021
5969 Clouds 20 1009 75 10000 0.45 129 09:52 27.08.2021
5970 Clouds 20 1008 77 10000 0.45 155 08:55 27.08.2021
5971 Clouds 19 1007 79 10000 0.89 135 07:39 27.08.2021
5972 Clear 18 1006 82 10000 1.03 0 05:33 27.08.2021
5973 Clouds 21 1004 61 10000 2.24 261 00:37 27.08.2021
5974 Clear 22 1004 56 10000 1.79 228 23:28 26.08.2021
5975 Clear 23 1004 51 10000 3.13 236 22:19 26.08.2021
5976 Clear 24 1004 50 10000 2.68 229 22:19 26.08.2021
5977 Clear 24 1004 47 10000 0.45 244 21:28 26.08.2021
5978 Clear 28 1004 39 10000 0.45 219 19:20 26.08.2021
5979 Clear 29 1005 35 10000 0.89 354 17:45 26.08.2021
5980 Clear 29 1006 40 10000 1.79 24 16:44 26.08.2021
5981 Clear 29 1007 44 10000 2.24 336 16:26 26.08.2021
5982 Clear 29 1006 36 10000 1.34 63 16:26 26.08.2021
5983 Clear 27 1009 44 10000 3.09 0 13:53 26.08.2021
5984 Clear 26 1008 42 10000 0.45 238 12:57 26.08.2021
5985 Clear 26 1008 44 10000 0.45 240 12:31 26.08.2021
5986 Clear 26 1010 49 10000 2.06 0 12:31 26.08.2021
5987 Clear 23 1009 51 10000 0.89 155 10:22 26.08.2021
5988 Clear 20 1010 66 10000 1.34 93 08:34 26.08.2021
5989 Clear 17 1012 79 10000 1.03 0 06:34 26.08.2021
5990 Clear 22 1012 58 10000 0.89 103 22:55 25.08.2021
5991 Clear 22 1012 57 10000 1.34 97 22:36 25.08.2021
5992 Clear 23 1012 53 10000 1.34 115 21:54 25.08.2021
5993 Clouds 24 1011 48 10000 0.45 193 20:49 25.08.2021
5994 Clouds 25 1011 45 10000 0.89 181 20:28 25.08.2021
5995 Clouds 27 1011 39 10000 1.34 202 18:45 25.08.2021
5996 Clouds 27 1012 38 10000 2.68 173 17:43 25.08.2021
5997 Clouds 27 1013 40 10000 2.68 200 15:45 25.08.2021
5998 Clouds 26 1013 41 10000 0.45 223 14:48 25.08.2021
5999 Clouds 26 1015 49 10000 0.89 157 14:30 25.08.2021
6000 Clouds 25 1015 52 10000 3.09 110 13:25 25.08.2021
6001 Clouds 23 1015 53 10000 0.89 45 11:27 25.08.2021
6002 Clouds 22 1015 54 10000 4.02 94 10:43 25.08.2021
6003 Clouds 21 1015 59 10000 0.89 84 09:58 25.08.2021
6004 Clouds 21 1015 63 10000 1.79 23 09:18 25.08.2021
6005 Clouds 20 1016 73 10000 2.57 30 08:30 25.08.2021
6006 Clouds 20 1014 61 10000 0.45 38 04:19 25.08.2021
6007 Clouds 22 1013 50 10000 1.79 56 23:54 24.08.2021
6008 Clouds 23 1012 46 10000 1.79 69 21:49 24.08.2021
6009 Clouds 25 1013 41 10000 1.79 135 20:48 24.08.2021
6010 Clouds 26 1013 37 10000 4.02 118 19:52 24.08.2021
6011 Clouds 28 1012 35 10000 1.34 190 17:58 24.08.2021
6012 Clouds 28 1012 36 10000 0.45 106 17:58 24.08.2021
6013 Clouds 28 1012 35 10000 1.34 190 17:58 24.08.2021
6014 Clouds 28 1012 34 10000 0.89 161 17:28 24.08.2021
6015 Clouds 28 1012 36 10000 0.89 190 16:56 24.08.2021
6016 Clouds 28 1015 43 10000 1.54 0 14:30 24.08.2021
6017 Clouds 27 1013 38 10000 2.68 94 13:25 24.08.2021
6018 Clouds 26 1016 49 10000 1.54 0 12:33 24.08.2021
6019 Clouds 24 1015 54 10000 1.79 223 10:48 24.08.2021
6020 Clouds 24 1014 55 10000 0.89 222 10:27 24.08.2021
6021 Clouds 21 1014 69 10000 2.24 346 08:50 24.08.2021
6022 Clouds 19 1015 78 10000 1.79 319 06:51 24.08.2021
6023 Clouds 19 1016 84 10000 1.54 20 04:54 24.08.2021
6024 Clouds 21 1015 72 10000 2.24 87 00:47 24.08.2021
6025 Clouds 21 1015 72 10000 2.24 84 22:54 23.08.2021
6026 Clouds 21 1014 71 10000 4.47 86 22:21 23.08.2021
6027 Clouds 23 1013 65 10000 0.45 163 20:39 23.08.2021
6028 Clear 26 1012 55 10000 1.79 170 19:19 23.08.2021
6029 Clear 29 1012 41 10000 1.79 135 16:39 23.08.2021
6030 Clouds 28 1012 45 10000 0.45 171 14:46 23.08.2021
6031 Clouds 28 1012 54 10000 3.58 97 12:57 23.08.2021
6032 Clouds 27 1013 61 10000 4.02 80 11:49 23.08.2021
6033 Clouds 26 1012 60 10000 0.89 210 10:38 23.08.2021
6034 Clear 25 1012 66 10000 3.58 57 09:41 23.08.2021
6035 Clear 23 1012 76 10000 2.68 55 08:33 23.08.2021
6036 Clear 20 1012 89 10000 0.51 0 06:50 23.08.2021
6037 Clear 20 1012 88 10000 2.06 260 06:21 23.08.2021
6038 Clear 23 1013 69 10000 2.68 245 00:52 23.08.2021
6039 Clouds 25 1013 63 10000 0.45 3 22:44 22.08.2021
6040 Clouds 25 1013 65 10000 2.68 231 22:24 22.08.2021
6041 Clouds 27 1012 57 10000 0.45 227 20:21 22.08.2021
6042 Clear 29 1012 50 10000 0.45 349 19:28 22.08.2021
6043 Clear 31 1015 42 10000 1.54 190 16:28 22.08.2021
6044 Clear 31 1016 42 10000 1.03 0 14:56 22.08.2021
6045 Clear 30 1016 42 10000 1.54 0 14:35 22.08.2021
6046 Clear 29 1015 37 10000 3.58 243 13:21 22.08.2021
6047 Clear 29 1015 37 10000 3.13 226 12:51 22.08.2021
6048 Clouds 28 1015 43 10000 0.89 164 12:19 22.08.2021
6049 Clouds 27 1016 43 10000 0.45 235 11:41 22.08.2021
6050 Clouds 25 1016 56 10000 0.89 226 10:21 22.08.2021
6051 Clouds 22 1016 67 10000 1.34 118 08:18 22.08.2021
6052 Clear 22 1015 64 10000 0.51 0 04:50 22.08.2021
6053 Clear 25 1016 54 10000 3.58 233 23:39 21.08.2021
6054 Clear 25 1016 53 10000 1.34 266 22:31 21.08.2021
6055 Clear 30 1015 37 10000 2.24 260 19:39 21.08.2021
6056 Clear 31 1015 35 10000 2.68 272 18:39 21.08.2021
6057 Clear 31 1015 34 10000 0.45 260 17:48 21.08.2021
6058 Clouds 31 1015 34 10000 0.89 219 16:50 21.08.2021
6059 Clouds 31 1015 33 10000 1.34 185 15:51 21.08.2021
6060 Clear 31 1018 41 10000 1.54 0 15:26 21.08.2021
6061 Clear 30 1018 44 10000 2.06 60 14:21 21.08.2021
6062 Clouds 29 1019 46 10000 2.06 220 12:43 21.08.2021
6063 Clouds 28 1017 39 10000 1.79 207 12:23 21.08.2021
6064 Clouds 24 1016 55 10000 2.24 171 09:21 21.08.2021
6065 Clear 22 1015 60 10000 0.89 45 01:39 21.08.2021
6066 Clear 24 1014 54 10000 0.89 327 22:42 20.08.2021
6067 Clear 26 1013 45 10000 0.89 243 20:51 20.08.2021
6068 Clear 30 1014 40 10000 2.06 0 17:46 20.08.2021
6069 Clear 30 1015 38 10000 1.54 180 15:42 20.08.2021
6070 Clouds 28 1014 36 10000 2.68 172 13:23 20.08.2021
6071 Clouds 26 1015 44 10000 1.79 106 11:32 20.08.2021
6072 Clouds 24 1014 51 10000 0.45 167 10:37 20.08.2021
6073 Clouds 23 1014 54 10000 1.79 74 09:29 20.08.2021
6074 Clouds 22 1014 61 10000 1.54 50 08:38 20.08.2021
6075 Clouds 21 1012 61 10000 2.24 57 05:48 20.08.2021
6076 Clouds 21 1012 61 10000 2.24 58 04:21 20.08.2021
6077 Clear 22 1013 56 10000 0.45 23 23:51 19.08.2021
6078 Clear 23 1013 55 10000 0.51 0 22:39 19.08.2021
6079 Clear 24 1012 52 10000 0.89 332 21:57 19.08.2021
6080 Clear 26 1012 43 10000 1.79 229 20:23 19.08.2021
6081 Clear 28 1011 36 10000 0.45 183 18:57 19.08.2021
6082 Clear 29 1013 41 10000 0.45 219 16:59 19.08.2021
6083 Clear 28 1013 35 10000 0.45 221 15:39 19.08.2021
6084 Clouds 27 1014 40 10000 0.45 182 13:19 19.08.2021
6085 Clouds 26 1014 41 10000 0.89 142 12:29 19.08.2021
6086 Clouds 25 1014 44 10000 0.89 186 11:18 19.08.2021
6087 Clouds 23 1014 48 10000 0.89 202 09:49 19.08.2021
6088 Clouds 23 1014 51 10000 0.45 204 09:29 19.08.2021
6089 Clouds 22 1013 54 10000 0.45 156 08:43 19.08.2021
6090 Clouds 19 1014 71 10000 2.06 60 05:56 19.08.2021
6091 Clear 21 1012 55 10000 1.79 61 02:20 19.08.2021
6092 Clear 21 1012 53 10000 1.79 75 01:30 19.08.2021
6093 Clear 23 1012 50 10000 2.24 100 22:38 18.08.2021
6094 Clear 24 1012 46 10000 3.58 90 21:34 18.08.2021
6095 Clear 26 1012 41 10000 2.68 77 20:20 18.08.2021
6096 Clear 27 1013 46 10000 2.57 100 19:26 18.08.2021
6097 Clear 28 1012 37 10000 3.13 142 18:34 18.08.2021
6098 Clear 28 1012 38 10000 2.24 139 16:56 18.08.2021
6099 Clouds 28 1014 44 10000 0.45 137 15:41 18.08.2021
6100 Clouds 28 1014 44 10000 0.45 137 15:21 18.08.2021
6101 Clouds 26 1014 45 10000 0.45 190 13:21 18.08.2021
6102 Clear 26 1014 45 10000 2.68 116 12:38 18.08.2021
6103 Clear 26 1014 46 10000 2.24 142 12:19 18.08.2021
6104 Clear 21 1013 54 10000 2.68 135 08:43 18.08.2021
6105 Clouds 21 1010 55 10000 2.68 79 02:37 18.08.2021
6106 Clear 24 1011 44 10000 2.24 94 22:40 17.08.2021
6107 Clear 25 1011 41 10000 1.79 68 21:59 17.08.2021
6108 Clear 25 1010 40 10000 1.79 77 21:22 17.08.2021
6109 Clear 27 1010 36 10000 2.68 124 20:24 17.08.2021
6110 Clear 30 1010 29 10000 3.58 138 17:47 17.08.2021
6111 Clear 30 1010 30 10000 0.45 192 17:26 17.08.2021
6112 Clear 30 1010 26 10000 1.34 128 15:46 17.08.2021
6113 Clear 30 1011 29 10000 0.45 167 14:56 17.08.2021
6114 Clear 29 1011 29 10000 1.34 258 12:44 17.08.2021
6115 Clouds 25 1010 44 10000 1.79 9 09:42 17.08.2021
6116 Clouds 22 1011 55 10000 1.34 35 09:18 17.08.2021
6117 Clear 19 1010 71 10000 1.03 0 06:57 17.08.2021
6118 Clear 21 1008 72 10000 2.06 310 23:25 16.08.2021
6119 Clear 22 1007 65 10000 1.79 328 22:53 16.08.2021
6120 Clear 22 1006 69 10000 1.34 311 22:35 16.08.2021
6121 Clouds 21 1008 90 10000 2.57 360 21:46 16.08.2021
6122 Clouds 22 1008 89 10000 1.54 0 20:51 16.08.2021
6123 Rain 27 1005 59 10000 4.12 230 19:29 16.08.2021
6124 Clouds 31 1005 56 10000 0.45 220 18:26 16.08.2021
6125 Clouds 31 1005 56 10000 0.45 220 18:26 16.08.2021
6126 Clouds 31 1005 56 10000 0.45 220 18:26 16.08.2021
6127 Clouds 31 1005 56 10000 0.45 220 18:26 16.08.2021
6128 Clouds 31 1004 47 10000 0.45 237 17:54 16.08.2021
6129 Clouds 32 1006 47 10000 0.89 217 16:29 16.08.2021
6130 Clouds 32 1006 41 10000 0.45 320 15:22 16.08.2021
6131 Clouds 31 1007 43 10000 0.89 153 13:43 16.08.2021
6132 Clouds 31 1008 46 10000 0.45 69 12:59 16.08.2021
6133 Clear 30 1009 51 10000 2.24 189 11:31 16.08.2021
6134 Clear 27 1010 48 10000 0.45 320 09:33 16.08.2021
6135 Clear 26 1010 53 10000 1.79 330 08:42 16.08.2021
6136 Clear 23 1011 68 10000 0.51 0 07:30 16.08.2021
6137 Clear 23 1010 68 10000 1.03 0 05:54 16.08.2021
6138 Clear 26 1010 37 10000 0.45 1 00:23 16.08.2021
6139 Clear 29 1010 43 10000 0.45 141 21:33 15.08.2021
6140 Clear 33 1011 46 10000 0.45 235 19:27 15.08.2021
6141 Clear 34 1010 36 10000 0.45 202 18:39 15.08.2021
6142 Clear 35 1010 34 10000 0.45 256 17:48 15.08.2021
6143 Clear 35 1013 40 10000 2.06 0 16:30 15.08.2021
6144 Clear 35 1013 40 10000 2.06 270 15:34 15.08.2021
6145 Clear 34 1014 45 10000 1.54 0 14:32 15.08.2021
6146 Clear 32 1015 49 10000 1.03 0 12:39 15.08.2021
6147 Clear 29 1014 54 10000 1.34 84 09:57 15.08.2021
6148 Clear 24 1014 74 10000 0 0 06:53 15.08.2021
6149 Clear 26 1016 74 10000 1.03 40 01:21 15.08.2021
6150 Clear 27 1016 64 10000 1.34 351 00:28 15.08.2021
6151 Clear 30 1016 48 10000 1.34 250 21:21 14.08.2021
6152 Clear 33 1015 39 10000 2.24 225 19:45 14.08.2021
6153 Clear 34 1015 37 10000 1.79 207 19:26 14.08.2021
6154 Clear 35 1017 41 10000 0.45 236 17:33 14.08.2021
6155 Clear 35 1018 40 10000 2.57 60 16:38 14.08.2021
6156 Clear 34 1019 39 10000 1.54 0 15:33 14.08.2021
6157 Clear 32 1019 44 10000 0.45 168 12:49 14.08.2021
6158 Clear 30 1020 47 10000 1.79 117 10:55 14.08.2021
6159 Clear 25 1020 65 10000 1.34 329 08:28 14.08.2021
6160 Clear 27 1019 63 10000 1.34 353 23:55 13.08.2021
6161 Clear 27 1019 60 10000 0.89 313 23:26 13.08.2021
6162 Clear 28 1019 58 10000 1.79 253 21:47 13.08.2021
6163 Clear 33 1018 39 10000 0.45 150 18:54 13.08.2021
6164 Clear 34 1019 39 10000 0.45 138 18:35 13.08.2021
6165 Clear 34 1019 40 10000 1.34 227 16:49 13.08.2021
6166 Clear 34 1021 43 10000 1.03 0 15:41 13.08.2021
6167 Clear 30 1021 51 10000 2.68 200 11:21 13.08.2021
6168 Clear 29 1020 53 10000 1.79 186 10:37 13.08.2021
6169 Clear 26 1019 61 10000 1.79 57 08:37 13.08.2021
6170 Clear 24 1019 70 10000 1.79 55 07:48 13.08.2021
6171 Clouds 24 1018 73 10000 0.51 0 04:59 13.08.2021
6172 Clouds 27 1019 62 10000 2.24 305 23:57 12.08.2021
6173 Clouds 27 1019 62 10000 2.68 310 23:57 12.08.2021
6174 Clear 28 1016 57 10000 1.34 222 21:34 12.08.2021
6175 Clear 30 1017 47 10000 2.68 237 20:25 12.08.2021
6176 Clear 32 1017 44 10000 2.24 251 19:48 12.08.2021
6177 Clear 34 1017 36 10000 1.34 199 17:54 12.08.2021
6178 Clear 34 1017 35 10000 0.89 236 16:50 12.08.2021
6179 Clear 33 1017 37 10000 2.24 196 15:33 12.08.2021
6180 Clear 32 1018 41 10000 0.45 129 13:21 12.08.2021
6181 Clear 30 1019 43 10000 0.45 151 11:32 12.08.2021
6182 Clear 23 1019 74 10000 1.03 0 07:59 12.08.2021
6183 Clear 22 1017 73 10000 1.34 15 06:18 12.08.2021
6184 Clear 26 1015 65 10000 0.51 0 22:59 11.08.2021
6185 Clear 28 1015 57 10000 1.34 308 21:34 11.08.2021
6186 Clear 33 1014 35 10000 0.45 256 18:34 11.08.2021
6187 Clear 33 1014 36 10000 0.45 171 17:42 11.08.2021
6188 Clear 32 1017 44 10000 1.03 0 15:21 11.08.2021
6189 Clear 32 1017 45 10000 1.54 0 14:23 11.08.2021
6190 Clear 30 1016 44 10000 1.79 163 12:36 11.08.2021
6191 Clear 29 1017 47 10000 1.34 143 11:47 11.08.2021
6192 Clear 28 1016 52 10000 1.79 119 11:23 11.08.2021
6193 Clear 27 1016 58 10000 0.89 137 10:25 11.08.2021
6194 Clear 23 1017 80 10000 0.51 0 08:32 11.08.2021
6195 Clear 22 1015 68 10000 2.24 12 01:39 11.08.2021
6196 Clear 25 1014 59 10000 2.24 267 22:33 10.08.2021
6197 Clear 25 1016 70 10000 0.51 0 21:38 10.08.2021
6198 Clear 28 1014 46 10000 1.79 205 20:38 10.08.2021
6199 Clear 30 1014 38 10000 2.24 218 18:59 10.08.2021
6200 Clear 31 1015 38 10000 0.45 153 16:49 10.08.2021
6201 Clear 31 1015 39 10000 0.45 173 15:22 10.08.2021
6202 Clear 29 1016 43 10000 0.45 329 13:29 10.08.2021
6203 Clear 27 1017 51 10000 0.89 150 10:47 10.08.2021
6204 Clear 20 1018 88 10000 1.03 10 07:23 10.08.2021
6205 Clear 20 1018 87 10000 0.51 0 04:59 10.08.2021
6206 Clear 22 1018 78 10000 0 0 23:48 09.08.2021
6207 Clear 23 1018 74 10000 0.51 0 22:33 09.08.2021
6208 Clear 24 1017 71 10000 0.51 0 21:37 09.08.2021
6209 Clear 28 1016 50 10000 1.03 200 19:55 09.08.2021
6210 Clear 30 1015 34 10000 3.13 203 17:57 09.08.2021
6211 Clouds 29 1016 37 10000 0.45 144 15:35 09.08.2021
6212 Clouds 29 1016 38 10000 0.45 238 14:25 09.08.2021
6213 Clouds 28 1016 40 10000 0.45 29 13:28 09.08.2021
6214 Clear 27 1016 47 10000 1.34 3 11:47 09.08.2021
6215 Clear 22 1015 67 10000 3.13 162 08:35 09.08.2021
6216 Clouds 20 1013 67 10000 1.79 293 03:37 09.08.2021
6217 Clear 24 1011 69 10000 0.51 270 21:28 08.08.2021
6218 Clouds 28 1011 51 10000 1.54 0 19:51 08.08.2021
6219 Clouds 29 1009 41 10000 2.68 247 16:55 08.08.2021
6220 Clouds 29 1009 45 10000 1.34 317 15:43 08.08.2021
6221 Clouds 27 1011 61 10000 1.03 0 13:53 08.08.2021
6222 Clouds 26 1010 61 10000 1.54 0 11:41 08.08.2021
6223 Clouds 21 1009 87 10000 0.51 0 08:21 08.08.2021
6224 Clouds 20 1009 90 10000 0.51 0 06:40 08.08.2021
6225 Clouds 22 1007 82 10000 0.51 0 00:34 08.08.2021
6226 Clouds 23 1004 61 10000 2.68 224 23:18 07.08.2021
6227 Clouds 25 1004 57 10000 3.58 236 21:41 07.08.2021
6228 Rain 25 1004 56 10000 4.02 225 20:55 07.08.2021
6229 Clouds 27 1004 53 10000 1.79 110 17:46 07.08.2021
6230 Clouds 27 1005 53 10000 2.24 98 16:43 07.08.2021
6231 Clouds 26 1007 54 10000 2.24 110 14:29 07.08.2021
6232 Clouds 26 1007 53 10000 1.34 173 13:32 07.08.2021
6233 Clouds 26 1007 54 10000 0.45 142 13:32 07.08.2021
6234 Clouds 24 1008 63 10000 1.54 40 10:25 07.08.2021
6235 Clouds 20 1007 76 10000 1.34 192 06:31 07.08.2021
6236 Clear 21 1008 75 10000 1.79 315 01:50 07.08.2021
6237 Clear 21 1008 75 10000 1.34 315 01:50 07.08.2021
6238 Clear 24 1006 61 10000 4.47 229 21:38 06.08.2021
6239 Clear 27 1004 52 10000 1.79 222 20:32 06.08.2021
6240 Clear 28 1006 53 10000 2.06 200 19:56 06.08.2021
6241 Clear 29 1006 41 10000 0.89 259 18:31 06.08.2021
6242 Clear 28 1006 48 10000 0.45 314 15:48 06.08.2021
6243 Clear 24 1007 62 10000 0.45 225 10:42 06.08.2021
6244 Clear 23 1007 66 10000 0.89 140 09:56 06.08.2021
6245 Clear 18 1008 90 10000 1.03 180 07:21 06.08.2021
6246 Clear 21 1006 68 10000 0.89 237 23:32 05.08.2021
6247 Clear 23 1003 54 10000 3.13 227 21:32 05.08.2021
6248 Clear 27 1004 39 10000 2.57 260 19:59 05.08.2021
6249 Clear 28 1005 36 10000 2.57 270 18:58 05.08.2021
6250 Clear 29 1004 43 10000 0.89 246 16:24 05.08.2021
6251 Clear 27 1004 53 10000 1.34 3 14:18 05.08.2021
6252 Clear 22 1005 74 10000 1.79 333 10:56 05.08.2021
6253 Clear 19 1006 89 10000 0.89 13 08:32 05.08.2021
6254 Clear 17 1008 95 10000 1.03 0 04:30 05.08.2021
6255 Clouds 19 1010 93 10000 2.06 50 22:48 04.08.2021
6256 Rain 19 1009 90 8000 1.03 0 21:40 04.08.2021
6257 Rain 20 1010 89 8000 1.03 0 21:18 04.08.2021
6258 Rain 20 1010 91 10000 2.67 35 17:24 04.08.2021
6259 Rain 21 1012 87 10000 3.09 90 14:59 04.08.2021
6260 Rain 21 1012 86 10000 3.09 90 14:41 04.08.2021
6261 Rain 21 1012 75 10000 0.89 169 09:30 04.08.2021
6262 Clouds 20 1013 79 10000 2.57 360 22:32 03.08.2021
6263 Clouds 23 1012 62 10000 1.79 34 20:32 03.08.2021
6264 Clouds 25 1012 54 10000 1.34 242 18:58 03.08.2021
6265 Clouds 25 1012 54 10000 1.34 242 18:58 03.08.2021
6266 Clouds 26 1012 53 10000 1.34 270 17:31 03.08.2021
6267 Clouds 25 1013 56 10000 2.24 223 13:58 03.08.2021
6268 Clear 23 1015 65 10000 2.24 111 10:58 03.08.2021
6269 Clear 22 1015 66 10000 1.79 110 10:38 03.08.2021
6270 Clear 22 1013 66 10000 1.79 235 22:59 02.08.2021
6271 Clouds 27 1011 47 10000 0.45 180 16:52 02.08.2021
6272 Clouds 27 1012 51 10000 0.89 226 15:35 02.08.2021
6273 Clouds 24 1012 60 10000 0.45 162 12:41 02.08.2021
6274 Clouds 24 1012 60 10000 0.89 171 12:41 02.08.2021
6275 Clouds 24 1011 57 10000 1.79 102 11:57 02.08.2021
6276 Clouds 23 1012 63 10000 0.45 204 10:58 02.08.2021
6277 Clouds 18 1012 87 10000 1.54 80 07:45 02.08.2021
6278 Clouds 23 1006 66 10000 1.79 6 19:33 01.08.2021
6279 Thunderstorm 21 1006 86 10000 3.09 200 17:46 01.08.2021
6280 Clouds 24 1004 67 10000 0.45 360 11:40 01.08.2021
6281 Clouds 23 1004 74 10000 0.45 276 10:56 01.08.2021
6282 Clouds 23 1004 75 10000 1.79 232 10:56 01.08.2021
6283 Clouds 20 1006 82 10000 1.54 340 03:49 01.08.2021
6284 Clouds 21 1005 73 10000 0.45 328 00:34 01.08.2021
6285 Clouds 21 1006 75 10000 1.79 7 22:36 31.07.2021
6286 Rain 25 1006 60 10000 0.89 7 19:28 31.07.2021
6287 Rain 29 1007 58 10000 2.57 200 16:37 31.07.2021
6288 Clouds 29 1007 55 10000 0.45 143 13:39 31.07.2021
6289 Clouds 26 1008 70 10000 3.13 138 10:28 31.07.2021
6290 Rain 22 1009 91 10000 1.78 238 03:18 31.07.2021
6291 Clouds 25 1007 68 10000 2.24 182 22:25 30.07.2021
6292 Clear 28 1009 59 10000 2.68 312 20:23 30.07.2021
6293 Clouds 28 1012 60 10000 2.57 210 14:19 30.07.2021
6294 Clear 31 1010 41 10000 0.45 217 18:53 29.07.2021
6295 Clouds 21 1013 79 10000 1.03 0 07:41 29.07.2021
6296 Clouds 20 1013 82 10000 1.34 321 04:51 29.07.2021
6297 Clouds 23 1013 71 10000 1.79 24 22:26 28.07.2021
6298 Clouds 27 1011 54 10000 3.58 6 17:47 28.07.2021
6299 Clouds 26 1013 66 10000 2.06 20 16:54 28.07.2021
6300 Clouds 22 1014 78 10000 0.45 185 09:39 28.07.2021
6301 Clouds 22 1014 81 10000 0.45 159 23:45 27.07.2021
6302 Clouds 23 1013 84 10000 2.68 92 21:31 27.07.2021
6303 Clouds 27 1014 65 6000 0.45 150 14:53 27.07.2021
6304 Clouds 26 1015 66 10000 0.45 331 12:58 27.07.2021
6305 Clouds 23 1015 72 10000 3.58 76 10:20 27.07.2021
6306 Clouds 25 1013 74 10000 1.03 270 20:43 26.07.2021
6307 Clouds 26 1013 68 10000 3.09 10 15:32 26.07.2021
6308 Clouds 20 1012 86 10000 1.79 60 08:28 26.07.2021
6309 Thunderstorm 23 1008 70 10000 3.13 35 20:57 25.07.2021
6310 Clouds 23 1008 73 10000 7.72 20 18:45 25.07.2021
6311 Clouds 29 1007 52 10000 0.45 79 16:20 25.07.2021
6312 Clouds 26 1008 71 10000 0.89 215 10:57 25.07.2021
6313 Clouds 24 1008 76 10000 0.89 172 08:20 25.07.2021
6314 Clear 24 1009 63 10000 1.34 96 01:43 25.07.2021
6315 Clouds 29 1009 57 10000 2.68 68 20:19 24.07.2021
6316 Clouds 30 1011 54 10000 3.09 160 15:49 24.07.2021
6317 Clouds 25 1013 75 10000 3.09 110 04:20 24.07.2021
6318 Clear 30 1013 51 10000 1.79 240 14:40 23.07.2021
6319 Clear 29 1013 48 10000 0.45 182 12:42 23.07.2021
6320 Clouds 22 1016 79 10000 1.54 50 07:25 23.07.2021
6321 Clear 30 1014 54 10000 2.68 118 20:33 22.07.2021
6322 Clouds 28 1018 48 10000 1.34 92 11:28 22.07.2021
6323 Clouds 25 1018 58 10000 0.45 216 09:23 22.07.2021
6324 Clear 23 1017 76 10000 2.06 80 03:42 22.07.2021
6325 Clear 28 1016 58 10000 1.34 243 21:46 21.07.2021
6326 Clear 29 1016 56 10000 1.34 226 21:28 21.07.2021
6327 Clear 32 1017 47 10000 2.06 0 14:42 21.07.2021
6328 Clear 27 1017 53 10000 0.45 231 09:49 21.07.2021
6329 Clear 24 1016 58 10000 2.68 94 07:59 21.07.2021
6330 Clear 26 1014 47 10000 2.68 231 23:46 20.07.2021
6331 Clear 33 1013 44 10000 0.89 29 17:22 20.07.2021
6332 Clear 33 1013 44 10000 0.89 223 16:25 20.07.2021
6333 Clear 32 1012 45 10000 0.89 248 15:25 20.07.2021
6334 Clear 28 1013 47 10000 4.02 107 10:22 20.07.2021
6335 Clear 22 1012 76 10000 1.03 50 04:48 20.07.2021
6336 Clear 27 1012 48 10000 1.34 47 22:25 19.07.2021
6337 Clear 31 1012 44 10000 0.45 205 12:53 19.07.2021
6338 Clouds 28 1012 45 10000 1.79 294 10:29 19.07.2021
6339 Clouds 30 1009 42 10000 2.24 122 19:38 18.07.2021
6340 Clear 31 1009 43 10000 1.34 131 13:49 18.07.2021
6341 Clouds 26 1009 58 10000 1.79 242 10:18 18.07.2021
6342 Clear 25 1011 66 10000 2.68 92 22:25 17.07.2021
6343 Clear 26 1010 61 10000 2.24 81 21:45 17.07.2021
6344 Clouds 27 1010 57 10000 1.79 76 21:23 17.07.2021
6345 Clouds 28 1012 57 10000 0.45 352 12:27 17.07.2021
6346 Clear 22 1012 76 10000 0.45 244 08:55 17.07.2021
6347 Clouds 20 1014 74 10000 2.24 297 02:46 17.07.2021
6348 Clouds 26 1012 50 10000 1.34 249 13:22 16.07.2021
6349 Clear 19 1014 83 10000 0.51 0 07:32 16.07.2021
6350 Clouds 20 1013 76 10000 1.34 258 00:36 16.07.2021
6351 Clouds 24 1013 55 10000 2.68 261 13:53 15.07.2021
6352 Clouds 23 1013 58 10000 3.13 298 11:50 15.07.2021
6353 Clouds 18 1013 77 10000 0.89 24 07:25 15.07.2021
6354 Clear 24 1010 45 10000 3.13 36 19:27 14.07.2021
6355 Rain 23 1012 88 10000 1.54 40 15:55 14.07.2021
6356 Rain 23 1012 88 10000 1.54 40 15:55 14.07.2021
6357 Clouds 17 1009 78 10000 1.34 359 07:48 14.07.2021
6358 Clear 19 1007 69 10000 2.06 360 21:44 13.07.2021
6359 Clouds 22 1004 53 10000 1.34 359 19:55 13.07.2021
6360 Clouds 24 1004 42 10000 1.34 262 19:27 13.07.2021
6361 Clouds 26 1004 46 10000 1.34 106 18:45 13.07.2021
6362 Clouds 26 1004 52 10000 0.89 227 18:27 13.07.2021
6363 Clouds 27 1004 56 10000 1.79 134 17:56 13.07.2021
6364 Clouds 24 1007 74 10000 8.23 140 12:52 13.07.2021
6365 Clouds 24 1005 69 10000 1.79 170 08:49 13.07.2021
6366 Clouds 29 1010 51 10000 1.34 174 20:00 12.07.2021
6367 Clouds 30 1012 52 10000 3.09 130 16:45 12.07.2021
6368 Clouds 30 1012 52 10000 3.09 130 16:45 12.07.2021
6369 Clear 26 1012 57 10000 0.45 142 09:59 12.07.2021
6370 Clear 25 1010 45 10000 1.79 309 21:59 11.07.2021
6371 Clear 30 1011 36 10000 3.13 272 19:48 11.07.2021
6372 Clear 19 1012 75 10000 1.79 218 04:42 11.07.2021
6373 Clear 25 1011 51 10000 0.89 196 21:46 10.07.2021
6374 Clear 26 1015 48 10000 1.79 154 10:43 10.07.2021
6375 Clear 19 1016 72 10000 2.24 111 07:24 10.07.2021
6376 Clear 23 1015 51 10000 0.89 2 22:36 09.07.2021
6377 Clear 30 1015 36 10000 0.89 241 18:19 09.07.2021
6378 Clear 29 1016 45 10000 1.34 3 14:47 09.07.2021
6379 Clouds 16 1016 86 10000 2.24 272 03:58 09.07.2021
6380 Clouds 17 1018 92 10000 0.45 7 23:48 08.07.2021
6381 Rain 18 1015 88 10000 0.89 250 21:39 08.07.2021
6382 Rain 20 1013 84 8000 2.24 308 18:55 08.07.2021
6383 Clouds 29 1014 52 10000 0.89 344 13:59 08.07.2021
6384 Clouds 28 1014 53 10000 0.45 186 13:31 08.07.2021
6385 Clouds 28 1015 57 10000 0.89 86 12:38 08.07.2021
6386 Clouds 26 1016 65 10000 1.34 117 11:27 08.07.2021
6387 Clouds 22 1015 82 10000 1.34 136 07:45 08.07.2021
6388 Clear 21 1015 80 10000 0.51 0 04:41 08.07.2021
6389 Clear 22 1015 73 10000 0.89 320 23:45 07.07.2021
6390 Clouds 23 1014 74 10000 1.79 15 22:20 07.07.2021
6391 Clouds 23 1014 71 10000 2.24 11 21:46 07.07.2021
6392 Clouds 24 1014 66 10000 0.45 345 21:26 07.07.2021
6393 Clouds 25 1014 65 8000 5.14 330 20:21 07.07.2021
6394 Clouds 29 1013 53 10000 1.03 0 19:30 07.07.2021
6395 Clouds 29 1012 47 10000 0.89 301 18:58 07.07.2021
6396 Clouds 31 1013 41 10000 0.89 2 16:30 07.07.2021
6397 Clouds 31 1013 40 10000 0.89 279 15:24 07.07.2021
6398 Clear 29 1012 50 10000 1.34 131 11:52 07.07.2021
6399 Clear 23 1013 81 10000 1.03 0 07:33 07.07.2021
6400 Clouds 21 1012 86 10000 1.03 20 05:53 07.07.2021
6401 Clear 22 1012 76 10000 1.54 40 02:58 07.07.2021
6402 Clouds 28 1010 48 10000 2.68 146 20:54 06.07.2021
6403 Clouds 30 1011 48 10000 0.89 163 19:18 06.07.2021
6404 Clouds 29 1011 47 10000 0.89 163 19:18 06.07.2021
6405 Clouds 30 1011 47 10000 0.45 140 18:43 06.07.2021
6406 Clouds 30 1011 44 10000 0.45 133 17:43 06.07.2021
6407 Clear 30 1011 40 10000 0.89 165 13:35 06.07.2021
6408 Clear 26 1013 48 10000 1.34 154 09:44 06.07.2021
6409 Clear 24 1013 55 10000 1.79 115 08:37 06.07.2021
6410 Clear 22 1015 73 10000 1.03 0 07:39 06.07.2021
6411 Clear 21 1012 65 10000 1.79 63 02:29 06.07.2021
6412 Clear 22 1013 77 10000 0 0 23:57 05.07.2021
6413 Clear 22 1013 77 10000 0 0 23:57 05.07.2021
6414 Clear 24 1011 63 10000 2.06 150 21:58 05.07.2021
6415 Clear 30 1010 37 10000 1.34 133 17:21 05.07.2021
6416 Clear 26 1010 51 10000 1.79 23 13:30 05.07.2021
6417 Clouds 16 1011 93 10000 1.03 340 05:59 05.07.2021
6418 Clouds 16 1010 94 10000 1.03 340 05:40 05.07.2021
6419 Clouds 18 1011 93 10000 1.54 270 00:32 05.07.2021
6420 Clear 20 1009 79 10000 2.24 330 21:18 04.07.2021
6421 Clouds 20 1009 85 10000 1.79 47 17:35 04.07.2021
6422 Clouds 21 1011 86 3500 3.58 162 14:40 04.07.2021
6423 Clouds 23 1011 70 10000 0.45 231 10:47 04.07.2021
6424 Mist 21 1012 90 4000 1.03 0 07:24 04.07.2021
6425 Clouds 23 1012 75 10000 0.45 225 23:26 03.07.2021
6426 Rain 27 1011 48 10000 2.24 285 19:46 03.07.2021
6427 Clouds 28 1015 51 10000 2.68 174 12:43 03.07.2021
6428 Clouds 26 1015 53 10000 2.24 138 11:29 03.07.2021
6429 Clouds 25 1015 56 10000 2.68 120 09:27 03.07.2021
6430 Clouds 24 1015 60 10000 0.45 165 08:45 03.07.2021
6431 Clouds 25 1013 45 10000 1.34 5 22:21 02.07.2021
6432 Clouds 23 1015 59 10000 1.34 131 08:58 02.07.2021
6433 Clear 21 1013 62 10000 1.34 122 07:28 02.07.2021
6434 Clear 22 1011 50 10000 1.34 353 02:25 02.07.2021
6435 Clear 25 1010 42 10000 0.89 271 22:30 01.07.2021
6436 Clear 27 1009 36 10000 2.68 247 21:35 01.07.2021
6437 Clear 27 1009 36 10000 2.68 247 21:35 01.07.2021
6438 Clear 30 1010 30 10000 0.89 250 19:40 01.07.2021
6439 Clear 30 1010 30 10000 0.45 254 19:20 01.07.2021
6440 Clear 30 1010 30 10000 0.45 254 19:20 01.07.2021
6441 Clear 31 1010 30 10000 1.34 19 18:47 01.07.2021
6442 Clouds 31 1010 30 10000 0.89 242 17:33 01.07.2021
6443 Clouds 30 1010 30 10000 0.89 324 16:24 01.07.2021
6444 Clouds 30 1011 35 10000 1.34 229 15:22 01.07.2021
6445 Clear 28 1010 38 10000 0.89 169 12:31 01.07.2021
6446 Clear 24 1011 62 10000 1.79 276 09:40 01.07.2021
6447 Clear 19 1011 69 10000 3.58 237 03:18 01.07.2021
6448 Clear 22 1010 57 10000 1.79 267 23:18 30.06.2021
6449 Clear 23 1008 53 10000 4.02 232 21:58 30.06.2021
6450 Clouds 25 1009 46 10000 0.45 179 21:19 30.06.2021
6451 Clouds 27 1007 47 10000 1.79 217 20:21 30.06.2021
6452 Clouds 29 1008 38 10000 0.89 211 16:45 30.06.2021
6453 Clouds 27 1008 52 10000 0.89 174 13:26 30.06.2021
6454 Clouds 24 1009 63 10000 0.89 142 10:43 30.06.2021
6455 Clear 22 1008 62 10000 1.34 305 00:53 30.06.2021
6456 Clouds 25 1009 48 10000 2.24 221 20:23 29.06.2021
6457 Clear 30 1008 39 10000 1.34 135 17:47 29.06.2021
6458 Clouds 30 1009 43 10000 0.89 335 17:28 29.06.2021
6459 Clouds 30 1010 43 10000 0.89 255 15:51 29.06.2021
6460 Clouds 30 1010 43 10000 1.34 238 15:51 29.06.2021
6461 Clouds 30 1010 43 10000 0.89 255 15:51 29.06.2021
6462 Clouds 30 1010 43 10000 1.34 238 15:51 29.06.2021
6463 Clouds 30 1009 39 10000 0.45 230 14:55 29.06.2021
6464 Clear 30 1009 38 10000 1.34 234 13:24 29.06.2021
6465 Clouds 21 1012 74 10000 0.51 0 04:38 29.06.2021
6466 Clouds 25 1011 56 10000 1.79 78 23:26 28.06.2021
6467 Rain 30 1010 31 10000 2.68 95 20:59 28.06.2021
6468 Clouds 32 1011 33 10000 0.45 185 18:42 28.06.2021
6469 Clear 33 1013 34 10000 0.45 150 16:58 28.06.2021
6470 Clear 32 1013 34 10000 1.34 159 14:31 28.06.2021
6471 Clear 30 1014 39 10000 0.45 136 11:57 28.06.2021
6472 Clear 24 1015 69 10000 1.03 0 23:47 27.06.2021
6473 Clear 26 1013 50 10000 1.79 320 22:31 27.06.2021
6474 Clear 30 1013 37 10000 2.68 155 19:44 27.06.2021
6475 Clouds 31 1014 37 10000 2.24 121 18:19 27.06.2021
6476 Clouds 31 1014 37 10000 2.68 117 15:39 27.06.2021
6477 Clear 28 1015 44 10000 2.24 78 11:21 27.06.2021
6478 Clear 22 1014 70 10000 1.03 360 00:42 27.06.2021
6479 Clear 25 1013 50 10000 2.24 305 21:53 26.06.2021
6480 Clear 28 1014 42 10000 1.54 240 20:49 26.06.2021
6481 Clouds 29 1013 37 10000 0.89 262 19:48 26.06.2021
6482 Clouds 30 1014 38 10000 1.34 243 15:40 26.06.2021
6483 Clear 29 1014 40 10000 2.24 221 13:57 26.06.2021
6484 Clear 27 1016 46 10000 1.34 293 11:33 26.06.2021
6485 Clear 18 1015 73 10000 1.34 245 06:24 26.06.2021
6486 Clear 23 1013 51 10000 3.58 220 22:24 25.06.2021
6487 Clouds 28 1012 37 10000 0.89 356 20:35 25.06.2021
6488 Clouds 29 1012 33 10000 0.89 356 18:48 25.06.2021
6489 Clouds 29 1012 33 10000 0.89 239 17:30 25.06.2021
6490 Clear 29 1013 36 10000 0.89 245 16:21 25.06.2021
6491 Clear 27 1013 40 10000 0.45 14 13:42 25.06.2021
6492 Clear 23 1015 53 10000 0.89 234 10:22 25.06.2021
6493 Clear 18 1015 71 10000 2.68 301 07:23 25.06.2021
6494 Clear 17 1015 76 10000 2.24 267 05:55 25.06.2021
6495 Clear 19 1016 64 10000 0.45 348 00:23 25.06.2021
6496 Clouds 21 1015 60 10000 0.45 2 21:48 24.06.2021
6497 Rain 22 1015 52 10000 2.68 302 20:42 24.06.2021
6498 Rain 23 1015 46 10000 1.79 358 19:47 24.06.2021
6499 Clouds 28 1013 34 10000 0.89 245 18:20 24.06.2021
6500 Clouds 29 1014 39 10000 0.45 143 15:23 24.06.2021
6501 Clouds 29 1014 35 10000 1.79 143 14:52 24.06.2021
6502 Clear 29 1016 41 10000 0.89 245 13:18 24.06.2021
6503 Clear 25 1016 56 10000 0.45 134 09:51 24.06.2021
6504 Clear 22 1015 64 10000 0.45 165 08:28 24.06.2021
6505 Clear 19 1015 77 10000 0.45 338 06:52 24.06.2021
6506 Clear 21 1014 63 10000 1.34 335 23:57 23.06.2021
6507 Clear 23 1014 58 10000 1.34 34 22:25 23.06.2021
6508 Clear 25 1015 53 10000 2.57 100 21:20 23.06.2021
6509 Clear 26 1013 48 10000 0.89 179 19:55 23.06.2021
6510 Clouds 26 1013 46 10000 0.45 169 18:29 23.06.2021
6511 Rain 27 1015 48 10000 0.45 179 16:52 23.06.2021
6512 Clouds 29 1013 43 10000 3.13 157 14:31 23.06.2021
6513 Clear 28 1013 51 10000 2.24 181 12:38 23.06.2021
6514 Clear 27 1013 55 10000 0.45 235 11:22 23.06.2021
6515 Clear 24 1014 64 10000 0.45 237 09:26 23.06.2021
6516 Clear 23 1014 68 10000 0.51 0 08:38 23.06.2021
6517 Clear 21 1014 74 10000 1.79 195 07:48 23.06.2021
6518 Clear 19 1012 78 10000 1.34 234 05:33 23.06.2021
6519 Clear 21 1013 73 10000 1.34 278 01:50 23.06.2021
6520 Clear 22 1012 69 10000 2.24 298 23:58 22.06.2021
6521 Clear 22 1012 66 10000 2.24 297 23:32 22.06.2021
6522 Clouds 22 1012 65 10000 1.79 330 22:32 22.06.2021
6523 Clouds 23 1011 61 10000 2.24 319 21:39 22.06.2021
6524 Rain 26 1011 47 10000 0.45 357 20:27 22.06.2021
6525 Clouds 28 1010 43 10000 0.45 248 18:59 22.06.2021
6526 Clouds 29 1010 40 10000 2.24 192 18:28 22.06.2021
6527 Clouds 30 1009 37 10000 0.89 132 17:27 22.06.2021
6528 Clouds 30 1009 38 10000 1.34 202 16:39 22.06.2021
6529 Clouds 29 1010 41 10000 0.45 338 14:54 22.06.2021
6530 Clouds 29 1010 43 10000 0.89 137 14:25 22.06.2021
6531 Clouds 28 1011 46 10000 0.45 254 13:18 22.06.2021
6532 Clouds 26 1011 50 10000 0.45 133 11:53 22.06.2021
6533 Clear 25 1010 53 10000 0.45 143 10:31 22.06.2021
6534 Clouds 22 1010 65 10000 0.45 222 07:56 22.06.2021
6535 Clear 22 1008 62 10000 0.45 212 00:50 22.06.2021
6536 Clear 23 1008 59 10000 2.24 256 23:32 21.06.2021
6537 Clouds 24 1007 60 10000 3.58 249 22:29 21.06.2021
6538 Clouds 25 1008 54 10000 1.34 234 21:28 21.06.2021
6539 Clouds 25 1005 50 10000 6.26 233 20:46 21.06.2021
6540 Clear 27 1006 46 10000 0.89 223 19:55 21.06.2021
6541 Clouds 29 1006 41 10000 0.45 173 18:58 21.06.2021
6542 Clouds 30 1007 39 10000 0.89 277 17:36 21.06.2021
6543 Clouds 30 1007 41 10000 0.89 138 16:46 21.06.2021
6544 Clouds 30 1007 41 10000 1.79 250 16:25 21.06.2021
6545 Clouds 30 1008 42 10000 0.89 233 15:45 21.06.2021
6546 Clouds 30 1007 43 10000 0.89 220 14:18 21.06.2021
6547 Clouds 29 1008 47 10000 0.45 171 13:34 21.06.2021
6548 Clouds 27 1009 44 10000 1.79 182 12:36 21.06.2021
6549 Clouds 27 1009 45 10000 3.58 238 11:52 21.06.2021
6550 Clouds 26 1010 54 10000 3.09 250 10:30 21.06.2021
6551 Clouds 25 1010 57 10000 1.03 0 09:29 21.06.2021
6552 Clouds 23 1009 69 10000 2.06 40 08:22 21.06.2021
6553 Clouds 22 1009 82 10000 0.51 0 07:20 21.06.2021
6554 Clouds 22 1008 75 10000 1.79 294 00:42 21.06.2021
6555 Clouds 22 1008 75 10000 1.34 350 23:35 20.06.2021
6556 Clouds 23 1008 73 10000 0.45 356 22:58 20.06.2021
6557 Clouds 23 1008 69 10000 0.45 270 21:58 20.06.2021
6558 Rain 24 1008 65 10000 1.79 327 21:26 20.06.2021
6559 Clear 25 1008 59 10000 2.24 30 19:41 20.06.2021
6560 Clear 28 1009 63 10000 4.12 10 19:22 20.06.2021
6561 Clouds 28 1011 60 10000 1.54 320 17:50 20.06.2021
6562 Rain 29 1011 46 10000 2.68 233 16:51 20.06.2021
6563 Clouds 30 1010 41 10000 0.89 233 15:50 20.06.2021
6564 Clouds 30 1010 41 10000 2.68 127 15:31 20.06.2021
6565 Clouds 30 1010 41 10000 3.13 185 14:46 20.06.2021
6566 Clouds 29 1009 41 10000 1.79 129 13:40 20.06.2021
6567 Clouds 28 1011 48 10000 2.24 243 12:49 20.06.2021
6568 Clouds 27 1012 49 10000 2.24 217 11:46 20.06.2021
6569 Clouds 25 1012 56 10000 0.45 174 10:28 20.06.2021
6570 Clouds 24 1012 60 10000 1.34 168 09:44 20.06.2021
6571 Clouds 22 1013 64 10000 1.34 290 06:57 20.06.2021
6572 Clouds 24 1014 51 10000 1.79 245 23:38 19.06.2021
6573 Clear 25 1014 48 10000 0.45 323 22:59 19.06.2021
6574 Clear 26 1014 47 10000 3.13 255 21:51 19.06.2021
6575 Clear 26 1013 48 10000 0.45 222 21:22 19.06.2021
6576 Clear 30 1013 39 10000 1.79 266 18:55 19.06.2021
6577 Clear 30 1013 38 10000 4.02 264 18:22 19.06.2021
6578 Clouds 30 1015 42 10000 4.47 208 17:26 19.06.2021
6579 Clouds 30 1015 40 10000 2.68 247 16:40 19.06.2021
6580 Clear 30 1015 40 10000 3.13 265 15:25 19.06.2021
6581 Clouds 29 1015 39 10000 2.68 268 12:52 19.06.2021
6582 Clouds 28 1015 41 10000 1.79 266 11:54 19.06.2021
6583 Clouds 26 1016 46 10000 1.79 288 10:46 19.06.2021
6584 Clouds 26 1016 46 10000 2.24 279 10:25 19.06.2021
6585 Clouds 26 1016 47 10000 1.34 254 09:48 19.06.2021
6586 Clear 23 1016 56 10000 0.89 191 07:49 19.06.2021
6587 Clear 21 1015 55 10000 1.03 260 06:29 19.06.2021
6588 Clear 21 1015 58 10000 0.89 297 06:29 19.06.2021
6589 Clear 23 1016 47 10000 2.24 255 02:22 19.06.2021
6590 Clear 24 1015 46 10000 2.24 293 00:19 19.06.2021
6591 Clear 25 1015 42 10000 3.58 238 23:33 18.06.2021
6592 Clear 25 1014 41 10000 3.13 248 22:53 18.06.2021
6593 Clear 26 1014 36 10000 3.13 244 22:25 18.06.2021
6594 Clear 27 1016 48 10000 2.06 250 21:43 18.06.2021
6595 Clear 28 1016 39 10000 2.06 260 21:21 18.06.2021
6596 Clear 30 1014 35 10000 0.45 3 20:18 18.06.2021
6597 Clear 31 1015 34 10000 0.89 24 18:27 18.06.2021
6598 Clear 32 1015 33 10000 0.45 354 17:39 18.06.2021
6599 Clear 32 1015 34 10000 1.34 222 16:30 18.06.2021
6600 Clear 31 1016 36 10000 0.45 215 15:45 18.06.2021
6601 Clear 31 1015 36 10000 0.89 337 14:32 18.06.2021
6602 Clear 31 1015 37 10000 1.34 286 13:41 18.06.2021
6603 Clear 30 1015 37 10000 1.34 225 12:45 18.06.2021
6604 Clear 30 1015 37 10000 0.45 2 12:45 18.06.2021
6605 Clear 29 1016 37 10000 1.79 316 12:27 18.06.2021
6606 Clear 28 1016 38 10000 0.89 351 11:28 18.06.2021
6607 Clear 28 1017 42 10000 1.79 320 10:52 18.06.2021
6608 Clear 27 1017 45 10000 1.79 304 10:23 18.06.2021
6609 Clear 27 1017 49 10000 0.45 280 09:45 18.06.2021
6610 Clouds 25 1017 53 10000 0.45 98 08:49 18.06.2021
6611 Clouds 25 1017 67 10000 0.51 0 08:23 18.06.2021
6612 Clouds 23 1017 78 10000 0.51 0 07:24 18.06.2021
6613 Clear 23 1016 65 10000 1.03 0 01:48 18.06.2021
6614 Clear 24 1016 70 10000 2.06 260 23:58 17.06.2021
6615 Clear 25 1015 76 10000 0.51 0 22:55 17.06.2021
6616 Clear 26 1014 55 10000 2.24 251 22:25 17.06.2021
6617 Clear 27 1012 50 10000 0.89 212 21:49 17.06.2021
6618 Clear 29 1013 47 10000 0.89 224 20:58 17.06.2021
6619 Clouds 29 1014 48 10000 1.79 228 20:28 17.06.2021
6620 Clouds 30 1013 44 10000 3.58 247 19:51 17.06.2021
6621 Clouds 31 1013 44 10000 0.45 238 18:48 17.06.2021
6622 Clouds 31 1014 43 10000 2.68 221 17:48 17.06.2021
6623 Clouds 31 1014 44 10000 0.45 161 17:20 17.06.2021
6624 Clouds 31 1015 44 10000 0.45 208 16:27 17.06.2021
6625 Clouds 31 1015 45 10000 0.45 223 15:39 17.06.2021
6626 Clear 30 1015 47 10000 0.45 142 14:24 17.06.2021
6627 Clear 29 1016 50 10000 0.45 151 12:54 17.06.2021
6628 Clear 29 1016 50 10000 1.34 157 12:30 17.06.2021
6629 Clear 27 1016 54 10000 0.45 146 10:57 17.06.2021
6630 Clear 27 1017 54 10000 0.45 172 10:38 17.06.2021
6631 Clear 26 1017 58 10000 2.24 107 09:58 17.06.2021
6632 Clear 26 1016 59 10000 0.45 54 09:36 17.06.2021
6633 Clear 24 1017 65 10000 0.89 49 08:23 17.06.2021
6634 Clear 23 1017 77 10000 2.06 30 07:36 17.06.2021
6635 Clear 22 1016 77 10000 1.03 0 04:31 17.06.2021
6636 Clear 24 1013 59 10000 2.68 57 00:18 17.06.2021
6637 Clear 24 1013 59 10000 2.68 57 00:18 17.06.2021
6638 Clear 24 1015 60 10000 1.79 67 23:36 16.06.2021
6639 Clear 25 1015 59 10000 1.34 103 22:43 16.06.2021
6640 Clear 26 1014 55 10000 2.68 110 21:49 16.06.2021
6641 Clear 27 1014 54 10000 3.58 118 21:28 16.06.2021
6642 Clouds 27 1013 50 10000 4.92 114 20:57 16.06.2021
6643 Clear 28 1014 51 10000 0.45 150 20:22 16.06.2021
6644 Clear 28 1013 47 10000 2.68 130 19:46 16.06.2021
6645 Clear 29 1014 47 10000 0.45 177 19:20 16.06.2021
6646 Clear 29 1015 51 10000 0.45 168 18:44 16.06.2021
6647 Clear 29 1015 51 10000 1.34 181 18:44 16.06.2021
6648 Clear 30 1015 49 10000 2.57 140 17:56 16.06.2021
6649 Clear 30 1015 50 10000 0.45 160 17:27 16.06.2021
6650 Clear 30 1015 48 10000 0.45 132 16:45 16.06.2021
6651 Clear 30 1015 48 10000 0.45 132 16:45 16.06.2021
6652 Clear 30 1016 50 10000 2.57 110 16:23 16.06.2021
6653 Clouds 29 1016 48 10000 0.89 170 15:43 16.06.2021
6654 Clouds 29 1016 50 10000 0.45 233 14:59 16.06.2021
6655 Clouds 29 1016 50 10000 2.57 60 14:40 16.06.2021
6656 Clouds 29 1016 51 10000 0.89 213 14:22 16.06.2021
6657 Clouds 28 1017 53 10000 0.89 154 13:43 16.06.2021
6658 Clouds 28 1017 53 10000 0.89 166 13:21 16.06.2021
6659 Clouds 26 1017 57 10000 2.57 120 12:34 16.06.2021
6660 Clouds 26 1017 59 10000 0.45 153 11:54 16.06.2021
6661 Clouds 25 1017 60 10000 0.45 175 11:19 16.06.2021
6662 Clouds 24 1017 61 10000 3.09 120 10:40 16.06.2021
6663 Clouds 24 1017 62 10000 3.09 110 09:46 16.06.2021
6664 Clouds 23 1017 65 10000 3.09 110 08:48 16.06.2021
6665 Clouds 22 1017 69 10000 2.06 130 07:50 16.06.2021
6666 Clear 21 1016 73 10000 1.54 190 07:30 16.06.2021
6667 Clear 22 1016 71 10000 2.06 90 02:50 16.06.2021
6668 Clear 23 1016 71 10000 0.51 0 23:52 15.06.2021
6669 Clear 24 1016 66 10000 1.03 210 23:25 15.06.2021
6670 Clear 24 1016 61 10000 1.03 180 22:56 15.06.2021
6671 Clear 25 1016 60 10000 1.03 0 22:37 15.06.2021
6672 Clear 25 1016 53 10000 1.54 180 21:45 15.06.2021
6673 Clear